<?xml version="1.0" encoding="UTF-8" standalone="no" ?>
<gpx xmlns="http://www.topografix.com/GPX/1/1" xmlns:xsi="http://www.w3.org/2001/XMLSchema-instance" xsi:schemaLocation="http://www.topografix.com/GPX/1/1 http://www.topografix.com/GPX/1/1/gpx.xsd" version="1.1" creator="VisuGPX - https://www.visugpx.com">
  <metadata>
    <name>Course à pied dans l'après-midi</name>
  </metadata>
  <trk>
    <name><![CDATA[Course à pied dans l'après-midi_1]]></name>
    <trkseg>
      <trkpt lat="43.64765" lon="1.37618">
        <ele>152</ele>
        <time>2025-06-04T15:09:12Z</time>
      </trkpt>
      <trkpt lat="43.64766" lon="1.37616">
        <ele>152</ele>
        <time>2025-06-04T15:09:13Z</time>
      </trkpt>
      <trkpt lat="43.64766" lon="1.37616">
        <ele>152</ele>
        <time>2025-06-04T15:09:14Z</time>
      </trkpt>
      <trkpt lat="43.6477" lon="1.37613">
        <ele>152</ele>
        <time>2025-06-04T15:09:15Z</time>
      </trkpt>
      <trkpt lat="43.64773" lon="1.37612">
        <ele>152</ele>
        <time>2025-06-04T15:09:16Z</time>
      </trkpt>
      <trkpt lat="43.64775" lon="1.37611">
        <ele>152</ele>
        <time>2025-06-04T15:09:17Z</time>
      </trkpt>
      <trkpt lat="43.64777" lon="1.3761">
        <ele>152</ele>
        <time>2025-06-04T15:09:18Z</time>
      </trkpt>
      <trkpt lat="43.64779" lon="1.37609">
        <ele>152</ele>
        <time>2025-06-04T15:09:19Z</time>
      </trkpt>
      <trkpt lat="43.64781" lon="1.37607">
        <ele>152</ele>
        <time>2025-06-04T15:09:20Z</time>
      </trkpt>
      <trkpt lat="43.64783" lon="1.37606">
        <ele>152</ele>
        <time>2025-06-04T15:09:21Z</time>
      </trkpt>
      <trkpt lat="43.64786" lon="1.37605">
        <ele>152</ele>
        <time>2025-06-04T15:09:22Z</time>
      </trkpt>
      <trkpt lat="43.64788" lon="1.37604">
        <ele>152</ele>
        <time>2025-06-04T15:09:23Z</time>
      </trkpt>
      <trkpt lat="43.6479" lon="1.37603">
        <ele>152</ele>
        <time>2025-06-04T15:09:24Z</time>
      </trkpt>
      <trkpt lat="43.64792" lon="1.37602">
        <ele>152</ele>
        <time>2025-06-04T15:09:25Z</time>
      </trkpt>
      <trkpt lat="43.64795" lon="1.37601">
        <ele>152</ele>
        <time>2025-06-04T15:09:26Z</time>
      </trkpt>
      <trkpt lat="43.64797" lon="1.376">
        <ele>152</ele>
        <time>2025-06-04T15:09:27Z</time>
      </trkpt>
      <trkpt lat="43.64799" lon="1.376">
        <ele>152</ele>
        <time>2025-06-04T15:09:28Z</time>
      </trkpt>
      <trkpt lat="43.64801" lon="1.376">
        <ele>152</ele>
        <time>2025-06-04T15:09:29Z</time>
      </trkpt>
      <trkpt lat="43.64803" lon="1.37599">
        <ele>152</ele>
        <time>2025-06-04T15:09:30Z</time>
      </trkpt>
      <trkpt lat="43.64805" lon="1.37599">
        <ele>152</ele>
        <time>2025-06-04T15:09:31Z</time>
      </trkpt>
      <trkpt lat="43.64807" lon="1.37599">
        <ele>152</ele>
        <time>2025-06-04T15:09:32Z</time>
      </trkpt>
      <trkpt lat="43.64809" lon="1.37599">
        <ele>152</ele>
        <time>2025-06-04T15:09:33Z</time>
      </trkpt>
      <trkpt lat="43.64811" lon="1.37599">
        <ele>152</ele>
        <time>2025-06-04T15:09:34Z</time>
      </trkpt>
      <trkpt lat="43.64811" lon="1.37599">
        <ele>152</ele>
        <time>2025-06-04T15:09:35Z</time>
      </trkpt>
      <trkpt lat="43.64815" lon="1.37599">
        <ele>152</ele>
        <time>2025-06-04T15:09:36Z</time>
      </trkpt>
      <trkpt lat="43.64815" lon="1.37599">
        <ele>152</ele>
        <time>2025-06-04T15:09:37Z</time>
      </trkpt>
      <trkpt lat="43.64818" lon="1.376">
        <ele>152</ele>
        <time>2025-06-04T15:09:38Z</time>
      </trkpt>
      <trkpt lat="43.64819" lon="1.37603">
        <ele>152</ele>
        <time>2025-06-04T15:09:39Z</time>
      </trkpt>
      <trkpt lat="43.64821" lon="1.37605">
        <ele>152</ele>
        <time>2025-06-04T15:09:40Z</time>
      </trkpt>
      <trkpt lat="43.64823" lon="1.37607">
        <ele>152</ele>
        <time>2025-06-04T15:09:41Z</time>
      </trkpt>
      <trkpt lat="43.64825" lon="1.37609">
        <ele>152</ele>
        <time>2025-06-04T15:09:42Z</time>
      </trkpt>
      <trkpt lat="43.64827" lon="1.3761">
        <ele>152</ele>
        <time>2025-06-04T15:09:43Z</time>
      </trkpt>
      <trkpt lat="43.64829" lon="1.37612">
        <ele>152</ele>
        <time>2025-06-04T15:09:44Z</time>
      </trkpt>
      <trkpt lat="43.64832" lon="1.37614">
        <ele>152</ele>
        <time>2025-06-04T15:09:45Z</time>
      </trkpt>
      <trkpt lat="43.64834" lon="1.37616">
        <ele>151</ele>
        <time>2025-06-04T15:09:46Z</time>
      </trkpt>
      <trkpt lat="43.64837" lon="1.37617">
        <ele>151</ele>
        <time>2025-06-04T15:09:47Z</time>
      </trkpt>
      <trkpt lat="43.6484" lon="1.37619">
        <ele>151</ele>
        <time>2025-06-04T15:09:48Z</time>
      </trkpt>
      <trkpt lat="43.64843" lon="1.37622">
        <ele>151</ele>
        <time>2025-06-04T15:09:49Z</time>
      </trkpt>
      <trkpt lat="43.64845" lon="1.37624">
        <ele>151</ele>
        <time>2025-06-04T15:09:50Z</time>
      </trkpt>
      <trkpt lat="43.64848" lon="1.37627">
        <ele>151</ele>
        <time>2025-06-04T15:09:51Z</time>
      </trkpt>
      <trkpt lat="43.6485" lon="1.37629">
        <ele>151</ele>
        <time>2025-06-04T15:09:52Z</time>
      </trkpt>
      <trkpt lat="43.64853" lon="1.37632">
        <ele>151</ele>
        <time>2025-06-04T15:09:53Z</time>
      </trkpt>
      <trkpt lat="43.64856" lon="1.37634">
        <ele>152</ele>
        <time>2025-06-04T15:09:54Z</time>
      </trkpt>
      <trkpt lat="43.64859" lon="1.37637">
        <ele>152</ele>
        <time>2025-06-04T15:09:55Z</time>
      </trkpt>
      <trkpt lat="43.64861" lon="1.3764">
        <ele>151</ele>
        <time>2025-06-04T15:09:56Z</time>
      </trkpt>
      <trkpt lat="43.64864" lon="1.37643">
        <ele>151</ele>
        <time>2025-06-04T15:09:57Z</time>
      </trkpt>
      <trkpt lat="43.64866" lon="1.37645">
        <ele>151</ele>
        <time>2025-06-04T15:09:58Z</time>
      </trkpt>
      <trkpt lat="43.64869" lon="1.37648">
        <ele>151</ele>
        <time>2025-06-04T15:09:59Z</time>
      </trkpt>
      <trkpt lat="43.64871" lon="1.37649">
        <ele>151</ele>
        <time>2025-06-04T15:10:00Z</time>
      </trkpt>
      <trkpt lat="43.64873" lon="1.3765">
        <ele>151</ele>
        <time>2025-06-04T15:10:01Z</time>
      </trkpt>
      <trkpt lat="43.64875" lon="1.37653">
        <ele>151</ele>
        <time>2025-06-04T15:10:02Z</time>
      </trkpt>
      <trkpt lat="43.64876" lon="1.37655">
        <ele>151</ele>
        <time>2025-06-04T15:10:03Z</time>
      </trkpt>
      <trkpt lat="43.64878" lon="1.37659">
        <ele>152</ele>
        <time>2025-06-04T15:10:04Z</time>
      </trkpt>
      <trkpt lat="43.64879" lon="1.37663">
        <ele>152</ele>
        <time>2025-06-04T15:10:05Z</time>
      </trkpt>
      <trkpt lat="43.6488" lon="1.37667">
        <ele>152</ele>
        <time>2025-06-04T15:10:06Z</time>
      </trkpt>
      <trkpt lat="43.6488" lon="1.3767">
        <ele>152</ele>
        <time>2025-06-04T15:10:07Z</time>
      </trkpt>
      <trkpt lat="43.64881" lon="1.37673">
        <ele>152</ele>
        <time>2025-06-04T15:10:08Z</time>
      </trkpt>
      <trkpt lat="43.64882" lon="1.37677">
        <ele>152</ele>
        <time>2025-06-04T15:10:09Z</time>
      </trkpt>
      <trkpt lat="43.64884" lon="1.3768">
        <ele>152</ele>
        <time>2025-06-04T15:10:10Z</time>
      </trkpt>
      <trkpt lat="43.64884" lon="1.37683">
        <ele>152</ele>
        <time>2025-06-04T15:10:11Z</time>
      </trkpt>
      <trkpt lat="43.64886" lon="1.37686">
        <ele>152</ele>
        <time>2025-06-04T15:10:12Z</time>
      </trkpt>
      <trkpt lat="43.64887" lon="1.3769">
        <ele>152</ele>
        <time>2025-06-04T15:10:13Z</time>
      </trkpt>
      <trkpt lat="43.64887" lon="1.37694">
        <ele>152</ele>
        <time>2025-06-04T15:10:14Z</time>
      </trkpt>
      <trkpt lat="43.64887" lon="1.37698">
        <ele>152</ele>
        <time>2025-06-04T15:10:15Z</time>
      </trkpt>
      <trkpt lat="43.64888" lon="1.37702">
        <ele>152</ele>
        <time>2025-06-04T15:10:16Z</time>
      </trkpt>
      <trkpt lat="43.64888" lon="1.37705">
        <ele>152</ele>
        <time>2025-06-04T15:10:17Z</time>
      </trkpt>
      <trkpt lat="43.6489" lon="1.37708">
        <ele>152</ele>
        <time>2025-06-04T15:10:18Z</time>
      </trkpt>
      <trkpt lat="43.64891" lon="1.37711">
        <ele>152</ele>
        <time>2025-06-04T15:10:19Z</time>
      </trkpt>
      <trkpt lat="43.64892" lon="1.37714">
        <ele>152</ele>
        <time>2025-06-04T15:10:20Z</time>
      </trkpt>
      <trkpt lat="43.64893" lon="1.37718">
        <ele>152</ele>
        <time>2025-06-04T15:10:21Z</time>
      </trkpt>
      <trkpt lat="43.64893" lon="1.37721">
        <ele>152</ele>
        <time>2025-06-04T15:10:22Z</time>
      </trkpt>
      <trkpt lat="43.64894" lon="1.37723">
        <ele>152</ele>
        <time>2025-06-04T15:10:23Z</time>
      </trkpt>
      <trkpt lat="43.64895" lon="1.37727">
        <ele>152</ele>
        <time>2025-06-04T15:10:24Z</time>
      </trkpt>
      <trkpt lat="43.64896" lon="1.3773">
        <ele>152</ele>
        <time>2025-06-04T15:10:25Z</time>
      </trkpt>
      <trkpt lat="43.64896" lon="1.37733">
        <ele>152</ele>
        <time>2025-06-04T15:10:26Z</time>
      </trkpt>
      <trkpt lat="43.64897" lon="1.37736">
        <ele>152</ele>
        <time>2025-06-04T15:10:27Z</time>
      </trkpt>
      <trkpt lat="43.64898" lon="1.37739">
        <ele>152</ele>
        <time>2025-06-04T15:10:28Z</time>
      </trkpt>
      <trkpt lat="43.649" lon="1.37742">
        <ele>152</ele>
        <time>2025-06-04T15:10:29Z</time>
      </trkpt>
      <trkpt lat="43.649" lon="1.37745">
        <ele>151</ele>
        <time>2025-06-04T15:10:30Z</time>
      </trkpt>
      <trkpt lat="43.64901" lon="1.37748">
        <ele>151</ele>
        <time>2025-06-04T15:10:31Z</time>
      </trkpt>
      <trkpt lat="43.64902" lon="1.37751">
        <ele>151</ele>
        <time>2025-06-04T15:10:32Z</time>
      </trkpt>
      <trkpt lat="43.64903" lon="1.37754">
        <ele>151</ele>
        <time>2025-06-04T15:10:33Z</time>
      </trkpt>
      <trkpt lat="43.64905" lon="1.37757">
        <ele>151</ele>
        <time>2025-06-04T15:10:34Z</time>
      </trkpt>
      <trkpt lat="43.64906" lon="1.3776">
        <ele>151</ele>
        <time>2025-06-04T15:10:35Z</time>
      </trkpt>
      <trkpt lat="43.64908" lon="1.37763">
        <ele>151</ele>
        <time>2025-06-04T15:10:36Z</time>
      </trkpt>
      <trkpt lat="43.64908" lon="1.37766">
        <ele>151</ele>
        <time>2025-06-04T15:10:37Z</time>
      </trkpt>
      <trkpt lat="43.64909" lon="1.37769">
        <ele>151</ele>
        <time>2025-06-04T15:10:38Z</time>
      </trkpt>
      <trkpt lat="43.6491" lon="1.37772">
        <ele>151</ele>
        <time>2025-06-04T15:10:39Z</time>
      </trkpt>
      <trkpt lat="43.6491" lon="1.37775">
        <ele>151</ele>
        <time>2025-06-04T15:10:40Z</time>
      </trkpt>
      <trkpt lat="43.64911" lon="1.37778">
        <ele>151</ele>
        <time>2025-06-04T15:10:41Z</time>
      </trkpt>
      <trkpt lat="43.64912" lon="1.37782">
        <ele>151</ele>
        <time>2025-06-04T15:10:42Z</time>
      </trkpt>
      <trkpt lat="43.64913" lon="1.37785">
        <ele>151</ele>
        <time>2025-06-04T15:10:43Z</time>
      </trkpt>
      <trkpt lat="43.64914" lon="1.37789">
        <ele>151</ele>
        <time>2025-06-04T15:10:44Z</time>
      </trkpt>
      <trkpt lat="43.64914" lon="1.37792">
        <ele>151</ele>
        <time>2025-06-04T15:10:45Z</time>
      </trkpt>
      <trkpt lat="43.64915" lon="1.37795">
        <ele>151</ele>
        <time>2025-06-04T15:10:46Z</time>
      </trkpt>
      <trkpt lat="43.64916" lon="1.37798">
        <ele>151</ele>
        <time>2025-06-04T15:10:47Z</time>
      </trkpt>
      <trkpt lat="43.64917" lon="1.37802">
        <ele>151</ele>
        <time>2025-06-04T15:10:48Z</time>
      </trkpt>
      <trkpt lat="43.64918" lon="1.37805">
        <ele>151</ele>
        <time>2025-06-04T15:10:49Z</time>
      </trkpt>
      <trkpt lat="43.64919" lon="1.37809">
        <ele>151</ele>
        <time>2025-06-04T15:10:50Z</time>
      </trkpt>
      <trkpt lat="43.64919" lon="1.37812">
        <ele>151</ele>
        <time>2025-06-04T15:10:51Z</time>
      </trkpt>
      <trkpt lat="43.6492" lon="1.37816">
        <ele>151</ele>
        <time>2025-06-04T15:10:52Z</time>
      </trkpt>
      <trkpt lat="43.64921" lon="1.3782">
        <ele>151</ele>
        <time>2025-06-04T15:10:53Z</time>
      </trkpt>
      <trkpt lat="43.64921" lon="1.37823">
        <ele>151</ele>
        <time>2025-06-04T15:10:54Z</time>
      </trkpt>
      <trkpt lat="43.64922" lon="1.37826">
        <ele>151</ele>
        <time>2025-06-04T15:10:55Z</time>
      </trkpt>
      <trkpt lat="43.64923" lon="1.3783">
        <ele>151</ele>
        <time>2025-06-04T15:10:56Z</time>
      </trkpt>
      <trkpt lat="43.64923" lon="1.37833">
        <ele>151</ele>
        <time>2025-06-04T15:10:57Z</time>
      </trkpt>
      <trkpt lat="43.64923" lon="1.37836">
        <ele>151</ele>
        <time>2025-06-04T15:10:58Z</time>
      </trkpt>
      <trkpt lat="43.64924" lon="1.37839">
        <ele>151</ele>
        <time>2025-06-04T15:10:59Z</time>
      </trkpt>
      <trkpt lat="43.64925" lon="1.37842">
        <ele>151</ele>
        <time>2025-06-04T15:11:00Z</time>
      </trkpt>
      <trkpt lat="43.64925" lon="1.37846">
        <ele>151</ele>
        <time>2025-06-04T15:11:01Z</time>
      </trkpt>
      <trkpt lat="43.64926" lon="1.37849">
        <ele>151</ele>
        <time>2025-06-04T15:11:02Z</time>
      </trkpt>
      <trkpt lat="43.64927" lon="1.37853">
        <ele>151</ele>
        <time>2025-06-04T15:11:03Z</time>
      </trkpt>
      <trkpt lat="43.64928" lon="1.37856">
        <ele>151</ele>
        <time>2025-06-04T15:11:04Z</time>
      </trkpt>
      <trkpt lat="43.64929" lon="1.37859">
        <ele>151</ele>
        <time>2025-06-04T15:11:05Z</time>
      </trkpt>
      <trkpt lat="43.64929" lon="1.37862">
        <ele>151</ele>
        <time>2025-06-04T15:11:06Z</time>
      </trkpt>
      <trkpt lat="43.64929" lon="1.37865">
        <ele>151</ele>
        <time>2025-06-04T15:11:07Z</time>
      </trkpt>
      <trkpt lat="43.6493" lon="1.37868">
        <ele>151</ele>
        <time>2025-06-04T15:11:08Z</time>
      </trkpt>
      <trkpt lat="43.6493" lon="1.37871">
        <ele>151</ele>
        <time>2025-06-04T15:11:09Z</time>
      </trkpt>
      <trkpt lat="43.64931" lon="1.37875">
        <ele>151</ele>
        <time>2025-06-04T15:11:10Z</time>
      </trkpt>
      <trkpt lat="43.64932" lon="1.37878">
        <ele>151</ele>
        <time>2025-06-04T15:11:11Z</time>
      </trkpt>
      <trkpt lat="43.64933" lon="1.37882">
        <ele>151</ele>
        <time>2025-06-04T15:11:12Z</time>
      </trkpt>
      <trkpt lat="43.64933" lon="1.37885">
        <ele>150</ele>
        <time>2025-06-04T15:11:13Z</time>
      </trkpt>
      <trkpt lat="43.64934" lon="1.37889">
        <ele>150</ele>
        <time>2025-06-04T15:11:14Z</time>
      </trkpt>
      <trkpt lat="43.64935" lon="1.37892">
        <ele>150</ele>
        <time>2025-06-04T15:11:15Z</time>
      </trkpt>
      <trkpt lat="43.64935" lon="1.37895">
        <ele>150</ele>
        <time>2025-06-04T15:11:16Z</time>
      </trkpt>
      <trkpt lat="43.64936" lon="1.37899">
        <ele>150</ele>
        <time>2025-06-04T15:11:17Z</time>
      </trkpt>
      <trkpt lat="43.64938" lon="1.37902">
        <ele>151</ele>
        <time>2025-06-04T15:11:37Z</time>
      </trkpt>
      <trkpt lat="43.64938" lon="1.37902">
        <ele>151</ele>
        <time>2025-06-04T15:11:38Z</time>
      </trkpt>
      <trkpt lat="43.64939" lon="1.37906">
        <ele>151</ele>
        <time>2025-06-04T15:11:39Z</time>
      </trkpt>
      <trkpt lat="43.6494" lon="1.37909">
        <ele>151</ele>
        <time>2025-06-04T15:11:40Z</time>
      </trkpt>
      <trkpt lat="43.64941" lon="1.37912">
        <ele>150</ele>
        <time>2025-06-04T15:11:41Z</time>
      </trkpt>
      <trkpt lat="43.64941" lon="1.37915">
        <ele>150</ele>
        <time>2025-06-04T15:11:42Z</time>
      </trkpt>
      <trkpt lat="43.64943" lon="1.37919">
        <ele>150</ele>
        <time>2025-06-04T15:11:43Z</time>
      </trkpt>
      <trkpt lat="43.64944" lon="1.37922">
        <ele>150</ele>
        <time>2025-06-04T15:11:44Z</time>
      </trkpt>
      <trkpt lat="43.64944" lon="1.37926">
        <ele>150</ele>
        <time>2025-06-04T15:11:45Z</time>
      </trkpt>
      <trkpt lat="43.64945" lon="1.3793">
        <ele>150</ele>
        <time>2025-06-04T15:11:46Z</time>
      </trkpt>
      <trkpt lat="43.64946" lon="1.37934">
        <ele>150</ele>
        <time>2025-06-04T15:11:47Z</time>
      </trkpt>
      <trkpt lat="43.64948" lon="1.37937">
        <ele>150</ele>
        <time>2025-06-04T15:11:48Z</time>
      </trkpt>
      <trkpt lat="43.64948" lon="1.37941">
        <ele>150</ele>
        <time>2025-06-04T15:11:49Z</time>
      </trkpt>
      <trkpt lat="43.64949" lon="1.37944">
        <ele>150</ele>
        <time>2025-06-04T15:11:50Z</time>
      </trkpt>
      <trkpt lat="43.6495" lon="1.37947">
        <ele>150</ele>
        <time>2025-06-04T15:11:51Z</time>
      </trkpt>
      <trkpt lat="43.6495" lon="1.3795">
        <ele>150</ele>
        <time>2025-06-04T15:11:52Z</time>
      </trkpt>
      <trkpt lat="43.64951" lon="1.37954">
        <ele>150</ele>
        <time>2025-06-04T15:11:53Z</time>
      </trkpt>
      <trkpt lat="43.64953" lon="1.37957">
        <ele>150</ele>
        <time>2025-06-04T15:11:54Z</time>
      </trkpt>
      <trkpt lat="43.64954" lon="1.37961">
        <ele>150</ele>
        <time>2025-06-04T15:11:55Z</time>
      </trkpt>
      <trkpt lat="43.64954" lon="1.37965">
        <ele>150</ele>
        <time>2025-06-04T15:11:56Z</time>
      </trkpt>
      <trkpt lat="43.64954" lon="1.37969">
        <ele>150</ele>
        <time>2025-06-04T15:11:57Z</time>
      </trkpt>
      <trkpt lat="43.64954" lon="1.37972">
        <ele>150</ele>
        <time>2025-06-04T15:11:58Z</time>
      </trkpt>
      <trkpt lat="43.64954" lon="1.37976">
        <ele>150</ele>
        <time>2025-06-04T15:11:59Z</time>
      </trkpt>
      <trkpt lat="43.64954" lon="1.3798">
        <ele>150</ele>
        <time>2025-06-04T15:12:00Z</time>
      </trkpt>
      <trkpt lat="43.64955" lon="1.37983">
        <ele>150</ele>
        <time>2025-06-04T15:12:01Z</time>
      </trkpt>
      <trkpt lat="43.64956" lon="1.37987">
        <ele>150</ele>
        <time>2025-06-04T15:12:02Z</time>
      </trkpt>
      <trkpt lat="43.64957" lon="1.3799">
        <ele>150</ele>
        <time>2025-06-04T15:12:03Z</time>
      </trkpt>
      <trkpt lat="43.64957" lon="1.3799">
        <ele>150</ele>
        <time>2025-06-04T15:12:04Z</time>
      </trkpt>
      <trkpt lat="43.64978" lon="1.3804">
        <ele>150</ele>
        <time>2025-06-04T15:12:41Z</time>
      </trkpt>
      <trkpt lat="43.64978" lon="1.38042">
        <ele>150</ele>
        <time>2025-06-04T15:12:42Z</time>
      </trkpt>
      <trkpt lat="43.64978" lon="1.38042">
        <ele>150</ele>
        <time>2025-06-04T15:12:43Z</time>
      </trkpt>
      <trkpt lat="43.64979" lon="1.38047">
        <ele>150</ele>
        <time>2025-06-04T15:12:44Z</time>
      </trkpt>
      <trkpt lat="43.6498" lon="1.38051">
        <ele>150</ele>
        <time>2025-06-04T15:12:45Z</time>
      </trkpt>
      <trkpt lat="43.64981" lon="1.38055">
        <ele>151</ele>
        <time>2025-06-04T15:12:46Z</time>
      </trkpt>
      <trkpt lat="43.64982" lon="1.38058">
        <ele>151</ele>
        <time>2025-06-04T15:12:47Z</time>
      </trkpt>
      <trkpt lat="43.64983" lon="1.38061">
        <ele>151</ele>
        <time>2025-06-04T15:12:48Z</time>
      </trkpt>
      <trkpt lat="43.64984" lon="1.38064">
        <ele>151</ele>
        <time>2025-06-04T15:12:49Z</time>
      </trkpt>
      <trkpt lat="43.64986" lon="1.38068">
        <ele>151</ele>
        <time>2025-06-04T15:12:50Z</time>
      </trkpt>
      <trkpt lat="43.64987" lon="1.38071">
        <ele>151</ele>
        <time>2025-06-04T15:12:51Z</time>
      </trkpt>
      <trkpt lat="43.64989" lon="1.38074">
        <ele>150</ele>
        <time>2025-06-04T15:12:52Z</time>
      </trkpt>
      <trkpt lat="43.6499" lon="1.38077">
        <ele>151</ele>
        <time>2025-06-04T15:12:53Z</time>
      </trkpt>
      <trkpt lat="43.64992" lon="1.3808">
        <ele>151</ele>
        <time>2025-06-04T15:12:54Z</time>
      </trkpt>
      <trkpt lat="43.64993" lon="1.38083">
        <ele>151</ele>
        <time>2025-06-04T15:12:55Z</time>
      </trkpt>
      <trkpt lat="43.64994" lon="1.38086">
        <ele>151</ele>
        <time>2025-06-04T15:12:56Z</time>
      </trkpt>
      <trkpt lat="43.64996" lon="1.3809">
        <ele>151</ele>
        <time>2025-06-04T15:12:57Z</time>
      </trkpt>
      <trkpt lat="43.64997" lon="1.38093">
        <ele>151</ele>
        <time>2025-06-04T15:12:58Z</time>
      </trkpt>
      <trkpt lat="43.64998" lon="1.38097">
        <ele>151</ele>
        <time>2025-06-04T15:12:59Z</time>
      </trkpt>
      <trkpt lat="43.64999" lon="1.381">
        <ele>151</ele>
        <time>2025-06-04T15:13:00Z</time>
      </trkpt>
      <trkpt lat="43.65" lon="1.38103">
        <ele>151</ele>
        <time>2025-06-04T15:13:01Z</time>
      </trkpt>
      <trkpt lat="43.65001" lon="1.38107">
        <ele>151</ele>
        <time>2025-06-04T15:13:02Z</time>
      </trkpt>
      <trkpt lat="43.65003" lon="1.3811">
        <ele>151</ele>
        <time>2025-06-04T15:13:03Z</time>
      </trkpt>
      <trkpt lat="43.65004" lon="1.38113">
        <ele>151</ele>
        <time>2025-06-04T15:13:04Z</time>
      </trkpt>
      <trkpt lat="43.65006" lon="1.38116">
        <ele>151</ele>
        <time>2025-06-04T15:13:05Z</time>
      </trkpt>
      <trkpt lat="43.65007" lon="1.38119">
        <ele>151</ele>
        <time>2025-06-04T15:13:06Z</time>
      </trkpt>
      <trkpt lat="43.65007" lon="1.38123">
        <ele>151</ele>
        <time>2025-06-04T15:13:07Z</time>
      </trkpt>
      <trkpt lat="43.65008" lon="1.38126">
        <ele>151</ele>
        <time>2025-06-04T15:13:08Z</time>
      </trkpt>
      <trkpt lat="43.65009" lon="1.3813">
        <ele>151</ele>
        <time>2025-06-04T15:13:09Z</time>
      </trkpt>
      <trkpt lat="43.65009" lon="1.38133">
        <ele>151</ele>
        <time>2025-06-04T15:13:10Z</time>
      </trkpt>
      <trkpt lat="43.65009" lon="1.38137">
        <ele>151</ele>
        <time>2025-06-04T15:13:11Z</time>
      </trkpt>
      <trkpt lat="43.65009" lon="1.38142">
        <ele>151</ele>
        <time>2025-06-04T15:13:12Z</time>
      </trkpt>
      <trkpt lat="43.65009" lon="1.38145">
        <ele>150</ele>
        <time>2025-06-04T15:13:13Z</time>
      </trkpt>
      <trkpt lat="43.65008" lon="1.38149">
        <ele>150</ele>
        <time>2025-06-04T15:13:14Z</time>
      </trkpt>
      <trkpt lat="43.65007" lon="1.38152">
        <ele>150</ele>
        <time>2025-06-04T15:13:15Z</time>
      </trkpt>
      <trkpt lat="43.65006" lon="1.38156">
        <ele>150</ele>
        <time>2025-06-04T15:13:16Z</time>
      </trkpt>
      <trkpt lat="43.65006" lon="1.38158">
        <ele>150</ele>
        <time>2025-06-04T15:13:17Z</time>
      </trkpt>
      <trkpt lat="43.65005" lon="1.38161">
        <ele>151</ele>
        <time>2025-06-04T15:13:18Z</time>
      </trkpt>
      <trkpt lat="43.65004" lon="1.38164">
        <ele>151</ele>
        <time>2025-06-04T15:13:19Z</time>
      </trkpt>
      <trkpt lat="43.65003" lon="1.38168">
        <ele>151</ele>
        <time>2025-06-04T15:13:20Z</time>
      </trkpt>
      <trkpt lat="43.65002" lon="1.38171">
        <ele>151</ele>
        <time>2025-06-04T15:13:21Z</time>
      </trkpt>
      <trkpt lat="43.65001" lon="1.38173">
        <ele>151</ele>
        <time>2025-06-04T15:13:22Z</time>
      </trkpt>
      <trkpt lat="43.65" lon="1.38176">
        <ele>152</ele>
        <time>2025-06-04T15:13:23Z</time>
      </trkpt>
      <trkpt lat="43.65001" lon="1.38179">
        <ele>152</ele>
        <time>2025-06-04T15:13:24Z</time>
      </trkpt>
      <trkpt lat="43.65003" lon="1.38183">
        <ele>151</ele>
        <time>2025-06-04T15:13:25Z</time>
      </trkpt>
      <trkpt lat="43.65004" lon="1.38186">
        <ele>151</ele>
        <time>2025-06-04T15:13:26Z</time>
      </trkpt>
      <trkpt lat="43.65006" lon="1.38188">
        <ele>151</ele>
        <time>2025-06-04T15:13:27Z</time>
      </trkpt>
      <trkpt lat="43.65008" lon="1.38191">
        <ele>151</ele>
        <time>2025-06-04T15:13:28Z</time>
      </trkpt>
      <trkpt lat="43.6501" lon="1.38194">
        <ele>151</ele>
        <time>2025-06-04T15:13:29Z</time>
      </trkpt>
      <trkpt lat="43.65011" lon="1.38197">
        <ele>151</ele>
        <time>2025-06-04T15:13:30Z</time>
      </trkpt>
      <trkpt lat="43.65013" lon="1.382">
        <ele>151</ele>
        <time>2025-06-04T15:13:31Z</time>
      </trkpt>
      <trkpt lat="43.65014" lon="1.38204">
        <ele>151</ele>
        <time>2025-06-04T15:13:32Z</time>
      </trkpt>
      <trkpt lat="43.65016" lon="1.38206">
        <ele>151</ele>
        <time>2025-06-04T15:13:33Z</time>
      </trkpt>
      <trkpt lat="43.65017" lon="1.3821">
        <ele>151</ele>
        <time>2025-06-04T15:13:34Z</time>
      </trkpt>
      <trkpt lat="43.65018" lon="1.38213">
        <ele>151</ele>
        <time>2025-06-04T15:13:35Z</time>
      </trkpt>
      <trkpt lat="43.65019" lon="1.38216">
        <ele>151</ele>
        <time>2025-06-04T15:13:36Z</time>
      </trkpt>
      <trkpt lat="43.6502" lon="1.38219">
        <ele>151</ele>
        <time>2025-06-04T15:13:37Z</time>
      </trkpt>
      <trkpt lat="43.65021" lon="1.38223">
        <ele>151</ele>
        <time>2025-06-04T15:13:38Z</time>
      </trkpt>
      <trkpt lat="43.65022" lon="1.38226">
        <ele>151</ele>
        <time>2025-06-04T15:13:39Z</time>
      </trkpt>
      <trkpt lat="43.65023" lon="1.3823">
        <ele>151</ele>
        <time>2025-06-04T15:13:40Z</time>
      </trkpt>
      <trkpt lat="43.65024" lon="1.38233">
        <ele>151</ele>
        <time>2025-06-04T15:13:41Z</time>
      </trkpt>
      <trkpt lat="43.65025" lon="1.38236">
        <ele>151</ele>
        <time>2025-06-04T15:13:42Z</time>
      </trkpt>
      <trkpt lat="43.65026" lon="1.3824">
        <ele>151</ele>
        <time>2025-06-04T15:13:43Z</time>
      </trkpt>
      <trkpt lat="43.65027" lon="1.38244">
        <ele>151</ele>
        <time>2025-06-04T15:13:44Z</time>
      </trkpt>
      <trkpt lat="43.65028" lon="1.38247">
        <ele>151</ele>
        <time>2025-06-04T15:13:45Z</time>
      </trkpt>
      <trkpt lat="43.65029" lon="1.3825">
        <ele>151</ele>
        <time>2025-06-04T15:13:46Z</time>
      </trkpt>
      <trkpt lat="43.65031" lon="1.38254">
        <ele>151</ele>
        <time>2025-06-04T15:13:47Z</time>
      </trkpt>
      <trkpt lat="43.65032" lon="1.38257">
        <ele>151</ele>
        <time>2025-06-04T15:13:48Z</time>
      </trkpt>
      <trkpt lat="43.65033" lon="1.3826">
        <ele>151</ele>
        <time>2025-06-04T15:13:49Z</time>
      </trkpt>
      <trkpt lat="43.65034" lon="1.38264">
        <ele>151</ele>
        <time>2025-06-04T15:13:50Z</time>
      </trkpt>
      <trkpt lat="43.65035" lon="1.38267">
        <ele>151</ele>
        <time>2025-06-04T15:13:51Z</time>
      </trkpt>
      <trkpt lat="43.65036" lon="1.3827">
        <ele>151</ele>
        <time>2025-06-04T15:13:52Z</time>
      </trkpt>
      <trkpt lat="43.65036" lon="1.38274">
        <ele>151</ele>
        <time>2025-06-04T15:13:53Z</time>
      </trkpt>
      <trkpt lat="43.65036" lon="1.38274">
        <ele>151</ele>
        <time>2025-06-04T15:13:54Z</time>
      </trkpt>
      <trkpt lat="43.65038" lon="1.38282">
        <ele>151</ele>
        <time>2025-06-04T15:13:55Z</time>
      </trkpt>
      <trkpt lat="43.65039" lon="1.38284">
        <ele>151</ele>
        <time>2025-06-04T15:13:56Z</time>
      </trkpt>
      <trkpt lat="43.6504" lon="1.38287">
        <ele>151</ele>
        <time>2025-06-04T15:13:57Z</time>
      </trkpt>
      <trkpt lat="43.65041" lon="1.3829">
        <ele>151</ele>
        <time>2025-06-04T15:13:58Z</time>
      </trkpt>
      <trkpt lat="43.65042" lon="1.38294">
        <ele>151</ele>
        <time>2025-06-04T15:13:59Z</time>
      </trkpt>
      <trkpt lat="43.65043" lon="1.38297">
        <ele>151</ele>
        <time>2025-06-04T15:14:00Z</time>
      </trkpt>
      <trkpt lat="43.65044" lon="1.38301">
        <ele>151</ele>
        <time>2025-06-04T15:14:01Z</time>
      </trkpt>
      <trkpt lat="43.65045" lon="1.38304">
        <ele>151</ele>
        <time>2025-06-04T15:14:02Z</time>
      </trkpt>
      <trkpt lat="43.65046" lon="1.38308">
        <ele>151</ele>
        <time>2025-06-04T15:14:03Z</time>
      </trkpt>
      <trkpt lat="43.65047" lon="1.38311">
        <ele>151</ele>
        <time>2025-06-04T15:14:04Z</time>
      </trkpt>
      <trkpt lat="43.65048" lon="1.38314">
        <ele>151</ele>
        <time>2025-06-04T15:14:05Z</time>
      </trkpt>
      <trkpt lat="43.65049" lon="1.38318">
        <ele>151</ele>
        <time>2025-06-04T15:14:06Z</time>
      </trkpt>
      <trkpt lat="43.6505" lon="1.38321">
        <ele>151</ele>
        <time>2025-06-04T15:14:07Z</time>
      </trkpt>
      <trkpt lat="43.65051" lon="1.38324">
        <ele>151</ele>
        <time>2025-06-04T15:14:08Z</time>
      </trkpt>
      <trkpt lat="43.65052" lon="1.38327">
        <ele>151</ele>
        <time>2025-06-04T15:14:09Z</time>
      </trkpt>
      <trkpt lat="43.65053" lon="1.38331">
        <ele>151</ele>
        <time>2025-06-04T15:14:10Z</time>
      </trkpt>
      <trkpt lat="43.65054" lon="1.38335">
        <ele>151</ele>
        <time>2025-06-04T15:14:11Z</time>
      </trkpt>
      <trkpt lat="43.65055" lon="1.38338">
        <ele>151</ele>
        <time>2025-06-04T15:14:12Z</time>
      </trkpt>
      <trkpt lat="43.65056" lon="1.38341">
        <ele>151</ele>
        <time>2025-06-04T15:14:13Z</time>
      </trkpt>
      <trkpt lat="43.65057" lon="1.38345">
        <ele>151</ele>
        <time>2025-06-04T15:14:14Z</time>
      </trkpt>
      <trkpt lat="43.65058" lon="1.38348">
        <ele>151</ele>
        <time>2025-06-04T15:14:15Z</time>
      </trkpt>
      <trkpt lat="43.65059" lon="1.38351">
        <ele>151</ele>
        <time>2025-06-04T15:14:16Z</time>
      </trkpt>
      <trkpt lat="43.6506" lon="1.38354">
        <ele>151</ele>
        <time>2025-06-04T15:14:17Z</time>
      </trkpt>
      <trkpt lat="43.65061" lon="1.38358">
        <ele>151</ele>
        <time>2025-06-04T15:14:18Z</time>
      </trkpt>
      <trkpt lat="43.65062" lon="1.38361">
        <ele>151</ele>
        <time>2025-06-04T15:14:19Z</time>
      </trkpt>
      <trkpt lat="43.65063" lon="1.38365">
        <ele>151</ele>
        <time>2025-06-04T15:14:20Z</time>
      </trkpt>
      <trkpt lat="43.65064" lon="1.38369">
        <ele>151</ele>
        <time>2025-06-04T15:14:21Z</time>
      </trkpt>
      <trkpt lat="43.65065" lon="1.38372">
        <ele>151</ele>
        <time>2025-06-04T15:14:22Z</time>
      </trkpt>
      <trkpt lat="43.65066" lon="1.38375">
        <ele>151</ele>
        <time>2025-06-04T15:14:23Z</time>
      </trkpt>
      <trkpt lat="43.65067" lon="1.38379">
        <ele>151</ele>
        <time>2025-06-04T15:14:24Z</time>
      </trkpt>
      <trkpt lat="43.65068" lon="1.38382">
        <ele>151</ele>
        <time>2025-06-04T15:14:25Z</time>
      </trkpt>
      <trkpt lat="43.65069" lon="1.38386">
        <ele>151</ele>
        <time>2025-06-04T15:14:26Z</time>
      </trkpt>
      <trkpt lat="43.6507" lon="1.38389">
        <ele>151</ele>
        <time>2025-06-04T15:14:27Z</time>
      </trkpt>
      <trkpt lat="43.65071" lon="1.38392">
        <ele>151</ele>
        <time>2025-06-04T15:14:28Z</time>
      </trkpt>
      <trkpt lat="43.65072" lon="1.38396">
        <ele>151</ele>
        <time>2025-06-04T15:14:29Z</time>
      </trkpt>
      <trkpt lat="43.65073" lon="1.38399">
        <ele>151</ele>
        <time>2025-06-04T15:14:30Z</time>
      </trkpt>
      <trkpt lat="43.65074" lon="1.38403">
        <ele>151</ele>
        <time>2025-06-04T15:14:31Z</time>
      </trkpt>
      <trkpt lat="43.65075" lon="1.38406">
        <ele>151</ele>
        <time>2025-06-04T15:14:32Z</time>
      </trkpt>
      <trkpt lat="43.65076" lon="1.38409">
        <ele>151</ele>
        <time>2025-06-04T15:14:33Z</time>
      </trkpt>
      <trkpt lat="43.65077" lon="1.38413">
        <ele>151</ele>
        <time>2025-06-04T15:14:34Z</time>
      </trkpt>
      <trkpt lat="43.65077" lon="1.38416">
        <ele>151</ele>
        <time>2025-06-04T15:14:35Z</time>
      </trkpt>
      <trkpt lat="43.65078" lon="1.3842">
        <ele>151</ele>
        <time>2025-06-04T15:14:36Z</time>
      </trkpt>
      <trkpt lat="43.65079" lon="1.38423">
        <ele>151</ele>
        <time>2025-06-04T15:14:37Z</time>
      </trkpt>
      <trkpt lat="43.6508" lon="1.38427">
        <ele>151</ele>
        <time>2025-06-04T15:14:38Z</time>
      </trkpt>
      <trkpt lat="43.6508" lon="1.3843">
        <ele>151</ele>
        <time>2025-06-04T15:14:39Z</time>
      </trkpt>
      <trkpt lat="43.65081" lon="1.38433">
        <ele>151</ele>
        <time>2025-06-04T15:14:40Z</time>
      </trkpt>
      <trkpt lat="43.65082" lon="1.38436">
        <ele>151</ele>
        <time>2025-06-04T15:14:41Z</time>
      </trkpt>
      <trkpt lat="43.65084" lon="1.3844">
        <ele>151</ele>
        <time>2025-06-04T15:14:42Z</time>
      </trkpt>
      <trkpt lat="43.65085" lon="1.38443">
        <ele>151</ele>
        <time>2025-06-04T15:14:43Z</time>
      </trkpt>
      <trkpt lat="43.65086" lon="1.38446">
        <ele>151</ele>
        <time>2025-06-04T15:14:44Z</time>
      </trkpt>
      <trkpt lat="43.65088" lon="1.38449">
        <ele>151</ele>
        <time>2025-06-04T15:14:45Z</time>
      </trkpt>
      <trkpt lat="43.65089" lon="1.38453">
        <ele>151</ele>
        <time>2025-06-04T15:14:46Z</time>
      </trkpt>
      <trkpt lat="43.6509" lon="1.38456">
        <ele>151</ele>
        <time>2025-06-04T15:14:47Z</time>
      </trkpt>
      <trkpt lat="43.65092" lon="1.3846">
        <ele>151</ele>
        <time>2025-06-04T15:14:48Z</time>
      </trkpt>
      <trkpt lat="43.65093" lon="1.38463">
        <ele>151</ele>
        <time>2025-06-04T15:14:49Z</time>
      </trkpt>
      <trkpt lat="43.65094" lon="1.38466">
        <ele>151</ele>
        <time>2025-06-04T15:14:50Z</time>
      </trkpt>
      <trkpt lat="43.65095" lon="1.3847">
        <ele>151</ele>
        <time>2025-06-04T15:14:51Z</time>
      </trkpt>
      <trkpt lat="43.65096" lon="1.38473">
        <ele>151</ele>
        <time>2025-06-04T15:14:52Z</time>
      </trkpt>
      <trkpt lat="43.65097" lon="1.38476">
        <ele>151</ele>
        <time>2025-06-04T15:14:53Z</time>
      </trkpt>
      <trkpt lat="43.65099" lon="1.38479">
        <ele>151</ele>
        <time>2025-06-04T15:14:54Z</time>
      </trkpt>
      <trkpt lat="43.651" lon="1.38482">
        <ele>151</ele>
        <time>2025-06-04T15:14:55Z</time>
      </trkpt>
      <trkpt lat="43.65101" lon="1.38486">
        <ele>151</ele>
        <time>2025-06-04T15:14:56Z</time>
      </trkpt>
      <trkpt lat="43.65102" lon="1.38489">
        <ele>151</ele>
        <time>2025-06-04T15:14:57Z</time>
      </trkpt>
      <trkpt lat="43.65104" lon="1.38492">
        <ele>151</ele>
        <time>2025-06-04T15:14:58Z</time>
      </trkpt>
      <trkpt lat="43.65105" lon="1.38495">
        <ele>151</ele>
        <time>2025-06-04T15:14:59Z</time>
      </trkpt>
      <trkpt lat="43.65106" lon="1.38499">
        <ele>151</ele>
        <time>2025-06-04T15:15:00Z</time>
      </trkpt>
      <trkpt lat="43.65107" lon="1.38502">
        <ele>151</ele>
        <time>2025-06-04T15:15:01Z</time>
      </trkpt>
      <trkpt lat="43.65108" lon="1.38506">
        <ele>151</ele>
        <time>2025-06-04T15:15:02Z</time>
      </trkpt>
      <trkpt lat="43.65107" lon="1.3851">
        <ele>151</ele>
        <time>2025-06-04T15:15:03Z</time>
      </trkpt>
      <trkpt lat="43.65106" lon="1.38514">
        <ele>151</ele>
        <time>2025-06-04T15:15:04Z</time>
      </trkpt>
      <trkpt lat="43.65105" lon="1.38518">
        <ele>151</ele>
        <time>2025-06-04T15:15:05Z</time>
      </trkpt>
      <trkpt lat="43.65104" lon="1.38522">
        <ele>151</ele>
        <time>2025-06-04T15:15:06Z</time>
      </trkpt>
      <trkpt lat="43.65103" lon="1.38525">
        <ele>151</ele>
        <time>2025-06-04T15:15:07Z</time>
      </trkpt>
      <trkpt lat="43.65102" lon="1.38529">
        <ele>151</ele>
        <time>2025-06-04T15:15:08Z</time>
      </trkpt>
      <trkpt lat="43.65102" lon="1.38532">
        <ele>151</ele>
        <time>2025-06-04T15:15:09Z</time>
      </trkpt>
      <trkpt lat="43.65103" lon="1.38535">
        <ele>151</ele>
        <time>2025-06-04T15:15:10Z</time>
      </trkpt>
      <trkpt lat="43.65104" lon="1.38538">
        <ele>151</ele>
        <time>2025-06-04T15:15:11Z</time>
      </trkpt>
      <trkpt lat="43.65106" lon="1.3854">
        <ele>151</ele>
        <time>2025-06-04T15:15:12Z</time>
      </trkpt>
      <trkpt lat="43.65109" lon="1.38541">
        <ele>151</ele>
        <time>2025-06-04T15:15:13Z</time>
      </trkpt>
      <trkpt lat="43.65111" lon="1.38542">
        <ele>151</ele>
        <time>2025-06-04T15:15:14Z</time>
      </trkpt>
      <trkpt lat="43.65114" lon="1.38543">
        <ele>151</ele>
        <time>2025-06-04T15:15:15Z</time>
      </trkpt>
      <trkpt lat="43.65116" lon="1.38543">
        <ele>151</ele>
        <time>2025-06-04T15:15:16Z</time>
      </trkpt>
      <trkpt lat="43.65118" lon="1.38545">
        <ele>151</ele>
        <time>2025-06-04T15:15:17Z</time>
      </trkpt>
      <trkpt lat="43.6512" lon="1.38548">
        <ele>151</ele>
        <time>2025-06-04T15:15:18Z</time>
      </trkpt>
      <trkpt lat="43.65122" lon="1.38552">
        <ele>151</ele>
        <time>2025-06-04T15:15:19Z</time>
      </trkpt>
      <trkpt lat="43.65122" lon="1.38555">
        <ele>151</ele>
        <time>2025-06-04T15:15:20Z</time>
      </trkpt>
      <trkpt lat="43.65123" lon="1.38559">
        <ele>151</ele>
        <time>2025-06-04T15:15:21Z</time>
      </trkpt>
      <trkpt lat="43.65124" lon="1.38563">
        <ele>151</ele>
        <time>2025-06-04T15:15:22Z</time>
      </trkpt>
      <trkpt lat="43.65125" lon="1.38567">
        <ele>151</ele>
        <time>2025-06-04T15:15:23Z</time>
      </trkpt>
      <trkpt lat="43.65126" lon="1.3857">
        <ele>151</ele>
        <time>2025-06-04T15:15:24Z</time>
      </trkpt>
      <trkpt lat="43.65127" lon="1.38574">
        <ele>151</ele>
        <time>2025-06-04T15:15:25Z</time>
      </trkpt>
      <trkpt lat="43.65128" lon="1.38577">
        <ele>151</ele>
        <time>2025-06-04T15:15:26Z</time>
      </trkpt>
      <trkpt lat="43.65128" lon="1.38581">
        <ele>151</ele>
        <time>2025-06-04T15:15:27Z</time>
      </trkpt>
      <trkpt lat="43.65129" lon="1.38584">
        <ele>151</ele>
        <time>2025-06-04T15:15:28Z</time>
      </trkpt>
      <trkpt lat="43.6513" lon="1.38587">
        <ele>151</ele>
        <time>2025-06-04T15:15:29Z</time>
      </trkpt>
      <trkpt lat="43.65131" lon="1.38591">
        <ele>151</ele>
        <time>2025-06-04T15:15:30Z</time>
      </trkpt>
      <trkpt lat="43.65132" lon="1.38594">
        <ele>151</ele>
        <time>2025-06-04T15:15:31Z</time>
      </trkpt>
      <trkpt lat="43.65133" lon="1.38597">
        <ele>151</ele>
        <time>2025-06-04T15:15:32Z</time>
      </trkpt>
      <trkpt lat="43.65134" lon="1.38601">
        <ele>151</ele>
        <time>2025-06-04T15:15:33Z</time>
      </trkpt>
      <trkpt lat="43.65134" lon="1.38604">
        <ele>151</ele>
        <time>2025-06-04T15:15:34Z</time>
      </trkpt>
      <trkpt lat="43.65135" lon="1.38608">
        <ele>151</ele>
        <time>2025-06-04T15:15:35Z</time>
      </trkpt>
      <trkpt lat="43.65135" lon="1.38611">
        <ele>151</ele>
        <time>2025-06-04T15:15:36Z</time>
      </trkpt>
      <trkpt lat="43.65136" lon="1.38614">
        <ele>150</ele>
        <time>2025-06-04T15:15:37Z</time>
      </trkpt>
      <trkpt lat="43.65137" lon="1.38617">
        <ele>150</ele>
        <time>2025-06-04T15:15:38Z</time>
      </trkpt>
      <trkpt lat="43.65138" lon="1.3862">
        <ele>150</ele>
        <time>2025-06-04T15:15:39Z</time>
      </trkpt>
      <trkpt lat="43.65139" lon="1.38623">
        <ele>150</ele>
        <time>2025-06-04T15:15:40Z</time>
      </trkpt>
      <trkpt lat="43.6514" lon="1.38626">
        <ele>150</ele>
        <time>2025-06-04T15:15:41Z</time>
      </trkpt>
      <trkpt lat="43.65141" lon="1.38629">
        <ele>150</ele>
        <time>2025-06-04T15:15:42Z</time>
      </trkpt>
      <trkpt lat="43.65142" lon="1.38632">
        <ele>150</ele>
        <time>2025-06-04T15:15:43Z</time>
      </trkpt>
      <trkpt lat="43.65144" lon="1.38636">
        <ele>151</ele>
        <time>2025-06-04T15:15:44Z</time>
      </trkpt>
      <trkpt lat="43.65145" lon="1.38639">
        <ele>151</ele>
        <time>2025-06-04T15:15:45Z</time>
      </trkpt>
      <trkpt lat="43.65147" lon="1.38642">
        <ele>150</ele>
        <time>2025-06-04T15:15:46Z</time>
      </trkpt>
      <trkpt lat="43.65148" lon="1.38645">
        <ele>150</ele>
        <time>2025-06-04T15:15:47Z</time>
      </trkpt>
      <trkpt lat="43.65149" lon="1.38648">
        <ele>150</ele>
        <time>2025-06-04T15:15:48Z</time>
      </trkpt>
      <trkpt lat="43.65151" lon="1.38651">
        <ele>150</ele>
        <time>2025-06-04T15:15:49Z</time>
      </trkpt>
      <trkpt lat="43.65152" lon="1.38655">
        <ele>150</ele>
        <time>2025-06-04T15:15:50Z</time>
      </trkpt>
      <trkpt lat="43.65153" lon="1.38658">
        <ele>150</ele>
        <time>2025-06-04T15:15:51Z</time>
      </trkpt>
      <trkpt lat="43.65154" lon="1.38661">
        <ele>150</ele>
        <time>2025-06-04T15:15:52Z</time>
      </trkpt>
      <trkpt lat="43.65155" lon="1.38665">
        <ele>150</ele>
        <time>2025-06-04T15:15:53Z</time>
      </trkpt>
      <trkpt lat="43.65157" lon="1.38668">
        <ele>150</ele>
        <time>2025-06-04T15:15:54Z</time>
      </trkpt>
      <trkpt lat="43.65158" lon="1.38671">
        <ele>151</ele>
        <time>2025-06-04T15:15:55Z</time>
      </trkpt>
      <trkpt lat="43.65159" lon="1.38675">
        <ele>151</ele>
        <time>2025-06-04T15:15:56Z</time>
      </trkpt>
      <trkpt lat="43.6516" lon="1.38678">
        <ele>151</ele>
        <time>2025-06-04T15:15:57Z</time>
      </trkpt>
      <trkpt lat="43.65162" lon="1.38681">
        <ele>151</ele>
        <time>2025-06-04T15:15:58Z</time>
      </trkpt>
      <trkpt lat="43.65163" lon="1.38684">
        <ele>151</ele>
        <time>2025-06-04T15:15:59Z</time>
      </trkpt>
      <trkpt lat="43.65164" lon="1.38687">
        <ele>151</ele>
        <time>2025-06-04T15:16:00Z</time>
      </trkpt>
      <trkpt lat="43.65165" lon="1.3869">
        <ele>151</ele>
        <time>2025-06-04T15:16:01Z</time>
      </trkpt>
      <trkpt lat="43.65166" lon="1.38693">
        <ele>151</ele>
        <time>2025-06-04T15:16:02Z</time>
      </trkpt>
      <trkpt lat="43.65168" lon="1.38696">
        <ele>151</ele>
        <time>2025-06-04T15:16:03Z</time>
      </trkpt>
      <trkpt lat="43.65169" lon="1.38699">
        <ele>151</ele>
        <time>2025-06-04T15:16:04Z</time>
      </trkpt>
      <trkpt lat="43.6517" lon="1.38703">
        <ele>151</ele>
        <time>2025-06-04T15:16:05Z</time>
      </trkpt>
      <trkpt lat="43.65171" lon="1.38706">
        <ele>151</ele>
        <time>2025-06-04T15:16:06Z</time>
      </trkpt>
      <trkpt lat="43.65173" lon="1.38709">
        <ele>151</ele>
        <time>2025-06-04T15:16:07Z</time>
      </trkpt>
      <trkpt lat="43.65174" lon="1.38712">
        <ele>151</ele>
        <time>2025-06-04T15:16:08Z</time>
      </trkpt>
      <trkpt lat="43.65175" lon="1.38715">
        <ele>151</ele>
        <time>2025-06-04T15:16:09Z</time>
      </trkpt>
      <trkpt lat="43.65176" lon="1.38718">
        <ele>151</ele>
        <time>2025-06-04T15:16:10Z</time>
      </trkpt>
      <trkpt lat="43.65177" lon="1.38721">
        <ele>151</ele>
        <time>2025-06-04T15:16:11Z</time>
      </trkpt>
      <trkpt lat="43.65178" lon="1.38725">
        <ele>151</ele>
        <time>2025-06-04T15:16:12Z</time>
      </trkpt>
      <trkpt lat="43.6518" lon="1.38728">
        <ele>151</ele>
        <time>2025-06-04T15:16:13Z</time>
      </trkpt>
      <trkpt lat="43.65181" lon="1.38731">
        <ele>151</ele>
        <time>2025-06-04T15:16:14Z</time>
      </trkpt>
      <trkpt lat="43.65182" lon="1.38735">
        <ele>151</ele>
        <time>2025-06-04T15:16:15Z</time>
      </trkpt>
      <trkpt lat="43.65183" lon="1.38738">
        <ele>151</ele>
        <time>2025-06-04T15:16:16Z</time>
      </trkpt>
      <trkpt lat="43.65184" lon="1.38741">
        <ele>151</ele>
        <time>2025-06-04T15:16:17Z</time>
      </trkpt>
      <trkpt lat="43.65184" lon="1.38744">
        <ele>151</ele>
        <time>2025-06-04T15:16:18Z</time>
      </trkpt>
      <trkpt lat="43.65185" lon="1.38747">
        <ele>151</ele>
        <time>2025-06-04T15:16:19Z</time>
      </trkpt>
      <trkpt lat="43.65186" lon="1.3875">
        <ele>151</ele>
        <time>2025-06-04T15:16:20Z</time>
      </trkpt>
      <trkpt lat="43.65187" lon="1.38754">
        <ele>151</ele>
        <time>2025-06-04T15:16:21Z</time>
      </trkpt>
      <trkpt lat="43.65188" lon="1.38758">
        <ele>151</ele>
        <time>2025-06-04T15:16:22Z</time>
      </trkpt>
      <trkpt lat="43.65189" lon="1.38762">
        <ele>151</ele>
        <time>2025-06-04T15:16:23Z</time>
      </trkpt>
      <trkpt lat="43.6519" lon="1.38765">
        <ele>151</ele>
        <time>2025-06-04T15:16:24Z</time>
      </trkpt>
      <trkpt lat="43.65192" lon="1.38769">
        <ele>151</ele>
        <time>2025-06-04T15:16:25Z</time>
      </trkpt>
      <trkpt lat="43.65194" lon="1.38772">
        <ele>151</ele>
        <time>2025-06-04T15:16:26Z</time>
      </trkpt>
      <trkpt lat="43.65195" lon="1.38774">
        <ele>151</ele>
        <time>2025-06-04T15:16:27Z</time>
      </trkpt>
      <trkpt lat="43.65197" lon="1.38776">
        <ele>150</ele>
        <time>2025-06-04T15:16:28Z</time>
      </trkpt>
      <trkpt lat="43.65199" lon="1.38778">
        <ele>150</ele>
        <time>2025-06-04T15:16:29Z</time>
      </trkpt>
      <trkpt lat="43.65201" lon="1.38781">
        <ele>151</ele>
        <time>2025-06-04T15:16:30Z</time>
      </trkpt>
      <trkpt lat="43.65203" lon="1.38784">
        <ele>151</ele>
        <time>2025-06-04T15:16:31Z</time>
      </trkpt>
      <trkpt lat="43.65205" lon="1.38787">
        <ele>151</ele>
        <time>2025-06-04T15:16:32Z</time>
      </trkpt>
      <trkpt lat="43.65206" lon="1.3879">
        <ele>151</ele>
        <time>2025-06-04T15:16:33Z</time>
      </trkpt>
      <trkpt lat="43.65208" lon="1.38793">
        <ele>151</ele>
        <time>2025-06-04T15:16:34Z</time>
      </trkpt>
      <trkpt lat="43.6521" lon="1.38796">
        <ele>151</ele>
        <time>2025-06-04T15:16:35Z</time>
      </trkpt>
      <trkpt lat="43.65212" lon="1.38799">
        <ele>151</ele>
        <time>2025-06-04T15:16:36Z</time>
      </trkpt>
      <trkpt lat="43.65214" lon="1.38802">
        <ele>151</ele>
        <time>2025-06-04T15:16:37Z</time>
      </trkpt>
      <trkpt lat="43.65216" lon="1.38805">
        <ele>151</ele>
        <time>2025-06-04T15:16:38Z</time>
      </trkpt>
      <trkpt lat="43.65218" lon="1.38807">
        <ele>150</ele>
        <time>2025-06-04T15:16:39Z</time>
      </trkpt>
      <trkpt lat="43.65219" lon="1.3881">
        <ele>150</ele>
        <time>2025-06-04T15:16:40Z</time>
      </trkpt>
      <trkpt lat="43.65221" lon="1.38813">
        <ele>150</ele>
        <time>2025-06-04T15:16:41Z</time>
      </trkpt>
      <trkpt lat="43.65223" lon="1.38816">
        <ele>150</ele>
        <time>2025-06-04T15:16:42Z</time>
      </trkpt>
      <trkpt lat="43.65225" lon="1.38819">
        <ele>150</ele>
        <time>2025-06-04T15:16:43Z</time>
      </trkpt>
      <trkpt lat="43.65227" lon="1.38822">
        <ele>149</ele>
        <time>2025-06-04T15:16:44Z</time>
      </trkpt>
      <trkpt lat="43.65229" lon="1.38824">
        <ele>149</ele>
        <time>2025-06-04T15:16:45Z</time>
      </trkpt>
      <trkpt lat="43.6523" lon="1.38827">
        <ele>149</ele>
        <time>2025-06-04T15:16:46Z</time>
      </trkpt>
      <trkpt lat="43.65232" lon="1.3883">
        <ele>149</ele>
        <time>2025-06-04T15:16:47Z</time>
      </trkpt>
      <trkpt lat="43.65234" lon="1.38833">
        <ele>149</ele>
        <time>2025-06-04T15:16:48Z</time>
      </trkpt>
      <trkpt lat="43.65236" lon="1.38836">
        <ele>149</ele>
        <time>2025-06-04T15:16:49Z</time>
      </trkpt>
      <trkpt lat="43.65238" lon="1.38839">
        <ele>149</ele>
        <time>2025-06-04T15:16:50Z</time>
      </trkpt>
      <trkpt lat="43.65239" lon="1.38841">
        <ele>149</ele>
        <time>2025-06-04T15:16:51Z</time>
      </trkpt>
      <trkpt lat="43.65241" lon="1.38844">
        <ele>149</ele>
        <time>2025-06-04T15:16:52Z</time>
      </trkpt>
      <trkpt lat="43.65243" lon="1.38847">
        <ele>148</ele>
        <time>2025-06-04T15:16:53Z</time>
      </trkpt>
      <trkpt lat="43.65244" lon="1.38849">
        <ele>148</ele>
        <time>2025-06-04T15:16:54Z</time>
      </trkpt>
      <trkpt lat="43.65246" lon="1.38852">
        <ele>148</ele>
        <time>2025-06-04T15:16:55Z</time>
      </trkpt>
      <trkpt lat="43.65248" lon="1.38855">
        <ele>148</ele>
        <time>2025-06-04T15:16:56Z</time>
      </trkpt>
      <trkpt lat="43.6525" lon="1.38858">
        <ele>148</ele>
        <time>2025-06-04T15:16:57Z</time>
      </trkpt>
      <trkpt lat="43.65252" lon="1.3886">
        <ele>148</ele>
        <time>2025-06-04T15:16:58Z</time>
      </trkpt>
      <trkpt lat="43.65254" lon="1.38863">
        <ele>148</ele>
        <time>2025-06-04T15:16:59Z</time>
      </trkpt>
      <trkpt lat="43.65256" lon="1.38866">
        <ele>148</ele>
        <time>2025-06-04T15:17:00Z</time>
      </trkpt>
      <trkpt lat="43.65258" lon="1.38869">
        <ele>148</ele>
        <time>2025-06-04T15:17:01Z</time>
      </trkpt>
      <trkpt lat="43.65259" lon="1.38872">
        <ele>147</ele>
        <time>2025-06-04T15:17:02Z</time>
      </trkpt>
      <trkpt lat="43.65261" lon="1.38874">
        <ele>146</ele>
        <time>2025-06-04T15:17:03Z</time>
      </trkpt>
      <trkpt lat="43.65262" lon="1.38877">
        <ele>146</ele>
        <time>2025-06-04T15:17:04Z</time>
      </trkpt>
      <trkpt lat="43.65264" lon="1.3888">
        <ele>146</ele>
        <time>2025-06-04T15:17:05Z</time>
      </trkpt>
      <trkpt lat="43.65266" lon="1.38882">
        <ele>146</ele>
        <time>2025-06-04T15:17:06Z</time>
      </trkpt>
      <trkpt lat="43.65269" lon="1.38884">
        <ele>145</ele>
        <time>2025-06-04T15:17:07Z</time>
      </trkpt>
      <trkpt lat="43.65271" lon="1.38887">
        <ele>145</ele>
        <time>2025-06-04T15:17:08Z</time>
      </trkpt>
      <trkpt lat="43.65273" lon="1.3889">
        <ele>145</ele>
        <time>2025-06-04T15:17:09Z</time>
      </trkpt>
      <trkpt lat="43.65275" lon="1.38893">
        <ele>145</ele>
        <time>2025-06-04T15:17:10Z</time>
      </trkpt>
      <trkpt lat="43.65278" lon="1.38895">
        <ele>145</ele>
        <time>2025-06-04T15:17:11Z</time>
      </trkpt>
      <trkpt lat="43.6528" lon="1.38899">
        <ele>145</ele>
        <time>2025-06-04T15:17:12Z</time>
      </trkpt>
      <trkpt lat="43.65282" lon="1.38901">
        <ele>145</ele>
        <time>2025-06-04T15:17:13Z</time>
      </trkpt>
      <trkpt lat="43.65285" lon="1.38904">
        <ele>144</ele>
        <time>2025-06-04T15:17:14Z</time>
      </trkpt>
      <trkpt lat="43.65286" lon="1.38907">
        <ele>144</ele>
        <time>2025-06-04T15:17:15Z</time>
      </trkpt>
      <trkpt lat="43.65288" lon="1.3891">
        <ele>144</ele>
        <time>2025-06-04T15:17:16Z</time>
      </trkpt>
      <trkpt lat="43.65289" lon="1.38913">
        <ele>143</ele>
        <time>2025-06-04T15:17:17Z</time>
      </trkpt>
      <trkpt lat="43.65291" lon="1.38915">
        <ele>143</ele>
        <time>2025-06-04T15:17:18Z</time>
      </trkpt>
      <trkpt lat="43.65294" lon="1.38916">
        <ele>143</ele>
        <time>2025-06-04T15:17:19Z</time>
      </trkpt>
      <trkpt lat="43.65296" lon="1.38918">
        <ele>143</ele>
        <time>2025-06-04T15:17:20Z</time>
      </trkpt>
      <trkpt lat="43.65298" lon="1.38919">
        <ele>143</ele>
        <time>2025-06-04T15:17:21Z</time>
      </trkpt>
      <trkpt lat="43.65301" lon="1.3892">
        <ele>143</ele>
        <time>2025-06-04T15:17:22Z</time>
      </trkpt>
      <trkpt lat="43.65303" lon="1.38921">
        <ele>142</ele>
        <time>2025-06-04T15:17:23Z</time>
      </trkpt>
      <trkpt lat="43.65306" lon="1.38922">
        <ele>142</ele>
        <time>2025-06-04T15:17:24Z</time>
      </trkpt>
      <trkpt lat="43.65308" lon="1.38924">
        <ele>141</ele>
        <time>2025-06-04T15:17:25Z</time>
      </trkpt>
      <trkpt lat="43.65311" lon="1.38927">
        <ele>141</ele>
        <time>2025-06-04T15:17:26Z</time>
      </trkpt>
      <trkpt lat="43.65313" lon="1.3893">
        <ele>140</ele>
        <time>2025-06-04T15:17:27Z</time>
      </trkpt>
      <trkpt lat="43.65315" lon="1.38934">
        <ele>140</ele>
        <time>2025-06-04T15:17:28Z</time>
      </trkpt>
      <trkpt lat="43.65317" lon="1.38938">
        <ele>140</ele>
        <time>2025-06-04T15:17:29Z</time>
      </trkpt>
      <trkpt lat="43.65318" lon="1.38943">
        <ele>140</ele>
        <time>2025-06-04T15:17:30Z</time>
      </trkpt>
      <trkpt lat="43.65319" lon="1.38948">
        <ele>139</ele>
        <time>2025-06-04T15:17:31Z</time>
      </trkpt>
      <trkpt lat="43.6532" lon="1.38952">
        <ele>138</ele>
        <time>2025-06-04T15:17:32Z</time>
      </trkpt>
      <trkpt lat="43.65322" lon="1.38957">
        <ele>138</ele>
        <time>2025-06-04T15:17:33Z</time>
      </trkpt>
      <trkpt lat="43.65323" lon="1.38961">
        <ele>137</ele>
        <time>2025-06-04T15:17:34Z</time>
      </trkpt>
      <trkpt lat="43.65324" lon="1.38965">
        <ele>137</ele>
        <time>2025-06-04T15:17:35Z</time>
      </trkpt>
      <trkpt lat="43.65326" lon="1.38969">
        <ele>137</ele>
        <time>2025-06-04T15:17:36Z</time>
      </trkpt>
      <trkpt lat="43.65327" lon="1.38973">
        <ele>137</ele>
        <time>2025-06-04T15:17:37Z</time>
      </trkpt>
      <trkpt lat="43.65328" lon="1.38978">
        <ele>137</ele>
        <time>2025-06-04T15:17:38Z</time>
      </trkpt>
      <trkpt lat="43.65329" lon="1.38982">
        <ele>136</ele>
        <time>2025-06-04T15:17:39Z</time>
      </trkpt>
      <trkpt lat="43.65331" lon="1.38985">
        <ele>135</ele>
        <time>2025-06-04T15:17:40Z</time>
      </trkpt>
      <trkpt lat="43.65332" lon="1.38989">
        <ele>135</ele>
        <time>2025-06-04T15:17:41Z</time>
      </trkpt>
      <trkpt lat="43.65334" lon="1.38993">
        <ele>135</ele>
        <time>2025-06-04T15:17:42Z</time>
      </trkpt>
      <trkpt lat="43.65334" lon="1.38997">
        <ele>135</ele>
        <time>2025-06-04T15:17:43Z</time>
      </trkpt>
      <trkpt lat="43.65333" lon="1.39002">
        <ele>135</ele>
        <time>2025-06-04T15:17:44Z</time>
      </trkpt>
      <trkpt lat="43.65331" lon="1.39006">
        <ele>135</ele>
        <time>2025-06-04T15:17:45Z</time>
      </trkpt>
      <trkpt lat="43.6533" lon="1.3901">
        <ele>135</ele>
        <time>2025-06-04T15:17:46Z</time>
      </trkpt>
      <trkpt lat="43.65328" lon="1.39013">
        <ele>134</ele>
        <time>2025-06-04T15:17:47Z</time>
      </trkpt>
      <trkpt lat="43.65326" lon="1.39017">
        <ele>134</ele>
        <time>2025-06-04T15:17:48Z</time>
      </trkpt>
      <trkpt lat="43.65325" lon="1.3902">
        <ele>133</ele>
        <time>2025-06-04T15:17:49Z</time>
      </trkpt>
      <trkpt lat="43.65324" lon="1.39024">
        <ele>133</ele>
        <time>2025-06-04T15:17:50Z</time>
      </trkpt>
      <trkpt lat="43.65323" lon="1.39027">
        <ele>133</ele>
        <time>2025-06-04T15:17:51Z</time>
      </trkpt>
      <trkpt lat="43.65321" lon="1.39031">
        <ele>132</ele>
        <time>2025-06-04T15:17:52Z</time>
      </trkpt>
      <trkpt lat="43.65319" lon="1.39035">
        <ele>132</ele>
        <time>2025-06-04T15:17:53Z</time>
      </trkpt>
      <trkpt lat="43.65317" lon="1.39038">
        <ele>132</ele>
        <time>2025-06-04T15:17:54Z</time>
      </trkpt>
      <trkpt lat="43.65315" lon="1.39041">
        <ele>132</ele>
        <time>2025-06-04T15:17:55Z</time>
      </trkpt>
      <trkpt lat="43.65312" lon="1.39043">
        <ele>132</ele>
        <time>2025-06-04T15:17:56Z</time>
      </trkpt>
      <trkpt lat="43.65309" lon="1.39044">
        <ele>133</ele>
        <time>2025-06-04T15:17:57Z</time>
      </trkpt>
      <trkpt lat="43.65306" lon="1.39044">
        <ele>133</ele>
        <time>2025-06-04T15:17:58Z</time>
      </trkpt>
      <trkpt lat="43.65303" lon="1.39043">
        <ele>133</ele>
        <time>2025-06-04T15:17:59Z</time>
      </trkpt>
      <trkpt lat="43.653" lon="1.39042">
        <ele>133</ele>
        <time>2025-06-04T15:18:00Z</time>
      </trkpt>
      <trkpt lat="43.65297" lon="1.39042">
        <ele>133</ele>
        <time>2025-06-04T15:18:01Z</time>
      </trkpt>
      <trkpt lat="43.65294" lon="1.39042">
        <ele>133</ele>
        <time>2025-06-04T15:18:02Z</time>
      </trkpt>
      <trkpt lat="43.65291" lon="1.39041">
        <ele>133</ele>
        <time>2025-06-04T15:18:03Z</time>
      </trkpt>
      <trkpt lat="43.65288" lon="1.39041">
        <ele>133</ele>
        <time>2025-06-04T15:18:04Z</time>
      </trkpt>
      <trkpt lat="43.65286" lon="1.39041">
        <ele>133</ele>
        <time>2025-06-04T15:18:05Z</time>
      </trkpt>
      <trkpt lat="43.65283" lon="1.3904">
        <ele>133</ele>
        <time>2025-06-04T15:18:06Z</time>
      </trkpt>
      <trkpt lat="43.6528" lon="1.3904">
        <ele>133</ele>
        <time>2025-06-04T15:18:07Z</time>
      </trkpt>
      <trkpt lat="43.65277" lon="1.3904">
        <ele>132</ele>
        <time>2025-06-04T15:18:08Z</time>
      </trkpt>
      <trkpt lat="43.65274" lon="1.39039">
        <ele>132</ele>
        <time>2025-06-04T15:18:09Z</time>
      </trkpt>
      <trkpt lat="43.65272" lon="1.39039">
        <ele>132</ele>
        <time>2025-06-04T15:18:10Z</time>
      </trkpt>
      <trkpt lat="43.65269" lon="1.39039">
        <ele>132</ele>
        <time>2025-06-04T15:18:11Z</time>
      </trkpt>
      <trkpt lat="43.65266" lon="1.39039">
        <ele>132</ele>
        <time>2025-06-04T15:18:12Z</time>
      </trkpt>
      <trkpt lat="43.65263" lon="1.3904">
        <ele>133</ele>
        <time>2025-06-04T15:18:13Z</time>
      </trkpt>
      <trkpt lat="43.6526" lon="1.3904">
        <ele>133</ele>
        <time>2025-06-04T15:18:14Z</time>
      </trkpt>
      <trkpt lat="43.65257" lon="1.3904">
        <ele>133</ele>
        <time>2025-06-04T15:18:15Z</time>
      </trkpt>
      <trkpt lat="43.65254" lon="1.3904">
        <ele>133</ele>
        <time>2025-06-04T15:18:16Z</time>
      </trkpt>
      <trkpt lat="43.65252" lon="1.39039">
        <ele>133</ele>
        <time>2025-06-04T15:18:17Z</time>
      </trkpt>
      <trkpt lat="43.65249" lon="1.39038">
        <ele>133</ele>
        <time>2025-06-04T15:18:18Z</time>
      </trkpt>
      <trkpt lat="43.65246" lon="1.39037">
        <ele>133</ele>
        <time>2025-06-04T15:18:19Z</time>
      </trkpt>
      <trkpt lat="43.65243" lon="1.39035">
        <ele>133</ele>
        <time>2025-06-04T15:18:20Z</time>
      </trkpt>
      <trkpt lat="43.65241" lon="1.39033">
        <ele>133</ele>
        <time>2025-06-04T15:18:21Z</time>
      </trkpt>
      <trkpt lat="43.65238" lon="1.39031">
        <ele>133</ele>
        <time>2025-06-04T15:18:22Z</time>
      </trkpt>
      <trkpt lat="43.65236" lon="1.39029">
        <ele>133</ele>
        <time>2025-06-04T15:18:23Z</time>
      </trkpt>
      <trkpt lat="43.65233" lon="1.39027">
        <ele>133</ele>
        <time>2025-06-04T15:18:24Z</time>
      </trkpt>
      <trkpt lat="43.65231" lon="1.39025">
        <ele>133</ele>
        <time>2025-06-04T15:18:25Z</time>
      </trkpt>
      <trkpt lat="43.65228" lon="1.39023">
        <ele>133</ele>
        <time>2025-06-04T15:18:26Z</time>
      </trkpt>
      <trkpt lat="43.65226" lon="1.39022">
        <ele>132</ele>
        <time>2025-06-04T15:18:27Z</time>
      </trkpt>
      <trkpt lat="43.65223" lon="1.39021">
        <ele>132</ele>
        <time>2025-06-04T15:18:28Z</time>
      </trkpt>
      <trkpt lat="43.6522" lon="1.39021">
        <ele>132</ele>
        <time>2025-06-04T15:18:29Z</time>
      </trkpt>
      <trkpt lat="43.65217" lon="1.3902">
        <ele>132</ele>
        <time>2025-06-04T15:18:30Z</time>
      </trkpt>
      <trkpt lat="43.65215" lon="1.39021">
        <ele>132</ele>
        <time>2025-06-04T15:18:31Z</time>
      </trkpt>
      <trkpt lat="43.65212" lon="1.39021">
        <ele>132</ele>
        <time>2025-06-04T15:18:32Z</time>
      </trkpt>
      <trkpt lat="43.65209" lon="1.39021">
        <ele>132</ele>
        <time>2025-06-04T15:18:33Z</time>
      </trkpt>
      <trkpt lat="43.65207" lon="1.39021">
        <ele>132</ele>
        <time>2025-06-04T15:18:34Z</time>
      </trkpt>
      <trkpt lat="43.65204" lon="1.39021">
        <ele>132</ele>
        <time>2025-06-04T15:18:35Z</time>
      </trkpt>
      <trkpt lat="43.65201" lon="1.3902">
        <ele>132</ele>
        <time>2025-06-04T15:18:36Z</time>
      </trkpt>
      <trkpt lat="43.65198" lon="1.3902">
        <ele>132</ele>
        <time>2025-06-04T15:18:37Z</time>
      </trkpt>
      <trkpt lat="43.65196" lon="1.3902">
        <ele>132</ele>
        <time>2025-06-04T15:18:38Z</time>
      </trkpt>
      <trkpt lat="43.65193" lon="1.3902">
        <ele>132</ele>
        <time>2025-06-04T15:18:39Z</time>
      </trkpt>
      <trkpt lat="43.6519" lon="1.3902">
        <ele>132</ele>
        <time>2025-06-04T15:18:40Z</time>
      </trkpt>
      <trkpt lat="43.65187" lon="1.39019">
        <ele>132</ele>
        <time>2025-06-04T15:18:41Z</time>
      </trkpt>
      <trkpt lat="43.65185" lon="1.39019">
        <ele>132</ele>
        <time>2025-06-04T15:18:42Z</time>
      </trkpt>
      <trkpt lat="43.65182" lon="1.39019">
        <ele>132</ele>
        <time>2025-06-04T15:18:43Z</time>
      </trkpt>
      <trkpt lat="43.6518" lon="1.39019">
        <ele>132</ele>
        <time>2025-06-04T15:18:44Z</time>
      </trkpt>
      <trkpt lat="43.65177" lon="1.39019">
        <ele>132</ele>
        <time>2025-06-04T15:18:45Z</time>
      </trkpt>
      <trkpt lat="43.65174" lon="1.39018">
        <ele>133</ele>
        <time>2025-06-04T15:18:46Z</time>
      </trkpt>
      <trkpt lat="43.65171" lon="1.39018">
        <ele>133</ele>
        <time>2025-06-04T15:18:47Z</time>
      </trkpt>
      <trkpt lat="43.65168" lon="1.39018">
        <ele>133</ele>
        <time>2025-06-04T15:18:48Z</time>
      </trkpt>
      <trkpt lat="43.65166" lon="1.39018">
        <ele>133</ele>
        <time>2025-06-04T15:18:49Z</time>
      </trkpt>
      <trkpt lat="43.65163" lon="1.39018">
        <ele>133</ele>
        <time>2025-06-04T15:18:50Z</time>
      </trkpt>
      <trkpt lat="43.6516" lon="1.39018">
        <ele>133</ele>
        <time>2025-06-04T15:18:51Z</time>
      </trkpt>
      <trkpt lat="43.65158" lon="1.39019">
        <ele>133</ele>
        <time>2025-06-04T15:18:52Z</time>
      </trkpt>
      <trkpt lat="43.65155" lon="1.39019">
        <ele>133</ele>
        <time>2025-06-04T15:18:53Z</time>
      </trkpt>
      <trkpt lat="43.65152" lon="1.39019">
        <ele>133</ele>
        <time>2025-06-04T15:18:54Z</time>
      </trkpt>
      <trkpt lat="43.65149" lon="1.3902">
        <ele>133</ele>
        <time>2025-06-04T15:18:55Z</time>
      </trkpt>
      <trkpt lat="43.65147" lon="1.3902">
        <ele>133</ele>
        <time>2025-06-04T15:18:56Z</time>
      </trkpt>
      <trkpt lat="43.65144" lon="1.3902">
        <ele>133</ele>
        <time>2025-06-04T15:18:57Z</time>
      </trkpt>
      <trkpt lat="43.65141" lon="1.3902">
        <ele>133</ele>
        <time>2025-06-04T15:18:58Z</time>
      </trkpt>
      <trkpt lat="43.65138" lon="1.3902">
        <ele>133</ele>
        <time>2025-06-04T15:18:59Z</time>
      </trkpt>
      <trkpt lat="43.65135" lon="1.3902">
        <ele>133</ele>
        <time>2025-06-04T15:19:00Z</time>
      </trkpt>
      <trkpt lat="43.65133" lon="1.39021">
        <ele>133</ele>
        <time>2025-06-04T15:19:01Z</time>
      </trkpt>
      <trkpt lat="43.6513" lon="1.3902">
        <ele>133</ele>
        <time>2025-06-04T15:19:02Z</time>
      </trkpt>
      <trkpt lat="43.65127" lon="1.3902">
        <ele>133</ele>
        <time>2025-06-04T15:19:03Z</time>
      </trkpt>
      <trkpt lat="43.65124" lon="1.3902">
        <ele>133</ele>
        <time>2025-06-04T15:19:04Z</time>
      </trkpt>
      <trkpt lat="43.65122" lon="1.39019">
        <ele>132</ele>
        <time>2025-06-04T15:19:05Z</time>
      </trkpt>
      <trkpt lat="43.65119" lon="1.39019">
        <ele>132</ele>
        <time>2025-06-04T15:19:06Z</time>
      </trkpt>
      <trkpt lat="43.65116" lon="1.39019">
        <ele>132</ele>
        <time>2025-06-04T15:19:07Z</time>
      </trkpt>
      <trkpt lat="43.65114" lon="1.39018">
        <ele>132</ele>
        <time>2025-06-04T15:19:08Z</time>
      </trkpt>
      <trkpt lat="43.65111" lon="1.39018">
        <ele>132</ele>
        <time>2025-06-04T15:19:09Z</time>
      </trkpt>
      <trkpt lat="43.65108" lon="1.39018">
        <ele>133</ele>
        <time>2025-06-04T15:19:10Z</time>
      </trkpt>
      <trkpt lat="43.65105" lon="1.39018">
        <ele>133</ele>
        <time>2025-06-04T15:19:11Z</time>
      </trkpt>
      <trkpt lat="43.65102" lon="1.39018">
        <ele>133</ele>
        <time>2025-06-04T15:19:12Z</time>
      </trkpt>
      <trkpt lat="43.65099" lon="1.39018">
        <ele>133</ele>
        <time>2025-06-04T15:19:13Z</time>
      </trkpt>
      <trkpt lat="43.65097" lon="1.39019">
        <ele>133</ele>
        <time>2025-06-04T15:19:14Z</time>
      </trkpt>
      <trkpt lat="43.65094" lon="1.3902">
        <ele>133</ele>
        <time>2025-06-04T15:19:15Z</time>
      </trkpt>
      <trkpt lat="43.65092" lon="1.39021">
        <ele>132</ele>
        <time>2025-06-04T15:19:16Z</time>
      </trkpt>
      <trkpt lat="43.65089" lon="1.39023">
        <ele>132</ele>
        <time>2025-06-04T15:19:17Z</time>
      </trkpt>
      <trkpt lat="43.65087" lon="1.39025">
        <ele>133</ele>
        <time>2025-06-04T15:19:18Z</time>
      </trkpt>
      <trkpt lat="43.65085" lon="1.39026">
        <ele>133</ele>
        <time>2025-06-04T15:19:19Z</time>
      </trkpt>
      <trkpt lat="43.65082" lon="1.39028">
        <ele>133</ele>
        <time>2025-06-04T15:19:20Z</time>
      </trkpt>
      <trkpt lat="43.6508" lon="1.39029">
        <ele>133</ele>
        <time>2025-06-04T15:19:21Z</time>
      </trkpt>
      <trkpt lat="43.65077" lon="1.39032">
        <ele>133</ele>
        <time>2025-06-04T15:19:22Z</time>
      </trkpt>
      <trkpt lat="43.65075" lon="1.39034">
        <ele>133</ele>
        <time>2025-06-04T15:19:23Z</time>
      </trkpt>
      <trkpt lat="43.65073" lon="1.39037">
        <ele>133</ele>
        <time>2025-06-04T15:19:24Z</time>
      </trkpt>
      <trkpt lat="43.65072" lon="1.3904">
        <ele>133</ele>
        <time>2025-06-04T15:19:25Z</time>
      </trkpt>
      <trkpt lat="43.65071" lon="1.39044">
        <ele>133</ele>
        <time>2025-06-04T15:19:26Z</time>
      </trkpt>
      <trkpt lat="43.65071" lon="1.39048">
        <ele>133</ele>
        <time>2025-06-04T15:19:27Z</time>
      </trkpt>
      <trkpt lat="43.65071" lon="1.39052">
        <ele>133</ele>
        <time>2025-06-04T15:19:28Z</time>
      </trkpt>
      <trkpt lat="43.65072" lon="1.39056">
        <ele>133</ele>
        <time>2025-06-04T15:19:29Z</time>
      </trkpt>
      <trkpt lat="43.65072" lon="1.3906">
        <ele>133</ele>
        <time>2025-06-04T15:19:30Z</time>
      </trkpt>
      <trkpt lat="43.65072" lon="1.39063">
        <ele>133</ele>
        <time>2025-06-04T15:19:31Z</time>
      </trkpt>
      <trkpt lat="43.65073" lon="1.39067">
        <ele>133</ele>
        <time>2025-06-04T15:19:32Z</time>
      </trkpt>
      <trkpt lat="43.65073" lon="1.39071">
        <ele>133</ele>
        <time>2025-06-04T15:19:33Z</time>
      </trkpt>
      <trkpt lat="43.65074" lon="1.39075">
        <ele>133</ele>
        <time>2025-06-04T15:19:34Z</time>
      </trkpt>
      <trkpt lat="43.65074" lon="1.39078">
        <ele>134</ele>
        <time>2025-06-04T15:19:35Z</time>
      </trkpt>
      <trkpt lat="43.65074" lon="1.39082">
        <ele>134</ele>
        <time>2025-06-04T15:19:36Z</time>
      </trkpt>
      <trkpt lat="43.65074" lon="1.39086">
        <ele>134</ele>
        <time>2025-06-04T15:19:37Z</time>
      </trkpt>
      <trkpt lat="43.65074" lon="1.3909">
        <ele>134</ele>
        <time>2025-06-04T15:19:38Z</time>
      </trkpt>
      <trkpt lat="43.65075" lon="1.39094">
        <ele>133</ele>
        <time>2025-06-04T15:19:39Z</time>
      </trkpt>
      <trkpt lat="43.65075" lon="1.39097">
        <ele>133</ele>
        <time>2025-06-04T15:19:40Z</time>
      </trkpt>
      <trkpt lat="43.65076" lon="1.39101">
        <ele>133</ele>
        <time>2025-06-04T15:19:41Z</time>
      </trkpt>
      <trkpt lat="43.65076" lon="1.39105">
        <ele>134</ele>
        <time>2025-06-04T15:19:42Z</time>
      </trkpt>
      <trkpt lat="43.65076" lon="1.39109">
        <ele>134</ele>
        <time>2025-06-04T15:19:43Z</time>
      </trkpt>
      <trkpt lat="43.65076" lon="1.39113">
        <ele>134</ele>
        <time>2025-06-04T15:19:44Z</time>
      </trkpt>
      <trkpt lat="43.65076" lon="1.39117">
        <ele>134</ele>
        <time>2025-06-04T15:19:45Z</time>
      </trkpt>
      <trkpt lat="43.65075" lon="1.39121">
        <ele>134</ele>
        <time>2025-06-04T15:19:46Z</time>
      </trkpt>
      <trkpt lat="43.65074" lon="1.39125">
        <ele>134</ele>
        <time>2025-06-04T15:19:47Z</time>
      </trkpt>
      <trkpt lat="43.65073" lon="1.39129">
        <ele>134</ele>
        <time>2025-06-04T15:19:48Z</time>
      </trkpt>
      <trkpt lat="43.65072" lon="1.39133">
        <ele>134</ele>
        <time>2025-06-04T15:19:49Z</time>
      </trkpt>
      <trkpt lat="43.6507" lon="1.39136">
        <ele>134</ele>
        <time>2025-06-04T15:19:50Z</time>
      </trkpt>
      <trkpt lat="43.65068" lon="1.39139">
        <ele>134</ele>
        <time>2025-06-04T15:19:51Z</time>
      </trkpt>
      <trkpt lat="43.65066" lon="1.39142">
        <ele>134</ele>
        <time>2025-06-04T15:19:52Z</time>
      </trkpt>
      <trkpt lat="43.65063" lon="1.39144">
        <ele>134</ele>
        <time>2025-06-04T15:19:53Z</time>
      </trkpt>
      <trkpt lat="43.6506" lon="1.39146">
        <ele>134</ele>
        <time>2025-06-04T15:19:54Z</time>
      </trkpt>
      <trkpt lat="43.65057" lon="1.39147">
        <ele>134</ele>
        <time>2025-06-04T15:19:55Z</time>
      </trkpt>
      <trkpt lat="43.65054" lon="1.39148">
        <ele>134</ele>
        <time>2025-06-04T15:19:56Z</time>
      </trkpt>
      <trkpt lat="43.65052" lon="1.39149">
        <ele>134</ele>
        <time>2025-06-04T15:19:57Z</time>
      </trkpt>
      <trkpt lat="43.65049" lon="1.39149">
        <ele>134</ele>
        <time>2025-06-04T15:19:58Z</time>
      </trkpt>
      <trkpt lat="43.65046" lon="1.3915">
        <ele>134</ele>
        <time>2025-06-04T15:19:59Z</time>
      </trkpt>
      <trkpt lat="43.65043" lon="1.3915">
        <ele>134</ele>
        <time>2025-06-04T15:20:00Z</time>
      </trkpt>
      <trkpt lat="43.6504" lon="1.39151">
        <ele>134</ele>
        <time>2025-06-04T15:20:01Z</time>
      </trkpt>
      <trkpt lat="43.65037" lon="1.39152">
        <ele>134</ele>
        <time>2025-06-04T15:20:02Z</time>
      </trkpt>
      <trkpt lat="43.65034" lon="1.39152">
        <ele>134</ele>
        <time>2025-06-04T15:20:03Z</time>
      </trkpt>
      <trkpt lat="43.65032" lon="1.39153">
        <ele>134</ele>
        <time>2025-06-04T15:20:04Z</time>
      </trkpt>
      <trkpt lat="43.65029" lon="1.39153">
        <ele>134</ele>
        <time>2025-06-04T15:20:05Z</time>
      </trkpt>
      <trkpt lat="43.65026" lon="1.39153">
        <ele>134</ele>
        <time>2025-06-04T15:20:06Z</time>
      </trkpt>
      <trkpt lat="43.65024" lon="1.39154">
        <ele>134</ele>
        <time>2025-06-04T15:20:07Z</time>
      </trkpt>
      <trkpt lat="43.65021" lon="1.39154">
        <ele>134</ele>
        <time>2025-06-04T15:20:08Z</time>
      </trkpt>
      <trkpt lat="43.65018" lon="1.39154">
        <ele>134</ele>
        <time>2025-06-04T15:20:09Z</time>
      </trkpt>
      <trkpt lat="43.65015" lon="1.39155">
        <ele>134</ele>
        <time>2025-06-04T15:20:10Z</time>
      </trkpt>
      <trkpt lat="43.65012" lon="1.39155">
        <ele>134</ele>
        <time>2025-06-04T15:20:11Z</time>
      </trkpt>
      <trkpt lat="43.6501" lon="1.39156">
        <ele>134</ele>
        <time>2025-06-04T15:20:12Z</time>
      </trkpt>
      <trkpt lat="43.65007" lon="1.39156">
        <ele>135</ele>
        <time>2025-06-04T15:20:13Z</time>
      </trkpt>
      <trkpt lat="43.65004" lon="1.39157">
        <ele>135</ele>
        <time>2025-06-04T15:20:14Z</time>
      </trkpt>
      <trkpt lat="43.65001" lon="1.39157">
        <ele>135</ele>
        <time>2025-06-04T15:20:15Z</time>
      </trkpt>
      <trkpt lat="43.64999" lon="1.39158">
        <ele>135</ele>
        <time>2025-06-04T15:20:16Z</time>
      </trkpt>
      <trkpt lat="43.64996" lon="1.39159">
        <ele>135</ele>
        <time>2025-06-04T15:20:17Z</time>
      </trkpt>
      <trkpt lat="43.64993" lon="1.39159">
        <ele>134</ele>
        <time>2025-06-04T15:20:18Z</time>
      </trkpt>
      <trkpt lat="43.6499" lon="1.3916">
        <ele>134</ele>
        <time>2025-06-04T15:20:19Z</time>
      </trkpt>
      <trkpt lat="43.64987" lon="1.39161">
        <ele>134</ele>
        <time>2025-06-04T15:20:20Z</time>
      </trkpt>
      <trkpt lat="43.64985" lon="1.39161">
        <ele>134</ele>
        <time>2025-06-04T15:20:21Z</time>
      </trkpt>
      <trkpt lat="43.64982" lon="1.39162">
        <ele>134</ele>
        <time>2025-06-04T15:20:22Z</time>
      </trkpt>
      <trkpt lat="43.64979" lon="1.39162">
        <ele>134</ele>
        <time>2025-06-04T15:20:23Z</time>
      </trkpt>
      <trkpt lat="43.64976" lon="1.39162">
        <ele>135</ele>
        <time>2025-06-04T15:20:24Z</time>
      </trkpt>
      <trkpt lat="43.64973" lon="1.39163">
        <ele>135</ele>
        <time>2025-06-04T15:20:25Z</time>
      </trkpt>
      <trkpt lat="43.64971" lon="1.39164">
        <ele>135</ele>
        <time>2025-06-04T15:20:26Z</time>
      </trkpt>
      <trkpt lat="43.64968" lon="1.39164">
        <ele>135</ele>
        <time>2025-06-04T15:20:27Z</time>
      </trkpt>
      <trkpt lat="43.64965" lon="1.39164">
        <ele>135</ele>
        <time>2025-06-04T15:20:28Z</time>
      </trkpt>
      <trkpt lat="43.64962" lon="1.39162">
        <ele>135</ele>
        <time>2025-06-04T15:20:29Z</time>
      </trkpt>
      <trkpt lat="43.6496" lon="1.39159">
        <ele>135</ele>
        <time>2025-06-04T15:20:30Z</time>
      </trkpt>
      <trkpt lat="43.64958" lon="1.39156">
        <ele>135</ele>
        <time>2025-06-04T15:20:31Z</time>
      </trkpt>
      <trkpt lat="43.64956" lon="1.39152">
        <ele>135</ele>
        <time>2025-06-04T15:20:32Z</time>
      </trkpt>
      <trkpt lat="43.64954" lon="1.39149">
        <ele>135</ele>
        <time>2025-06-04T15:20:33Z</time>
      </trkpt>
      <trkpt lat="43.64953" lon="1.39145">
        <ele>135</ele>
        <time>2025-06-04T15:20:34Z</time>
      </trkpt>
      <trkpt lat="43.64952" lon="1.39141">
        <ele>135</ele>
        <time>2025-06-04T15:20:35Z</time>
      </trkpt>
      <trkpt lat="43.64951" lon="1.39137">
        <ele>135</ele>
        <time>2025-06-04T15:20:36Z</time>
      </trkpt>
      <trkpt lat="43.6495" lon="1.39133">
        <ele>135</ele>
        <time>2025-06-04T15:20:37Z</time>
      </trkpt>
      <trkpt lat="43.64949" lon="1.39129">
        <ele>135</ele>
        <time>2025-06-04T15:20:38Z</time>
      </trkpt>
      <trkpt lat="43.64948" lon="1.39126">
        <ele>135</ele>
        <time>2025-06-04T15:20:39Z</time>
      </trkpt>
      <trkpt lat="43.64946" lon="1.39124">
        <ele>135</ele>
        <time>2025-06-04T15:20:40Z</time>
      </trkpt>
      <trkpt lat="43.64944" lon="1.39121">
        <ele>134</ele>
        <time>2025-06-04T15:20:41Z</time>
      </trkpt>
      <trkpt lat="43.64941" lon="1.3912">
        <ele>134</ele>
        <time>2025-06-04T15:20:42Z</time>
      </trkpt>
      <trkpt lat="43.64938" lon="1.39119">
        <ele>134</ele>
        <time>2025-06-04T15:20:43Z</time>
      </trkpt>
      <trkpt lat="43.64936" lon="1.39119">
        <ele>134</ele>
        <time>2025-06-04T15:20:44Z</time>
      </trkpt>
      <trkpt lat="43.64933" lon="1.39118">
        <ele>135</ele>
        <time>2025-06-04T15:20:45Z</time>
      </trkpt>
      <trkpt lat="43.64931" lon="1.39118">
        <ele>135</ele>
        <time>2025-06-04T15:20:46Z</time>
      </trkpt>
      <trkpt lat="43.64928" lon="1.39118">
        <ele>135</ele>
        <time>2025-06-04T15:20:47Z</time>
      </trkpt>
      <trkpt lat="43.64925" lon="1.39118">
        <ele>135</ele>
        <time>2025-06-04T15:20:48Z</time>
      </trkpt>
      <trkpt lat="43.64922" lon="1.39118">
        <ele>135</ele>
        <time>2025-06-04T15:20:49Z</time>
      </trkpt>
      <trkpt lat="43.6492" lon="1.39118">
        <ele>135</ele>
        <time>2025-06-04T15:20:50Z</time>
      </trkpt>
      <trkpt lat="43.64917" lon="1.39119">
        <ele>135</ele>
        <time>2025-06-04T15:20:51Z</time>
      </trkpt>
      <trkpt lat="43.64914" lon="1.39119">
        <ele>135</ele>
        <time>2025-06-04T15:20:52Z</time>
      </trkpt>
      <trkpt lat="43.64911" lon="1.39119">
        <ele>135</ele>
        <time>2025-06-04T15:20:53Z</time>
      </trkpt>
      <trkpt lat="43.64909" lon="1.3912">
        <ele>135</ele>
        <time>2025-06-04T15:20:54Z</time>
      </trkpt>
      <trkpt lat="43.64906" lon="1.3912">
        <ele>135</ele>
        <time>2025-06-04T15:20:55Z</time>
      </trkpt>
      <trkpt lat="43.64903" lon="1.39121">
        <ele>135</ele>
        <time>2025-06-04T15:20:56Z</time>
      </trkpt>
      <trkpt lat="43.64901" lon="1.39122">
        <ele>135</ele>
        <time>2025-06-04T15:20:57Z</time>
      </trkpt>
      <trkpt lat="43.64898" lon="1.39122">
        <ele>135</ele>
        <time>2025-06-04T15:20:58Z</time>
      </trkpt>
      <trkpt lat="43.64895" lon="1.39123">
        <ele>135</ele>
        <time>2025-06-04T15:20:59Z</time>
      </trkpt>
      <trkpt lat="43.64892" lon="1.39124">
        <ele>135</ele>
        <time>2025-06-04T15:21:00Z</time>
      </trkpt>
      <trkpt lat="43.6489" lon="1.39124">
        <ele>135</ele>
        <time>2025-06-04T15:21:01Z</time>
      </trkpt>
      <trkpt lat="43.64887" lon="1.39125">
        <ele>135</ele>
        <time>2025-06-04T15:21:02Z</time>
      </trkpt>
      <trkpt lat="43.64884" lon="1.39125">
        <ele>135</ele>
        <time>2025-06-04T15:21:03Z</time>
      </trkpt>
      <trkpt lat="43.64881" lon="1.39126">
        <ele>135</ele>
        <time>2025-06-04T15:21:04Z</time>
      </trkpt>
      <trkpt lat="43.64878" lon="1.39127">
        <ele>135</ele>
        <time>2025-06-04T15:21:05Z</time>
      </trkpt>
      <trkpt lat="43.64875" lon="1.39128">
        <ele>135</ele>
        <time>2025-06-04T15:21:06Z</time>
      </trkpt>
      <trkpt lat="43.64873" lon="1.39128">
        <ele>134</ele>
        <time>2025-06-04T15:21:07Z</time>
      </trkpt>
      <trkpt lat="43.6487" lon="1.39129">
        <ele>134</ele>
        <time>2025-06-04T15:21:08Z</time>
      </trkpt>
      <trkpt lat="43.64867" lon="1.3913">
        <ele>134</ele>
        <time>2025-06-04T15:21:09Z</time>
      </trkpt>
      <trkpt lat="43.64864" lon="1.39131">
        <ele>134</ele>
        <time>2025-06-04T15:21:10Z</time>
      </trkpt>
      <trkpt lat="43.64862" lon="1.39132">
        <ele>134</ele>
        <time>2025-06-04T15:21:11Z</time>
      </trkpt>
      <trkpt lat="43.64859" lon="1.39133">
        <ele>134</ele>
        <time>2025-06-04T15:21:12Z</time>
      </trkpt>
      <trkpt lat="43.64856" lon="1.39134">
        <ele>135</ele>
        <time>2025-06-04T15:21:13Z</time>
      </trkpt>
      <trkpt lat="43.64853" lon="1.39135">
        <ele>135</ele>
        <time>2025-06-04T15:21:14Z</time>
      </trkpt>
      <trkpt lat="43.64851" lon="1.39135">
        <ele>135</ele>
        <time>2025-06-04T15:21:15Z</time>
      </trkpt>
      <trkpt lat="43.64848" lon="1.39136">
        <ele>135</ele>
        <time>2025-06-04T15:21:16Z</time>
      </trkpt>
      <trkpt lat="43.64845" lon="1.39138">
        <ele>135</ele>
        <time>2025-06-04T15:21:17Z</time>
      </trkpt>
      <trkpt lat="43.64842" lon="1.3914">
        <ele>135</ele>
        <time>2025-06-04T15:21:18Z</time>
      </trkpt>
      <trkpt lat="43.6484" lon="1.39142">
        <ele>135</ele>
        <time>2025-06-04T15:21:19Z</time>
      </trkpt>
      <trkpt lat="43.64837" lon="1.39143">
        <ele>134</ele>
        <time>2025-06-04T15:21:20Z</time>
      </trkpt>
      <trkpt lat="43.64834" lon="1.39145">
        <ele>134</ele>
        <time>2025-06-04T15:21:21Z</time>
      </trkpt>
      <trkpt lat="43.64832" lon="1.39147">
        <ele>134</ele>
        <time>2025-06-04T15:21:22Z</time>
      </trkpt>
      <trkpt lat="43.64829" lon="1.39149">
        <ele>134</ele>
        <time>2025-06-04T15:21:23Z</time>
      </trkpt>
      <trkpt lat="43.64827" lon="1.39151">
        <ele>134</ele>
        <time>2025-06-04T15:21:24Z</time>
      </trkpt>
      <trkpt lat="43.64824" lon="1.39153">
        <ele>134</ele>
        <time>2025-06-04T15:21:25Z</time>
      </trkpt>
      <trkpt lat="43.64821" lon="1.39154">
        <ele>134</ele>
        <time>2025-06-04T15:21:26Z</time>
      </trkpt>
      <trkpt lat="43.64819" lon="1.39156">
        <ele>134</ele>
        <time>2025-06-04T15:21:27Z</time>
      </trkpt>
      <trkpt lat="43.64816" lon="1.39157">
        <ele>134</ele>
        <time>2025-06-04T15:21:28Z</time>
      </trkpt>
      <trkpt lat="43.64813" lon="1.39159">
        <ele>134</ele>
        <time>2025-06-04T15:21:29Z</time>
      </trkpt>
      <trkpt lat="43.6481" lon="1.39161">
        <ele>134</ele>
        <time>2025-06-04T15:21:30Z</time>
      </trkpt>
      <trkpt lat="43.64808" lon="1.39163">
        <ele>134</ele>
        <time>2025-06-04T15:21:31Z</time>
      </trkpt>
      <trkpt lat="43.64805" lon="1.39165">
        <ele>134</ele>
        <time>2025-06-04T15:21:32Z</time>
      </trkpt>
      <trkpt lat="43.64803" lon="1.39167">
        <ele>134</ele>
        <time>2025-06-04T15:21:33Z</time>
      </trkpt>
      <trkpt lat="43.648" lon="1.39169">
        <ele>134</ele>
        <time>2025-06-04T15:21:34Z</time>
      </trkpt>
      <trkpt lat="43.64797" lon="1.39171">
        <ele>134</ele>
        <time>2025-06-04T15:21:35Z</time>
      </trkpt>
      <trkpt lat="43.64795" lon="1.39173">
        <ele>134</ele>
        <time>2025-06-04T15:21:36Z</time>
      </trkpt>
      <trkpt lat="43.64792" lon="1.39175">
        <ele>134</ele>
        <time>2025-06-04T15:21:37Z</time>
      </trkpt>
      <trkpt lat="43.6479" lon="1.39176">
        <ele>134</ele>
        <time>2025-06-04T15:21:38Z</time>
      </trkpt>
      <trkpt lat="43.64787" lon="1.39178">
        <ele>134</ele>
        <time>2025-06-04T15:21:39Z</time>
      </trkpt>
      <trkpt lat="43.64785" lon="1.3918">
        <ele>134</ele>
        <time>2025-06-04T15:21:40Z</time>
      </trkpt>
      <trkpt lat="43.64782" lon="1.39181">
        <ele>134</ele>
        <time>2025-06-04T15:21:41Z</time>
      </trkpt>
      <trkpt lat="43.64779" lon="1.39183">
        <ele>134</ele>
        <time>2025-06-04T15:21:42Z</time>
      </trkpt>
      <trkpt lat="43.64777" lon="1.39184">
        <ele>134</ele>
        <time>2025-06-04T15:21:43Z</time>
      </trkpt>
      <trkpt lat="43.64774" lon="1.39186">
        <ele>134</ele>
        <time>2025-06-04T15:21:44Z</time>
      </trkpt>
      <trkpt lat="43.64772" lon="1.39187">
        <ele>134</ele>
        <time>2025-06-04T15:21:45Z</time>
      </trkpt>
      <trkpt lat="43.64769" lon="1.39189">
        <ele>134</ele>
        <time>2025-06-04T15:21:46Z</time>
      </trkpt>
      <trkpt lat="43.64766" lon="1.3919">
        <ele>134</ele>
        <time>2025-06-04T15:21:47Z</time>
      </trkpt>
      <trkpt lat="43.64764" lon="1.39192">
        <ele>134</ele>
        <time>2025-06-04T15:21:48Z</time>
      </trkpt>
      <trkpt lat="43.64761" lon="1.39193">
        <ele>134</ele>
        <time>2025-06-04T15:21:49Z</time>
      </trkpt>
      <trkpt lat="43.64758" lon="1.39195">
        <ele>134</ele>
        <time>2025-06-04T15:21:50Z</time>
      </trkpt>
      <trkpt lat="43.64755" lon="1.39197">
        <ele>134</ele>
        <time>2025-06-04T15:21:51Z</time>
      </trkpt>
      <trkpt lat="43.64753" lon="1.39199">
        <ele>134</ele>
        <time>2025-06-04T15:21:52Z</time>
      </trkpt>
      <trkpt lat="43.6475" lon="1.392">
        <ele>134</ele>
        <time>2025-06-04T15:21:53Z</time>
      </trkpt>
      <trkpt lat="43.64748" lon="1.39202">
        <ele>134</ele>
        <time>2025-06-04T15:21:54Z</time>
      </trkpt>
      <trkpt lat="43.64745" lon="1.39204">
        <ele>134</ele>
        <time>2025-06-04T15:21:55Z</time>
      </trkpt>
      <trkpt lat="43.64743" lon="1.39206">
        <ele>134</ele>
        <time>2025-06-04T15:21:56Z</time>
      </trkpt>
      <trkpt lat="43.6474" lon="1.39208">
        <ele>134</ele>
        <time>2025-06-04T15:21:57Z</time>
      </trkpt>
      <trkpt lat="43.64738" lon="1.39209">
        <ele>134</ele>
        <time>2025-06-04T15:21:58Z</time>
      </trkpt>
      <trkpt lat="43.64735" lon="1.3921">
        <ele>134</ele>
        <time>2025-06-04T15:21:59Z</time>
      </trkpt>
      <trkpt lat="43.64733" lon="1.39212">
        <ele>134</ele>
        <time>2025-06-04T15:22:00Z</time>
      </trkpt>
      <trkpt lat="43.6473" lon="1.39215">
        <ele>134</ele>
        <time>2025-06-04T15:22:01Z</time>
      </trkpt>
      <trkpt lat="43.64728" lon="1.39217">
        <ele>134</ele>
        <time>2025-06-04T15:22:02Z</time>
      </trkpt>
      <trkpt lat="43.64725" lon="1.39218">
        <ele>134</ele>
        <time>2025-06-04T15:22:03Z</time>
      </trkpt>
      <trkpt lat="43.64722" lon="1.39219">
        <ele>134</ele>
        <time>2025-06-04T15:22:04Z</time>
      </trkpt>
      <trkpt lat="43.6472" lon="1.39221">
        <ele>134</ele>
        <time>2025-06-04T15:22:05Z</time>
      </trkpt>
      <trkpt lat="43.64717" lon="1.39223">
        <ele>134</ele>
        <time>2025-06-04T15:22:06Z</time>
      </trkpt>
      <trkpt lat="43.64714" lon="1.39225">
        <ele>134</ele>
        <time>2025-06-04T15:22:07Z</time>
      </trkpt>
      <trkpt lat="43.64712" lon="1.39227">
        <ele>134</ele>
        <time>2025-06-04T15:22:08Z</time>
      </trkpt>
      <trkpt lat="43.64709" lon="1.39229">
        <ele>134</ele>
        <time>2025-06-04T15:22:09Z</time>
      </trkpt>
      <trkpt lat="43.64707" lon="1.39231">
        <ele>135</ele>
        <time>2025-06-04T15:22:10Z</time>
      </trkpt>
      <trkpt lat="43.64704" lon="1.39232">
        <ele>135</ele>
        <time>2025-06-04T15:22:11Z</time>
      </trkpt>
      <trkpt lat="43.64701" lon="1.39234">
        <ele>135</ele>
        <time>2025-06-04T15:22:12Z</time>
      </trkpt>
      <trkpt lat="43.64698" lon="1.39236">
        <ele>135</ele>
        <time>2025-06-04T15:22:13Z</time>
      </trkpt>
      <trkpt lat="43.64694" lon="1.39237">
        <ele>135</ele>
        <time>2025-06-04T15:22:14Z</time>
      </trkpt>
      <trkpt lat="43.64691" lon="1.39239">
        <ele>135</ele>
        <time>2025-06-04T15:22:15Z</time>
      </trkpt>
      <trkpt lat="43.64688" lon="1.39242">
        <ele>135</ele>
        <time>2025-06-04T15:22:16Z</time>
      </trkpt>
      <trkpt lat="43.64684" lon="1.39244">
        <ele>135</ele>
        <time>2025-06-04T15:22:17Z</time>
      </trkpt>
      <trkpt lat="43.64681" lon="1.39247">
        <ele>135</ele>
        <time>2025-06-04T15:22:18Z</time>
      </trkpt>
      <trkpt lat="43.64677" lon="1.39249">
        <ele>135</ele>
        <time>2025-06-04T15:22:19Z</time>
      </trkpt>
      <trkpt lat="43.64674" lon="1.3925">
        <ele>135</ele>
        <time>2025-06-04T15:22:20Z</time>
      </trkpt>
      <trkpt lat="43.6467" lon="1.39251">
        <ele>135</ele>
        <time>2025-06-04T15:22:21Z</time>
      </trkpt>
      <trkpt lat="43.64667" lon="1.39253">
        <ele>135</ele>
        <time>2025-06-04T15:22:22Z</time>
      </trkpt>
      <trkpt lat="43.64663" lon="1.39254">
        <ele>135</ele>
        <time>2025-06-04T15:22:23Z</time>
      </trkpt>
      <trkpt lat="43.6466" lon="1.39256">
        <ele>135</ele>
        <time>2025-06-04T15:22:24Z</time>
      </trkpt>
      <trkpt lat="43.64656" lon="1.39258">
        <ele>135</ele>
        <time>2025-06-04T15:22:25Z</time>
      </trkpt>
      <trkpt lat="43.64653" lon="1.39259">
        <ele>135</ele>
        <time>2025-06-04T15:22:26Z</time>
      </trkpt>
      <trkpt lat="43.6465" lon="1.3926">
        <ele>135</ele>
        <time>2025-06-04T15:22:27Z</time>
      </trkpt>
      <trkpt lat="43.64647" lon="1.39262">
        <ele>135</ele>
        <time>2025-06-04T15:22:28Z</time>
      </trkpt>
      <trkpt lat="43.64643" lon="1.39264">
        <ele>135</ele>
        <time>2025-06-04T15:22:29Z</time>
      </trkpt>
      <trkpt lat="43.64639" lon="1.39266">
        <ele>135</ele>
        <time>2025-06-04T15:22:30Z</time>
      </trkpt>
      <trkpt lat="43.64636" lon="1.39268">
        <ele>135</ele>
        <time>2025-06-04T15:22:31Z</time>
      </trkpt>
      <trkpt lat="43.64632" lon="1.3927">
        <ele>135</ele>
        <time>2025-06-04T15:22:32Z</time>
      </trkpt>
      <trkpt lat="43.64629" lon="1.39272">
        <ele>135</ele>
        <time>2025-06-04T15:22:33Z</time>
      </trkpt>
      <trkpt lat="43.64625" lon="1.39273">
        <ele>135</ele>
        <time>2025-06-04T15:22:34Z</time>
      </trkpt>
      <trkpt lat="43.64622" lon="1.39275">
        <ele>135</ele>
        <time>2025-06-04T15:22:35Z</time>
      </trkpt>
      <trkpt lat="43.64619" lon="1.39276">
        <ele>135</ele>
        <time>2025-06-04T15:22:36Z</time>
      </trkpt>
      <trkpt lat="43.64616" lon="1.39277">
        <ele>135</ele>
        <time>2025-06-04T15:22:37Z</time>
      </trkpt>
      <trkpt lat="43.64612" lon="1.39279">
        <ele>135</ele>
        <time>2025-06-04T15:22:38Z</time>
      </trkpt>
      <trkpt lat="43.64609" lon="1.3928">
        <ele>135</ele>
        <time>2025-06-04T15:22:39Z</time>
      </trkpt>
      <trkpt lat="43.64606" lon="1.39281">
        <ele>135</ele>
        <time>2025-06-04T15:22:40Z</time>
      </trkpt>
      <trkpt lat="43.64602" lon="1.39283">
        <ele>135</ele>
        <time>2025-06-04T15:22:41Z</time>
      </trkpt>
      <trkpt lat="43.64599" lon="1.39285">
        <ele>135</ele>
        <time>2025-06-04T15:22:42Z</time>
      </trkpt>
      <trkpt lat="43.64595" lon="1.39286">
        <ele>135</ele>
        <time>2025-06-04T15:22:43Z</time>
      </trkpt>
      <trkpt lat="43.64592" lon="1.39288">
        <ele>135</ele>
        <time>2025-06-04T15:22:44Z</time>
      </trkpt>
      <trkpt lat="43.64589" lon="1.39289">
        <ele>135</ele>
        <time>2025-06-04T15:22:45Z</time>
      </trkpt>
      <trkpt lat="43.64585" lon="1.3929">
        <ele>135</ele>
        <time>2025-06-04T15:22:46Z</time>
      </trkpt>
      <trkpt lat="43.64582" lon="1.39292">
        <ele>135</ele>
        <time>2025-06-04T15:22:47Z</time>
      </trkpt>
      <trkpt lat="43.64579" lon="1.39293">
        <ele>135</ele>
        <time>2025-06-04T15:22:48Z</time>
      </trkpt>
      <trkpt lat="43.64575" lon="1.39294">
        <ele>135</ele>
        <time>2025-06-04T15:22:49Z</time>
      </trkpt>
      <trkpt lat="43.64571" lon="1.39295">
        <ele>135</ele>
        <time>2025-06-04T15:22:50Z</time>
      </trkpt>
      <trkpt lat="43.64568" lon="1.39296">
        <ele>135</ele>
        <time>2025-06-04T15:22:51Z</time>
      </trkpt>
      <trkpt lat="43.64564" lon="1.39297">
        <ele>135</ele>
        <time>2025-06-04T15:22:52Z</time>
      </trkpt>
      <trkpt lat="43.6456" lon="1.39299">
        <ele>135</ele>
        <time>2025-06-04T15:22:53Z</time>
      </trkpt>
      <trkpt lat="43.64557" lon="1.393">
        <ele>135</ele>
        <time>2025-06-04T15:22:54Z</time>
      </trkpt>
      <trkpt lat="43.64554" lon="1.39301">
        <ele>135</ele>
        <time>2025-06-04T15:22:55Z</time>
      </trkpt>
      <trkpt lat="43.6455" lon="1.39302">
        <ele>135</ele>
        <time>2025-06-04T15:22:56Z</time>
      </trkpt>
      <trkpt lat="43.64547" lon="1.39303">
        <ele>135</ele>
        <time>2025-06-04T15:22:57Z</time>
      </trkpt>
      <trkpt lat="43.64543" lon="1.39304">
        <ele>135</ele>
        <time>2025-06-04T15:22:58Z</time>
      </trkpt>
      <trkpt lat="43.6454" lon="1.39304">
        <ele>135</ele>
        <time>2025-06-04T15:22:59Z</time>
      </trkpt>
      <trkpt lat="43.64536" lon="1.39305">
        <ele>135</ele>
        <time>2025-06-04T15:23:00Z</time>
      </trkpt>
      <trkpt lat="43.64533" lon="1.39306">
        <ele>135</ele>
        <time>2025-06-04T15:23:01Z</time>
      </trkpt>
      <trkpt lat="43.64529" lon="1.39307">
        <ele>135</ele>
        <time>2025-06-04T15:23:02Z</time>
      </trkpt>
      <trkpt lat="43.64526" lon="1.39308">
        <ele>135</ele>
        <time>2025-06-04T15:23:03Z</time>
      </trkpt>
      <trkpt lat="43.64522" lon="1.39309">
        <ele>135</ele>
        <time>2025-06-04T15:23:04Z</time>
      </trkpt>
      <trkpt lat="43.64519" lon="1.39309">
        <ele>135</ele>
        <time>2025-06-04T15:23:05Z</time>
      </trkpt>
      <trkpt lat="43.64515" lon="1.39311">
        <ele>135</ele>
        <time>2025-06-04T15:23:06Z</time>
      </trkpt>
      <trkpt lat="43.64512" lon="1.39311">
        <ele>135</ele>
        <time>2025-06-04T15:23:07Z</time>
      </trkpt>
      <trkpt lat="43.64509" lon="1.39313">
        <ele>135</ele>
        <time>2025-06-04T15:23:08Z</time>
      </trkpt>
      <trkpt lat="43.64505" lon="1.39313">
        <ele>135</ele>
        <time>2025-06-04T15:23:09Z</time>
      </trkpt>
      <trkpt lat="43.64502" lon="1.39313">
        <ele>135</ele>
        <time>2025-06-04T15:23:10Z</time>
      </trkpt>
      <trkpt lat="43.64499" lon="1.39314">
        <ele>135</ele>
        <time>2025-06-04T15:23:11Z</time>
      </trkpt>
      <trkpt lat="43.64495" lon="1.39314">
        <ele>135</ele>
        <time>2025-06-04T15:23:12Z</time>
      </trkpt>
      <trkpt lat="43.64492" lon="1.39313">
        <ele>135</ele>
        <time>2025-06-04T15:23:13Z</time>
      </trkpt>
      <trkpt lat="43.64489" lon="1.39313">
        <ele>136</ele>
        <time>2025-06-04T15:23:14Z</time>
      </trkpt>
      <trkpt lat="43.64486" lon="1.39313">
        <ele>136</ele>
        <time>2025-06-04T15:23:15Z</time>
      </trkpt>
      <trkpt lat="43.64482" lon="1.39312">
        <ele>137</ele>
        <time>2025-06-04T15:23:16Z</time>
      </trkpt>
      <trkpt lat="43.64479" lon="1.39312">
        <ele>137</ele>
        <time>2025-06-04T15:23:17Z</time>
      </trkpt>
      <trkpt lat="43.64476" lon="1.39312">
        <ele>137</ele>
        <time>2025-06-04T15:23:18Z</time>
      </trkpt>
      <trkpt lat="43.64473" lon="1.39312">
        <ele>137</ele>
        <time>2025-06-04T15:23:19Z</time>
      </trkpt>
      <trkpt lat="43.6447" lon="1.39312">
        <ele>137</ele>
        <time>2025-06-04T15:23:20Z</time>
      </trkpt>
      <trkpt lat="43.64467" lon="1.39312">
        <ele>138</ele>
        <time>2025-06-04T15:23:21Z</time>
      </trkpt>
      <trkpt lat="43.64465" lon="1.39313">
        <ele>138</ele>
        <time>2025-06-04T15:23:22Z</time>
      </trkpt>
      <trkpt lat="43.64465" lon="1.39313">
        <ele>138</ele>
        <time>2025-06-04T15:23:23Z</time>
      </trkpt>
      <trkpt lat="43.64463" lon="1.39313">
        <ele>138</ele>
        <time>2025-06-04T15:23:24Z</time>
      </trkpt>
      <trkpt lat="43.64463" lon="1.39313">
        <ele>138</ele>
        <time>2025-06-04T15:23:25Z</time>
      </trkpt>
      <trkpt lat="43.64461" lon="1.39315">
        <ele>138</ele>
        <time>2025-06-04T15:23:26Z</time>
      </trkpt>
      <trkpt lat="43.64461" lon="1.39315">
        <ele>138</ele>
        <time>2025-06-04T15:23:27Z</time>
      </trkpt>
      <trkpt lat="43.64462" lon="1.39319">
        <ele>138</ele>
        <time>2025-06-04T15:23:28Z</time>
      </trkpt>
      <trkpt lat="43.64462" lon="1.39319">
        <ele>138</ele>
        <time>2025-06-04T15:23:29Z</time>
      </trkpt>
      <trkpt lat="43.64462" lon="1.39323">
        <ele>138</ele>
        <time>2025-06-04T15:23:30Z</time>
      </trkpt>
      <trkpt lat="43.64462" lon="1.39323">
        <ele>138</ele>
        <time>2025-06-04T15:23:31Z</time>
      </trkpt>
      <trkpt lat="43.64464" lon="1.39326">
        <ele>138</ele>
        <time>2025-06-04T15:23:32Z</time>
      </trkpt>
      <trkpt lat="43.64464" lon="1.39326">
        <ele>138</ele>
        <time>2025-06-04T15:23:33Z</time>
      </trkpt>
      <trkpt lat="43.64466" lon="1.39329">
        <ele>138</ele>
        <time>2025-06-04T15:23:34Z</time>
      </trkpt>
      <trkpt lat="43.64466" lon="1.39329">
        <ele>138</ele>
        <time>2025-06-04T15:23:35Z</time>
      </trkpt>
      <trkpt lat="43.64467" lon="1.39332">
        <ele>138</ele>
        <time>2025-06-04T15:23:36Z</time>
      </trkpt>
      <trkpt lat="43.64467" lon="1.39332">
        <ele>138</ele>
        <time>2025-06-04T15:23:37Z</time>
      </trkpt>
      <trkpt lat="43.64468" lon="1.39336">
        <ele>138</ele>
        <time>2025-06-04T15:23:38Z</time>
      </trkpt>
      <trkpt lat="43.64468" lon="1.39336">
        <ele>138</ele>
        <time>2025-06-04T15:23:39Z</time>
      </trkpt>
      <trkpt lat="43.64469" lon="1.3934">
        <ele>138</ele>
        <time>2025-06-04T15:23:40Z</time>
      </trkpt>
      <trkpt lat="43.64469" lon="1.3934">
        <ele>138</ele>
        <time>2025-06-04T15:23:41Z</time>
      </trkpt>
      <trkpt lat="43.64469" lon="1.39343">
        <ele>138</ele>
        <time>2025-06-04T15:23:42Z</time>
      </trkpt>
      <trkpt lat="43.64469" lon="1.39343">
        <ele>138</ele>
        <time>2025-06-04T15:23:43Z</time>
      </trkpt>
      <trkpt lat="43.64469" lon="1.39347">
        <ele>138</ele>
        <time>2025-06-04T15:23:44Z</time>
      </trkpt>
      <trkpt lat="43.64469" lon="1.39347">
        <ele>138</ele>
        <time>2025-06-04T15:23:45Z</time>
      </trkpt>
      <trkpt lat="43.6447" lon="1.3935">
        <ele>138</ele>
        <time>2025-06-04T15:23:46Z</time>
      </trkpt>
      <trkpt lat="43.6447" lon="1.3935">
        <ele>138</ele>
        <time>2025-06-04T15:23:47Z</time>
      </trkpt>
      <trkpt lat="43.6447" lon="1.39354">
        <ele>138</ele>
        <time>2025-06-04T15:23:48Z</time>
      </trkpt>
      <trkpt lat="43.6447" lon="1.39354">
        <ele>138</ele>
        <time>2025-06-04T15:23:49Z</time>
      </trkpt>
      <trkpt lat="43.64471" lon="1.39358">
        <ele>137</ele>
        <time>2025-06-04T15:23:50Z</time>
      </trkpt>
      <trkpt lat="43.64471" lon="1.39358">
        <ele>137</ele>
        <time>2025-06-04T15:23:51Z</time>
      </trkpt>
      <trkpt lat="43.64471" lon="1.39361">
        <ele>137</ele>
        <time>2025-06-04T15:23:52Z</time>
      </trkpt>
      <trkpt lat="43.64471" lon="1.39361">
        <ele>137</ele>
        <time>2025-06-04T15:23:53Z</time>
      </trkpt>
      <trkpt lat="43.64472" lon="1.39365">
        <ele>137</ele>
        <time>2025-06-04T15:23:54Z</time>
      </trkpt>
      <trkpt lat="43.64472" lon="1.39365">
        <ele>137</ele>
        <time>2025-06-04T15:23:55Z</time>
      </trkpt>
      <trkpt lat="43.64473" lon="1.3937">
        <ele>137</ele>
        <time>2025-06-04T15:23:56Z</time>
      </trkpt>
      <trkpt lat="43.64473" lon="1.3937">
        <ele>137</ele>
        <time>2025-06-04T15:23:57Z</time>
      </trkpt>
      <trkpt lat="43.64474" lon="1.39374">
        <ele>137</ele>
        <time>2025-06-04T15:23:58Z</time>
      </trkpt>
      <trkpt lat="43.64475" lon="1.39376">
        <ele>137</ele>
        <time>2025-06-04T15:23:59Z</time>
      </trkpt>
      <trkpt lat="43.64475" lon="1.39376">
        <ele>137</ele>
        <time>2025-06-04T15:24:00Z</time>
      </trkpt>
      <trkpt lat="43.64477" lon="1.39381">
        <ele>137</ele>
        <time>2025-06-04T15:24:01Z</time>
      </trkpt>
      <trkpt lat="43.64477" lon="1.39383">
        <ele>137</ele>
        <time>2025-06-04T15:24:02Z</time>
      </trkpt>
      <trkpt lat="43.64477" lon="1.39383">
        <ele>137</ele>
        <time>2025-06-04T15:24:03Z</time>
      </trkpt>
      <trkpt lat="43.64478" lon="1.39387">
        <ele>137</ele>
        <time>2025-06-04T15:24:04Z</time>
      </trkpt>
      <trkpt lat="43.64479" lon="1.3939">
        <ele>138</ele>
        <time>2025-06-04T15:24:05Z</time>
      </trkpt>
      <trkpt lat="43.6448" lon="1.39393">
        <ele>138</ele>
        <time>2025-06-04T15:24:06Z</time>
      </trkpt>
      <trkpt lat="43.6448" lon="1.39396">
        <ele>138</ele>
        <time>2025-06-04T15:24:07Z</time>
      </trkpt>
      <trkpt lat="43.6448" lon="1.39396">
        <ele>138</ele>
        <time>2025-06-04T15:24:08Z</time>
      </trkpt>
      <trkpt lat="43.64481" lon="1.394">
        <ele>138</ele>
        <time>2025-06-04T15:24:09Z</time>
      </trkpt>
      <trkpt lat="43.64482" lon="1.39403">
        <ele>138</ele>
        <time>2025-06-04T15:24:10Z</time>
      </trkpt>
      <trkpt lat="43.64482" lon="1.39403">
        <ele>138</ele>
        <time>2025-06-04T15:24:11Z</time>
      </trkpt>
      <trkpt lat="43.64482" lon="1.39406">
        <ele>138</ele>
        <time>2025-06-04T15:24:12Z</time>
      </trkpt>
      <trkpt lat="43.64483" lon="1.39409">
        <ele>138</ele>
        <time>2025-06-04T15:24:13Z</time>
      </trkpt>
      <trkpt lat="43.64483" lon="1.39413">
        <ele>138</ele>
        <time>2025-06-04T15:24:14Z</time>
      </trkpt>
      <trkpt lat="43.64483" lon="1.39415">
        <ele>138</ele>
        <time>2025-06-04T15:24:15Z</time>
      </trkpt>
      <trkpt lat="43.64483" lon="1.39418">
        <ele>137</ele>
        <time>2025-06-04T15:24:16Z</time>
      </trkpt>
      <trkpt lat="43.64484" lon="1.39421">
        <ele>137</ele>
        <time>2025-06-04T15:24:17Z</time>
      </trkpt>
      <trkpt lat="43.64484" lon="1.39421">
        <ele>137</ele>
        <time>2025-06-04T15:24:18Z</time>
      </trkpt>
      <trkpt lat="43.64484" lon="1.39425">
        <ele>137</ele>
        <time>2025-06-04T15:24:19Z</time>
      </trkpt>
      <trkpt lat="43.64484" lon="1.39425">
        <ele>137</ele>
        <time>2025-06-04T15:24:20Z</time>
      </trkpt>
      <trkpt lat="43.64484" lon="1.3943">
        <ele>137</ele>
        <time>2025-06-04T15:24:21Z</time>
      </trkpt>
      <trkpt lat="43.64484" lon="1.3943">
        <ele>137</ele>
        <time>2025-06-04T15:24:22Z</time>
      </trkpt>
      <trkpt lat="43.64484" lon="1.39434">
        <ele>137</ele>
        <time>2025-06-04T15:24:23Z</time>
      </trkpt>
      <trkpt lat="43.64484" lon="1.39434">
        <ele>137</ele>
        <time>2025-06-04T15:24:24Z</time>
      </trkpt>
      <trkpt lat="43.64485" lon="1.39437">
        <ele>137</ele>
        <time>2025-06-04T15:24:25Z</time>
      </trkpt>
      <trkpt lat="43.64485" lon="1.39437">
        <ele>138</ele>
        <time>2025-06-04T15:24:26Z</time>
      </trkpt>
      <trkpt lat="43.64485" lon="1.39441">
        <ele>138</ele>
        <time>2025-06-04T15:24:27Z</time>
      </trkpt>
      <trkpt lat="43.64485" lon="1.39441">
        <ele>138</ele>
        <time>2025-06-04T15:24:28Z</time>
      </trkpt>
      <trkpt lat="43.64486" lon="1.39444">
        <ele>138</ele>
        <time>2025-06-04T15:24:29Z</time>
      </trkpt>
      <trkpt lat="43.64486" lon="1.39444">
        <ele>137</ele>
        <time>2025-06-04T15:24:30Z</time>
      </trkpt>
      <trkpt lat="43.64487" lon="1.39448">
        <ele>137</ele>
        <time>2025-06-04T15:24:31Z</time>
      </trkpt>
      <trkpt lat="43.64487" lon="1.39448">
        <ele>137</ele>
        <time>2025-06-04T15:24:32Z</time>
      </trkpt>
      <trkpt lat="43.64488" lon="1.39452">
        <ele>138</ele>
        <time>2025-06-04T15:24:33Z</time>
      </trkpt>
      <trkpt lat="43.64488" lon="1.39452">
        <ele>138</ele>
        <time>2025-06-04T15:24:34Z</time>
      </trkpt>
      <trkpt lat="43.64488" lon="1.39456">
        <ele>138</ele>
        <time>2025-06-04T15:24:35Z</time>
      </trkpt>
      <trkpt lat="43.64488" lon="1.39456">
        <ele>138</ele>
        <time>2025-06-04T15:24:36Z</time>
      </trkpt>
      <trkpt lat="43.64489" lon="1.3946">
        <ele>138</ele>
        <time>2025-06-04T15:24:37Z</time>
      </trkpt>
      <trkpt lat="43.64489" lon="1.3946">
        <ele>137</ele>
        <time>2025-06-04T15:24:38Z</time>
      </trkpt>
      <trkpt lat="43.64489" lon="1.39464">
        <ele>137</ele>
        <time>2025-06-04T15:24:39Z</time>
      </trkpt>
      <trkpt lat="43.64489" lon="1.39464">
        <ele>137</ele>
        <time>2025-06-04T15:24:40Z</time>
      </trkpt>
      <trkpt lat="43.64491" lon="1.39469">
        <ele>137</ele>
        <time>2025-06-04T15:24:41Z</time>
      </trkpt>
      <trkpt lat="43.64491" lon="1.39469">
        <ele>137</ele>
        <time>2025-06-04T15:24:42Z</time>
      </trkpt>
      <trkpt lat="43.64491" lon="1.39473">
        <ele>138</ele>
        <time>2025-06-04T15:24:43Z</time>
      </trkpt>
      <trkpt lat="43.64491" lon="1.39473">
        <ele>138</ele>
        <time>2025-06-04T15:24:44Z</time>
      </trkpt>
      <trkpt lat="43.64492" lon="1.39477">
        <ele>138</ele>
        <time>2025-06-04T15:24:45Z</time>
      </trkpt>
      <trkpt lat="43.64492" lon="1.39477">
        <ele>138</ele>
        <time>2025-06-04T15:24:46Z</time>
      </trkpt>
      <trkpt lat="43.64493" lon="1.39482">
        <ele>138</ele>
        <time>2025-06-04T15:24:47Z</time>
      </trkpt>
      <trkpt lat="43.64493" lon="1.39485">
        <ele>138</ele>
        <time>2025-06-04T15:24:48Z</time>
      </trkpt>
      <trkpt lat="43.64493" lon="1.39485">
        <ele>137</ele>
        <time>2025-06-04T15:24:49Z</time>
      </trkpt>
      <trkpt lat="43.64493" lon="1.39488">
        <ele>137</ele>
        <time>2025-06-04T15:24:50Z</time>
      </trkpt>
      <trkpt lat="43.64493" lon="1.39488">
        <ele>137</ele>
        <time>2025-06-04T15:24:51Z</time>
      </trkpt>
      <trkpt lat="43.64493" lon="1.39492">
        <ele>138</ele>
        <time>2025-06-04T15:24:52Z</time>
      </trkpt>
      <trkpt lat="43.64493" lon="1.39492">
        <ele>138</ele>
        <time>2025-06-04T15:24:53Z</time>
      </trkpt>
      <trkpt lat="43.64493" lon="1.39494">
        <ele>138</ele>
        <time>2025-06-04T15:24:54Z</time>
      </trkpt>
      <trkpt lat="43.64493" lon="1.39494">
        <ele>138</ele>
        <time>2025-06-04T15:24:55Z</time>
      </trkpt>
      <trkpt lat="43.64493" lon="1.39494">
        <ele>138</ele>
        <time>2025-06-04T15:24:56Z</time>
      </trkpt>
      <trkpt lat="43.64493" lon="1.39498">
        <ele>138</ele>
        <time>2025-06-04T15:24:57Z</time>
      </trkpt>
      <trkpt lat="43.64493" lon="1.39498">
        <ele>138</ele>
        <time>2025-06-04T15:24:58Z</time>
      </trkpt>
      <trkpt lat="43.64493" lon="1.395">
        <ele>138</ele>
        <time>2025-06-04T15:24:59Z</time>
      </trkpt>
      <trkpt lat="43.64493" lon="1.395">
        <ele>138</ele>
        <time>2025-06-04T15:25:00Z</time>
      </trkpt>
      <trkpt lat="43.64493" lon="1.395">
        <ele>138</ele>
        <time>2025-06-04T15:25:01Z</time>
      </trkpt>
      <trkpt lat="43.64495" lon="1.39504">
        <ele>138</ele>
        <time>2025-06-04T15:25:02Z</time>
      </trkpt>
      <trkpt lat="43.64495" lon="1.39504">
        <ele>138</ele>
        <time>2025-06-04T15:25:03Z</time>
      </trkpt>
      <trkpt lat="43.64495" lon="1.39504">
        <ele>138</ele>
        <time>2025-06-04T15:25:04Z</time>
      </trkpt>
      <trkpt lat="43.64496" lon="1.39508">
        <ele>138</ele>
        <time>2025-06-04T15:25:05Z</time>
      </trkpt>
      <trkpt lat="43.64496" lon="1.39508">
        <ele>138</ele>
        <time>2025-06-04T15:25:06Z</time>
      </trkpt>
      <trkpt lat="43.64496" lon="1.39511">
        <ele>138</ele>
        <time>2025-06-04T15:25:07Z</time>
      </trkpt>
      <trkpt lat="43.64496" lon="1.39511">
        <ele>138</ele>
        <time>2025-06-04T15:25:08Z</time>
      </trkpt>
      <trkpt lat="43.64496" lon="1.39511">
        <ele>138</ele>
        <time>2025-06-04T15:25:09Z</time>
      </trkpt>
      <trkpt lat="43.64496" lon="1.39515">
        <ele>138</ele>
        <time>2025-06-04T15:25:10Z</time>
      </trkpt>
      <trkpt lat="43.64496" lon="1.39515">
        <ele>138</ele>
        <time>2025-06-04T15:25:11Z</time>
      </trkpt>
      <trkpt lat="43.64496" lon="1.39518">
        <ele>138</ele>
        <time>2025-06-04T15:25:12Z</time>
      </trkpt>
      <trkpt lat="43.64496" lon="1.39518">
        <ele>138</ele>
        <time>2025-06-04T15:25:13Z</time>
      </trkpt>
      <trkpt lat="43.64496" lon="1.39518">
        <ele>138</ele>
        <time>2025-06-04T15:25:14Z</time>
      </trkpt>
      <trkpt lat="43.64497" lon="1.39521">
        <ele>137</ele>
        <time>2025-06-04T15:25:15Z</time>
      </trkpt>
      <trkpt lat="43.64497" lon="1.39521">
        <ele>138</ele>
        <time>2025-06-04T15:25:16Z</time>
      </trkpt>
      <trkpt lat="43.64498" lon="1.39525">
        <ele>138</ele>
        <time>2025-06-04T15:25:17Z</time>
      </trkpt>
      <trkpt lat="43.64498" lon="1.39525">
        <ele>138</ele>
        <time>2025-06-04T15:25:18Z</time>
      </trkpt>
      <trkpt lat="43.64498" lon="1.39529">
        <ele>138</ele>
        <time>2025-06-04T15:25:19Z</time>
      </trkpt>
      <trkpt lat="43.64498" lon="1.39529">
        <ele>138</ele>
        <time>2025-06-04T15:25:20Z</time>
      </trkpt>
      <trkpt lat="43.64498" lon="1.39532">
        <ele>138</ele>
        <time>2025-06-04T15:25:21Z</time>
      </trkpt>
      <trkpt lat="43.64498" lon="1.39532">
        <ele>138</ele>
        <time>2025-06-04T15:25:22Z</time>
      </trkpt>
      <trkpt lat="43.64498" lon="1.39536">
        <ele>138</ele>
        <time>2025-06-04T15:25:23Z</time>
      </trkpt>
      <trkpt lat="43.64498" lon="1.39536">
        <ele>138</ele>
        <time>2025-06-04T15:25:24Z</time>
      </trkpt>
      <trkpt lat="43.64498" lon="1.39539">
        <ele>138</ele>
        <time>2025-06-04T15:25:25Z</time>
      </trkpt>
      <trkpt lat="43.64498" lon="1.39539">
        <ele>138</ele>
        <time>2025-06-04T15:25:26Z</time>
      </trkpt>
      <trkpt lat="43.64499" lon="1.39542">
        <ele>138</ele>
        <time>2025-06-04T15:25:27Z</time>
      </trkpt>
      <trkpt lat="43.64499" lon="1.39542">
        <ele>138</ele>
        <time>2025-06-04T15:25:28Z</time>
      </trkpt>
      <trkpt lat="43.64499" lon="1.39546">
        <ele>138</ele>
        <time>2025-06-04T15:25:29Z</time>
      </trkpt>
      <trkpt lat="43.64499" lon="1.39546">
        <ele>138</ele>
        <time>2025-06-04T15:25:30Z</time>
      </trkpt>
      <trkpt lat="43.64498" lon="1.39549">
        <ele>138</ele>
        <time>2025-06-04T15:25:31Z</time>
      </trkpt>
      <trkpt lat="43.64498" lon="1.39549">
        <ele>138</ele>
        <time>2025-06-04T15:25:32Z</time>
      </trkpt>
      <trkpt lat="43.64497" lon="1.39551">
        <ele>138</ele>
        <time>2025-06-04T15:25:33Z</time>
      </trkpt>
      <trkpt lat="43.64497" lon="1.39551">
        <ele>138</ele>
        <time>2025-06-04T15:25:34Z</time>
      </trkpt>
      <trkpt lat="43.64494" lon="1.39553">
        <ele>138</ele>
        <time>2025-06-04T15:25:35Z</time>
      </trkpt>
      <trkpt lat="43.64494" lon="1.39553">
        <ele>138</ele>
        <time>2025-06-04T15:25:36Z</time>
      </trkpt>
      <trkpt lat="43.64492" lon="1.39554">
        <ele>138</ele>
        <time>2025-06-04T15:25:37Z</time>
      </trkpt>
      <trkpt lat="43.64492" lon="1.39554">
        <ele>138</ele>
        <time>2025-06-04T15:25:38Z</time>
      </trkpt>
      <trkpt lat="43.6449" lon="1.39554">
        <ele>138</ele>
        <time>2025-06-04T15:25:39Z</time>
      </trkpt>
      <trkpt lat="43.6449" lon="1.39554">
        <ele>138</ele>
        <time>2025-06-04T15:25:40Z</time>
      </trkpt>
      <trkpt lat="43.64487" lon="1.39555">
        <ele>138</ele>
        <time>2025-06-04T15:25:41Z</time>
      </trkpt>
      <trkpt lat="43.64487" lon="1.39555">
        <ele>137</ele>
        <time>2025-06-04T15:25:42Z</time>
      </trkpt>
      <trkpt lat="43.64484" lon="1.39555">
        <ele>137</ele>
        <time>2025-06-04T15:25:43Z</time>
      </trkpt>
      <trkpt lat="43.64484" lon="1.39555">
        <ele>137</ele>
        <time>2025-06-04T15:25:44Z</time>
      </trkpt>
      <trkpt lat="43.64482" lon="1.39556">
        <ele>138</ele>
        <time>2025-06-04T15:25:45Z</time>
      </trkpt>
      <trkpt lat="43.64482" lon="1.39556">
        <ele>138</ele>
        <time>2025-06-04T15:25:46Z</time>
      </trkpt>
      <trkpt lat="43.6448" lon="1.39557">
        <ele>137</ele>
        <time>2025-06-04T15:25:47Z</time>
      </trkpt>
      <trkpt lat="43.6448" lon="1.39557">
        <ele>137</ele>
        <time>2025-06-04T15:25:48Z</time>
      </trkpt>
      <trkpt lat="43.64477" lon="1.39557">
        <ele>137</ele>
        <time>2025-06-04T15:25:49Z</time>
      </trkpt>
      <trkpt lat="43.64477" lon="1.39557">
        <ele>137</ele>
        <time>2025-06-04T15:25:50Z</time>
      </trkpt>
      <trkpt lat="43.64475" lon="1.39554">
        <ele>137</ele>
        <time>2025-06-04T15:25:51Z</time>
      </trkpt>
      <trkpt lat="43.64475" lon="1.39554">
        <ele>137</ele>
        <time>2025-06-04T15:25:52Z</time>
      </trkpt>
      <trkpt lat="43.64474" lon="1.39552">
        <ele>137</ele>
        <time>2025-06-04T15:25:53Z</time>
      </trkpt>
      <trkpt lat="43.64474" lon="1.39552">
        <ele>136</ele>
        <time>2025-06-04T15:25:54Z</time>
      </trkpt>
      <trkpt lat="43.64474" lon="1.39552">
        <ele>136</ele>
        <time>2025-06-04T15:25:55Z</time>
      </trkpt>
      <trkpt lat="43.64473" lon="1.39548">
        <ele>136</ele>
        <time>2025-06-04T15:25:56Z</time>
      </trkpt>
      <trkpt lat="43.64473" lon="1.39548">
        <ele>135</ele>
        <time>2025-06-04T15:25:57Z</time>
      </trkpt>
      <trkpt lat="43.64473" lon="1.39548">
        <ele>135</ele>
        <time>2025-06-04T15:25:58Z</time>
      </trkpt>
      <trkpt lat="43.64473" lon="1.39548">
        <ele>134</ele>
        <time>2025-06-04T15:25:59Z</time>
      </trkpt>
      <trkpt lat="43.64473" lon="1.39548">
        <ele>134</ele>
        <time>2025-06-04T15:26:00Z</time>
      </trkpt>
      <trkpt lat="43.64473" lon="1.39548">
        <ele>134</ele>
        <time>2025-06-04T15:26:01Z</time>
      </trkpt>
      <trkpt lat="43.64473" lon="1.39548">
        <ele>134</ele>
        <time>2025-06-04T15:26:02Z</time>
      </trkpt>
      <trkpt lat="43.64475" lon="1.39546">
        <ele>134</ele>
        <time>2025-06-04T15:26:03Z</time>
      </trkpt>
      <trkpt lat="43.64475" lon="1.39546">
        <ele>134</ele>
        <time>2025-06-04T15:26:04Z</time>
      </trkpt>
      <trkpt lat="43.64475" lon="1.39546">
        <ele>134</ele>
        <time>2025-06-04T15:26:05Z</time>
      </trkpt>
      <trkpt lat="43.64475" lon="1.39546">
        <ele>134</ele>
        <time>2025-06-04T15:26:06Z</time>
      </trkpt>
      <trkpt lat="43.64475" lon="1.39546">
        <ele>134</ele>
        <time>2025-06-04T15:26:07Z</time>
      </trkpt>
      <trkpt lat="43.64475" lon="1.39546">
        <ele>134</ele>
        <time>2025-06-04T15:26:08Z</time>
      </trkpt>
      <trkpt lat="43.64475" lon="1.39546">
        <ele>134</ele>
        <time>2025-06-04T15:26:09Z</time>
      </trkpt>
      <trkpt lat="43.64475" lon="1.39546">
        <ele>134</ele>
        <time>2025-06-04T15:26:10Z</time>
      </trkpt>
      <trkpt lat="43.64475" lon="1.39546">
        <ele>134</ele>
        <time>2025-06-04T15:26:11Z</time>
      </trkpt>
      <trkpt lat="43.64475" lon="1.39546">
        <ele>134</ele>
        <time>2025-06-04T15:26:12Z</time>
      </trkpt>
      <trkpt lat="43.64475" lon="1.39546">
        <ele>134</ele>
        <time>2025-06-04T15:26:13Z</time>
      </trkpt>
      <trkpt lat="43.64475" lon="1.39546">
        <ele>133</ele>
        <time>2025-06-04T15:26:14Z</time>
      </trkpt>
      <trkpt lat="43.64475" lon="1.39546">
        <ele>133</ele>
        <time>2025-06-04T15:26:15Z</time>
      </trkpt>
      <trkpt lat="43.64477" lon="1.3955">
        <ele>134</ele>
        <time>2025-06-04T15:26:16Z</time>
      </trkpt>
      <trkpt lat="43.64477" lon="1.3955">
        <ele>134</ele>
        <time>2025-06-04T15:26:17Z</time>
      </trkpt>
      <trkpt lat="43.64477" lon="1.3955">
        <ele>135</ele>
        <time>2025-06-04T15:26:18Z</time>
      </trkpt>
      <trkpt lat="43.64477" lon="1.3955">
        <ele>136</ele>
        <time>2025-06-04T15:26:19Z</time>
      </trkpt>
      <trkpt lat="43.64477" lon="1.3955">
        <ele>137</ele>
        <time>2025-06-04T15:26:20Z</time>
      </trkpt>
      <trkpt lat="43.64475" lon="1.39549">
        <ele>137</ele>
        <time>2025-06-04T15:26:21Z</time>
      </trkpt>
      <trkpt lat="43.64475" lon="1.39549">
        <ele>136</ele>
        <time>2025-06-04T15:26:22Z</time>
      </trkpt>
      <trkpt lat="43.64474" lon="1.39546">
        <ele>136</ele>
        <time>2025-06-04T15:26:23Z</time>
      </trkpt>
      <trkpt lat="43.64474" lon="1.39546">
        <ele>135</ele>
        <time>2025-06-04T15:26:24Z</time>
      </trkpt>
      <trkpt lat="43.64474" lon="1.39546">
        <ele>134</ele>
        <time>2025-06-04T15:26:25Z</time>
      </trkpt>
      <trkpt lat="43.64474" lon="1.39546">
        <ele>134</ele>
        <time>2025-06-04T15:26:26Z</time>
      </trkpt>
      <trkpt lat="43.64474" lon="1.39548">
        <ele>133</ele>
        <time>2025-06-04T15:26:27Z</time>
      </trkpt>
      <trkpt lat="43.64474" lon="1.39548">
        <ele>134</ele>
        <time>2025-06-04T15:26:28Z</time>
      </trkpt>
      <trkpt lat="43.64475" lon="1.39551">
        <ele>134</ele>
        <time>2025-06-04T15:26:29Z</time>
      </trkpt>
      <trkpt lat="43.64475" lon="1.39551">
        <ele>135</ele>
        <time>2025-06-04T15:26:30Z</time>
      </trkpt>
      <trkpt lat="43.64475" lon="1.39551">
        <ele>136</ele>
        <time>2025-06-04T15:26:31Z</time>
      </trkpt>
      <trkpt lat="43.64475" lon="1.39551">
        <ele>137</ele>
        <time>2025-06-04T15:26:32Z</time>
      </trkpt>
      <trkpt lat="43.64475" lon="1.39551">
        <ele>137</ele>
        <time>2025-06-04T15:26:33Z</time>
      </trkpt>
      <trkpt lat="43.64474" lon="1.39548">
        <ele>137</ele>
        <time>2025-06-04T15:26:34Z</time>
      </trkpt>
      <trkpt lat="43.64474" lon="1.39548">
        <ele>136</ele>
        <time>2025-06-04T15:26:35Z</time>
      </trkpt>
      <trkpt lat="43.64473" lon="1.39545">
        <ele>135</ele>
        <time>2025-06-04T15:26:36Z</time>
      </trkpt>
      <trkpt lat="43.64473" lon="1.39545">
        <ele>135</ele>
        <time>2025-06-04T15:26:37Z</time>
      </trkpt>
      <trkpt lat="43.64473" lon="1.39545">
        <ele>134</ele>
        <time>2025-06-04T15:26:38Z</time>
      </trkpt>
      <trkpt lat="43.64473" lon="1.39545">
        <ele>133</ele>
        <time>2025-06-04T15:26:39Z</time>
      </trkpt>
      <trkpt lat="43.64474" lon="1.39548">
        <ele>133</ele>
        <time>2025-06-04T15:26:40Z</time>
      </trkpt>
      <trkpt lat="43.64474" lon="1.39548">
        <ele>134</ele>
        <time>2025-06-04T15:26:41Z</time>
      </trkpt>
      <trkpt lat="43.64475" lon="1.3955">
        <ele>134</ele>
        <time>2025-06-04T15:26:42Z</time>
      </trkpt>
      <trkpt lat="43.64475" lon="1.3955">
        <ele>134</ele>
        <time>2025-06-04T15:26:43Z</time>
      </trkpt>
      <trkpt lat="43.64475" lon="1.3955">
        <ele>135</ele>
        <time>2025-06-04T15:26:44Z</time>
      </trkpt>
      <trkpt lat="43.64475" lon="1.3955">
        <ele>136</ele>
        <time>2025-06-04T15:26:45Z</time>
      </trkpt>
      <trkpt lat="43.64475" lon="1.3955">
        <ele>136</ele>
        <time>2025-06-04T15:26:46Z</time>
      </trkpt>
      <trkpt lat="43.64474" lon="1.39547">
        <ele>136</ele>
        <time>2025-06-04T15:26:47Z</time>
      </trkpt>
      <trkpt lat="43.64474" lon="1.39547">
        <ele>136</ele>
        <time>2025-06-04T15:26:48Z</time>
      </trkpt>
      <trkpt lat="43.64474" lon="1.39547">
        <ele>135</ele>
        <time>2025-06-04T15:26:49Z</time>
      </trkpt>
      <trkpt lat="43.64474" lon="1.39544">
        <ele>135</ele>
        <time>2025-06-04T15:26:50Z</time>
      </trkpt>
      <trkpt lat="43.64474" lon="1.39544">
        <ele>134</ele>
        <time>2025-06-04T15:26:51Z</time>
      </trkpt>
      <trkpt lat="43.64474" lon="1.39544">
        <ele>134</ele>
        <time>2025-06-04T15:26:52Z</time>
      </trkpt>
      <trkpt lat="43.64475" lon="1.39546">
        <ele>134</ele>
        <time>2025-06-04T15:26:53Z</time>
      </trkpt>
      <trkpt lat="43.64475" lon="1.39546">
        <ele>134</ele>
        <time>2025-06-04T15:26:54Z</time>
      </trkpt>
      <trkpt lat="43.64477" lon="1.39548">
        <ele>134</ele>
        <time>2025-06-04T15:26:55Z</time>
      </trkpt>
      <trkpt lat="43.64477" lon="1.39548">
        <ele>135</ele>
        <time>2025-06-04T15:26:56Z</time>
      </trkpt>
      <trkpt lat="43.64477" lon="1.39548">
        <ele>135</ele>
        <time>2025-06-04T15:26:57Z</time>
      </trkpt>
      <trkpt lat="43.64477" lon="1.39548">
        <ele>136</ele>
        <time>2025-06-04T15:26:58Z</time>
      </trkpt>
      <trkpt lat="43.64474" lon="1.39549">
        <ele>136</ele>
        <time>2025-06-04T15:26:59Z</time>
      </trkpt>
      <trkpt lat="43.64474" lon="1.39549">
        <ele>136</ele>
        <time>2025-06-04T15:27:00Z</time>
      </trkpt>
      <trkpt lat="43.64473" lon="1.39546">
        <ele>135</ele>
        <time>2025-06-04T15:27:01Z</time>
      </trkpt>
      <trkpt lat="43.64473" lon="1.39546">
        <ele>135</ele>
        <time>2025-06-04T15:27:02Z</time>
      </trkpt>
      <trkpt lat="43.64473" lon="1.39546">
        <ele>135</ele>
        <time>2025-06-04T15:27:03Z</time>
      </trkpt>
      <trkpt lat="43.64473" lon="1.39544">
        <ele>134</ele>
        <time>2025-06-04T15:27:04Z</time>
      </trkpt>
      <trkpt lat="43.64473" lon="1.39544">
        <ele>133</ele>
        <time>2025-06-04T15:27:05Z</time>
      </trkpt>
      <trkpt lat="43.64473" lon="1.39544">
        <ele>133</ele>
        <time>2025-06-04T15:27:06Z</time>
      </trkpt>
      <trkpt lat="43.64474" lon="1.39547">
        <ele>133</ele>
        <time>2025-06-04T15:27:07Z</time>
      </trkpt>
      <trkpt lat="43.64474" lon="1.39547">
        <ele>133</ele>
        <time>2025-06-04T15:27:08Z</time>
      </trkpt>
      <trkpt lat="43.64476" lon="1.39549">
        <ele>134</ele>
        <time>2025-06-04T15:27:09Z</time>
      </trkpt>
      <trkpt lat="43.64476" lon="1.39549">
        <ele>134</ele>
        <time>2025-06-04T15:27:10Z</time>
      </trkpt>
      <trkpt lat="43.64476" lon="1.39549">
        <ele>135</ele>
        <time>2025-06-04T15:27:11Z</time>
      </trkpt>
      <trkpt lat="43.64476" lon="1.39549">
        <ele>136</ele>
        <time>2025-06-04T15:27:12Z</time>
      </trkpt>
      <trkpt lat="43.64476" lon="1.39549">
        <ele>136</ele>
        <time>2025-06-04T15:27:13Z</time>
      </trkpt>
      <trkpt lat="43.64476" lon="1.39549">
        <ele>136</ele>
        <time>2025-06-04T15:27:14Z</time>
      </trkpt>
      <trkpt lat="43.64476" lon="1.39549">
        <ele>136</ele>
        <time>2025-06-04T15:27:15Z</time>
      </trkpt>
      <trkpt lat="43.64474" lon="1.39547">
        <ele>136</ele>
        <time>2025-06-04T15:27:16Z</time>
      </trkpt>
      <trkpt lat="43.64474" lon="1.39547">
        <ele>136</ele>
        <time>2025-06-04T15:27:17Z</time>
      </trkpt>
      <trkpt lat="43.64474" lon="1.39547">
        <ele>136</ele>
        <time>2025-06-04T15:27:18Z</time>
      </trkpt>
      <trkpt lat="43.64473" lon="1.39544">
        <ele>135</ele>
        <time>2025-06-04T15:27:19Z</time>
      </trkpt>
      <trkpt lat="43.64473" lon="1.39544">
        <ele>135</ele>
        <time>2025-06-04T15:27:20Z</time>
      </trkpt>
      <trkpt lat="43.64474" lon="1.39541">
        <ele>135</ele>
        <time>2025-06-04T15:27:21Z</time>
      </trkpt>
      <trkpt lat="43.64474" lon="1.39541">
        <ele>134</ele>
        <time>2025-06-04T15:27:22Z</time>
      </trkpt>
      <trkpt lat="43.64477" lon="1.3954">
        <ele>134</ele>
        <time>2025-06-04T15:27:23Z</time>
      </trkpt>
      <trkpt lat="43.64477" lon="1.3954">
        <ele>134</ele>
        <time>2025-06-04T15:27:24Z</time>
      </trkpt>
      <trkpt lat="43.64479" lon="1.3954">
        <ele>134</ele>
        <time>2025-06-04T15:27:25Z</time>
      </trkpt>
      <trkpt lat="43.64479" lon="1.3954">
        <ele>133</ele>
        <time>2025-06-04T15:27:26Z</time>
      </trkpt>
      <trkpt lat="43.64481" lon="1.3954">
        <ele>133</ele>
        <time>2025-06-04T15:27:27Z</time>
      </trkpt>
      <trkpt lat="43.64481" lon="1.3954">
        <ele>133</ele>
        <time>2025-06-04T15:27:28Z</time>
      </trkpt>
      <trkpt lat="43.64481" lon="1.3954">
        <ele>133</ele>
        <time>2025-06-04T15:27:29Z</time>
      </trkpt>
      <trkpt lat="43.64481" lon="1.3954">
        <ele>133</ele>
        <time>2025-06-04T15:27:30Z</time>
      </trkpt>
      <trkpt lat="43.64481" lon="1.3954">
        <ele>133</ele>
        <time>2025-06-04T15:27:31Z</time>
      </trkpt>
      <trkpt lat="43.64481" lon="1.3954">
        <ele>133</ele>
        <time>2025-06-04T15:27:32Z</time>
      </trkpt>
      <trkpt lat="43.64481" lon="1.3954">
        <ele>133</ele>
        <time>2025-06-04T15:27:33Z</time>
      </trkpt>
      <trkpt lat="43.64479" lon="1.3954">
        <ele>133</ele>
        <time>2025-06-04T15:27:34Z</time>
      </trkpt>
      <trkpt lat="43.64479" lon="1.3954">
        <ele>133</ele>
        <time>2025-06-04T15:27:35Z</time>
      </trkpt>
      <trkpt lat="43.64477" lon="1.39541">
        <ele>133</ele>
        <time>2025-06-04T15:27:36Z</time>
      </trkpt>
      <trkpt lat="43.64477" lon="1.39541">
        <ele>133</ele>
        <time>2025-06-04T15:27:37Z</time>
      </trkpt>
      <trkpt lat="43.64474" lon="1.39542">
        <ele>133</ele>
        <time>2025-06-04T15:27:38Z</time>
      </trkpt>
      <trkpt lat="43.64474" lon="1.39542">
        <ele>133</ele>
        <time>2025-06-04T15:27:39Z</time>
      </trkpt>
      <trkpt lat="43.64472" lon="1.39542">
        <ele>133</ele>
        <time>2025-06-04T15:27:40Z</time>
      </trkpt>
      <trkpt lat="43.64472" lon="1.39542">
        <ele>133</ele>
        <time>2025-06-04T15:27:41Z</time>
      </trkpt>
      <trkpt lat="43.64471" lon="1.39543">
        <ele>133</ele>
        <time>2025-06-04T15:27:42Z</time>
      </trkpt>
      <trkpt lat="43.64471" lon="1.39543">
        <ele>133</ele>
        <time>2025-06-04T15:27:43Z</time>
      </trkpt>
      <trkpt lat="43.64471" lon="1.39543">
        <ele>133</ele>
        <time>2025-06-04T15:27:44Z</time>
      </trkpt>
      <trkpt lat="43.64468" lon="1.39544">
        <ele>133</ele>
        <time>2025-06-04T15:27:45Z</time>
      </trkpt>
      <trkpt lat="43.64468" lon="1.39544">
        <ele>133</ele>
        <time>2025-06-04T15:27:46Z</time>
      </trkpt>
      <trkpt lat="43.64468" lon="1.39544">
        <ele>133</ele>
        <time>2025-06-04T15:27:47Z</time>
      </trkpt>
      <trkpt lat="43.64468" lon="1.39544">
        <ele>133</ele>
        <time>2025-06-04T15:27:48Z</time>
      </trkpt>
      <trkpt lat="43.64468" lon="1.39544">
        <ele>133</ele>
        <time>2025-06-04T15:27:49Z</time>
      </trkpt>
      <trkpt lat="43.64468" lon="1.39544">
        <ele>133</ele>
        <time>2025-06-04T15:27:50Z</time>
      </trkpt>
      <trkpt lat="43.6447" lon="1.39543">
        <ele>133</ele>
        <time>2025-06-04T15:27:51Z</time>
      </trkpt>
      <trkpt lat="43.6447" lon="1.39543">
        <ele>133</ele>
        <time>2025-06-04T15:27:52Z</time>
      </trkpt>
      <trkpt lat="43.64472" lon="1.39542">
        <ele>133</ele>
        <time>2025-06-04T15:27:53Z</time>
      </trkpt>
      <trkpt lat="43.64472" lon="1.39542">
        <ele>133</ele>
        <time>2025-06-04T15:27:54Z</time>
      </trkpt>
      <trkpt lat="43.64474" lon="1.39542">
        <ele>133</ele>
        <time>2025-06-04T15:27:55Z</time>
      </trkpt>
      <trkpt lat="43.64474" lon="1.39542">
        <ele>133</ele>
        <time>2025-06-04T15:27:56Z</time>
      </trkpt>
      <trkpt lat="43.64474" lon="1.39542">
        <ele>133</ele>
        <time>2025-06-04T15:27:57Z</time>
      </trkpt>
      <trkpt lat="43.64477" lon="1.39542">
        <ele>133</ele>
        <time>2025-06-04T15:27:58Z</time>
      </trkpt>
      <trkpt lat="43.64477" lon="1.39542">
        <ele>133</ele>
        <time>2025-06-04T15:27:59Z</time>
      </trkpt>
      <trkpt lat="43.64479" lon="1.39541">
        <ele>133</ele>
        <time>2025-06-04T15:28:00Z</time>
      </trkpt>
      <trkpt lat="43.64479" lon="1.39541">
        <ele>133</ele>
        <time>2025-06-04T15:28:01Z</time>
      </trkpt>
      <trkpt lat="43.64481" lon="1.39542">
        <ele>133</ele>
        <time>2025-06-04T15:28:02Z</time>
      </trkpt>
      <trkpt lat="43.64481" lon="1.39542">
        <ele>133</ele>
        <time>2025-06-04T15:28:03Z</time>
      </trkpt>
      <trkpt lat="43.64481" lon="1.39542">
        <ele>133</ele>
        <time>2025-06-04T15:28:04Z</time>
      </trkpt>
      <trkpt lat="43.64481" lon="1.39542">
        <ele>133</ele>
        <time>2025-06-04T15:28:05Z</time>
      </trkpt>
      <trkpt lat="43.64481" lon="1.39542">
        <ele>133</ele>
        <time>2025-06-04T15:28:06Z</time>
      </trkpt>
      <trkpt lat="43.64481" lon="1.39542">
        <ele>133</ele>
        <time>2025-06-04T15:28:07Z</time>
      </trkpt>
      <trkpt lat="43.64481" lon="1.39542">
        <ele>133</ele>
        <time>2025-06-04T15:28:08Z</time>
      </trkpt>
      <trkpt lat="43.64479" lon="1.39541">
        <ele>133</ele>
        <time>2025-06-04T15:28:09Z</time>
      </trkpt>
      <trkpt lat="43.64479" lon="1.39541">
        <ele>134</ele>
        <time>2025-06-04T15:28:10Z</time>
      </trkpt>
      <trkpt lat="43.64477" lon="1.39542">
        <ele>134</ele>
        <time>2025-06-04T15:28:11Z</time>
      </trkpt>
      <trkpt lat="43.64477" lon="1.39542">
        <ele>134</ele>
        <time>2025-06-04T15:28:12Z</time>
      </trkpt>
      <trkpt lat="43.64475" lon="1.39543">
        <ele>134</ele>
        <time>2025-06-04T15:28:13Z</time>
      </trkpt>
      <trkpt lat="43.64475" lon="1.39543">
        <ele>134</ele>
        <time>2025-06-04T15:28:14Z</time>
      </trkpt>
      <trkpt lat="43.64475" lon="1.39543">
        <ele>134</ele>
        <time>2025-06-04T15:28:15Z</time>
      </trkpt>
      <trkpt lat="43.64474" lon="1.39546">
        <ele>134</ele>
        <time>2025-06-04T15:28:16Z</time>
      </trkpt>
      <trkpt lat="43.64474" lon="1.39546">
        <ele>134</ele>
        <time>2025-06-04T15:28:17Z</time>
      </trkpt>
      <trkpt lat="43.64474" lon="1.39546">
        <ele>133</ele>
        <time>2025-06-04T15:28:18Z</time>
      </trkpt>
      <trkpt lat="43.64474" lon="1.39549">
        <ele>133</ele>
        <time>2025-06-04T15:28:19Z</time>
      </trkpt>
      <trkpt lat="43.64474" lon="1.39549">
        <ele>133</ele>
        <time>2025-06-04T15:28:20Z</time>
      </trkpt>
      <trkpt lat="43.64474" lon="1.39549">
        <ele>133</ele>
        <time>2025-06-04T15:28:21Z</time>
      </trkpt>
      <trkpt lat="43.64474" lon="1.39551">
        <ele>133</ele>
        <time>2025-06-04T15:28:22Z</time>
      </trkpt>
      <trkpt lat="43.64474" lon="1.39551">
        <ele>134</ele>
        <time>2025-06-04T15:28:23Z</time>
      </trkpt>
      <trkpt lat="43.64474" lon="1.39551">
        <ele>134</ele>
        <time>2025-06-04T15:28:24Z</time>
      </trkpt>
      <trkpt lat="43.64474" lon="1.39551">
        <ele>135</ele>
        <time>2025-06-04T15:28:25Z</time>
      </trkpt>
      <trkpt lat="43.64474" lon="1.39551">
        <ele>135</ele>
        <time>2025-06-04T15:28:26Z</time>
      </trkpt>
      <trkpt lat="43.64474" lon="1.39551">
        <ele>136</ele>
        <time>2025-06-04T15:28:27Z</time>
      </trkpt>
      <trkpt lat="43.64474" lon="1.39551">
        <ele>136</ele>
        <time>2025-06-04T15:28:28Z</time>
      </trkpt>
      <trkpt lat="43.64475" lon="1.39548">
        <ele>136</ele>
        <time>2025-06-04T15:28:29Z</time>
      </trkpt>
      <trkpt lat="43.64475" lon="1.39548">
        <ele>135</ele>
        <time>2025-06-04T15:28:30Z</time>
      </trkpt>
      <trkpt lat="43.64475" lon="1.39548">
        <ele>134</ele>
        <time>2025-06-04T15:28:31Z</time>
      </trkpt>
      <trkpt lat="43.64475" lon="1.39545">
        <ele>134</ele>
        <time>2025-06-04T15:28:32Z</time>
      </trkpt>
      <trkpt lat="43.64475" lon="1.39545">
        <ele>134</ele>
        <time>2025-06-04T15:28:33Z</time>
      </trkpt>
      <trkpt lat="43.64475" lon="1.39548">
        <ele>134</ele>
        <time>2025-06-04T15:28:34Z</time>
      </trkpt>
      <trkpt lat="43.64475" lon="1.39548">
        <ele>134</ele>
        <time>2025-06-04T15:28:35Z</time>
      </trkpt>
      <trkpt lat="43.64475" lon="1.39548">
        <ele>134</ele>
        <time>2025-06-04T15:28:36Z</time>
      </trkpt>
      <trkpt lat="43.64476" lon="1.3955">
        <ele>134</ele>
        <time>2025-06-04T15:28:37Z</time>
      </trkpt>
      <trkpt lat="43.64476" lon="1.3955">
        <ele>134</ele>
        <time>2025-06-04T15:28:38Z</time>
      </trkpt>
      <trkpt lat="43.64476" lon="1.3955">
        <ele>134</ele>
        <time>2025-06-04T15:28:39Z</time>
      </trkpt>
      <trkpt lat="43.64476" lon="1.3955">
        <ele>134</ele>
        <time>2025-06-04T15:28:40Z</time>
      </trkpt>
      <trkpt lat="43.64476" lon="1.3955">
        <ele>134</ele>
        <time>2025-06-04T15:28:41Z</time>
      </trkpt>
      <trkpt lat="43.64476" lon="1.3955">
        <ele>134</ele>
        <time>2025-06-04T15:28:42Z</time>
      </trkpt>
      <trkpt lat="43.64476" lon="1.3955">
        <ele>135</ele>
        <time>2025-06-04T15:28:43Z</time>
      </trkpt>
      <trkpt lat="43.64476" lon="1.3955">
        <ele>135</ele>
        <time>2025-06-04T15:28:44Z</time>
      </trkpt>
      <trkpt lat="43.64476" lon="1.3955">
        <ele>135</ele>
        <time>2025-06-04T15:28:45Z</time>
      </trkpt>
      <trkpt lat="43.64474" lon="1.39548">
        <ele>135</ele>
        <time>2025-06-04T15:28:46Z</time>
      </trkpt>
      <trkpt lat="43.64474" lon="1.39548">
        <ele>135</ele>
        <time>2025-06-04T15:28:47Z</time>
      </trkpt>
      <trkpt lat="43.64474" lon="1.39548">
        <ele>135</ele>
        <time>2025-06-04T15:28:48Z</time>
      </trkpt>
      <trkpt lat="43.64474" lon="1.39548">
        <ele>134</ele>
        <time>2025-06-04T15:28:49Z</time>
      </trkpt>
      <trkpt lat="43.64474" lon="1.39548">
        <ele>134</ele>
        <time>2025-06-04T15:28:50Z</time>
      </trkpt>
      <trkpt lat="43.64474" lon="1.39548">
        <ele>133</ele>
        <time>2025-06-04T15:28:51Z</time>
      </trkpt>
      <trkpt lat="43.64474" lon="1.39548">
        <ele>133</ele>
        <time>2025-06-04T15:28:52Z</time>
      </trkpt>
      <trkpt lat="43.64474" lon="1.39548">
        <ele>133</ele>
        <time>2025-06-04T15:28:53Z</time>
      </trkpt>
      <trkpt lat="43.64474" lon="1.39548">
        <ele>134</ele>
        <time>2025-06-04T15:28:54Z</time>
      </trkpt>
      <trkpt lat="43.64474" lon="1.39548">
        <ele>134</ele>
        <time>2025-06-04T15:28:55Z</time>
      </trkpt>
      <trkpt lat="43.64474" lon="1.39548">
        <ele>134</ele>
        <time>2025-06-04T15:28:56Z</time>
      </trkpt>
      <trkpt lat="43.64474" lon="1.39548">
        <ele>134</ele>
        <time>2025-06-04T15:28:57Z</time>
      </trkpt>
      <trkpt lat="43.64475" lon="1.39551">
        <ele>135</ele>
        <time>2025-06-04T15:28:58Z</time>
      </trkpt>
      <trkpt lat="43.64475" lon="1.39551">
        <ele>135</ele>
        <time>2025-06-04T15:28:59Z</time>
      </trkpt>
      <trkpt lat="43.64475" lon="1.39551">
        <ele>135</ele>
        <time>2025-06-04T15:29:00Z</time>
      </trkpt>
      <trkpt lat="43.64475" lon="1.39551">
        <ele>135</ele>
        <time>2025-06-04T15:29:01Z</time>
      </trkpt>
      <trkpt lat="43.64475" lon="1.39551">
        <ele>135</ele>
        <time>2025-06-04T15:29:02Z</time>
      </trkpt>
      <trkpt lat="43.64475" lon="1.39551">
        <ele>135</ele>
        <time>2025-06-04T15:29:03Z</time>
      </trkpt>
      <trkpt lat="43.64473" lon="1.39549">
        <ele>135</ele>
        <time>2025-06-04T15:29:04Z</time>
      </trkpt>
      <trkpt lat="43.64473" lon="1.39549">
        <ele>135</ele>
        <time>2025-06-04T15:29:05Z</time>
      </trkpt>
      <trkpt lat="43.64473" lon="1.39549">
        <ele>135</ele>
        <time>2025-06-04T15:29:06Z</time>
      </trkpt>
      <trkpt lat="43.64473" lon="1.39549">
        <ele>134</ele>
        <time>2025-06-04T15:29:07Z</time>
      </trkpt>
      <trkpt lat="43.64473" lon="1.39546">
        <ele>134</ele>
        <time>2025-06-04T15:29:08Z</time>
      </trkpt>
      <trkpt lat="43.64473" lon="1.39546">
        <ele>134</ele>
        <time>2025-06-04T15:29:09Z</time>
      </trkpt>
      <trkpt lat="43.64473" lon="1.39546">
        <ele>134</ele>
        <time>2025-06-04T15:29:10Z</time>
      </trkpt>
      <trkpt lat="43.64473" lon="1.39546">
        <ele>133</ele>
        <time>2025-06-04T15:29:11Z</time>
      </trkpt>
      <trkpt lat="43.64473" lon="1.39546">
        <ele>133</ele>
        <time>2025-06-04T15:29:12Z</time>
      </trkpt>
      <trkpt lat="43.64473" lon="1.39546">
        <ele>133</ele>
        <time>2025-06-04T15:29:13Z</time>
      </trkpt>
      <trkpt lat="43.64474" lon="1.39549">
        <ele>133</ele>
        <time>2025-06-04T15:29:14Z</time>
      </trkpt>
      <trkpt lat="43.64474" lon="1.39549">
        <ele>134</ele>
        <time>2025-06-04T15:29:15Z</time>
      </trkpt>
      <trkpt lat="43.64474" lon="1.39549">
        <ele>134</ele>
        <time>2025-06-04T15:29:16Z</time>
      </trkpt>
      <trkpt lat="43.64474" lon="1.39552">
        <ele>134</ele>
        <time>2025-06-04T15:29:17Z</time>
      </trkpt>
      <trkpt lat="43.64474" lon="1.39552">
        <ele>135</ele>
        <time>2025-06-04T15:29:18Z</time>
      </trkpt>
      <trkpt lat="43.64474" lon="1.39552">
        <ele>135</ele>
        <time>2025-06-04T15:29:19Z</time>
      </trkpt>
      <trkpt lat="43.64474" lon="1.39552">
        <ele>135</ele>
        <time>2025-06-04T15:29:20Z</time>
      </trkpt>
      <trkpt lat="43.64474" lon="1.39552">
        <ele>136</ele>
        <time>2025-06-04T15:29:21Z</time>
      </trkpt>
      <trkpt lat="43.64474" lon="1.39552">
        <ele>136</ele>
        <time>2025-06-04T15:29:22Z</time>
      </trkpt>
      <trkpt lat="43.64474" lon="1.39549">
        <ele>136</ele>
        <time>2025-06-04T15:29:23Z</time>
      </trkpt>
      <trkpt lat="43.64474" lon="1.39549">
        <ele>135</ele>
        <time>2025-06-04T15:29:24Z</time>
      </trkpt>
      <trkpt lat="43.64474" lon="1.39549">
        <ele>134</ele>
        <time>2025-06-04T15:29:25Z</time>
      </trkpt>
      <trkpt lat="43.64474" lon="1.39547">
        <ele>134</ele>
        <time>2025-06-04T15:29:26Z</time>
      </trkpt>
      <trkpt lat="43.64474" lon="1.39547">
        <ele>134</ele>
        <time>2025-06-04T15:29:27Z</time>
      </trkpt>
      <trkpt lat="43.64474" lon="1.39547">
        <ele>134</ele>
        <time>2025-06-04T15:29:28Z</time>
      </trkpt>
      <trkpt lat="43.64474" lon="1.39547">
        <ele>133</ele>
        <time>2025-06-04T15:29:29Z</time>
      </trkpt>
      <trkpt lat="43.64474" lon="1.39547">
        <ele>133</ele>
        <time>2025-06-04T15:29:30Z</time>
      </trkpt>
      <trkpt lat="43.64474" lon="1.39547">
        <ele>133</ele>
        <time>2025-06-04T15:29:31Z</time>
      </trkpt>
      <trkpt lat="43.64474" lon="1.39547">
        <ele>132</ele>
        <time>2025-06-04T15:29:32Z</time>
      </trkpt>
      <trkpt lat="43.64474" lon="1.39547">
        <ele>133</ele>
        <time>2025-06-04T15:29:33Z</time>
      </trkpt>
      <trkpt lat="43.64474" lon="1.39547">
        <ele>133</ele>
        <time>2025-06-04T15:29:34Z</time>
      </trkpt>
      <trkpt lat="43.64475" lon="1.39549">
        <ele>133</ele>
        <time>2025-06-04T15:29:35Z</time>
      </trkpt>
      <trkpt lat="43.64475" lon="1.39549">
        <ele>134</ele>
        <time>2025-06-04T15:29:36Z</time>
      </trkpt>
      <trkpt lat="43.64475" lon="1.39549">
        <ele>134</ele>
        <time>2025-06-04T15:29:37Z</time>
      </trkpt>
      <trkpt lat="43.64475" lon="1.39549">
        <ele>134</ele>
        <time>2025-06-04T15:29:38Z</time>
      </trkpt>
      <trkpt lat="43.64475" lon="1.39549">
        <ele>135</ele>
        <time>2025-06-04T15:29:39Z</time>
      </trkpt>
      <trkpt lat="43.64475" lon="1.39549">
        <ele>135</ele>
        <time>2025-06-04T15:29:40Z</time>
      </trkpt>
      <trkpt lat="43.64475" lon="1.39549">
        <ele>135</ele>
        <time>2025-06-04T15:29:41Z</time>
      </trkpt>
      <trkpt lat="43.64475" lon="1.39549">
        <ele>135</ele>
        <time>2025-06-04T15:29:42Z</time>
      </trkpt>
      <trkpt lat="43.64475" lon="1.39549">
        <ele>135</ele>
        <time>2025-06-04T15:29:43Z</time>
      </trkpt>
      <trkpt lat="43.64475" lon="1.39549">
        <ele>135</ele>
        <time>2025-06-04T15:29:44Z</time>
      </trkpt>
      <trkpt lat="43.64474" lon="1.39546">
        <ele>135</ele>
        <time>2025-06-04T15:29:45Z</time>
      </trkpt>
      <trkpt lat="43.64474" lon="1.39546">
        <ele>134</ele>
        <time>2025-06-04T15:29:46Z</time>
      </trkpt>
      <trkpt lat="43.64474" lon="1.39546">
        <ele>134</ele>
        <time>2025-06-04T15:29:47Z</time>
      </trkpt>
      <trkpt lat="43.64474" lon="1.39543">
        <ele>134</ele>
        <time>2025-06-04T15:29:48Z</time>
      </trkpt>
      <trkpt lat="43.64474" lon="1.39543">
        <ele>134</ele>
        <time>2025-06-04T15:29:49Z</time>
      </trkpt>
      <trkpt lat="43.64474" lon="1.39543">
        <ele>134</ele>
        <time>2025-06-04T15:29:50Z</time>
      </trkpt>
      <trkpt lat="43.64474" lon="1.39543">
        <ele>133</ele>
        <time>2025-06-04T15:29:51Z</time>
      </trkpt>
      <trkpt lat="43.64474" lon="1.39543">
        <ele>132</ele>
        <time>2025-06-04T15:29:52Z</time>
      </trkpt>
      <trkpt lat="43.64474" lon="1.39546">
        <ele>132</ele>
        <time>2025-06-04T15:29:53Z</time>
      </trkpt>
      <trkpt lat="43.64474" lon="1.39546">
        <ele>133</ele>
        <time>2025-06-04T15:29:54Z</time>
      </trkpt>
      <trkpt lat="43.64474" lon="1.39546">
        <ele>133</ele>
        <time>2025-06-04T15:29:55Z</time>
      </trkpt>
      <trkpt lat="43.64474" lon="1.39546">
        <ele>133</ele>
        <time>2025-06-04T15:29:56Z</time>
      </trkpt>
      <trkpt lat="43.64475" lon="1.39549">
        <ele>133</ele>
        <time>2025-06-04T15:29:57Z</time>
      </trkpt>
      <trkpt lat="43.64475" lon="1.39549">
        <ele>134</ele>
        <time>2025-06-04T15:29:58Z</time>
      </trkpt>
      <trkpt lat="43.64475" lon="1.39549">
        <ele>134</ele>
        <time>2025-06-04T15:29:59Z</time>
      </trkpt>
      <trkpt lat="43.64475" lon="1.39549">
        <ele>135</ele>
        <time>2025-06-04T15:30:00Z</time>
      </trkpt>
      <trkpt lat="43.64475" lon="1.39549">
        <ele>135</ele>
        <time>2025-06-04T15:30:01Z</time>
      </trkpt>
      <trkpt lat="43.64475" lon="1.39549">
        <ele>136</ele>
        <time>2025-06-04T15:30:02Z</time>
      </trkpt>
      <trkpt lat="43.64475" lon="1.39549">
        <ele>136</ele>
        <time>2025-06-04T15:30:03Z</time>
      </trkpt>
      <trkpt lat="43.64475" lon="1.39549">
        <ele>135</ele>
        <time>2025-06-04T15:30:04Z</time>
      </trkpt>
      <trkpt lat="43.64475" lon="1.39549">
        <ele>135</ele>
        <time>2025-06-04T15:30:05Z</time>
      </trkpt>
      <trkpt lat="43.64475" lon="1.39549">
        <ele>135</ele>
        <time>2025-06-04T15:30:06Z</time>
      </trkpt>
      <trkpt lat="43.64474" lon="1.39546">
        <ele>135</ele>
        <time>2025-06-04T15:30:07Z</time>
      </trkpt>
      <trkpt lat="43.64474" lon="1.39546">
        <ele>135</ele>
        <time>2025-06-04T15:30:08Z</time>
      </trkpt>
      <trkpt lat="43.64474" lon="1.39546">
        <ele>135</ele>
        <time>2025-06-04T15:30:09Z</time>
      </trkpt>
      <trkpt lat="43.64474" lon="1.39546">
        <ele>135</ele>
        <time>2025-06-04T15:30:10Z</time>
      </trkpt>
      <trkpt lat="43.64472" lon="1.39544">
        <ele>134</ele>
        <time>2025-06-04T15:30:11Z</time>
      </trkpt>
      <trkpt lat="43.64472" lon="1.39544">
        <ele>134</ele>
        <time>2025-06-04T15:30:12Z</time>
      </trkpt>
      <trkpt lat="43.6447" lon="1.39544">
        <ele>133</ele>
        <time>2025-06-04T15:30:13Z</time>
      </trkpt>
      <trkpt lat="43.6447" lon="1.39544">
        <ele>133</ele>
        <time>2025-06-04T15:30:14Z</time>
      </trkpt>
      <trkpt lat="43.64467" lon="1.39545">
        <ele>133</ele>
        <time>2025-06-04T15:30:15Z</time>
      </trkpt>
      <trkpt lat="43.64467" lon="1.39545">
        <ele>133</ele>
        <time>2025-06-04T15:30:16Z</time>
      </trkpt>
      <trkpt lat="43.64465" lon="1.39545">
        <ele>133</ele>
        <time>2025-06-04T15:30:17Z</time>
      </trkpt>
      <trkpt lat="43.64465" lon="1.39545">
        <ele>133</ele>
        <time>2025-06-04T15:30:18Z</time>
      </trkpt>
      <trkpt lat="43.64463" lon="1.39547">
        <ele>133</ele>
        <time>2025-06-04T15:30:19Z</time>
      </trkpt>
      <trkpt lat="43.64463" lon="1.39547">
        <ele>133</ele>
        <time>2025-06-04T15:30:20Z</time>
      </trkpt>
      <trkpt lat="43.64461" lon="1.39548">
        <ele>133</ele>
        <time>2025-06-04T15:30:21Z</time>
      </trkpt>
      <trkpt lat="43.64461" lon="1.39548">
        <ele>133</ele>
        <time>2025-06-04T15:30:22Z</time>
      </trkpt>
      <trkpt lat="43.64458" lon="1.3955">
        <ele>133</ele>
        <time>2025-06-04T15:30:23Z</time>
      </trkpt>
      <trkpt lat="43.64458" lon="1.3955">
        <ele>133</ele>
        <time>2025-06-04T15:30:24Z</time>
      </trkpt>
      <trkpt lat="43.64456" lon="1.3955">
        <ele>133</ele>
        <time>2025-06-04T15:30:25Z</time>
      </trkpt>
      <trkpt lat="43.64456" lon="1.3955">
        <ele>133</ele>
        <time>2025-06-04T15:30:26Z</time>
      </trkpt>
      <trkpt lat="43.64454" lon="1.39551">
        <ele>133</ele>
        <time>2025-06-04T15:30:27Z</time>
      </trkpt>
      <trkpt lat="43.64454" lon="1.39551">
        <ele>133</ele>
        <time>2025-06-04T15:30:28Z</time>
      </trkpt>
      <trkpt lat="43.64454" lon="1.39551">
        <ele>133</ele>
        <time>2025-06-04T15:30:29Z</time>
      </trkpt>
      <trkpt lat="43.64451" lon="1.39552">
        <ele>133</ele>
        <time>2025-06-04T15:30:30Z</time>
      </trkpt>
      <trkpt lat="43.64451" lon="1.39552">
        <ele>133</ele>
        <time>2025-06-04T15:30:31Z</time>
      </trkpt>
      <trkpt lat="43.64451" lon="1.39552">
        <ele>133</ele>
        <time>2025-06-04T15:30:32Z</time>
      </trkpt>
      <trkpt lat="43.64452" lon="1.39549">
        <ele>133</ele>
        <time>2025-06-04T15:30:33Z</time>
      </trkpt>
      <trkpt lat="43.64452" lon="1.39549">
        <ele>133</ele>
        <time>2025-06-04T15:30:34Z</time>
      </trkpt>
      <trkpt lat="43.64454" lon="1.39549">
        <ele>133</ele>
        <time>2025-06-04T15:30:35Z</time>
      </trkpt>
      <trkpt lat="43.64454" lon="1.39549">
        <ele>133</ele>
        <time>2025-06-04T15:30:36Z</time>
      </trkpt>
      <trkpt lat="43.64456" lon="1.39548">
        <ele>133</ele>
        <time>2025-06-04T15:30:37Z</time>
      </trkpt>
      <trkpt lat="43.64456" lon="1.39548">
        <ele>133</ele>
        <time>2025-06-04T15:30:38Z</time>
      </trkpt>
      <trkpt lat="43.64459" lon="1.39547">
        <ele>133</ele>
        <time>2025-06-04T15:30:39Z</time>
      </trkpt>
      <trkpt lat="43.64459" lon="1.39547">
        <ele>133</ele>
        <time>2025-06-04T15:30:40Z</time>
      </trkpt>
      <trkpt lat="43.6446" lon="1.39546">
        <ele>133</ele>
        <time>2025-06-04T15:30:41Z</time>
      </trkpt>
      <trkpt lat="43.6446" lon="1.39546">
        <ele>133</ele>
        <time>2025-06-04T15:30:42Z</time>
      </trkpt>
      <trkpt lat="43.64462" lon="1.39545">
        <ele>133</ele>
        <time>2025-06-04T15:30:43Z</time>
      </trkpt>
      <trkpt lat="43.64462" lon="1.39545">
        <ele>132</ele>
        <time>2025-06-04T15:30:44Z</time>
      </trkpt>
      <trkpt lat="43.64464" lon="1.39544">
        <ele>133</ele>
        <time>2025-06-04T15:30:45Z</time>
      </trkpt>
      <trkpt lat="43.64464" lon="1.39544">
        <ele>133</ele>
        <time>2025-06-04T15:30:46Z</time>
      </trkpt>
      <trkpt lat="43.64466" lon="1.39543">
        <ele>132</ele>
        <time>2025-06-04T15:30:47Z</time>
      </trkpt>
      <trkpt lat="43.64466" lon="1.39543">
        <ele>132</ele>
        <time>2025-06-04T15:30:48Z</time>
      </trkpt>
      <trkpt lat="43.64468" lon="1.39543">
        <ele>132</ele>
        <time>2025-06-04T15:30:49Z</time>
      </trkpt>
      <trkpt lat="43.64468" lon="1.39543">
        <ele>132</ele>
        <time>2025-06-04T15:30:50Z</time>
      </trkpt>
      <trkpt lat="43.64468" lon="1.39543">
        <ele>132</ele>
        <time>2025-06-04T15:30:51Z</time>
      </trkpt>
      <trkpt lat="43.64471" lon="1.39542">
        <ele>132</ele>
        <time>2025-06-04T15:30:52Z</time>
      </trkpt>
      <trkpt lat="43.64471" lon="1.39542">
        <ele>132</ele>
        <time>2025-06-04T15:30:53Z</time>
      </trkpt>
      <trkpt lat="43.64473" lon="1.39541">
        <ele>132</ele>
        <time>2025-06-04T15:30:54Z</time>
      </trkpt>
      <trkpt lat="43.64473" lon="1.39541">
        <ele>132</ele>
        <time>2025-06-04T15:30:55Z</time>
      </trkpt>
      <trkpt lat="43.64475" lon="1.39541">
        <ele>132</ele>
        <time>2025-06-04T15:30:56Z</time>
      </trkpt>
      <trkpt lat="43.64475" lon="1.39541">
        <ele>132</ele>
        <time>2025-06-04T15:30:57Z</time>
      </trkpt>
      <trkpt lat="43.64477" lon="1.3954">
        <ele>132</ele>
        <time>2025-06-04T15:30:58Z</time>
      </trkpt>
      <trkpt lat="43.64477" lon="1.3954">
        <ele>132</ele>
        <time>2025-06-04T15:30:59Z</time>
      </trkpt>
      <trkpt lat="43.64479" lon="1.3954">
        <ele>132</ele>
        <time>2025-06-04T15:31:00Z</time>
      </trkpt>
      <trkpt lat="43.64479" lon="1.3954">
        <ele>132</ele>
        <time>2025-06-04T15:31:01Z</time>
      </trkpt>
      <trkpt lat="43.64479" lon="1.3954">
        <ele>132</ele>
        <time>2025-06-04T15:31:02Z</time>
      </trkpt>
      <trkpt lat="43.64479" lon="1.3954">
        <ele>132</ele>
        <time>2025-06-04T15:31:03Z</time>
      </trkpt>
      <trkpt lat="43.64479" lon="1.3954">
        <ele>132</ele>
        <time>2025-06-04T15:31:04Z</time>
      </trkpt>
      <trkpt lat="43.64479" lon="1.3954">
        <ele>132</ele>
        <time>2025-06-04T15:31:05Z</time>
      </trkpt>
      <trkpt lat="43.64479" lon="1.3954">
        <ele>132</ele>
        <time>2025-06-04T15:31:06Z</time>
      </trkpt>
      <trkpt lat="43.64479" lon="1.3954">
        <ele>132</ele>
        <time>2025-06-04T15:31:07Z</time>
      </trkpt>
      <trkpt lat="43.64477" lon="1.39541">
        <ele>132</ele>
        <time>2025-06-04T15:31:08Z</time>
      </trkpt>
      <trkpt lat="43.64477" lon="1.39541">
        <ele>132</ele>
        <time>2025-06-04T15:31:09Z</time>
      </trkpt>
      <trkpt lat="43.64477" lon="1.39541">
        <ele>132</ele>
        <time>2025-06-04T15:31:10Z</time>
      </trkpt>
      <trkpt lat="43.64475" lon="1.39542">
        <ele>132</ele>
        <time>2025-06-04T15:31:11Z</time>
      </trkpt>
      <trkpt lat="43.64475" lon="1.39542">
        <ele>132</ele>
        <time>2025-06-04T15:31:12Z</time>
      </trkpt>
      <trkpt lat="43.64475" lon="1.39542">
        <ele>132</ele>
        <time>2025-06-04T15:31:13Z</time>
      </trkpt>
      <trkpt lat="43.64475" lon="1.39542">
        <ele>132</ele>
        <time>2025-06-04T15:31:14Z</time>
      </trkpt>
      <trkpt lat="43.64474" lon="1.39544">
        <ele>132</ele>
        <time>2025-06-04T15:31:15Z</time>
      </trkpt>
      <trkpt lat="43.64474" lon="1.39544">
        <ele>132</ele>
        <time>2025-06-04T15:31:16Z</time>
      </trkpt>
      <trkpt lat="43.64474" lon="1.39544">
        <ele>132</ele>
        <time>2025-06-04T15:31:17Z</time>
      </trkpt>
      <trkpt lat="43.64474" lon="1.39544">
        <ele>132</ele>
        <time>2025-06-04T15:31:18Z</time>
      </trkpt>
      <trkpt lat="43.64474" lon="1.39544">
        <ele>132</ele>
        <time>2025-06-04T15:31:19Z</time>
      </trkpt>
      <trkpt lat="43.64474" lon="1.39544">
        <ele>132</ele>
        <time>2025-06-04T15:31:20Z</time>
      </trkpt>
      <trkpt lat="43.64474" lon="1.39544">
        <ele>132</ele>
        <time>2025-06-04T15:31:21Z</time>
      </trkpt>
      <trkpt lat="43.64474" lon="1.39544">
        <ele>132</ele>
        <time>2025-06-04T15:31:22Z</time>
      </trkpt>
      <trkpt lat="43.64475" lon="1.39546">
        <ele>132</ele>
        <time>2025-06-04T15:31:23Z</time>
      </trkpt>
      <trkpt lat="43.64475" lon="1.39546">
        <ele>132</ele>
        <time>2025-06-04T15:31:24Z</time>
      </trkpt>
      <trkpt lat="43.64475" lon="1.39546">
        <ele>132</ele>
        <time>2025-06-04T15:31:25Z</time>
      </trkpt>
      <trkpt lat="43.64475" lon="1.39546">
        <ele>133</ele>
        <time>2025-06-04T15:31:26Z</time>
      </trkpt>
      <trkpt lat="43.64475" lon="1.39546">
        <ele>133</ele>
        <time>2025-06-04T15:31:27Z</time>
      </trkpt>
      <trkpt lat="43.64477" lon="1.39548">
        <ele>133</ele>
        <time>2025-06-04T15:31:28Z</time>
      </trkpt>
      <trkpt lat="43.64477" lon="1.39548">
        <ele>133</ele>
        <time>2025-06-04T15:31:29Z</time>
      </trkpt>
      <trkpt lat="43.64477" lon="1.39548">
        <ele>134</ele>
        <time>2025-06-04T15:31:30Z</time>
      </trkpt>
      <trkpt lat="43.64477" lon="1.39548">
        <ele>134</ele>
        <time>2025-06-04T15:31:31Z</time>
      </trkpt>
      <trkpt lat="43.64478" lon="1.3955">
        <ele>134</ele>
        <time>2025-06-04T15:31:32Z</time>
      </trkpt>
      <trkpt lat="43.64478" lon="1.3955">
        <ele>134</ele>
        <time>2025-06-04T15:31:33Z</time>
      </trkpt>
      <trkpt lat="43.64478" lon="1.3955">
        <ele>134</ele>
        <time>2025-06-04T15:31:34Z</time>
      </trkpt>
      <trkpt lat="43.64478" lon="1.3955">
        <ele>135</ele>
        <time>2025-06-04T15:31:35Z</time>
      </trkpt>
      <trkpt lat="43.64476" lon="1.39549">
        <ele>135</ele>
        <time>2025-06-04T15:31:36Z</time>
      </trkpt>
      <trkpt lat="43.64476" lon="1.39549">
        <ele>135</ele>
        <time>2025-06-04T15:31:37Z</time>
      </trkpt>
      <trkpt lat="43.64476" lon="1.39549">
        <ele>134</ele>
        <time>2025-06-04T15:31:38Z</time>
      </trkpt>
      <trkpt lat="43.64476" lon="1.39546">
        <ele>134</ele>
        <time>2025-06-04T15:31:39Z</time>
      </trkpt>
      <trkpt lat="43.64476" lon="1.39546">
        <ele>133</ele>
        <time>2025-06-04T15:31:40Z</time>
      </trkpt>
      <trkpt lat="43.64476" lon="1.39546">
        <ele>133</ele>
        <time>2025-06-04T15:31:41Z</time>
      </trkpt>
      <trkpt lat="43.64476" lon="1.39546">
        <ele>133</ele>
        <time>2025-06-04T15:31:42Z</time>
      </trkpt>
      <trkpt lat="43.64476" lon="1.39546">
        <ele>132</ele>
        <time>2025-06-04T15:31:43Z</time>
      </trkpt>
      <trkpt lat="43.64476" lon="1.39546">
        <ele>132</ele>
        <time>2025-06-04T15:31:44Z</time>
      </trkpt>
      <trkpt lat="43.64476" lon="1.39546">
        <ele>132</ele>
        <time>2025-06-04T15:31:45Z</time>
      </trkpt>
      <trkpt lat="43.64476" lon="1.39546">
        <ele>132</ele>
        <time>2025-06-04T15:31:46Z</time>
      </trkpt>
      <trkpt lat="43.64476" lon="1.39546">
        <ele>132</ele>
        <time>2025-06-04T15:31:47Z</time>
      </trkpt>
      <trkpt lat="43.64476" lon="1.39546">
        <ele>132</ele>
        <time>2025-06-04T15:31:48Z</time>
      </trkpt>
      <trkpt lat="43.64476" lon="1.39546">
        <ele>132</ele>
        <time>2025-06-04T15:31:49Z</time>
      </trkpt>
      <trkpt lat="43.64476" lon="1.39546">
        <ele>132</ele>
        <time>2025-06-04T15:31:50Z</time>
      </trkpt>
      <trkpt lat="43.64476" lon="1.39546">
        <ele>132</ele>
        <time>2025-06-04T15:31:51Z</time>
      </trkpt>
      <trkpt lat="43.64476" lon="1.39546">
        <ele>132</ele>
        <time>2025-06-04T15:31:52Z</time>
      </trkpt>
      <trkpt lat="43.64476" lon="1.39546">
        <ele>132</ele>
        <time>2025-06-04T15:31:53Z</time>
      </trkpt>
      <trkpt lat="43.64476" lon="1.39546">
        <ele>132</ele>
        <time>2025-06-04T15:31:54Z</time>
      </trkpt>
      <trkpt lat="43.64476" lon="1.39546">
        <ele>133</ele>
        <time>2025-06-04T15:31:55Z</time>
      </trkpt>
      <trkpt lat="43.64476" lon="1.39549">
        <ele>133</ele>
        <time>2025-06-04T15:31:56Z</time>
      </trkpt>
      <trkpt lat="43.64476" lon="1.39549">
        <ele>133</ele>
        <time>2025-06-04T15:31:57Z</time>
      </trkpt>
      <trkpt lat="43.64476" lon="1.39549">
        <ele>133</ele>
        <time>2025-06-04T15:31:58Z</time>
      </trkpt>
      <trkpt lat="43.64476" lon="1.39549">
        <ele>133</ele>
        <time>2025-06-04T15:31:59Z</time>
      </trkpt>
      <trkpt lat="43.64476" lon="1.39549">
        <ele>134</ele>
        <time>2025-06-04T15:32:00Z</time>
      </trkpt>
      <trkpt lat="43.64476" lon="1.39549">
        <ele>134</ele>
        <time>2025-06-04T15:32:01Z</time>
      </trkpt>
      <trkpt lat="43.64476" lon="1.39549">
        <ele>134</ele>
        <time>2025-06-04T15:32:02Z</time>
      </trkpt>
      <trkpt lat="43.64476" lon="1.39549">
        <ele>134</ele>
        <time>2025-06-04T15:32:03Z</time>
      </trkpt>
      <trkpt lat="43.64476" lon="1.39549">
        <ele>134</ele>
        <time>2025-06-04T15:32:04Z</time>
      </trkpt>
      <trkpt lat="43.64476" lon="1.39549">
        <ele>134</ele>
        <time>2025-06-04T15:32:05Z</time>
      </trkpt>
      <trkpt lat="43.64476" lon="1.39549">
        <ele>134</ele>
        <time>2025-06-04T15:32:06Z</time>
      </trkpt>
      <trkpt lat="43.64476" lon="1.39549">
        <ele>134</ele>
        <time>2025-06-04T15:32:07Z</time>
      </trkpt>
      <trkpt lat="43.64476" lon="1.39549">
        <ele>134</ele>
        <time>2025-06-04T15:32:08Z</time>
      </trkpt>
      <trkpt lat="43.64476" lon="1.39549">
        <ele>134</ele>
        <time>2025-06-04T15:32:09Z</time>
      </trkpt>
      <trkpt lat="43.64476" lon="1.39549">
        <ele>134</ele>
        <time>2025-06-04T15:32:10Z</time>
      </trkpt>
      <trkpt lat="43.64476" lon="1.39546">
        <ele>133</ele>
        <time>2025-06-04T15:32:11Z</time>
      </trkpt>
      <trkpt lat="43.64476" lon="1.39546">
        <ele>133</ele>
        <time>2025-06-04T15:32:12Z</time>
      </trkpt>
      <trkpt lat="43.64476" lon="1.39546">
        <ele>133</ele>
        <time>2025-06-04T15:32:13Z</time>
      </trkpt>
      <trkpt lat="43.64476" lon="1.39546">
        <ele>133</ele>
        <time>2025-06-04T15:32:14Z</time>
      </trkpt>
      <trkpt lat="43.64476" lon="1.39546">
        <ele>132</ele>
        <time>2025-06-04T15:32:15Z</time>
      </trkpt>
      <trkpt lat="43.64476" lon="1.39546">
        <ele>132</ele>
        <time>2025-06-04T15:32:16Z</time>
      </trkpt>
      <trkpt lat="43.64476" lon="1.39546">
        <ele>132</ele>
        <time>2025-06-04T15:32:17Z</time>
      </trkpt>
      <trkpt lat="43.64476" lon="1.39546">
        <ele>132</ele>
        <time>2025-06-04T15:32:18Z</time>
      </trkpt>
      <trkpt lat="43.64476" lon="1.39546">
        <ele>132</ele>
        <time>2025-06-04T15:32:19Z</time>
      </trkpt>
      <trkpt lat="43.64476" lon="1.39546">
        <ele>132</ele>
        <time>2025-06-04T15:32:20Z</time>
      </trkpt>
      <trkpt lat="43.64476" lon="1.39546">
        <ele>132</ele>
        <time>2025-06-04T15:32:21Z</time>
      </trkpt>
      <trkpt lat="43.64476" lon="1.39546">
        <ele>133</ele>
        <time>2025-06-04T15:32:22Z</time>
      </trkpt>
      <trkpt lat="43.64476" lon="1.39546">
        <ele>133</ele>
        <time>2025-06-04T15:32:23Z</time>
      </trkpt>
      <trkpt lat="43.64477" lon="1.39548">
        <ele>133</ele>
        <time>2025-06-04T15:32:24Z</time>
      </trkpt>
      <trkpt lat="43.64477" lon="1.39548">
        <ele>133</ele>
        <time>2025-06-04T15:32:25Z</time>
      </trkpt>
      <trkpt lat="43.64477" lon="1.39548">
        <ele>132</ele>
        <time>2025-06-04T15:32:26Z</time>
      </trkpt>
      <trkpt lat="43.64477" lon="1.39548">
        <ele>133</ele>
        <time>2025-06-04T15:32:27Z</time>
      </trkpt>
      <trkpt lat="43.64477" lon="1.39548">
        <ele>133</ele>
        <time>2025-06-04T15:32:28Z</time>
      </trkpt>
      <trkpt lat="43.64477" lon="1.39548">
        <ele>134</ele>
        <time>2025-06-04T15:32:29Z</time>
      </trkpt>
      <trkpt lat="43.64477" lon="1.39548">
        <ele>134</ele>
        <time>2025-06-04T15:32:30Z</time>
      </trkpt>
      <trkpt lat="43.64477" lon="1.39548">
        <ele>134</ele>
        <time>2025-06-04T15:32:31Z</time>
      </trkpt>
      <trkpt lat="43.64477" lon="1.39548">
        <ele>134</ele>
        <time>2025-06-04T15:32:32Z</time>
      </trkpt>
      <trkpt lat="43.64477" lon="1.39551">
        <ele>134</ele>
        <time>2025-06-04T15:32:33Z</time>
      </trkpt>
      <trkpt lat="43.64477" lon="1.39551">
        <ele>134</ele>
        <time>2025-06-04T15:32:34Z</time>
      </trkpt>
      <trkpt lat="43.64477" lon="1.39551">
        <ele>134</ele>
        <time>2025-06-04T15:32:35Z</time>
      </trkpt>
      <trkpt lat="43.64477" lon="1.39551">
        <ele>134</ele>
        <time>2025-06-04T15:32:36Z</time>
      </trkpt>
      <trkpt lat="43.64477" lon="1.39551">
        <ele>134</ele>
        <time>2025-06-04T15:32:37Z</time>
      </trkpt>
      <trkpt lat="43.64477" lon="1.39551">
        <ele>134</ele>
        <time>2025-06-04T15:32:38Z</time>
      </trkpt>
      <trkpt lat="43.64477" lon="1.39551">
        <ele>134</ele>
        <time>2025-06-04T15:32:39Z</time>
      </trkpt>
      <trkpt lat="43.64476" lon="1.39549">
        <ele>134</ele>
        <time>2025-06-04T15:32:40Z</time>
      </trkpt>
      <trkpt lat="43.64476" lon="1.39549">
        <ele>133</ele>
        <time>2025-06-04T15:32:41Z</time>
      </trkpt>
      <trkpt lat="43.64476" lon="1.39549">
        <ele>133</ele>
        <time>2025-06-04T15:32:42Z</time>
      </trkpt>
      <trkpt lat="43.64475" lon="1.39546">
        <ele>133</ele>
        <time>2025-06-04T15:32:43Z</time>
      </trkpt>
      <trkpt lat="43.64475" lon="1.39546">
        <ele>132</ele>
        <time>2025-06-04T15:32:44Z</time>
      </trkpt>
      <trkpt lat="43.64475" lon="1.39546">
        <ele>132</ele>
        <time>2025-06-04T15:32:45Z</time>
      </trkpt>
      <trkpt lat="43.64475" lon="1.39546">
        <ele>132</ele>
        <time>2025-06-04T15:32:46Z</time>
      </trkpt>
      <trkpt lat="43.64475" lon="1.39546">
        <ele>132</ele>
        <time>2025-06-04T15:32:47Z</time>
      </trkpt>
      <trkpt lat="43.64475" lon="1.39546">
        <ele>131</ele>
        <time>2025-06-04T15:32:48Z</time>
      </trkpt>
      <trkpt lat="43.64475" lon="1.39546">
        <ele>131</ele>
        <time>2025-06-04T15:32:49Z</time>
      </trkpt>
      <trkpt lat="43.64475" lon="1.39546">
        <ele>131</ele>
        <time>2025-06-04T15:32:50Z</time>
      </trkpt>
      <trkpt lat="43.64475" lon="1.39546">
        <ele>131</ele>
        <time>2025-06-04T15:32:51Z</time>
      </trkpt>
      <trkpt lat="43.64475" lon="1.39546">
        <ele>132</ele>
        <time>2025-06-04T15:32:52Z</time>
      </trkpt>
      <trkpt lat="43.64475" lon="1.39546">
        <ele>132</ele>
        <time>2025-06-04T15:32:53Z</time>
      </trkpt>
      <trkpt lat="43.64475" lon="1.39546">
        <ele>132</ele>
        <time>2025-06-04T15:32:54Z</time>
      </trkpt>
      <trkpt lat="43.64475" lon="1.39546">
        <ele>133</ele>
        <time>2025-06-04T15:32:55Z</time>
      </trkpt>
      <trkpt lat="43.64477" lon="1.39547">
        <ele>133</ele>
        <time>2025-06-04T15:32:56Z</time>
      </trkpt>
      <trkpt lat="43.64477" lon="1.39547">
        <ele>133</ele>
        <time>2025-06-04T15:32:57Z</time>
      </trkpt>
      <trkpt lat="43.64477" lon="1.39547">
        <ele>133</ele>
        <time>2025-06-04T15:32:58Z</time>
      </trkpt>
      <trkpt lat="43.64477" lon="1.39547">
        <ele>133</ele>
        <time>2025-06-04T15:32:59Z</time>
      </trkpt>
      <trkpt lat="43.64477" lon="1.39547">
        <ele>133</ele>
        <time>2025-06-04T15:33:00Z</time>
      </trkpt>
      <trkpt lat="43.64477" lon="1.39547">
        <ele>133</ele>
        <time>2025-06-04T15:33:01Z</time>
      </trkpt>
      <trkpt lat="43.64477" lon="1.39547">
        <ele>134</ele>
        <time>2025-06-04T15:33:02Z</time>
      </trkpt>
      <trkpt lat="43.64476" lon="1.3955">
        <ele>134</ele>
        <time>2025-06-04T15:33:03Z</time>
      </trkpt>
      <trkpt lat="43.64476" lon="1.3955">
        <ele>133</ele>
        <time>2025-06-04T15:33:04Z</time>
      </trkpt>
      <trkpt lat="43.64476" lon="1.3955">
        <ele>133</ele>
        <time>2025-06-04T15:33:05Z</time>
      </trkpt>
      <trkpt lat="43.64476" lon="1.3955">
        <ele>133</ele>
        <time>2025-06-04T15:33:06Z</time>
      </trkpt>
      <trkpt lat="43.64476" lon="1.3955">
        <ele>134</ele>
        <time>2025-06-04T15:33:07Z</time>
      </trkpt>
      <trkpt lat="43.64476" lon="1.3955">
        <ele>134</ele>
        <time>2025-06-04T15:33:08Z</time>
      </trkpt>
      <trkpt lat="43.64476" lon="1.3955">
        <ele>134</ele>
        <time>2025-06-04T15:33:09Z</time>
      </trkpt>
      <trkpt lat="43.64476" lon="1.3955">
        <ele>134</ele>
        <time>2025-06-04T15:33:10Z</time>
      </trkpt>
      <trkpt lat="43.64476" lon="1.3955">
        <ele>134</ele>
        <time>2025-06-04T15:33:11Z</time>
      </trkpt>
      <trkpt lat="43.64476" lon="1.3955">
        <ele>134</ele>
        <time>2025-06-04T15:33:12Z</time>
      </trkpt>
      <trkpt lat="43.64475" lon="1.39547">
        <ele>133</ele>
        <time>2025-06-04T15:33:13Z</time>
      </trkpt>
      <trkpt lat="43.64475" lon="1.39547">
        <ele>133</ele>
        <time>2025-06-04T15:33:14Z</time>
      </trkpt>
      <trkpt lat="43.64475" lon="1.39547">
        <ele>133</ele>
        <time>2025-06-04T15:33:15Z</time>
      </trkpt>
      <trkpt lat="43.64475" lon="1.39547">
        <ele>133</ele>
        <time>2025-06-04T15:33:16Z</time>
      </trkpt>
      <trkpt lat="43.64475" lon="1.39547">
        <ele>133</ele>
        <time>2025-06-04T15:33:17Z</time>
      </trkpt>
      <trkpt lat="43.64475" lon="1.39547">
        <ele>132</ele>
        <time>2025-06-04T15:33:18Z</time>
      </trkpt>
      <trkpt lat="43.64475" lon="1.39547">
        <ele>132</ele>
        <time>2025-06-04T15:33:19Z</time>
      </trkpt>
      <trkpt lat="43.64475" lon="1.39547">
        <ele>131</ele>
        <time>2025-06-04T15:33:20Z</time>
      </trkpt>
      <trkpt lat="43.64475" lon="1.39547">
        <ele>132</ele>
        <time>2025-06-04T15:33:21Z</time>
      </trkpt>
      <trkpt lat="43.64475" lon="1.39547">
        <ele>132</ele>
        <time>2025-06-04T15:33:22Z</time>
      </trkpt>
      <trkpt lat="43.64475" lon="1.39547">
        <ele>132</ele>
        <time>2025-06-04T15:33:23Z</time>
      </trkpt>
      <trkpt lat="43.64475" lon="1.39547">
        <ele>132</ele>
        <time>2025-06-04T15:33:24Z</time>
      </trkpt>
      <trkpt lat="43.64475" lon="1.39547">
        <ele>132</ele>
        <time>2025-06-04T15:33:25Z</time>
      </trkpt>
      <trkpt lat="43.64475" lon="1.39547">
        <ele>132</ele>
        <time>2025-06-04T15:33:26Z</time>
      </trkpt>
      <trkpt lat="43.64477" lon="1.39547">
        <ele>132</ele>
        <time>2025-06-04T15:33:27Z</time>
      </trkpt>
      <trkpt lat="43.64477" lon="1.39547">
        <ele>132</ele>
        <time>2025-06-04T15:33:28Z</time>
      </trkpt>
      <trkpt lat="43.64477" lon="1.39547">
        <ele>132</ele>
        <time>2025-06-04T15:33:29Z</time>
      </trkpt>
      <trkpt lat="43.64477" lon="1.39547">
        <ele>132</ele>
        <time>2025-06-04T15:33:30Z</time>
      </trkpt>
      <trkpt lat="43.64477" lon="1.39547">
        <ele>133</ele>
        <time>2025-06-04T15:33:31Z</time>
      </trkpt>
      <trkpt lat="43.64478" lon="1.3955">
        <ele>133</ele>
        <time>2025-06-04T15:33:32Z</time>
      </trkpt>
      <trkpt lat="43.64478" lon="1.3955">
        <ele>133</ele>
        <time>2025-06-04T15:33:33Z</time>
      </trkpt>
      <trkpt lat="43.64478" lon="1.3955">
        <ele>133</ele>
        <time>2025-06-04T15:33:34Z</time>
      </trkpt>
      <trkpt lat="43.64478" lon="1.3955">
        <ele>133</ele>
        <time>2025-06-04T15:33:35Z</time>
      </trkpt>
      <trkpt lat="43.64478" lon="1.3955">
        <ele>133</ele>
        <time>2025-06-04T15:33:36Z</time>
      </trkpt>
      <trkpt lat="43.64478" lon="1.3955">
        <ele>133</ele>
        <time>2025-06-04T15:33:37Z</time>
      </trkpt>
      <trkpt lat="43.64478" lon="1.3955">
        <ele>133</ele>
        <time>2025-06-04T15:33:38Z</time>
      </trkpt>
      <trkpt lat="43.64478" lon="1.3955">
        <ele>134</ele>
        <time>2025-06-04T15:33:39Z</time>
      </trkpt>
      <trkpt lat="43.64478" lon="1.3955">
        <ele>134</ele>
        <time>2025-06-04T15:33:40Z</time>
      </trkpt>
      <trkpt lat="43.64478" lon="1.3955">
        <ele>134</ele>
        <time>2025-06-04T15:33:41Z</time>
      </trkpt>
      <trkpt lat="43.64478" lon="1.3955">
        <ele>134</ele>
        <time>2025-06-04T15:33:42Z</time>
      </trkpt>
      <trkpt lat="43.64478" lon="1.3955">
        <ele>134</ele>
        <time>2025-06-04T15:33:43Z</time>
      </trkpt>
      <trkpt lat="43.64476" lon="1.39547">
        <ele>134</ele>
        <time>2025-06-04T15:33:44Z</time>
      </trkpt>
      <trkpt lat="43.64476" lon="1.39547">
        <ele>133</ele>
        <time>2025-06-04T15:33:45Z</time>
      </trkpt>
      <trkpt lat="43.64476" lon="1.39547">
        <ele>133</ele>
        <time>2025-06-04T15:33:46Z</time>
      </trkpt>
      <trkpt lat="43.64475" lon="1.39545">
        <ele>133</ele>
        <time>2025-06-04T15:33:47Z</time>
      </trkpt>
      <trkpt lat="43.64475" lon="1.39545">
        <ele>132</ele>
        <time>2025-06-04T15:33:48Z</time>
      </trkpt>
      <trkpt lat="43.64475" lon="1.39545">
        <ele>132</ele>
        <time>2025-06-04T15:33:49Z</time>
      </trkpt>
      <trkpt lat="43.64475" lon="1.39545">
        <ele>132</ele>
        <time>2025-06-04T15:33:50Z</time>
      </trkpt>
      <trkpt lat="43.64475" lon="1.39545">
        <ele>132</ele>
        <time>2025-06-04T15:33:51Z</time>
      </trkpt>
      <trkpt lat="43.64475" lon="1.39545">
        <ele>132</ele>
        <time>2025-06-04T15:33:52Z</time>
      </trkpt>
      <trkpt lat="43.64475" lon="1.39545">
        <ele>132</ele>
        <time>2025-06-04T15:33:53Z</time>
      </trkpt>
      <trkpt lat="43.64475" lon="1.39545">
        <ele>132</ele>
        <time>2025-06-04T15:33:54Z</time>
      </trkpt>
      <trkpt lat="43.64475" lon="1.39548">
        <ele>132</ele>
        <time>2025-06-04T15:33:55Z</time>
      </trkpt>
      <trkpt lat="43.64475" lon="1.39548">
        <ele>132</ele>
        <time>2025-06-04T15:33:56Z</time>
      </trkpt>
      <trkpt lat="43.64475" lon="1.39548">
        <ele>132</ele>
        <time>2025-06-04T15:33:57Z</time>
      </trkpt>
      <trkpt lat="43.64475" lon="1.39548">
        <ele>133</ele>
        <time>2025-06-04T15:33:58Z</time>
      </trkpt>
      <trkpt lat="43.64475" lon="1.39548">
        <ele>133</ele>
        <time>2025-06-04T15:33:59Z</time>
      </trkpt>
      <trkpt lat="43.64476" lon="1.3955">
        <ele>133</ele>
        <time>2025-06-04T15:34:00Z</time>
      </trkpt>
      <trkpt lat="43.64476" lon="1.3955">
        <ele>133</ele>
        <time>2025-06-04T15:34:01Z</time>
      </trkpt>
      <trkpt lat="43.64476" lon="1.3955">
        <ele>133</ele>
        <time>2025-06-04T15:34:02Z</time>
      </trkpt>
      <trkpt lat="43.64476" lon="1.3955">
        <ele>133</ele>
        <time>2025-06-04T15:34:03Z</time>
      </trkpt>
      <trkpt lat="43.64476" lon="1.3955">
        <ele>133</ele>
        <time>2025-06-04T15:34:04Z</time>
      </trkpt>
      <trkpt lat="43.64476" lon="1.3955">
        <ele>133</ele>
        <time>2025-06-04T15:34:05Z</time>
      </trkpt>
      <trkpt lat="43.64476" lon="1.3955">
        <ele>133</ele>
        <time>2025-06-04T15:34:06Z</time>
      </trkpt>
      <trkpt lat="43.64476" lon="1.3955">
        <ele>134</ele>
        <time>2025-06-04T15:34:07Z</time>
      </trkpt>
      <trkpt lat="43.64476" lon="1.3955">
        <ele>134</ele>
        <time>2025-06-04T15:34:08Z</time>
      </trkpt>
      <trkpt lat="43.64477" lon="1.39553">
        <ele>134</ele>
        <time>2025-06-04T15:34:09Z</time>
      </trkpt>
      <trkpt lat="43.64477" lon="1.39553">
        <ele>134</ele>
        <time>2025-06-04T15:34:10Z</time>
      </trkpt>
      <trkpt lat="43.64477" lon="1.39553">
        <ele>134</ele>
        <time>2025-06-04T15:34:11Z</time>
      </trkpt>
      <trkpt lat="43.64477" lon="1.39553">
        <ele>135</ele>
        <time>2025-06-04T15:34:12Z</time>
      </trkpt>
      <trkpt lat="43.6448" lon="1.39554">
        <ele>135</ele>
        <time>2025-06-04T15:34:13Z</time>
      </trkpt>
      <trkpt lat="43.6448" lon="1.39554">
        <ele>135</ele>
        <time>2025-06-04T15:34:14Z</time>
      </trkpt>
      <trkpt lat="43.64482" lon="1.39554">
        <ele>135</ele>
        <time>2025-06-04T15:34:15Z</time>
      </trkpt>
      <trkpt lat="43.64482" lon="1.39554">
        <ele>135</ele>
        <time>2025-06-04T15:34:16Z</time>
      </trkpt>
      <trkpt lat="43.64484" lon="1.39554">
        <ele>135</ele>
        <time>2025-06-04T15:34:17Z</time>
      </trkpt>
      <trkpt lat="43.64484" lon="1.39554">
        <ele>135</ele>
        <time>2025-06-04T15:34:18Z</time>
      </trkpt>
      <trkpt lat="43.64486" lon="1.39553">
        <ele>135</ele>
        <time>2025-06-04T15:34:19Z</time>
      </trkpt>
      <trkpt lat="43.64486" lon="1.39553">
        <ele>135</ele>
        <time>2025-06-04T15:34:20Z</time>
      </trkpt>
      <trkpt lat="43.64486" lon="1.39553">
        <ele>135</ele>
        <time>2025-06-04T15:34:21Z</time>
      </trkpt>
      <trkpt lat="43.64486" lon="1.39553">
        <ele>135</ele>
        <time>2025-06-04T15:34:22Z</time>
      </trkpt>
      <trkpt lat="43.64486" lon="1.39553">
        <ele>135</ele>
        <time>2025-06-04T15:34:23Z</time>
      </trkpt>
      <trkpt lat="43.64489" lon="1.39551">
        <ele>135</ele>
        <time>2025-06-04T15:34:24Z</time>
      </trkpt>
      <trkpt lat="43.64489" lon="1.39551">
        <ele>135</ele>
        <time>2025-06-04T15:34:25Z</time>
      </trkpt>
      <trkpt lat="43.64491" lon="1.3955">
        <ele>135</ele>
        <time>2025-06-04T15:34:26Z</time>
      </trkpt>
      <trkpt lat="43.64491" lon="1.3955">
        <ele>135</ele>
        <time>2025-06-04T15:34:27Z</time>
      </trkpt>
      <trkpt lat="43.64494" lon="1.39549">
        <ele>135</ele>
        <time>2025-06-04T15:34:28Z</time>
      </trkpt>
      <trkpt lat="43.64494" lon="1.39549">
        <ele>135</ele>
        <time>2025-06-04T15:34:29Z</time>
      </trkpt>
      <trkpt lat="43.64496" lon="1.39548">
        <ele>135</ele>
        <time>2025-06-04T15:34:30Z</time>
      </trkpt>
      <trkpt lat="43.64496" lon="1.39548">
        <ele>135</ele>
        <time>2025-06-04T15:34:31Z</time>
      </trkpt>
      <trkpt lat="43.64498" lon="1.39546">
        <ele>135</ele>
        <time>2025-06-04T15:34:32Z</time>
      </trkpt>
      <trkpt lat="43.64498" lon="1.39546">
        <ele>135</ele>
        <time>2025-06-04T15:34:33Z</time>
      </trkpt>
      <trkpt lat="43.64499" lon="1.39543">
        <ele>135</ele>
        <time>2025-06-04T15:34:34Z</time>
      </trkpt>
      <trkpt lat="43.64499" lon="1.39543">
        <ele>135</ele>
        <time>2025-06-04T15:34:35Z</time>
      </trkpt>
      <trkpt lat="43.64499" lon="1.3954">
        <ele>135</ele>
        <time>2025-06-04T15:34:36Z</time>
      </trkpt>
      <trkpt lat="43.64499" lon="1.3954">
        <ele>135</ele>
        <time>2025-06-04T15:34:37Z</time>
      </trkpt>
      <trkpt lat="43.64498" lon="1.39536">
        <ele>135</ele>
        <time>2025-06-04T15:34:38Z</time>
      </trkpt>
      <trkpt lat="43.64498" lon="1.39536">
        <ele>135</ele>
        <time>2025-06-04T15:34:39Z</time>
      </trkpt>
      <trkpt lat="43.64498" lon="1.39533">
        <ele>135</ele>
        <time>2025-06-04T15:34:40Z</time>
      </trkpt>
      <trkpt lat="43.64498" lon="1.39533">
        <ele>135</ele>
        <time>2025-06-04T15:34:41Z</time>
      </trkpt>
      <trkpt lat="43.64497" lon="1.39529">
        <ele>135</ele>
        <time>2025-06-04T15:34:42Z</time>
      </trkpt>
      <trkpt lat="43.64497" lon="1.39529">
        <ele>135</ele>
        <time>2025-06-04T15:34:43Z</time>
      </trkpt>
      <trkpt lat="43.64497" lon="1.39526">
        <ele>135</ele>
        <time>2025-06-04T15:34:44Z</time>
      </trkpt>
      <trkpt lat="43.64497" lon="1.39526">
        <ele>135</ele>
        <time>2025-06-04T15:34:45Z</time>
      </trkpt>
      <trkpt lat="43.64496" lon="1.39523">
        <ele>135</ele>
        <time>2025-06-04T15:34:46Z</time>
      </trkpt>
      <trkpt lat="43.64496" lon="1.39523">
        <ele>136</ele>
        <time>2025-06-04T15:34:47Z</time>
      </trkpt>
      <trkpt lat="43.64496" lon="1.39519">
        <ele>136</ele>
        <time>2025-06-04T15:34:48Z</time>
      </trkpt>
      <trkpt lat="43.64496" lon="1.39519">
        <ele>136</ele>
        <time>2025-06-04T15:34:49Z</time>
      </trkpt>
      <trkpt lat="43.64495" lon="1.39516">
        <ele>136</ele>
        <time>2025-06-04T15:34:50Z</time>
      </trkpt>
      <trkpt lat="43.64495" lon="1.39516">
        <ele>136</ele>
        <time>2025-06-04T15:34:51Z</time>
      </trkpt>
      <trkpt lat="43.64494" lon="1.39513">
        <ele>136</ele>
        <time>2025-06-04T15:34:52Z</time>
      </trkpt>
      <trkpt lat="43.64494" lon="1.39513">
        <ele>136</ele>
        <time>2025-06-04T15:34:53Z</time>
      </trkpt>
      <trkpt lat="43.64494" lon="1.3951">
        <ele>136</ele>
        <time>2025-06-04T15:34:54Z</time>
      </trkpt>
      <trkpt lat="43.64494" lon="1.3951">
        <ele>136</ele>
        <time>2025-06-04T15:34:55Z</time>
      </trkpt>
      <trkpt lat="43.64493" lon="1.39506">
        <ele>136</ele>
        <time>2025-06-04T15:34:56Z</time>
      </trkpt>
      <trkpt lat="43.64493" lon="1.39506">
        <ele>136</ele>
        <time>2025-06-04T15:34:57Z</time>
      </trkpt>
      <trkpt lat="43.64493" lon="1.39503">
        <ele>136</ele>
        <time>2025-06-04T15:34:58Z</time>
      </trkpt>
      <trkpt lat="43.64493" lon="1.39503">
        <ele>136</ele>
        <time>2025-06-04T15:34:59Z</time>
      </trkpt>
      <trkpt lat="43.64493" lon="1.395">
        <ele>136</ele>
        <time>2025-06-04T15:35:00Z</time>
      </trkpt>
      <trkpt lat="43.64493" lon="1.395">
        <ele>136</ele>
        <time>2025-06-04T15:35:01Z</time>
      </trkpt>
      <trkpt lat="43.64492" lon="1.39496">
        <ele>136</ele>
        <time>2025-06-04T15:35:02Z</time>
      </trkpt>
      <trkpt lat="43.64492" lon="1.39496">
        <ele>136</ele>
        <time>2025-06-04T15:35:03Z</time>
      </trkpt>
      <trkpt lat="43.64491" lon="1.39493">
        <ele>136</ele>
        <time>2025-06-04T15:35:04Z</time>
      </trkpt>
      <trkpt lat="43.64491" lon="1.39493">
        <ele>136</ele>
        <time>2025-06-04T15:35:05Z</time>
      </trkpt>
      <trkpt lat="43.64491" lon="1.3949">
        <ele>136</ele>
        <time>2025-06-04T15:35:06Z</time>
      </trkpt>
      <trkpt lat="43.64491" lon="1.3949">
        <ele>136</ele>
        <time>2025-06-04T15:35:07Z</time>
      </trkpt>
      <trkpt lat="43.6449" lon="1.39487">
        <ele>136</ele>
        <time>2025-06-04T15:35:08Z</time>
      </trkpt>
      <trkpt lat="43.6449" lon="1.39487">
        <ele>136</ele>
        <time>2025-06-04T15:35:09Z</time>
      </trkpt>
      <trkpt lat="43.6449" lon="1.39484">
        <ele>136</ele>
        <time>2025-06-04T15:35:10Z</time>
      </trkpt>
      <trkpt lat="43.6449" lon="1.39484">
        <ele>136</ele>
        <time>2025-06-04T15:35:11Z</time>
      </trkpt>
      <trkpt lat="43.64489" lon="1.39481">
        <ele>136</ele>
        <time>2025-06-04T15:35:12Z</time>
      </trkpt>
      <trkpt lat="43.64489" lon="1.39481">
        <ele>136</ele>
        <time>2025-06-04T15:35:13Z</time>
      </trkpt>
      <trkpt lat="43.64489" lon="1.39478">
        <ele>136</ele>
        <time>2025-06-04T15:35:14Z</time>
      </trkpt>
      <trkpt lat="43.64489" lon="1.39478">
        <ele>135</ele>
        <time>2025-06-04T15:35:15Z</time>
      </trkpt>
      <trkpt lat="43.64489" lon="1.39474">
        <ele>135</ele>
        <time>2025-06-04T15:35:16Z</time>
      </trkpt>
      <trkpt lat="43.64489" lon="1.39474">
        <ele>135</ele>
        <time>2025-06-04T15:35:17Z</time>
      </trkpt>
      <trkpt lat="43.64488" lon="1.39471">
        <ele>135</ele>
        <time>2025-06-04T15:35:18Z</time>
      </trkpt>
      <trkpt lat="43.64488" lon="1.39471">
        <ele>135</ele>
        <time>2025-06-04T15:35:19Z</time>
      </trkpt>
      <trkpt lat="43.64488" lon="1.39468">
        <ele>135</ele>
        <time>2025-06-04T15:35:20Z</time>
      </trkpt>
      <trkpt lat="43.64488" lon="1.39468">
        <ele>135</ele>
        <time>2025-06-04T15:35:21Z</time>
      </trkpt>
      <trkpt lat="43.64487" lon="1.39465">
        <ele>135</ele>
        <time>2025-06-04T15:35:22Z</time>
      </trkpt>
      <trkpt lat="43.64487" lon="1.39465">
        <ele>136</ele>
        <time>2025-06-04T15:35:23Z</time>
      </trkpt>
      <trkpt lat="43.64487" lon="1.39462">
        <ele>136</ele>
        <time>2025-06-04T15:35:24Z</time>
      </trkpt>
      <trkpt lat="43.64487" lon="1.39462">
        <ele>135</ele>
        <time>2025-06-04T15:35:25Z</time>
      </trkpt>
      <trkpt lat="43.64487" lon="1.39459">
        <ele>135</ele>
        <time>2025-06-04T15:35:26Z</time>
      </trkpt>
      <trkpt lat="43.64487" lon="1.39459">
        <ele>135</ele>
        <time>2025-06-04T15:35:27Z</time>
      </trkpt>
      <trkpt lat="43.64486" lon="1.39455">
        <ele>135</ele>
        <time>2025-06-04T15:35:28Z</time>
      </trkpt>
      <trkpt lat="43.64486" lon="1.39455">
        <ele>135</ele>
        <time>2025-06-04T15:35:29Z</time>
      </trkpt>
      <trkpt lat="43.64486" lon="1.39452">
        <ele>135</ele>
        <time>2025-06-04T15:35:30Z</time>
      </trkpt>
      <trkpt lat="43.64486" lon="1.39452">
        <ele>135</ele>
        <time>2025-06-04T15:35:31Z</time>
      </trkpt>
      <trkpt lat="43.64485" lon="1.39448">
        <ele>135</ele>
        <time>2025-06-04T15:35:32Z</time>
      </trkpt>
      <trkpt lat="43.64485" lon="1.39448">
        <ele>135</ele>
        <time>2025-06-04T15:35:33Z</time>
      </trkpt>
      <trkpt lat="43.64485" lon="1.39444">
        <ele>135</ele>
        <time>2025-06-04T15:35:34Z</time>
      </trkpt>
      <trkpt lat="43.64485" lon="1.39444">
        <ele>135</ele>
        <time>2025-06-04T15:35:35Z</time>
      </trkpt>
      <trkpt lat="43.64484" lon="1.39442">
        <ele>135</ele>
        <time>2025-06-04T15:35:36Z</time>
      </trkpt>
      <trkpt lat="43.64484" lon="1.39442">
        <ele>135</ele>
        <time>2025-06-04T15:35:37Z</time>
      </trkpt>
      <trkpt lat="43.64483" lon="1.39438">
        <ele>135</ele>
        <time>2025-06-04T15:35:38Z</time>
      </trkpt>
      <trkpt lat="43.64483" lon="1.39438">
        <ele>135</ele>
        <time>2025-06-04T15:35:39Z</time>
      </trkpt>
      <trkpt lat="43.64483" lon="1.39435">
        <ele>135</ele>
        <time>2025-06-04T15:35:40Z</time>
      </trkpt>
      <trkpt lat="43.64483" lon="1.39435">
        <ele>135</ele>
        <time>2025-06-04T15:35:41Z</time>
      </trkpt>
      <trkpt lat="43.64481" lon="1.39431">
        <ele>135</ele>
        <time>2025-06-04T15:35:42Z</time>
      </trkpt>
      <trkpt lat="43.64481" lon="1.39431">
        <ele>135</ele>
        <time>2025-06-04T15:35:43Z</time>
      </trkpt>
      <trkpt lat="43.6448" lon="1.39428">
        <ele>135</ele>
        <time>2025-06-04T15:35:44Z</time>
      </trkpt>
      <trkpt lat="43.6448" lon="1.39428">
        <ele>135</ele>
        <time>2025-06-04T15:35:45Z</time>
      </trkpt>
      <trkpt lat="43.6448" lon="1.39425">
        <ele>135</ele>
        <time>2025-06-04T15:35:46Z</time>
      </trkpt>
      <trkpt lat="43.6448" lon="1.39425">
        <ele>135</ele>
        <time>2025-06-04T15:35:47Z</time>
      </trkpt>
      <trkpt lat="43.64479" lon="1.39421">
        <ele>135</ele>
        <time>2025-06-04T15:35:48Z</time>
      </trkpt>
      <trkpt lat="43.64479" lon="1.39421">
        <ele>135</ele>
        <time>2025-06-04T15:35:49Z</time>
      </trkpt>
      <trkpt lat="43.64478" lon="1.39418">
        <ele>136</ele>
        <time>2025-06-04T15:35:50Z</time>
      </trkpt>
      <trkpt lat="43.64478" lon="1.39418">
        <ele>136</ele>
        <time>2025-06-04T15:35:51Z</time>
      </trkpt>
      <trkpt lat="43.64478" lon="1.39414">
        <ele>136</ele>
        <time>2025-06-04T15:35:52Z</time>
      </trkpt>
      <trkpt lat="43.64478" lon="1.39414">
        <ele>135</ele>
        <time>2025-06-04T15:35:53Z</time>
      </trkpt>
      <trkpt lat="43.64477" lon="1.3941">
        <ele>135</ele>
        <time>2025-06-04T15:35:54Z</time>
      </trkpt>
      <trkpt lat="43.64477" lon="1.3941">
        <ele>135</ele>
        <time>2025-06-04T15:35:55Z</time>
      </trkpt>
      <trkpt lat="43.64476" lon="1.39406">
        <ele>135</ele>
        <time>2025-06-04T15:35:56Z</time>
      </trkpt>
      <trkpt lat="43.64476" lon="1.39406">
        <ele>135</ele>
        <time>2025-06-04T15:35:57Z</time>
      </trkpt>
      <trkpt lat="43.64475" lon="1.39403">
        <ele>135</ele>
        <time>2025-06-04T15:35:58Z</time>
      </trkpt>
      <trkpt lat="43.64475" lon="1.39403">
        <ele>135</ele>
        <time>2025-06-04T15:35:59Z</time>
      </trkpt>
      <trkpt lat="43.64475" lon="1.39399">
        <ele>135</ele>
        <time>2025-06-04T15:36:00Z</time>
      </trkpt>
      <trkpt lat="43.64475" lon="1.39399">
        <ele>135</ele>
        <time>2025-06-04T15:36:01Z</time>
      </trkpt>
      <trkpt lat="43.64475" lon="1.39396">
        <ele>135</ele>
        <time>2025-06-04T15:36:02Z</time>
      </trkpt>
      <trkpt lat="43.64475" lon="1.39396">
        <ele>135</ele>
        <time>2025-06-04T15:36:03Z</time>
      </trkpt>
      <trkpt lat="43.64474" lon="1.39392">
        <ele>135</ele>
        <time>2025-06-04T15:36:04Z</time>
      </trkpt>
      <trkpt lat="43.64474" lon="1.39392">
        <ele>135</ele>
        <time>2025-06-04T15:36:05Z</time>
      </trkpt>
      <trkpt lat="43.64473" lon="1.39388">
        <ele>135</ele>
        <time>2025-06-04T15:36:06Z</time>
      </trkpt>
      <trkpt lat="43.64473" lon="1.39388">
        <ele>136</ele>
        <time>2025-06-04T15:36:07Z</time>
      </trkpt>
      <trkpt lat="43.64472" lon="1.39385">
        <ele>136</ele>
        <time>2025-06-04T15:36:08Z</time>
      </trkpt>
      <trkpt lat="43.64472" lon="1.39385">
        <ele>135</ele>
        <time>2025-06-04T15:36:09Z</time>
      </trkpt>
      <trkpt lat="43.64471" lon="1.39381">
        <ele>135</ele>
        <time>2025-06-04T15:36:10Z</time>
      </trkpt>
      <trkpt lat="43.64471" lon="1.39381">
        <ele>135</ele>
        <time>2025-06-04T15:36:11Z</time>
      </trkpt>
      <trkpt lat="43.6447" lon="1.39377">
        <ele>135</ele>
        <time>2025-06-04T15:36:12Z</time>
      </trkpt>
      <trkpt lat="43.6447" lon="1.39377">
        <ele>135</ele>
        <time>2025-06-04T15:36:13Z</time>
      </trkpt>
      <trkpt lat="43.64469" lon="1.39374">
        <ele>135</ele>
        <time>2025-06-04T15:36:14Z</time>
      </trkpt>
      <trkpt lat="43.64469" lon="1.39374">
        <ele>135</ele>
        <time>2025-06-04T15:36:15Z</time>
      </trkpt>
      <trkpt lat="43.64468" lon="1.3937">
        <ele>135</ele>
        <time>2025-06-04T15:36:16Z</time>
      </trkpt>
      <trkpt lat="43.64468" lon="1.3937">
        <ele>135</ele>
        <time>2025-06-04T15:36:17Z</time>
      </trkpt>
      <trkpt lat="43.64468" lon="1.39367">
        <ele>135</ele>
        <time>2025-06-04T15:36:18Z</time>
      </trkpt>
      <trkpt lat="43.64468" lon="1.39367">
        <ele>136</ele>
        <time>2025-06-04T15:36:19Z</time>
      </trkpt>
      <trkpt lat="43.64467" lon="1.39363">
        <ele>136</ele>
        <time>2025-06-04T15:36:20Z</time>
      </trkpt>
      <trkpt lat="43.64467" lon="1.39363">
        <ele>136</ele>
        <time>2025-06-04T15:36:21Z</time>
      </trkpt>
      <trkpt lat="43.64466" lon="1.39359">
        <ele>136</ele>
        <time>2025-06-04T15:36:22Z</time>
      </trkpt>
      <trkpt lat="43.64466" lon="1.39359">
        <ele>136</ele>
        <time>2025-06-04T15:36:23Z</time>
      </trkpt>
      <trkpt lat="43.64466" lon="1.39356">
        <ele>136</ele>
        <time>2025-06-04T15:36:24Z</time>
      </trkpt>
      <trkpt lat="43.64466" lon="1.39356">
        <ele>136</ele>
        <time>2025-06-04T15:36:25Z</time>
      </trkpt>
      <trkpt lat="43.64466" lon="1.39352">
        <ele>136</ele>
        <time>2025-06-04T15:36:26Z</time>
      </trkpt>
      <trkpt lat="43.64466" lon="1.39352">
        <ele>136</ele>
        <time>2025-06-04T15:36:27Z</time>
      </trkpt>
      <trkpt lat="43.64466" lon="1.39348">
        <ele>136</ele>
        <time>2025-06-04T15:36:28Z</time>
      </trkpt>
      <trkpt lat="43.64466" lon="1.39348">
        <ele>136</ele>
        <time>2025-06-04T15:36:29Z</time>
      </trkpt>
      <trkpt lat="43.64465" lon="1.39344">
        <ele>135</ele>
        <time>2025-06-04T15:36:30Z</time>
      </trkpt>
      <trkpt lat="43.64465" lon="1.39344">
        <ele>135</ele>
        <time>2025-06-04T15:36:31Z</time>
      </trkpt>
      <trkpt lat="43.64464" lon="1.39341">
        <ele>135</ele>
        <time>2025-06-04T15:36:32Z</time>
      </trkpt>
      <trkpt lat="43.64464" lon="1.39341">
        <ele>135</ele>
        <time>2025-06-04T15:36:33Z</time>
      </trkpt>
      <trkpt lat="43.64463" lon="1.39337">
        <ele>135</ele>
        <time>2025-06-04T15:36:34Z</time>
      </trkpt>
      <trkpt lat="43.64463" lon="1.39337">
        <ele>135</ele>
        <time>2025-06-04T15:36:35Z</time>
      </trkpt>
      <trkpt lat="43.64463" lon="1.39333">
        <ele>135</ele>
        <time>2025-06-04T15:36:36Z</time>
      </trkpt>
      <trkpt lat="43.64463" lon="1.39333">
        <ele>135</ele>
        <time>2025-06-04T15:36:37Z</time>
      </trkpt>
      <trkpt lat="43.64462" lon="1.3933">
        <ele>135</ele>
        <time>2025-06-04T15:36:38Z</time>
      </trkpt>
      <trkpt lat="43.64462" lon="1.3933">
        <ele>135</ele>
        <time>2025-06-04T15:36:39Z</time>
      </trkpt>
      <trkpt lat="43.64461" lon="1.39327">
        <ele>135</ele>
        <time>2025-06-04T15:36:40Z</time>
      </trkpt>
      <trkpt lat="43.64461" lon="1.39327">
        <ele>135</ele>
        <time>2025-06-04T15:36:41Z</time>
      </trkpt>
      <trkpt lat="43.6446" lon="1.39323">
        <ele>135</ele>
        <time>2025-06-04T15:36:42Z</time>
      </trkpt>
      <trkpt lat="43.6446" lon="1.39323">
        <ele>135</ele>
        <time>2025-06-04T15:36:43Z</time>
      </trkpt>
      <trkpt lat="43.64459" lon="1.39319">
        <ele>135</ele>
        <time>2025-06-04T15:36:44Z</time>
      </trkpt>
      <trkpt lat="43.64459" lon="1.39319">
        <ele>135</ele>
        <time>2025-06-04T15:36:45Z</time>
      </trkpt>
      <trkpt lat="43.64459" lon="1.39316">
        <ele>135</ele>
        <time>2025-06-04T15:36:46Z</time>
      </trkpt>
      <trkpt lat="43.64459" lon="1.39316">
        <ele>135</ele>
        <time>2025-06-04T15:36:47Z</time>
      </trkpt>
      <trkpt lat="43.64458" lon="1.39312">
        <ele>135</ele>
        <time>2025-06-04T15:36:48Z</time>
      </trkpt>
      <trkpt lat="43.64458" lon="1.39312">
        <ele>135</ele>
        <time>2025-06-04T15:36:49Z</time>
      </trkpt>
      <trkpt lat="43.64457" lon="1.39309">
        <ele>135</ele>
        <time>2025-06-04T15:36:50Z</time>
      </trkpt>
      <trkpt lat="43.64457" lon="1.39309">
        <ele>136</ele>
        <time>2025-06-04T15:36:51Z</time>
      </trkpt>
      <trkpt lat="43.64457" lon="1.39306">
        <ele>136</ele>
        <time>2025-06-04T15:36:52Z</time>
      </trkpt>
      <trkpt lat="43.64457" lon="1.39306">
        <ele>136</ele>
        <time>2025-06-04T15:36:53Z</time>
      </trkpt>
      <trkpt lat="43.64456" lon="1.39302">
        <ele>136</ele>
        <time>2025-06-04T15:36:54Z</time>
      </trkpt>
      <trkpt lat="43.64456" lon="1.39302">
        <ele>136</ele>
        <time>2025-06-04T15:36:55Z</time>
      </trkpt>
      <trkpt lat="43.64455" lon="1.39298">
        <ele>136</ele>
        <time>2025-06-04T15:36:56Z</time>
      </trkpt>
      <trkpt lat="43.64455" lon="1.39298">
        <ele>136</ele>
        <time>2025-06-04T15:36:57Z</time>
      </trkpt>
      <trkpt lat="43.64454" lon="1.39294">
        <ele>136</ele>
        <time>2025-06-04T15:36:58Z</time>
      </trkpt>
      <trkpt lat="43.64454" lon="1.39294">
        <ele>136</ele>
        <time>2025-06-04T15:36:59Z</time>
      </trkpt>
      <trkpt lat="43.64454" lon="1.39291">
        <ele>136</ele>
        <time>2025-06-04T15:37:00Z</time>
      </trkpt>
      <trkpt lat="43.64454" lon="1.39291">
        <ele>136</ele>
        <time>2025-06-04T15:37:01Z</time>
      </trkpt>
      <trkpt lat="43.64453" lon="1.39287">
        <ele>136</ele>
        <time>2025-06-04T15:37:02Z</time>
      </trkpt>
      <trkpt lat="43.64453" lon="1.39287">
        <ele>135</ele>
        <time>2025-06-04T15:37:03Z</time>
      </trkpt>
      <trkpt lat="43.64452" lon="1.39284">
        <ele>135</ele>
        <time>2025-06-04T15:37:04Z</time>
      </trkpt>
      <trkpt lat="43.64452" lon="1.39284">
        <ele>135</ele>
        <time>2025-06-04T15:37:05Z</time>
      </trkpt>
      <trkpt lat="43.64452" lon="1.3928">
        <ele>135</ele>
        <time>2025-06-04T15:37:06Z</time>
      </trkpt>
      <trkpt lat="43.64452" lon="1.3928">
        <ele>135</ele>
        <time>2025-06-04T15:37:07Z</time>
      </trkpt>
      <trkpt lat="43.64451" lon="1.39277">
        <ele>135</ele>
        <time>2025-06-04T15:37:08Z</time>
      </trkpt>
      <trkpt lat="43.64451" lon="1.39277">
        <ele>135</ele>
        <time>2025-06-04T15:37:09Z</time>
      </trkpt>
      <trkpt lat="43.6445" lon="1.39274">
        <ele>135</ele>
        <time>2025-06-04T15:37:10Z</time>
      </trkpt>
      <trkpt lat="43.6445" lon="1.39274">
        <ele>135</ele>
        <time>2025-06-04T15:37:11Z</time>
      </trkpt>
      <trkpt lat="43.6445" lon="1.39274">
        <ele>135</ele>
        <time>2025-06-04T15:37:12Z</time>
      </trkpt>
      <trkpt lat="43.6445" lon="1.39274">
        <ele>135</ele>
        <time>2025-06-04T15:37:13Z</time>
      </trkpt>
      <trkpt lat="43.6445" lon="1.39274">
        <ele>135</ele>
        <time>2025-06-04T15:37:14Z</time>
      </trkpt>
      <trkpt lat="43.6445" lon="1.39274">
        <ele>135</ele>
        <time>2025-06-04T15:37:15Z</time>
      </trkpt>
      <trkpt lat="43.6445" lon="1.39274">
        <ele>135</ele>
        <time>2025-06-04T15:37:16Z</time>
      </trkpt>
      <trkpt lat="43.6445" lon="1.39274">
        <ele>135</ele>
        <time>2025-06-04T15:37:17Z</time>
      </trkpt>
      <trkpt lat="43.6445" lon="1.39274">
        <ele>135</ele>
        <time>2025-06-04T15:37:18Z</time>
      </trkpt>
      <trkpt lat="43.6445" lon="1.39274">
        <ele>136</ele>
        <time>2025-06-04T15:37:19Z</time>
      </trkpt>
      <trkpt lat="43.6445" lon="1.39274">
        <ele>136</ele>
        <time>2025-06-04T15:37:20Z</time>
      </trkpt>
      <trkpt lat="43.6445" lon="1.39274">
        <ele>136</ele>
        <time>2025-06-04T15:37:21Z</time>
      </trkpt>
      <trkpt lat="43.6445" lon="1.39274">
        <ele>135</ele>
        <time>2025-06-04T15:37:22Z</time>
      </trkpt>
      <trkpt lat="43.6445" lon="1.39274">
        <ele>135</ele>
        <time>2025-06-04T15:37:23Z</time>
      </trkpt>
      <trkpt lat="43.6445" lon="1.39274">
        <ele>135</ele>
        <time>2025-06-04T15:37:24Z</time>
      </trkpt>
      <trkpt lat="43.6445" lon="1.39271">
        <ele>135</ele>
        <time>2025-06-04T15:37:25Z</time>
      </trkpt>
      <trkpt lat="43.6445" lon="1.39271">
        <ele>135</ele>
        <time>2025-06-04T15:37:26Z</time>
      </trkpt>
      <trkpt lat="43.64449" lon="1.39267">
        <ele>135</ele>
        <time>2025-06-04T15:37:27Z</time>
      </trkpt>
      <trkpt lat="43.64449" lon="1.39267">
        <ele>135</ele>
        <time>2025-06-04T15:37:28Z</time>
      </trkpt>
      <trkpt lat="43.64448" lon="1.39263">
        <ele>135</ele>
        <time>2025-06-04T15:37:29Z</time>
      </trkpt>
      <trkpt lat="43.64448" lon="1.39263">
        <ele>135</ele>
        <time>2025-06-04T15:37:30Z</time>
      </trkpt>
      <trkpt lat="43.64447" lon="1.3926">
        <ele>135</ele>
        <time>2025-06-04T15:37:31Z</time>
      </trkpt>
      <trkpt lat="43.64447" lon="1.3926">
        <ele>135</ele>
        <time>2025-06-04T15:37:32Z</time>
      </trkpt>
      <trkpt lat="43.64446" lon="1.39257">
        <ele>135</ele>
        <time>2025-06-04T15:37:33Z</time>
      </trkpt>
      <trkpt lat="43.64446" lon="1.39257">
        <ele>135</ele>
        <time>2025-06-04T15:37:34Z</time>
      </trkpt>
      <trkpt lat="43.64444" lon="1.39254">
        <ele>135</ele>
        <time>2025-06-04T15:37:35Z</time>
      </trkpt>
      <trkpt lat="43.64444" lon="1.39254">
        <ele>135</ele>
        <time>2025-06-04T15:37:36Z</time>
      </trkpt>
      <trkpt lat="43.64443" lon="1.3925">
        <ele>135</ele>
        <time>2025-06-04T15:37:37Z</time>
      </trkpt>
      <trkpt lat="43.64443" lon="1.3925">
        <ele>136</ele>
        <time>2025-06-04T15:37:38Z</time>
      </trkpt>
      <trkpt lat="43.64442" lon="1.39247">
        <ele>136</ele>
        <time>2025-06-04T15:37:39Z</time>
      </trkpt>
      <trkpt lat="43.64442" lon="1.39247">
        <ele>136</ele>
        <time>2025-06-04T15:37:40Z</time>
      </trkpt>
      <trkpt lat="43.6444" lon="1.39244">
        <ele>136</ele>
        <time>2025-06-04T15:37:41Z</time>
      </trkpt>
      <trkpt lat="43.6444" lon="1.39244">
        <ele>136</ele>
        <time>2025-06-04T15:37:42Z</time>
      </trkpt>
      <trkpt lat="43.64439" lon="1.39241">
        <ele>135</ele>
        <time>2025-06-04T15:37:43Z</time>
      </trkpt>
      <trkpt lat="43.64439" lon="1.39241">
        <ele>135</ele>
        <time>2025-06-04T15:37:44Z</time>
      </trkpt>
      <trkpt lat="43.64438" lon="1.39238">
        <ele>135</ele>
        <time>2025-06-04T15:37:45Z</time>
      </trkpt>
      <trkpt lat="43.64438" lon="1.39238">
        <ele>135</ele>
        <time>2025-06-04T15:37:46Z</time>
      </trkpt>
      <trkpt lat="43.64436" lon="1.39235">
        <ele>135</ele>
        <time>2025-06-04T15:37:47Z</time>
      </trkpt>
      <trkpt lat="43.64436" lon="1.39235">
        <ele>135</ele>
        <time>2025-06-04T15:37:48Z</time>
      </trkpt>
      <trkpt lat="43.64435" lon="1.39232">
        <ele>135</ele>
        <time>2025-06-04T15:37:49Z</time>
      </trkpt>
      <trkpt lat="43.64435" lon="1.39232">
        <ele>136</ele>
        <time>2025-06-04T15:37:50Z</time>
      </trkpt>
      <trkpt lat="43.64433" lon="1.3923">
        <ele>136</ele>
        <time>2025-06-04T15:37:51Z</time>
      </trkpt>
      <trkpt lat="43.64433" lon="1.3923">
        <ele>136</ele>
        <time>2025-06-04T15:37:52Z</time>
      </trkpt>
      <trkpt lat="43.64429" lon="1.39223">
        <ele>136</ele>
        <time>2025-06-04T15:37:53Z</time>
      </trkpt>
      <trkpt lat="43.64428" lon="1.39221">
        <ele>135</ele>
        <time>2025-06-04T15:37:54Z</time>
      </trkpt>
      <trkpt lat="43.64424" lon="1.39216">
        <ele>135</ele>
        <time>2025-06-04T15:37:55Z</time>
      </trkpt>
      <trkpt lat="43.64422" lon="1.39211">
        <ele>135</ele>
        <time>2025-06-04T15:37:56Z</time>
      </trkpt>
      <trkpt lat="43.64422" lon="1.39211">
        <ele>136</ele>
        <time>2025-06-04T15:37:57Z</time>
      </trkpt>
      <trkpt lat="43.64422" lon="1.39211">
        <ele>136</ele>
        <time>2025-06-04T15:37:58Z</time>
      </trkpt>
      <trkpt lat="43.64424" lon="1.39212">
        <ele>136</ele>
        <time>2025-06-04T15:37:59Z</time>
      </trkpt>
      <trkpt lat="43.64426" lon="1.39214">
        <ele>137</ele>
        <time>2025-06-04T15:38:00Z</time>
      </trkpt>
      <trkpt lat="43.64428" lon="1.39216">
        <ele>137</ele>
        <time>2025-06-04T15:38:01Z</time>
      </trkpt>
      <trkpt lat="43.6443" lon="1.39219">
        <ele>137</ele>
        <time>2025-06-04T15:38:02Z</time>
      </trkpt>
      <trkpt lat="43.64431" lon="1.39222">
        <ele>137</ele>
        <time>2025-06-04T15:38:03Z</time>
      </trkpt>
      <trkpt lat="43.64433" lon="1.39225">
        <ele>137</ele>
        <time>2025-06-04T15:38:04Z</time>
      </trkpt>
      <trkpt lat="43.64434" lon="1.39228">
        <ele>137</ele>
        <time>2025-06-04T15:38:05Z</time>
      </trkpt>
      <trkpt lat="43.64434" lon="1.39228">
        <ele>136</ele>
        <time>2025-06-04T15:38:06Z</time>
      </trkpt>
      <trkpt lat="43.64432" lon="1.39225">
        <ele>135</ele>
        <time>2025-06-04T15:38:07Z</time>
      </trkpt>
      <trkpt lat="43.6443" lon="1.39221">
        <ele>135</ele>
        <time>2025-06-04T15:38:08Z</time>
      </trkpt>
      <trkpt lat="43.64428" lon="1.39218">
        <ele>135</ele>
        <time>2025-06-04T15:38:09Z</time>
      </trkpt>
      <trkpt lat="43.64425" lon="1.39213">
        <ele>135</ele>
        <time>2025-06-04T15:38:10Z</time>
      </trkpt>
      <trkpt lat="43.64422" lon="1.39208">
        <ele>135</ele>
        <time>2025-06-04T15:38:11Z</time>
      </trkpt>
      <trkpt lat="43.6442" lon="1.39203">
        <ele>136</ele>
        <time>2025-06-04T15:38:12Z</time>
      </trkpt>
      <trkpt lat="43.64418" lon="1.39198">
        <ele>137</ele>
        <time>2025-06-04T15:38:13Z</time>
      </trkpt>
      <trkpt lat="43.64416" lon="1.39192">
        <ele>137</ele>
        <time>2025-06-04T15:38:14Z</time>
      </trkpt>
      <trkpt lat="43.64414" lon="1.39187">
        <ele>138</ele>
        <time>2025-06-04T15:38:15Z</time>
      </trkpt>
      <trkpt lat="43.64413" lon="1.39183">
        <ele>138</ele>
        <time>2025-06-04T15:38:16Z</time>
      </trkpt>
      <trkpt lat="43.64413" lon="1.39183">
        <ele>139</ele>
        <time>2025-06-04T15:38:17Z</time>
      </trkpt>
      <trkpt lat="43.64413" lon="1.39183">
        <ele>139</ele>
        <time>2025-06-04T15:38:18Z</time>
      </trkpt>
      <trkpt lat="43.64415" lon="1.39185">
        <ele>139</ele>
        <time>2025-06-04T15:38:19Z</time>
      </trkpt>
      <trkpt lat="43.64416" lon="1.39189">
        <ele>139</ele>
        <time>2025-06-04T15:38:20Z</time>
      </trkpt>
      <trkpt lat="43.64418" lon="1.39191">
        <ele>139</ele>
        <time>2025-06-04T15:38:21Z</time>
      </trkpt>
      <trkpt lat="43.64419" lon="1.39195">
        <ele>139</ele>
        <time>2025-06-04T15:38:22Z</time>
      </trkpt>
      <trkpt lat="43.6442" lon="1.39197">
        <ele>139</ele>
        <time>2025-06-04T15:38:23Z</time>
      </trkpt>
      <trkpt lat="43.64422" lon="1.39199">
        <ele>139</ele>
        <time>2025-06-04T15:38:24Z</time>
      </trkpt>
      <trkpt lat="43.64423" lon="1.39201">
        <ele>139</ele>
        <time>2025-06-04T15:38:25Z</time>
      </trkpt>
      <trkpt lat="43.64424" lon="1.39204">
        <ele>138</ele>
        <time>2025-06-04T15:38:26Z</time>
      </trkpt>
      <trkpt lat="43.64426" lon="1.39206">
        <ele>138</ele>
        <time>2025-06-04T15:38:27Z</time>
      </trkpt>
      <trkpt lat="43.64427" lon="1.39208">
        <ele>138</ele>
        <time>2025-06-04T15:38:28Z</time>
      </trkpt>
      <trkpt lat="43.64429" lon="1.3921">
        <ele>137</ele>
        <time>2025-06-04T15:38:29Z</time>
      </trkpt>
      <trkpt lat="43.6443" lon="1.39213">
        <ele>137</ele>
        <time>2025-06-04T15:38:30Z</time>
      </trkpt>
      <trkpt lat="43.64432" lon="1.39215">
        <ele>137</ele>
        <time>2025-06-04T15:38:31Z</time>
      </trkpt>
      <trkpt lat="43.64433" lon="1.39218">
        <ele>136</ele>
        <time>2025-06-04T15:38:32Z</time>
      </trkpt>
      <trkpt lat="43.64435" lon="1.39221">
        <ele>136</ele>
        <time>2025-06-04T15:38:33Z</time>
      </trkpt>
      <trkpt lat="43.64436" lon="1.39223">
        <ele>136</ele>
        <time>2025-06-04T15:38:34Z</time>
      </trkpt>
      <trkpt lat="43.64437" lon="1.39226">
        <ele>136</ele>
        <time>2025-06-04T15:38:35Z</time>
      </trkpt>
      <trkpt lat="43.64438" lon="1.39228">
        <ele>136</ele>
        <time>2025-06-04T15:38:36Z</time>
      </trkpt>
      <trkpt lat="43.64438" lon="1.39228">
        <ele>136</ele>
        <time>2025-06-04T15:38:37Z</time>
      </trkpt>
      <trkpt lat="43.64432" lon="1.39221">
        <ele>136</ele>
        <time>2025-06-04T15:38:38Z</time>
      </trkpt>
      <trkpt lat="43.6443" lon="1.39218">
        <ele>136</ele>
        <time>2025-06-04T15:38:39Z</time>
      </trkpt>
      <trkpt lat="43.64427" lon="1.39213">
        <ele>136</ele>
        <time>2025-06-04T15:38:40Z</time>
      </trkpt>
      <trkpt lat="43.64424" lon="1.39208">
        <ele>135</ele>
        <time>2025-06-04T15:38:41Z</time>
      </trkpt>
      <trkpt lat="43.64421" lon="1.39203">
        <ele>136</ele>
        <time>2025-06-04T15:38:42Z</time>
      </trkpt>
      <trkpt lat="43.64419" lon="1.39199">
        <ele>137</ele>
        <time>2025-06-04T15:38:43Z</time>
      </trkpt>
      <trkpt lat="43.64416" lon="1.39193">
        <ele>137</ele>
        <time>2025-06-04T15:38:44Z</time>
      </trkpt>
      <trkpt lat="43.64413" lon="1.39188">
        <ele>137</ele>
        <time>2025-06-04T15:38:45Z</time>
      </trkpt>
      <trkpt lat="43.64411" lon="1.39183">
        <ele>138</ele>
        <time>2025-06-04T15:38:46Z</time>
      </trkpt>
      <trkpt lat="43.6441" lon="1.39178">
        <ele>138</ele>
        <time>2025-06-04T15:38:47Z</time>
      </trkpt>
      <trkpt lat="43.64409" lon="1.39172">
        <ele>139</ele>
        <time>2025-06-04T15:38:48Z</time>
      </trkpt>
      <trkpt lat="43.64409" lon="1.39167">
        <ele>139</ele>
        <time>2025-06-04T15:38:49Z</time>
      </trkpt>
      <trkpt lat="43.64409" lon="1.39163">
        <ele>139</ele>
        <time>2025-06-04T15:38:50Z</time>
      </trkpt>
      <trkpt lat="43.64409" lon="1.3916">
        <ele>139</ele>
        <time>2025-06-04T15:38:51Z</time>
      </trkpt>
      <trkpt lat="43.64409" lon="1.3916">
        <ele>140</ele>
        <time>2025-06-04T15:38:52Z</time>
      </trkpt>
      <trkpt lat="43.64411" lon="1.39163">
        <ele>140</ele>
        <time>2025-06-04T15:38:53Z</time>
      </trkpt>
      <trkpt lat="43.64413" lon="1.39166">
        <ele>140</ele>
        <time>2025-06-04T15:38:54Z</time>
      </trkpt>
      <trkpt lat="43.64413" lon="1.39169">
        <ele>140</ele>
        <time>2025-06-04T15:38:55Z</time>
      </trkpt>
      <trkpt lat="43.64414" lon="1.39172">
        <ele>140</ele>
        <time>2025-06-04T15:38:56Z</time>
      </trkpt>
      <trkpt lat="43.64415" lon="1.39176">
        <ele>140</ele>
        <time>2025-06-04T15:38:57Z</time>
      </trkpt>
      <trkpt lat="43.64416" lon="1.39179">
        <ele>139</ele>
        <time>2025-06-04T15:38:58Z</time>
      </trkpt>
      <trkpt lat="43.64417" lon="1.39182">
        <ele>139</ele>
        <time>2025-06-04T15:38:59Z</time>
      </trkpt>
      <trkpt lat="43.64418" lon="1.39186">
        <ele>139</ele>
        <time>2025-06-04T15:39:00Z</time>
      </trkpt>
      <trkpt lat="43.64419" lon="1.39189">
        <ele>139</ele>
        <time>2025-06-04T15:39:01Z</time>
      </trkpt>
      <trkpt lat="43.6442" lon="1.39192">
        <ele>139</ele>
        <time>2025-06-04T15:39:02Z</time>
      </trkpt>
      <trkpt lat="43.64422" lon="1.39195">
        <ele>139</ele>
        <time>2025-06-04T15:39:03Z</time>
      </trkpt>
      <trkpt lat="43.64423" lon="1.39198">
        <ele>139</ele>
        <time>2025-06-04T15:39:04Z</time>
      </trkpt>
      <trkpt lat="43.64424" lon="1.39201">
        <ele>139</ele>
        <time>2025-06-04T15:39:05Z</time>
      </trkpt>
      <trkpt lat="43.64426" lon="1.39204">
        <ele>139</ele>
        <time>2025-06-04T15:39:06Z</time>
      </trkpt>
      <trkpt lat="43.64427" lon="1.39207">
        <ele>138</ele>
        <time>2025-06-04T15:39:07Z</time>
      </trkpt>
      <trkpt lat="43.64428" lon="1.3921">
        <ele>138</ele>
        <time>2025-06-04T15:39:08Z</time>
      </trkpt>
      <trkpt lat="43.6443" lon="1.39213">
        <ele>138</ele>
        <time>2025-06-04T15:39:09Z</time>
      </trkpt>
      <trkpt lat="43.64431" lon="1.39215">
        <ele>137</ele>
        <time>2025-06-04T15:39:10Z</time>
      </trkpt>
      <trkpt lat="43.64432" lon="1.39218">
        <ele>137</ele>
        <time>2025-06-04T15:39:11Z</time>
      </trkpt>
      <trkpt lat="43.64434" lon="1.39221">
        <ele>137</ele>
        <time>2025-06-04T15:39:12Z</time>
      </trkpt>
      <trkpt lat="43.64435" lon="1.39223">
        <ele>136</ele>
        <time>2025-06-04T15:39:13Z</time>
      </trkpt>
      <trkpt lat="43.64436" lon="1.39226">
        <ele>136</ele>
        <time>2025-06-04T15:39:14Z</time>
      </trkpt>
      <trkpt lat="43.64436" lon="1.39226">
        <ele>136</ele>
        <time>2025-06-04T15:39:15Z</time>
      </trkpt>
      <trkpt lat="43.64437" lon="1.39229">
        <ele>136</ele>
        <time>2025-06-04T15:39:16Z</time>
      </trkpt>
      <trkpt lat="43.64435" lon="1.39227">
        <ele>135</ele>
        <time>2025-06-04T15:39:17Z</time>
      </trkpt>
      <trkpt lat="43.64433" lon="1.39223">
        <ele>135</ele>
        <time>2025-06-04T15:39:18Z</time>
      </trkpt>
      <trkpt lat="43.64429" lon="1.39218">
        <ele>135</ele>
        <time>2025-06-04T15:39:19Z</time>
      </trkpt>
      <trkpt lat="43.64426" lon="1.39214">
        <ele>135</ele>
        <time>2025-06-04T15:39:20Z</time>
      </trkpt>
      <trkpt lat="43.64422" lon="1.39209">
        <ele>136</ele>
        <time>2025-06-04T15:39:21Z</time>
      </trkpt>
      <trkpt lat="43.64419" lon="1.39204">
        <ele>136</ele>
        <time>2025-06-04T15:39:22Z</time>
      </trkpt>
      <trkpt lat="43.64417" lon="1.39199">
        <ele>137</ele>
        <time>2025-06-04T15:39:23Z</time>
      </trkpt>
      <trkpt lat="43.64415" lon="1.39194">
        <ele>137</ele>
        <time>2025-06-04T15:39:24Z</time>
      </trkpt>
      <trkpt lat="43.64413" lon="1.39189">
        <ele>138</ele>
        <time>2025-06-04T15:39:25Z</time>
      </trkpt>
      <trkpt lat="43.64411" lon="1.39183">
        <ele>138</ele>
        <time>2025-06-04T15:39:26Z</time>
      </trkpt>
      <trkpt lat="43.6441" lon="1.39178">
        <ele>138</ele>
        <time>2025-06-04T15:39:27Z</time>
      </trkpt>
      <trkpt lat="43.64409" lon="1.39174">
        <ele>139</ele>
        <time>2025-06-04T15:39:28Z</time>
      </trkpt>
      <trkpt lat="43.64408" lon="1.39169">
        <ele>139</ele>
        <time>2025-06-04T15:39:29Z</time>
      </trkpt>
      <trkpt lat="43.64408" lon="1.39165">
        <ele>139</ele>
        <time>2025-06-04T15:39:30Z</time>
      </trkpt>
      <trkpt lat="43.64408" lon="1.3916">
        <ele>140</ele>
        <time>2025-06-04T15:39:31Z</time>
      </trkpt>
      <trkpt lat="43.64409" lon="1.39156">
        <ele>140</ele>
        <time>2025-06-04T15:39:32Z</time>
      </trkpt>
      <trkpt lat="43.6441" lon="1.39151">
        <ele>140</ele>
        <time>2025-06-04T15:39:33Z</time>
      </trkpt>
      <trkpt lat="43.6441" lon="1.39146">
        <ele>140</ele>
        <time>2025-06-04T15:39:34Z</time>
      </trkpt>
      <trkpt lat="43.6441" lon="1.39142">
        <ele>141</ele>
        <time>2025-06-04T15:39:35Z</time>
      </trkpt>
      <trkpt lat="43.64411" lon="1.39137">
        <ele>141</ele>
        <time>2025-06-04T15:39:36Z</time>
      </trkpt>
      <trkpt lat="43.64411" lon="1.39132">
        <ele>142</ele>
        <time>2025-06-04T15:39:37Z</time>
      </trkpt>
      <trkpt lat="43.64412" lon="1.39128">
        <ele>142</ele>
        <time>2025-06-04T15:39:38Z</time>
      </trkpt>
      <trkpt lat="43.64413" lon="1.39124">
        <ele>142</ele>
        <time>2025-06-04T15:39:39Z</time>
      </trkpt>
      <trkpt lat="43.64414" lon="1.39121">
        <ele>143</ele>
        <time>2025-06-04T15:39:40Z</time>
      </trkpt>
      <trkpt lat="43.64416" lon="1.39118">
        <ele>144</ele>
        <time>2025-06-04T15:39:41Z</time>
      </trkpt>
      <trkpt lat="43.64417" lon="1.39115">
        <ele>144</ele>
        <time>2025-06-04T15:39:42Z</time>
      </trkpt>
      <trkpt lat="43.64417" lon="1.39115">
        <ele>145</ele>
        <time>2025-06-04T15:39:43Z</time>
      </trkpt>
      <trkpt lat="43.64417" lon="1.39115">
        <ele>145</ele>
        <time>2025-06-04T15:39:44Z</time>
      </trkpt>
      <trkpt lat="43.64417" lon="1.39115">
        <ele>145</ele>
        <time>2025-06-04T15:39:45Z</time>
      </trkpt>
      <trkpt lat="43.64418" lon="1.39118">
        <ele>145</ele>
        <time>2025-06-04T15:39:46Z</time>
      </trkpt>
      <trkpt lat="43.64418" lon="1.39121">
        <ele>145</ele>
        <time>2025-06-04T15:39:47Z</time>
      </trkpt>
      <trkpt lat="43.64418" lon="1.39124">
        <ele>145</ele>
        <time>2025-06-04T15:39:48Z</time>
      </trkpt>
      <trkpt lat="43.64417" lon="1.39127">
        <ele>145</ele>
        <time>2025-06-04T15:39:49Z</time>
      </trkpt>
      <trkpt lat="43.64417" lon="1.39131">
        <ele>145</ele>
        <time>2025-06-04T15:39:50Z</time>
      </trkpt>
      <trkpt lat="43.64417" lon="1.39133">
        <ele>145</ele>
        <time>2025-06-04T15:39:51Z</time>
      </trkpt>
      <trkpt lat="43.64416" lon="1.39136">
        <ele>144</ele>
        <time>2025-06-04T15:39:52Z</time>
      </trkpt>
      <trkpt lat="43.64416" lon="1.39139">
        <ele>143</ele>
        <time>2025-06-04T15:39:53Z</time>
      </trkpt>
      <trkpt lat="43.64416" lon="1.39142">
        <ele>143</ele>
        <time>2025-06-04T15:39:54Z</time>
      </trkpt>
      <trkpt lat="43.64416" lon="1.39145">
        <ele>143</ele>
        <time>2025-06-04T15:39:55Z</time>
      </trkpt>
      <trkpt lat="43.64415" lon="1.39148">
        <ele>143</ele>
        <time>2025-06-04T15:39:56Z</time>
      </trkpt>
      <trkpt lat="43.64414" lon="1.39151">
        <ele>143</ele>
        <time>2025-06-04T15:39:57Z</time>
      </trkpt>
      <trkpt lat="43.64414" lon="1.39154">
        <ele>143</ele>
        <time>2025-06-04T15:39:58Z</time>
      </trkpt>
      <trkpt lat="43.64414" lon="1.39157">
        <ele>142</ele>
        <time>2025-06-04T15:39:59Z</time>
      </trkpt>
      <trkpt lat="43.64413" lon="1.3916">
        <ele>141</ele>
        <time>2025-06-04T15:40:00Z</time>
      </trkpt>
      <trkpt lat="43.64413" lon="1.39163">
        <ele>141</ele>
        <time>2025-06-04T15:40:01Z</time>
      </trkpt>
      <trkpt lat="43.64413" lon="1.39165">
        <ele>141</ele>
        <time>2025-06-04T15:40:02Z</time>
      </trkpt>
      <trkpt lat="43.64413" lon="1.39168">
        <ele>141</ele>
        <time>2025-06-04T15:40:03Z</time>
      </trkpt>
      <trkpt lat="43.64413" lon="1.39171">
        <ele>141</ele>
        <time>2025-06-04T15:40:04Z</time>
      </trkpt>
      <trkpt lat="43.64414" lon="1.39174">
        <ele>140</ele>
        <time>2025-06-04T15:40:05Z</time>
      </trkpt>
      <trkpt lat="43.64414" lon="1.39176">
        <ele>140</ele>
        <time>2025-06-04T15:40:06Z</time>
      </trkpt>
      <trkpt lat="43.64415" lon="1.39179">
        <ele>140</ele>
        <time>2025-06-04T15:40:07Z</time>
      </trkpt>
      <trkpt lat="43.64415" lon="1.39182">
        <ele>140</ele>
        <time>2025-06-04T15:40:08Z</time>
      </trkpt>
      <trkpt lat="43.64416" lon="1.39185">
        <ele>140</ele>
        <time>2025-06-04T15:40:09Z</time>
      </trkpt>
      <trkpt lat="43.64417" lon="1.39187">
        <ele>140</ele>
        <time>2025-06-04T15:40:10Z</time>
      </trkpt>
      <trkpt lat="43.64418" lon="1.3919">
        <ele>139</ele>
        <time>2025-06-04T15:40:11Z</time>
      </trkpt>
      <trkpt lat="43.64418" lon="1.39192">
        <ele>139</ele>
        <time>2025-06-04T15:40:12Z</time>
      </trkpt>
      <trkpt lat="43.64419" lon="1.39194">
        <ele>139</ele>
        <time>2025-06-04T15:40:13Z</time>
      </trkpt>
      <trkpt lat="43.6442" lon="1.39197">
        <ele>139</ele>
        <time>2025-06-04T15:40:14Z</time>
      </trkpt>
      <trkpt lat="43.64421" lon="1.392">
        <ele>139</ele>
        <time>2025-06-04T15:40:15Z</time>
      </trkpt>
      <trkpt lat="43.64423" lon="1.39202">
        <ele>139</ele>
        <time>2025-06-04T15:40:16Z</time>
      </trkpt>
      <trkpt lat="43.64424" lon="1.39205">
        <ele>139</ele>
        <time>2025-06-04T15:40:17Z</time>
      </trkpt>
      <trkpt lat="43.64425" lon="1.39207">
        <ele>139</ele>
        <time>2025-06-04T15:40:18Z</time>
      </trkpt>
      <trkpt lat="43.64427" lon="1.3921">
        <ele>138</ele>
        <time>2025-06-04T15:40:19Z</time>
      </trkpt>
      <trkpt lat="43.64427" lon="1.3921">
        <ele>138</ele>
        <time>2025-06-04T15:40:20Z</time>
      </trkpt>
      <trkpt lat="43.64427" lon="1.3921">
        <ele>137</ele>
        <time>2025-06-04T15:40:21Z</time>
      </trkpt>
      <trkpt lat="43.64427" lon="1.3921">
        <ele>137</ele>
        <time>2025-06-04T15:40:22Z</time>
      </trkpt>
      <trkpt lat="43.64427" lon="1.3921">
        <ele>137</ele>
        <time>2025-06-04T15:40:23Z</time>
      </trkpt>
      <trkpt lat="43.64427" lon="1.3921">
        <ele>137</ele>
        <time>2025-06-04T15:40:24Z</time>
      </trkpt>
      <trkpt lat="43.64427" lon="1.3921">
        <ele>137</ele>
        <time>2025-06-04T15:40:25Z</time>
      </trkpt>
      <trkpt lat="43.64429" lon="1.39213">
        <ele>137</ele>
        <time>2025-06-04T15:40:26Z</time>
      </trkpt>
      <trkpt lat="43.64429" lon="1.39213">
        <ele>137</ele>
        <time>2025-06-04T15:40:27Z</time>
      </trkpt>
      <trkpt lat="43.64432" lon="1.39216">
        <ele>137</ele>
        <time>2025-06-04T15:40:28Z</time>
      </trkpt>
      <trkpt lat="43.64433" lon="1.39219">
        <ele>137</ele>
        <time>2025-06-04T15:40:29Z</time>
      </trkpt>
      <trkpt lat="43.64433" lon="1.39219">
        <ele>137</ele>
        <time>2025-06-04T15:40:30Z</time>
      </trkpt>
      <trkpt lat="43.64434" lon="1.39222">
        <ele>137</ele>
        <time>2025-06-04T15:40:31Z</time>
      </trkpt>
      <trkpt lat="43.64434" lon="1.39222">
        <ele>137</ele>
        <time>2025-06-04T15:40:32Z</time>
      </trkpt>
      <trkpt lat="43.64436" lon="1.39226">
        <ele>136</ele>
        <time>2025-06-04T15:40:33Z</time>
      </trkpt>
      <trkpt lat="43.64436" lon="1.39226">
        <ele>136</ele>
        <time>2025-06-04T15:40:34Z</time>
      </trkpt>
      <trkpt lat="43.64436" lon="1.39229">
        <ele>136</ele>
        <time>2025-06-04T15:40:35Z</time>
      </trkpt>
      <trkpt lat="43.64436" lon="1.39229">
        <ele>136</ele>
        <time>2025-06-04T15:40:36Z</time>
      </trkpt>
      <trkpt lat="43.64437" lon="1.39232">
        <ele>136</ele>
        <time>2025-06-04T15:40:37Z</time>
      </trkpt>
      <trkpt lat="43.64437" lon="1.39232">
        <ele>136</ele>
        <time>2025-06-04T15:40:38Z</time>
      </trkpt>
      <trkpt lat="43.64437" lon="1.39232">
        <ele>136</ele>
        <time>2025-06-04T15:40:39Z</time>
      </trkpt>
      <trkpt lat="43.64439" lon="1.39233">
        <ele>136</ele>
        <time>2025-06-04T15:40:40Z</time>
      </trkpt>
      <trkpt lat="43.64439" lon="1.39233">
        <ele>136</ele>
        <time>2025-06-04T15:40:41Z</time>
      </trkpt>
      <trkpt lat="43.64439" lon="1.39233">
        <ele>136</ele>
        <time>2025-06-04T15:40:42Z</time>
      </trkpt>
      <trkpt lat="43.64439" lon="1.39233">
        <ele>136</ele>
        <time>2025-06-04T15:40:43Z</time>
      </trkpt>
      <trkpt lat="43.6444" lon="1.39235">
        <ele>136</ele>
        <time>2025-06-04T15:40:44Z</time>
      </trkpt>
      <trkpt lat="43.6444" lon="1.39235">
        <ele>135</ele>
        <time>2025-06-04T15:40:45Z</time>
      </trkpt>
      <trkpt lat="43.6444" lon="1.39235">
        <ele>135</ele>
        <time>2025-06-04T15:40:46Z</time>
      </trkpt>
      <trkpt lat="43.6444" lon="1.39235">
        <ele>135</ele>
        <time>2025-06-04T15:40:47Z</time>
      </trkpt>
      <trkpt lat="43.6444" lon="1.39235">
        <ele>135</ele>
        <time>2025-06-04T15:40:48Z</time>
      </trkpt>
      <trkpt lat="43.6444" lon="1.39235">
        <ele>135</ele>
        <time>2025-06-04T15:40:49Z</time>
      </trkpt>
      <trkpt lat="43.6444" lon="1.39235">
        <ele>136</ele>
        <time>2025-06-04T15:40:50Z</time>
      </trkpt>
      <trkpt lat="43.6444" lon="1.39235">
        <ele>136</ele>
        <time>2025-06-04T15:40:51Z</time>
      </trkpt>
      <trkpt lat="43.6444" lon="1.39235">
        <ele>136</ele>
        <time>2025-06-04T15:40:52Z</time>
      </trkpt>
      <trkpt lat="43.6444" lon="1.39235">
        <ele>136</ele>
        <time>2025-06-04T15:40:53Z</time>
      </trkpt>
      <trkpt lat="43.64438" lon="1.39235">
        <ele>136</ele>
        <time>2025-06-04T15:40:54Z</time>
      </trkpt>
      <trkpt lat="43.64438" lon="1.39235">
        <ele>136</ele>
        <time>2025-06-04T15:40:55Z</time>
      </trkpt>
      <trkpt lat="43.64438" lon="1.39235">
        <ele>135</ele>
        <time>2025-06-04T15:40:56Z</time>
      </trkpt>
      <trkpt lat="43.64438" lon="1.39235">
        <ele>136</ele>
        <time>2025-06-04T15:40:57Z</time>
      </trkpt>
      <trkpt lat="43.64438" lon="1.39235">
        <ele>136</ele>
        <time>2025-06-04T15:40:58Z</time>
      </trkpt>
      <trkpt lat="43.64437" lon="1.39234">
        <ele>135</ele>
        <time>2025-06-04T15:40:59Z</time>
      </trkpt>
      <trkpt lat="43.64437" lon="1.39234">
        <ele>135</ele>
        <time>2025-06-04T15:41:00Z</time>
      </trkpt>
      <trkpt lat="43.64436" lon="1.39231">
        <ele>135</ele>
        <time>2025-06-04T15:41:01Z</time>
      </trkpt>
      <trkpt lat="43.64436" lon="1.39231">
        <ele>135</ele>
        <time>2025-06-04T15:41:02Z</time>
      </trkpt>
      <trkpt lat="43.64434" lon="1.39226">
        <ele>135</ele>
        <time>2025-06-04T15:41:03Z</time>
      </trkpt>
      <trkpt lat="43.6443" lon="1.3922">
        <ele>136</ele>
        <time>2025-06-04T15:41:04Z</time>
      </trkpt>
      <trkpt lat="43.64427" lon="1.39215">
        <ele>136</ele>
        <time>2025-06-04T15:41:05Z</time>
      </trkpt>
      <trkpt lat="43.64424" lon="1.39211">
        <ele>135</ele>
        <time>2025-06-04T15:41:06Z</time>
      </trkpt>
      <trkpt lat="43.64423" lon="1.39209">
        <ele>136</ele>
        <time>2025-06-04T15:41:07Z</time>
      </trkpt>
      <trkpt lat="43.64423" lon="1.39209">
        <ele>136</ele>
        <time>2025-06-04T15:41:08Z</time>
      </trkpt>
      <trkpt lat="43.64425" lon="1.39211">
        <ele>136</ele>
        <time>2025-06-04T15:41:09Z</time>
      </trkpt>
      <trkpt lat="43.64426" lon="1.39213">
        <ele>136</ele>
        <time>2025-06-04T15:41:10Z</time>
      </trkpt>
      <trkpt lat="43.64428" lon="1.39215">
        <ele>136</ele>
        <time>2025-06-04T15:41:11Z</time>
      </trkpt>
      <trkpt lat="43.6443" lon="1.39217">
        <ele>136</ele>
        <time>2025-06-04T15:41:12Z</time>
      </trkpt>
      <trkpt lat="43.64431" lon="1.3922">
        <ele>136</ele>
        <time>2025-06-04T15:41:13Z</time>
      </trkpt>
      <trkpt lat="43.64433" lon="1.39222">
        <ele>136</ele>
        <time>2025-06-04T15:41:14Z</time>
      </trkpt>
      <trkpt lat="43.64434" lon="1.39225">
        <ele>136</ele>
        <time>2025-06-04T15:41:15Z</time>
      </trkpt>
      <trkpt lat="43.64435" lon="1.39228">
        <ele>136</ele>
        <time>2025-06-04T15:41:16Z</time>
      </trkpt>
      <trkpt lat="43.64435" lon="1.39228">
        <ele>136</ele>
        <time>2025-06-04T15:41:17Z</time>
      </trkpt>
      <trkpt lat="43.64433" lon="1.39227">
        <ele>135</ele>
        <time>2025-06-04T15:41:18Z</time>
      </trkpt>
      <trkpt lat="43.6443" lon="1.39221">
        <ele>135</ele>
        <time>2025-06-04T15:41:19Z</time>
      </trkpt>
      <trkpt lat="43.64426" lon="1.39216">
        <ele>135</ele>
        <time>2025-06-04T15:41:20Z</time>
      </trkpt>
      <trkpt lat="43.64424" lon="1.39211">
        <ele>136</ele>
        <time>2025-06-04T15:41:21Z</time>
      </trkpt>
      <trkpt lat="43.64421" lon="1.39206">
        <ele>136</ele>
        <time>2025-06-04T15:41:22Z</time>
      </trkpt>
      <trkpt lat="43.64418" lon="1.39202">
        <ele>136</ele>
        <time>2025-06-04T15:41:23Z</time>
      </trkpt>
      <trkpt lat="43.64415" lon="1.39197">
        <ele>136</ele>
        <time>2025-06-04T15:41:24Z</time>
      </trkpt>
      <trkpt lat="43.64414" lon="1.39192">
        <ele>137</ele>
        <time>2025-06-04T15:41:25Z</time>
      </trkpt>
      <trkpt lat="43.64413" lon="1.39187">
        <ele>138</ele>
        <time>2025-06-04T15:41:26Z</time>
      </trkpt>
      <trkpt lat="43.64412" lon="1.39185">
        <ele>138</ele>
        <time>2025-06-04T15:41:27Z</time>
      </trkpt>
      <trkpt lat="43.64412" lon="1.39185">
        <ele>138</ele>
        <time>2025-06-04T15:41:28Z</time>
      </trkpt>
      <trkpt lat="43.64414" lon="1.39187">
        <ele>139</ele>
        <time>2025-06-04T15:41:29Z</time>
      </trkpt>
      <trkpt lat="43.64415" lon="1.3919">
        <ele>139</ele>
        <time>2025-06-04T15:41:30Z</time>
      </trkpt>
      <trkpt lat="43.64416" lon="1.39192">
        <ele>139</ele>
        <time>2025-06-04T15:41:31Z</time>
      </trkpt>
      <trkpt lat="43.64418" lon="1.39194">
        <ele>139</ele>
        <time>2025-06-04T15:41:32Z</time>
      </trkpt>
      <trkpt lat="43.64419" lon="1.39197">
        <ele>139</ele>
        <time>2025-06-04T15:41:33Z</time>
      </trkpt>
      <trkpt lat="43.64421" lon="1.392">
        <ele>139</ele>
        <time>2025-06-04T15:41:34Z</time>
      </trkpt>
      <trkpt lat="43.64422" lon="1.39202">
        <ele>139</ele>
        <time>2025-06-04T15:41:35Z</time>
      </trkpt>
      <trkpt lat="43.64423" lon="1.39204">
        <ele>139</ele>
        <time>2025-06-04T15:41:36Z</time>
      </trkpt>
      <trkpt lat="43.64425" lon="1.39206">
        <ele>138</ele>
        <time>2025-06-04T15:41:37Z</time>
      </trkpt>
      <trkpt lat="43.64426" lon="1.39208">
        <ele>138</ele>
        <time>2025-06-04T15:41:38Z</time>
      </trkpt>
      <trkpt lat="43.64428" lon="1.39211">
        <ele>138</ele>
        <time>2025-06-04T15:41:39Z</time>
      </trkpt>
      <trkpt lat="43.6443" lon="1.39213">
        <ele>138</ele>
        <time>2025-06-04T15:41:40Z</time>
      </trkpt>
      <trkpt lat="43.64431" lon="1.39216">
        <ele>137</ele>
        <time>2025-06-04T15:41:41Z</time>
      </trkpt>
      <trkpt lat="43.64433" lon="1.39218">
        <ele>137</ele>
        <time>2025-06-04T15:41:42Z</time>
      </trkpt>
      <trkpt lat="43.64434" lon="1.39221">
        <ele>137</ele>
        <time>2025-06-04T15:41:43Z</time>
      </trkpt>
      <trkpt lat="43.64436" lon="1.39223">
        <ele>137</ele>
        <time>2025-06-04T15:41:44Z</time>
      </trkpt>
      <trkpt lat="43.64437" lon="1.39225">
        <ele>137</ele>
        <time>2025-06-04T15:41:45Z</time>
      </trkpt>
      <trkpt lat="43.64439" lon="1.39228">
        <ele>136</ele>
        <time>2025-06-04T15:41:46Z</time>
      </trkpt>
      <trkpt lat="43.64439" lon="1.39228">
        <ele>136</ele>
        <time>2025-06-04T15:41:47Z</time>
      </trkpt>
      <trkpt lat="43.64433" lon="1.39222">
        <ele>136</ele>
        <time>2025-06-04T15:41:48Z</time>
      </trkpt>
      <trkpt lat="43.64431" lon="1.39219">
        <ele>135</ele>
        <time>2025-06-04T15:41:49Z</time>
      </trkpt>
      <trkpt lat="43.64427" lon="1.39214">
        <ele>135</ele>
        <time>2025-06-04T15:41:50Z</time>
      </trkpt>
      <trkpt lat="43.64424" lon="1.39209">
        <ele>135</ele>
        <time>2025-06-04T15:41:51Z</time>
      </trkpt>
      <trkpt lat="43.64421" lon="1.39204">
        <ele>135</ele>
        <time>2025-06-04T15:41:52Z</time>
      </trkpt>
      <trkpt lat="43.64419" lon="1.39199">
        <ele>136</ele>
        <time>2025-06-04T15:41:53Z</time>
      </trkpt>
      <trkpt lat="43.64416" lon="1.39195">
        <ele>137</ele>
        <time>2025-06-04T15:41:54Z</time>
      </trkpt>
      <trkpt lat="43.64414" lon="1.3919">
        <ele>137</ele>
        <time>2025-06-04T15:41:55Z</time>
      </trkpt>
      <trkpt lat="43.64412" lon="1.39185">
        <ele>137</ele>
        <time>2025-06-04T15:41:56Z</time>
      </trkpt>
      <trkpt lat="43.6441" lon="1.39179">
        <ele>138</ele>
        <time>2025-06-04T15:41:57Z</time>
      </trkpt>
      <trkpt lat="43.6441" lon="1.39174">
        <ele>138</ele>
        <time>2025-06-04T15:41:58Z</time>
      </trkpt>
      <trkpt lat="43.64409" lon="1.39169">
        <ele>139</ele>
        <time>2025-06-04T15:41:59Z</time>
      </trkpt>
      <trkpt lat="43.64409" lon="1.39164">
        <ele>139</ele>
        <time>2025-06-04T15:42:00Z</time>
      </trkpt>
      <trkpt lat="43.64409" lon="1.3916">
        <ele>139</ele>
        <time>2025-06-04T15:42:01Z</time>
      </trkpt>
      <trkpt lat="43.64409" lon="1.3916">
        <ele>140</ele>
        <time>2025-06-04T15:42:02Z</time>
      </trkpt>
      <trkpt lat="43.64409" lon="1.3916">
        <ele>140</ele>
        <time>2025-06-04T15:42:03Z</time>
      </trkpt>
      <trkpt lat="43.64411" lon="1.39162">
        <ele>140</ele>
        <time>2025-06-04T15:42:04Z</time>
      </trkpt>
      <trkpt lat="43.64412" lon="1.39164">
        <ele>140</ele>
        <time>2025-06-04T15:42:05Z</time>
      </trkpt>
      <trkpt lat="43.64413" lon="1.39168">
        <ele>140</ele>
        <time>2025-06-04T15:42:06Z</time>
      </trkpt>
      <trkpt lat="43.64414" lon="1.39171">
        <ele>140</ele>
        <time>2025-06-04T15:42:07Z</time>
      </trkpt>
      <trkpt lat="43.64414" lon="1.39174">
        <ele>140</ele>
        <time>2025-06-04T15:42:08Z</time>
      </trkpt>
      <trkpt lat="43.64415" lon="1.39177">
        <ele>139</ele>
        <time>2025-06-04T15:42:09Z</time>
      </trkpt>
      <trkpt lat="43.64416" lon="1.3918">
        <ele>139</ele>
        <time>2025-06-04T15:42:10Z</time>
      </trkpt>
      <trkpt lat="43.64417" lon="1.39182">
        <ele>139</ele>
        <time>2025-06-04T15:42:11Z</time>
      </trkpt>
      <trkpt lat="43.64418" lon="1.39185">
        <ele>139</ele>
        <time>2025-06-04T15:42:12Z</time>
      </trkpt>
      <trkpt lat="43.64419" lon="1.39187">
        <ele>139</ele>
        <time>2025-06-04T15:42:13Z</time>
      </trkpt>
      <trkpt lat="43.6442" lon="1.39189">
        <ele>139</ele>
        <time>2025-06-04T15:42:14Z</time>
      </trkpt>
      <trkpt lat="43.64421" lon="1.39192">
        <ele>139</ele>
        <time>2025-06-04T15:42:15Z</time>
      </trkpt>
      <trkpt lat="43.64421" lon="1.39192">
        <ele>139</ele>
        <time>2025-06-04T15:42:16Z</time>
      </trkpt>
      <trkpt lat="43.64423" lon="1.39196">
        <ele>139</ele>
        <time>2025-06-04T15:42:17Z</time>
      </trkpt>
      <trkpt lat="43.64423" lon="1.39198">
        <ele>139</ele>
        <time>2025-06-04T15:42:18Z</time>
      </trkpt>
      <trkpt lat="43.64424" lon="1.39201">
        <ele>138</ele>
        <time>2025-06-04T15:42:19Z</time>
      </trkpt>
      <trkpt lat="43.64426" lon="1.39203">
        <ele>138</ele>
        <time>2025-06-04T15:42:20Z</time>
      </trkpt>
      <trkpt lat="43.64427" lon="1.39205">
        <ele>137</ele>
        <time>2025-06-04T15:42:21Z</time>
      </trkpt>
      <trkpt lat="43.64428" lon="1.39208">
        <ele>137</ele>
        <time>2025-06-04T15:42:22Z</time>
      </trkpt>
      <trkpt lat="43.64429" lon="1.3921">
        <ele>137</ele>
        <time>2025-06-04T15:42:23Z</time>
      </trkpt>
      <trkpt lat="43.64431" lon="1.39212">
        <ele>137</ele>
        <time>2025-06-04T15:42:24Z</time>
      </trkpt>
      <trkpt lat="43.64432" lon="1.39215">
        <ele>137</ele>
        <time>2025-06-04T15:42:25Z</time>
      </trkpt>
      <trkpt lat="43.64433" lon="1.39217">
        <ele>137</ele>
        <time>2025-06-04T15:42:26Z</time>
      </trkpt>
      <trkpt lat="43.64434" lon="1.39218">
        <ele>137</ele>
        <time>2025-06-04T15:42:27Z</time>
      </trkpt>
      <trkpt lat="43.64436" lon="1.39221">
        <ele>137</ele>
        <time>2025-06-04T15:42:28Z</time>
      </trkpt>
      <trkpt lat="43.64436" lon="1.39223">
        <ele>137</ele>
        <time>2025-06-04T15:42:29Z</time>
      </trkpt>
      <trkpt lat="43.64438" lon="1.39225">
        <ele>137</ele>
        <time>2025-06-04T15:42:30Z</time>
      </trkpt>
      <trkpt lat="43.64438" lon="1.39225">
        <ele>136</ele>
        <time>2025-06-04T15:42:31Z</time>
      </trkpt>
      <trkpt lat="43.64438" lon="1.39225">
        <ele>136</ele>
        <time>2025-06-04T15:42:32Z</time>
      </trkpt>
      <trkpt lat="43.64435" lon="1.39226">
        <ele>136</ele>
        <time>2025-06-04T15:42:33Z</time>
      </trkpt>
      <trkpt lat="43.64431" lon="1.39222">
        <ele>135</ele>
        <time>2025-06-04T15:42:34Z</time>
      </trkpt>
      <trkpt lat="43.64427" lon="1.39217">
        <ele>135</ele>
        <time>2025-06-04T15:42:35Z</time>
      </trkpt>
      <trkpt lat="43.64424" lon="1.39212">
        <ele>135</ele>
        <time>2025-06-04T15:42:36Z</time>
      </trkpt>
      <trkpt lat="43.64422" lon="1.39208">
        <ele>136</ele>
        <time>2025-06-04T15:42:37Z</time>
      </trkpt>
      <trkpt lat="43.64419" lon="1.39204">
        <ele>136</ele>
        <time>2025-06-04T15:42:38Z</time>
      </trkpt>
      <trkpt lat="43.64416" lon="1.39199">
        <ele>136</ele>
        <time>2025-06-04T15:42:39Z</time>
      </trkpt>
      <trkpt lat="43.64414" lon="1.39194">
        <ele>137</ele>
        <time>2025-06-04T15:42:40Z</time>
      </trkpt>
      <trkpt lat="43.64413" lon="1.39189">
        <ele>137</ele>
        <time>2025-06-04T15:42:41Z</time>
      </trkpt>
      <trkpt lat="43.64411" lon="1.39184">
        <ele>138</ele>
        <time>2025-06-04T15:42:42Z</time>
      </trkpt>
      <trkpt lat="43.6441" lon="1.39178">
        <ele>138</ele>
        <time>2025-06-04T15:42:43Z</time>
      </trkpt>
      <trkpt lat="43.64409" lon="1.39172">
        <ele>139</ele>
        <time>2025-06-04T15:42:44Z</time>
      </trkpt>
      <trkpt lat="43.64409" lon="1.39167">
        <ele>139</ele>
        <time>2025-06-04T15:42:45Z</time>
      </trkpt>
      <trkpt lat="43.64409" lon="1.39163">
        <ele>140</ele>
        <time>2025-06-04T15:42:46Z</time>
      </trkpt>
      <trkpt lat="43.64409" lon="1.39158">
        <ele>140</ele>
        <time>2025-06-04T15:42:47Z</time>
      </trkpt>
      <trkpt lat="43.6441" lon="1.39152">
        <ele>140</ele>
        <time>2025-06-04T15:42:48Z</time>
      </trkpt>
      <trkpt lat="43.64411" lon="1.39147">
        <ele>140</ele>
        <time>2025-06-04T15:42:49Z</time>
      </trkpt>
      <trkpt lat="43.64412" lon="1.39142">
        <ele>140</ele>
        <time>2025-06-04T15:42:50Z</time>
      </trkpt>
      <trkpt lat="43.64412" lon="1.39137">
        <ele>141</ele>
        <time>2025-06-04T15:42:51Z</time>
      </trkpt>
      <trkpt lat="43.64413" lon="1.39133">
        <ele>141</ele>
        <time>2025-06-04T15:42:52Z</time>
      </trkpt>
      <trkpt lat="43.64414" lon="1.39129">
        <ele>142</ele>
        <time>2025-06-04T15:42:53Z</time>
      </trkpt>
      <trkpt lat="43.64415" lon="1.39125">
        <ele>142</ele>
        <time>2025-06-04T15:42:54Z</time>
      </trkpt>
      <trkpt lat="43.64417" lon="1.3912">
        <ele>143</ele>
        <time>2025-06-04T15:42:55Z</time>
      </trkpt>
      <trkpt lat="43.64418" lon="1.39117">
        <ele>144</ele>
        <time>2025-06-04T15:42:56Z</time>
      </trkpt>
      <trkpt lat="43.64418" lon="1.39117">
        <ele>145</ele>
        <time>2025-06-04T15:42:57Z</time>
      </trkpt>
      <trkpt lat="43.6442" lon="1.39116">
        <ele>145</ele>
        <time>2025-06-04T15:42:58Z</time>
      </trkpt>
      <trkpt lat="43.6442" lon="1.39116">
        <ele>145</ele>
        <time>2025-06-04T15:42:59Z</time>
      </trkpt>
      <trkpt lat="43.6442" lon="1.3912">
        <ele>145</ele>
        <time>2025-06-04T15:43:00Z</time>
      </trkpt>
      <trkpt lat="43.6442" lon="1.3912">
        <ele>145</ele>
        <time>2025-06-04T15:43:01Z</time>
      </trkpt>
      <trkpt lat="43.6442" lon="1.39122">
        <ele>145</ele>
        <time>2025-06-04T15:43:02Z</time>
      </trkpt>
      <trkpt lat="43.6442" lon="1.39124">
        <ele>145</ele>
        <time>2025-06-04T15:43:03Z</time>
      </trkpt>
      <trkpt lat="43.6442" lon="1.39126">
        <ele>145</ele>
        <time>2025-06-04T15:43:04Z</time>
      </trkpt>
      <trkpt lat="43.64419" lon="1.3913">
        <ele>145</ele>
        <time>2025-06-04T15:43:05Z</time>
      </trkpt>
      <trkpt lat="43.64419" lon="1.3913">
        <ele>145</ele>
        <time>2025-06-04T15:43:06Z</time>
      </trkpt>
      <trkpt lat="43.64418" lon="1.39135">
        <ele>145</ele>
        <time>2025-06-04T15:43:07Z</time>
      </trkpt>
      <trkpt lat="43.64418" lon="1.39135">
        <ele>144</ele>
        <time>2025-06-04T15:43:08Z</time>
      </trkpt>
      <trkpt lat="43.64418" lon="1.39139">
        <ele>144</ele>
        <time>2025-06-04T15:43:09Z</time>
      </trkpt>
      <trkpt lat="43.64418" lon="1.39142">
        <ele>143</ele>
        <time>2025-06-04T15:43:10Z</time>
      </trkpt>
      <trkpt lat="43.64418" lon="1.39144">
        <ele>143</ele>
        <time>2025-06-04T15:43:11Z</time>
      </trkpt>
      <trkpt lat="43.64418" lon="1.39144">
        <ele>142</ele>
        <time>2025-06-04T15:43:12Z</time>
      </trkpt>
      <trkpt lat="43.64417" lon="1.39149">
        <ele>142</ele>
        <time>2025-06-04T15:43:13Z</time>
      </trkpt>
      <trkpt lat="43.64416" lon="1.39152">
        <ele>142</ele>
        <time>2025-06-04T15:43:14Z</time>
      </trkpt>
      <trkpt lat="43.64417" lon="1.39155">
        <ele>141</ele>
        <time>2025-06-04T15:43:15Z</time>
      </trkpt>
      <trkpt lat="43.64417" lon="1.39158">
        <ele>141</ele>
        <time>2025-06-04T15:43:16Z</time>
      </trkpt>
      <trkpt lat="43.64416" lon="1.3916">
        <ele>141</ele>
        <time>2025-06-04T15:43:17Z</time>
      </trkpt>
      <trkpt lat="43.64416" lon="1.3916">
        <ele>141</ele>
        <time>2025-06-04T15:43:18Z</time>
      </trkpt>
      <trkpt lat="43.64416" lon="1.39164">
        <ele>141</ele>
        <time>2025-06-04T15:43:19Z</time>
      </trkpt>
      <trkpt lat="43.64416" lon="1.39164">
        <ele>141</ele>
        <time>2025-06-04T15:43:20Z</time>
      </trkpt>
      <trkpt lat="43.64416" lon="1.39168">
        <ele>140</ele>
        <time>2025-06-04T15:43:21Z</time>
      </trkpt>
      <trkpt lat="43.64416" lon="1.39168">
        <ele>140</ele>
        <time>2025-06-04T15:43:22Z</time>
      </trkpt>
      <trkpt lat="43.64416" lon="1.39173">
        <ele>140</ele>
        <time>2025-06-04T15:43:23Z</time>
      </trkpt>
      <trkpt lat="43.64416" lon="1.39176">
        <ele>140</ele>
        <time>2025-06-04T15:43:24Z</time>
      </trkpt>
      <trkpt lat="43.64416" lon="1.39179">
        <ele>140</ele>
        <time>2025-06-04T15:43:25Z</time>
      </trkpt>
      <trkpt lat="43.64417" lon="1.39181">
        <ele>140</ele>
        <time>2025-06-04T15:43:26Z</time>
      </trkpt>
      <trkpt lat="43.64417" lon="1.39184">
        <ele>139</ele>
        <time>2025-06-04T15:43:27Z</time>
      </trkpt>
      <trkpt lat="43.64417" lon="1.39186">
        <ele>139</ele>
        <time>2025-06-04T15:43:28Z</time>
      </trkpt>
      <trkpt lat="43.64418" lon="1.39189">
        <ele>139</ele>
        <time>2025-06-04T15:43:29Z</time>
      </trkpt>
      <trkpt lat="43.64419" lon="1.39191">
        <ele>139</ele>
        <time>2025-06-04T15:43:30Z</time>
      </trkpt>
      <trkpt lat="43.64419" lon="1.39191">
        <ele>139</ele>
        <time>2025-06-04T15:43:31Z</time>
      </trkpt>
      <trkpt lat="43.6442" lon="1.39195">
        <ele>139</ele>
        <time>2025-06-04T15:43:32Z</time>
      </trkpt>
      <trkpt lat="43.6442" lon="1.39195">
        <ele>139</ele>
        <time>2025-06-04T15:43:33Z</time>
      </trkpt>
      <trkpt lat="43.64422" lon="1.39199">
        <ele>138</ele>
        <time>2025-06-04T15:43:34Z</time>
      </trkpt>
      <trkpt lat="43.64422" lon="1.39199">
        <ele>138</ele>
        <time>2025-06-04T15:43:35Z</time>
      </trkpt>
      <trkpt lat="43.64423" lon="1.39203">
        <ele>139</ele>
        <time>2025-06-04T15:43:36Z</time>
      </trkpt>
      <trkpt lat="43.64423" lon="1.39203">
        <ele>139</ele>
        <time>2025-06-04T15:43:37Z</time>
      </trkpt>
      <trkpt lat="43.64424" lon="1.39207">
        <ele>138</ele>
        <time>2025-06-04T15:43:38Z</time>
      </trkpt>
      <trkpt lat="43.64424" lon="1.39207">
        <ele>138</ele>
        <time>2025-06-04T15:43:39Z</time>
      </trkpt>
      <trkpt lat="43.64425" lon="1.3921">
        <ele>138</ele>
        <time>2025-06-04T15:43:40Z</time>
      </trkpt>
      <trkpt lat="43.64425" lon="1.3921">
        <ele>137</ele>
        <time>2025-06-04T15:43:41Z</time>
      </trkpt>
      <trkpt lat="43.64427" lon="1.39212">
        <ele>137</ele>
        <time>2025-06-04T15:43:42Z</time>
      </trkpt>
      <trkpt lat="43.64427" lon="1.39212">
        <ele>137</ele>
        <time>2025-06-04T15:43:43Z</time>
      </trkpt>
      <trkpt lat="43.64428" lon="1.39214">
        <ele>137</ele>
        <time>2025-06-04T15:43:44Z</time>
      </trkpt>
      <trkpt lat="43.64428" lon="1.39214">
        <ele>137</ele>
        <time>2025-06-04T15:43:45Z</time>
      </trkpt>
      <trkpt lat="43.6443" lon="1.39217">
        <ele>137</ele>
        <time>2025-06-04T15:43:46Z</time>
      </trkpt>
      <trkpt lat="43.6443" lon="1.39217">
        <ele>137</ele>
        <time>2025-06-04T15:43:47Z</time>
      </trkpt>
      <trkpt lat="43.64431" lon="1.39219">
        <ele>137</ele>
        <time>2025-06-04T15:43:48Z</time>
      </trkpt>
      <trkpt lat="43.64431" lon="1.39219">
        <ele>137</ele>
        <time>2025-06-04T15:43:49Z</time>
      </trkpt>
      <trkpt lat="43.64433" lon="1.39221">
        <ele>137</ele>
        <time>2025-06-04T15:43:50Z</time>
      </trkpt>
      <trkpt lat="43.64433" lon="1.39221">
        <ele>137</ele>
        <time>2025-06-04T15:43:51Z</time>
      </trkpt>
      <trkpt lat="43.64434" lon="1.39224">
        <ele>137</ele>
        <time>2025-06-04T15:43:52Z</time>
      </trkpt>
      <trkpt lat="43.64434" lon="1.39224">
        <ele>136</ele>
        <time>2025-06-04T15:43:53Z</time>
      </trkpt>
      <trkpt lat="43.64435" lon="1.39227">
        <ele>136</ele>
        <time>2025-06-04T15:43:54Z</time>
      </trkpt>
      <trkpt lat="43.64435" lon="1.39227">
        <ele>136</ele>
        <time>2025-06-04T15:43:55Z</time>
      </trkpt>
      <trkpt lat="43.64436" lon="1.3923">
        <ele>136</ele>
        <time>2025-06-04T15:43:56Z</time>
      </trkpt>
      <trkpt lat="43.64436" lon="1.3923">
        <ele>136</ele>
        <time>2025-06-04T15:43:57Z</time>
      </trkpt>
      <trkpt lat="43.64437" lon="1.39233">
        <ele>136</ele>
        <time>2025-06-04T15:43:58Z</time>
      </trkpt>
      <trkpt lat="43.64437" lon="1.39233">
        <ele>136</ele>
        <time>2025-06-04T15:43:59Z</time>
      </trkpt>
      <trkpt lat="43.64438" lon="1.39235">
        <ele>136</ele>
        <time>2025-06-04T15:44:00Z</time>
      </trkpt>
      <trkpt lat="43.64438" lon="1.39235">
        <ele>136</ele>
        <time>2025-06-04T15:44:01Z</time>
      </trkpt>
      <trkpt lat="43.64439" lon="1.39238">
        <ele>136</ele>
        <time>2025-06-04T15:44:02Z</time>
      </trkpt>
      <trkpt lat="43.64439" lon="1.39238">
        <ele>135</ele>
        <time>2025-06-04T15:44:03Z</time>
      </trkpt>
      <trkpt lat="43.6444" lon="1.3924">
        <ele>135</ele>
        <time>2025-06-04T15:44:04Z</time>
      </trkpt>
      <trkpt lat="43.6444" lon="1.3924">
        <ele>135</ele>
        <time>2025-06-04T15:44:05Z</time>
      </trkpt>
      <trkpt lat="43.6444" lon="1.3924">
        <ele>135</ele>
        <time>2025-06-04T15:44:06Z</time>
      </trkpt>
      <trkpt lat="43.6444" lon="1.3924">
        <ele>135</ele>
        <time>2025-06-04T15:44:07Z</time>
      </trkpt>
      <trkpt lat="43.6444" lon="1.3924">
        <ele>136</ele>
        <time>2025-06-04T15:44:08Z</time>
      </trkpt>
      <trkpt lat="43.6444" lon="1.3924">
        <ele>136</ele>
        <time>2025-06-04T15:44:09Z</time>
      </trkpt>
      <trkpt lat="43.64439" lon="1.39237">
        <ele>136</ele>
        <time>2025-06-04T15:44:10Z</time>
      </trkpt>
      <trkpt lat="43.64439" lon="1.39237">
        <ele>136</ele>
        <time>2025-06-04T15:44:11Z</time>
      </trkpt>
      <trkpt lat="43.64437" lon="1.39234">
        <ele>136</ele>
        <time>2025-06-04T15:44:12Z</time>
      </trkpt>
      <trkpt lat="43.64437" lon="1.39234">
        <ele>136</ele>
        <time>2025-06-04T15:44:13Z</time>
      </trkpt>
      <trkpt lat="43.64436" lon="1.39232">
        <ele>136</ele>
        <time>2025-06-04T15:44:14Z</time>
      </trkpt>
      <trkpt lat="43.64436" lon="1.39232">
        <ele>136</ele>
        <time>2025-06-04T15:44:15Z</time>
      </trkpt>
      <trkpt lat="43.64435" lon="1.39229">
        <ele>136</ele>
        <time>2025-06-04T15:44:16Z</time>
      </trkpt>
      <trkpt lat="43.64433" lon="1.39227">
        <ele>136</ele>
        <time>2025-06-04T15:44:17Z</time>
      </trkpt>
      <trkpt lat="43.6443" lon="1.39222">
        <ele>135</ele>
        <time>2025-06-04T15:44:18Z</time>
      </trkpt>
      <trkpt lat="43.64427" lon="1.39217">
        <ele>135</ele>
        <time>2025-06-04T15:44:19Z</time>
      </trkpt>
      <trkpt lat="43.64424" lon="1.39212">
        <ele>135</ele>
        <time>2025-06-04T15:44:20Z</time>
      </trkpt>
      <trkpt lat="43.64423" lon="1.3921">
        <ele>135</ele>
        <time>2025-06-04T15:44:21Z</time>
      </trkpt>
      <trkpt lat="43.64423" lon="1.3921">
        <ele>136</ele>
        <time>2025-06-04T15:44:22Z</time>
      </trkpt>
      <trkpt lat="43.64425" lon="1.39211">
        <ele>136</ele>
        <time>2025-06-04T15:44:23Z</time>
      </trkpt>
      <trkpt lat="43.64427" lon="1.39213">
        <ele>136</ele>
        <time>2025-06-04T15:44:24Z</time>
      </trkpt>
      <trkpt lat="43.64429" lon="1.39215">
        <ele>136</ele>
        <time>2025-06-04T15:44:25Z</time>
      </trkpt>
      <trkpt lat="43.6443" lon="1.39217">
        <ele>136</ele>
        <time>2025-06-04T15:44:26Z</time>
      </trkpt>
      <trkpt lat="43.64432" lon="1.39219">
        <ele>136</ele>
        <time>2025-06-04T15:44:27Z</time>
      </trkpt>
      <trkpt lat="43.64433" lon="1.39222">
        <ele>136</ele>
        <time>2025-06-04T15:44:28Z</time>
      </trkpt>
      <trkpt lat="43.64435" lon="1.39224">
        <ele>136</ele>
        <time>2025-06-04T15:44:29Z</time>
      </trkpt>
      <trkpt lat="43.64436" lon="1.39226">
        <ele>136</ele>
        <time>2025-06-04T15:44:30Z</time>
      </trkpt>
      <trkpt lat="43.64436" lon="1.39229">
        <ele>136</ele>
        <time>2025-06-04T15:44:31Z</time>
      </trkpt>
      <trkpt lat="43.64436" lon="1.39229">
        <ele>136</ele>
        <time>2025-06-04T15:44:32Z</time>
      </trkpt>
      <trkpt lat="43.64431" lon="1.39221">
        <ele>136</ele>
        <time>2025-06-04T15:44:33Z</time>
      </trkpt>
      <trkpt lat="43.6443" lon="1.39219">
        <ele>136</ele>
        <time>2025-06-04T15:44:34Z</time>
      </trkpt>
      <trkpt lat="43.64426" lon="1.39214">
        <ele>136</ele>
        <time>2025-06-04T15:44:35Z</time>
      </trkpt>
      <trkpt lat="43.64422" lon="1.39208">
        <ele>136</ele>
        <time>2025-06-04T15:44:36Z</time>
      </trkpt>
      <trkpt lat="43.64419" lon="1.39204">
        <ele>136</ele>
        <time>2025-06-04T15:44:37Z</time>
      </trkpt>
      <trkpt lat="43.64416" lon="1.39198">
        <ele>137</ele>
        <time>2025-06-04T15:44:38Z</time>
      </trkpt>
      <trkpt lat="43.64414" lon="1.39193">
        <ele>137</ele>
        <time>2025-06-04T15:44:39Z</time>
      </trkpt>
      <trkpt lat="43.64412" lon="1.39189">
        <ele>138</ele>
        <time>2025-06-04T15:44:40Z</time>
      </trkpt>
      <trkpt lat="43.64411" lon="1.39185">
        <ele>138</ele>
        <time>2025-06-04T15:44:41Z</time>
      </trkpt>
      <trkpt lat="43.64411" lon="1.39185">
        <ele>138</ele>
        <time>2025-06-04T15:44:42Z</time>
      </trkpt>
      <trkpt lat="43.64411" lon="1.39185">
        <ele>138</ele>
        <time>2025-06-04T15:44:43Z</time>
      </trkpt>
      <trkpt lat="43.64413" lon="1.39187">
        <ele>139</ele>
        <time>2025-06-04T15:44:44Z</time>
      </trkpt>
      <trkpt lat="43.64415" lon="1.39189">
        <ele>139</ele>
        <time>2025-06-04T15:44:45Z</time>
      </trkpt>
      <trkpt lat="43.64415" lon="1.39191">
        <ele>139</ele>
        <time>2025-06-04T15:44:46Z</time>
      </trkpt>
      <trkpt lat="43.64417" lon="1.39194">
        <ele>139</ele>
        <time>2025-06-04T15:44:47Z</time>
      </trkpt>
      <trkpt lat="43.64418" lon="1.39197">
        <ele>139</ele>
        <time>2025-06-04T15:44:48Z</time>
      </trkpt>
      <trkpt lat="43.64419" lon="1.392">
        <ele>139</ele>
        <time>2025-06-04T15:44:49Z</time>
      </trkpt>
      <trkpt lat="43.64421" lon="1.39202">
        <ele>138</ele>
        <time>2025-06-04T15:44:50Z</time>
      </trkpt>
      <trkpt lat="43.64422" lon="1.39204">
        <ele>138</ele>
        <time>2025-06-04T15:44:51Z</time>
      </trkpt>
      <trkpt lat="43.64423" lon="1.39207">
        <ele>138</ele>
        <time>2025-06-04T15:44:52Z</time>
      </trkpt>
      <trkpt lat="43.64425" lon="1.39209">
        <ele>138</ele>
        <time>2025-06-04T15:44:53Z</time>
      </trkpt>
      <trkpt lat="43.64426" lon="1.39212">
        <ele>138</ele>
        <time>2025-06-04T15:44:54Z</time>
      </trkpt>
      <trkpt lat="43.64428" lon="1.39214">
        <ele>138</ele>
        <time>2025-06-04T15:44:55Z</time>
      </trkpt>
      <trkpt lat="43.64429" lon="1.39216">
        <ele>137</ele>
        <time>2025-06-04T15:44:56Z</time>
      </trkpt>
      <trkpt lat="43.64431" lon="1.39219">
        <ele>137</ele>
        <time>2025-06-04T15:44:57Z</time>
      </trkpt>
      <trkpt lat="43.64432" lon="1.39222">
        <ele>137</ele>
        <time>2025-06-04T15:44:58Z</time>
      </trkpt>
      <trkpt lat="43.64434" lon="1.39224">
        <ele>136</ele>
        <time>2025-06-04T15:44:59Z</time>
      </trkpt>
      <trkpt lat="43.64435" lon="1.39226">
        <ele>136</ele>
        <time>2025-06-04T15:45:00Z</time>
      </trkpt>
      <trkpt lat="43.64436" lon="1.39229">
        <ele>136</ele>
        <time>2025-06-04T15:45:01Z</time>
      </trkpt>
      <trkpt lat="43.64436" lon="1.39229">
        <ele>136</ele>
        <time>2025-06-04T15:45:02Z</time>
      </trkpt>
      <trkpt lat="43.64434" lon="1.39226">
        <ele>136</ele>
        <time>2025-06-04T15:45:03Z</time>
      </trkpt>
      <trkpt lat="43.6443" lon="1.39222">
        <ele>136</ele>
        <time>2025-06-04T15:45:04Z</time>
      </trkpt>
      <trkpt lat="43.64426" lon="1.39217">
        <ele>136</ele>
        <time>2025-06-04T15:45:05Z</time>
      </trkpt>
      <trkpt lat="43.64423" lon="1.39212">
        <ele>135</ele>
        <time>2025-06-04T15:45:06Z</time>
      </trkpt>
      <trkpt lat="43.64419" lon="1.39208">
        <ele>135</ele>
        <time>2025-06-04T15:45:07Z</time>
      </trkpt>
      <trkpt lat="43.64416" lon="1.39202">
        <ele>136</ele>
        <time>2025-06-04T15:45:08Z</time>
      </trkpt>
      <trkpt lat="43.64413" lon="1.39198">
        <ele>136</ele>
        <time>2025-06-04T15:45:09Z</time>
      </trkpt>
      <trkpt lat="43.64411" lon="1.39192">
        <ele>137</ele>
        <time>2025-06-04T15:45:10Z</time>
      </trkpt>
      <trkpt lat="43.6441" lon="1.39186">
        <ele>138</ele>
        <time>2025-06-04T15:45:11Z</time>
      </trkpt>
      <trkpt lat="43.64409" lon="1.3918">
        <ele>138</ele>
        <time>2025-06-04T15:45:12Z</time>
      </trkpt>
      <trkpt lat="43.64408" lon="1.39175">
        <ele>138</ele>
        <time>2025-06-04T15:45:13Z</time>
      </trkpt>
      <trkpt lat="43.64408" lon="1.39169">
        <ele>138</ele>
        <time>2025-06-04T15:45:14Z</time>
      </trkpt>
      <trkpt lat="43.64408" lon="1.39164">
        <ele>139</ele>
        <time>2025-06-04T15:45:15Z</time>
      </trkpt>
      <trkpt lat="43.64408" lon="1.3916">
        <ele>139</ele>
        <time>2025-06-04T15:45:16Z</time>
      </trkpt>
      <trkpt lat="43.64408" lon="1.3916">
        <ele>139</ele>
        <time>2025-06-04T15:45:17Z</time>
      </trkpt>
      <trkpt lat="43.64408" lon="1.3916">
        <ele>140</ele>
        <time>2025-06-04T15:45:18Z</time>
      </trkpt>
      <trkpt lat="43.64409" lon="1.39165">
        <ele>140</ele>
        <time>2025-06-04T15:45:19Z</time>
      </trkpt>
      <trkpt lat="43.6441" lon="1.39168">
        <ele>140</ele>
        <time>2025-06-04T15:45:20Z</time>
      </trkpt>
      <trkpt lat="43.6441" lon="1.39171">
        <ele>140</ele>
        <time>2025-06-04T15:45:21Z</time>
      </trkpt>
      <trkpt lat="43.6441" lon="1.39174">
        <ele>140</ele>
        <time>2025-06-04T15:45:22Z</time>
      </trkpt>
      <trkpt lat="43.64412" lon="1.39177">
        <ele>140</ele>
        <time>2025-06-04T15:45:23Z</time>
      </trkpt>
      <trkpt lat="43.64413" lon="1.39179">
        <ele>140</ele>
        <time>2025-06-04T15:45:24Z</time>
      </trkpt>
      <trkpt lat="43.64414" lon="1.39182">
        <ele>139</ele>
        <time>2025-06-04T15:45:25Z</time>
      </trkpt>
      <trkpt lat="43.64415" lon="1.39185">
        <ele>139</ele>
        <time>2025-06-04T15:45:26Z</time>
      </trkpt>
      <trkpt lat="43.64416" lon="1.39187">
        <ele>139</ele>
        <time>2025-06-04T15:45:27Z</time>
      </trkpt>
      <trkpt lat="43.64417" lon="1.3919">
        <ele>139</ele>
        <time>2025-06-04T15:45:28Z</time>
      </trkpt>
      <trkpt lat="43.64418" lon="1.39192">
        <ele>139</ele>
        <time>2025-06-04T15:45:29Z</time>
      </trkpt>
      <trkpt lat="43.64419" lon="1.39195">
        <ele>139</ele>
        <time>2025-06-04T15:45:30Z</time>
      </trkpt>
      <trkpt lat="43.64421" lon="1.39197">
        <ele>139</ele>
        <time>2025-06-04T15:45:31Z</time>
      </trkpt>
      <trkpt lat="43.64421" lon="1.39199">
        <ele>139</ele>
        <time>2025-06-04T15:45:32Z</time>
      </trkpt>
      <trkpt lat="43.64422" lon="1.39202">
        <ele>138</ele>
        <time>2025-06-04T15:45:33Z</time>
      </trkpt>
      <trkpt lat="43.64423" lon="1.39204">
        <ele>138</ele>
        <time>2025-06-04T15:45:34Z</time>
      </trkpt>
      <trkpt lat="43.64424" lon="1.39206">
        <ele>138</ele>
        <time>2025-06-04T15:45:35Z</time>
      </trkpt>
      <trkpt lat="43.64426" lon="1.39209">
        <ele>137</ele>
        <time>2025-06-04T15:45:36Z</time>
      </trkpt>
      <trkpt lat="43.64427" lon="1.39211">
        <ele>137</ele>
        <time>2025-06-04T15:45:37Z</time>
      </trkpt>
      <trkpt lat="43.64428" lon="1.39214">
        <ele>137</ele>
        <time>2025-06-04T15:45:38Z</time>
      </trkpt>
      <trkpt lat="43.6443" lon="1.39216">
        <ele>137</ele>
        <time>2025-06-04T15:45:39Z</time>
      </trkpt>
      <trkpt lat="43.64431" lon="1.39219">
        <ele>137</ele>
        <time>2025-06-04T15:45:40Z</time>
      </trkpt>
      <trkpt lat="43.64433" lon="1.39221">
        <ele>137</ele>
        <time>2025-06-04T15:45:41Z</time>
      </trkpt>
      <trkpt lat="43.64434" lon="1.39224">
        <ele>137</ele>
        <time>2025-06-04T15:45:42Z</time>
      </trkpt>
      <trkpt lat="43.64435" lon="1.39227">
        <ele>137</ele>
        <time>2025-06-04T15:45:43Z</time>
      </trkpt>
      <trkpt lat="43.64436" lon="1.39229">
        <ele>137</ele>
        <time>2025-06-04T15:45:44Z</time>
      </trkpt>
      <trkpt lat="43.64436" lon="1.39229">
        <ele>136</ele>
        <time>2025-06-04T15:45:45Z</time>
      </trkpt>
      <trkpt lat="43.64434" lon="1.39227">
        <ele>136</ele>
        <time>2025-06-04T15:45:46Z</time>
      </trkpt>
      <trkpt lat="43.6443" lon="1.39222">
        <ele>136</ele>
        <time>2025-06-04T15:45:47Z</time>
      </trkpt>
      <trkpt lat="43.64426" lon="1.39217">
        <ele>135</ele>
        <time>2025-06-04T15:45:48Z</time>
      </trkpt>
      <trkpt lat="43.64423" lon="1.39212">
        <ele>136</ele>
        <time>2025-06-04T15:45:49Z</time>
      </trkpt>
      <trkpt lat="43.64419" lon="1.39207">
        <ele>136</ele>
        <time>2025-06-04T15:45:50Z</time>
      </trkpt>
      <trkpt lat="43.64416" lon="1.39202">
        <ele>136</ele>
        <time>2025-06-04T15:45:51Z</time>
      </trkpt>
      <trkpt lat="43.64414" lon="1.39196">
        <ele>137</ele>
        <time>2025-06-04T15:45:52Z</time>
      </trkpt>
      <trkpt lat="43.64412" lon="1.3919">
        <ele>137</ele>
        <time>2025-06-04T15:45:53Z</time>
      </trkpt>
      <trkpt lat="43.6441" lon="1.39185">
        <ele>138</ele>
        <time>2025-06-04T15:45:54Z</time>
      </trkpt>
      <trkpt lat="43.64409" lon="1.39179">
        <ele>138</ele>
        <time>2025-06-04T15:45:55Z</time>
      </trkpt>
      <trkpt lat="43.64408" lon="1.39173">
        <ele>139</ele>
        <time>2025-06-04T15:45:56Z</time>
      </trkpt>
      <trkpt lat="43.64407" lon="1.39168">
        <ele>139</ele>
        <time>2025-06-04T15:45:57Z</time>
      </trkpt>
      <trkpt lat="43.64407" lon="1.39162">
        <ele>139</ele>
        <time>2025-06-04T15:45:58Z</time>
      </trkpt>
      <trkpt lat="43.64407" lon="1.39157">
        <ele>139</ele>
        <time>2025-06-04T15:45:59Z</time>
      </trkpt>
      <trkpt lat="43.64407" lon="1.39152">
        <ele>139</ele>
        <time>2025-06-04T15:46:00Z</time>
      </trkpt>
      <trkpt lat="43.64409" lon="1.39147">
        <ele>139</ele>
        <time>2025-06-04T15:46:01Z</time>
      </trkpt>
      <trkpt lat="43.6441" lon="1.39142">
        <ele>140</ele>
        <time>2025-06-04T15:46:02Z</time>
      </trkpt>
      <trkpt lat="43.64411" lon="1.39138">
        <ele>140</ele>
        <time>2025-06-04T15:46:03Z</time>
      </trkpt>
      <trkpt lat="43.64411" lon="1.39134">
        <ele>141</ele>
        <time>2025-06-04T15:46:04Z</time>
      </trkpt>
      <trkpt lat="43.64412" lon="1.3913">
        <ele>141</ele>
        <time>2025-06-04T15:46:05Z</time>
      </trkpt>
      <trkpt lat="43.64414" lon="1.39125">
        <ele>142</ele>
        <time>2025-06-04T15:46:06Z</time>
      </trkpt>
      <trkpt lat="43.64416" lon="1.39121">
        <ele>142</ele>
        <time>2025-06-04T15:46:07Z</time>
      </trkpt>
      <trkpt lat="43.64418" lon="1.39118">
        <ele>143</ele>
        <time>2025-06-04T15:46:08Z</time>
      </trkpt>
      <trkpt lat="43.64418" lon="1.39118">
        <ele>144</ele>
        <time>2025-06-04T15:46:09Z</time>
      </trkpt>
      <trkpt lat="43.64418" lon="1.39118">
        <ele>144</ele>
        <time>2025-06-04T15:46:10Z</time>
      </trkpt>
      <trkpt lat="43.64418" lon="1.39118">
        <ele>144</ele>
        <time>2025-06-04T15:46:11Z</time>
      </trkpt>
      <trkpt lat="43.64418" lon="1.39118">
        <ele>145</ele>
        <time>2025-06-04T15:46:12Z</time>
      </trkpt>
      <trkpt lat="43.64418" lon="1.3912">
        <ele>145</ele>
        <time>2025-06-04T15:46:13Z</time>
      </trkpt>
      <trkpt lat="43.64418" lon="1.3912">
        <ele>145</ele>
        <time>2025-06-04T15:46:14Z</time>
      </trkpt>
      <trkpt lat="43.64418" lon="1.39124">
        <ele>145</ele>
        <time>2025-06-04T15:46:15Z</time>
      </trkpt>
      <trkpt lat="43.64418" lon="1.39124">
        <ele>144</ele>
        <time>2025-06-04T15:46:16Z</time>
      </trkpt>
      <trkpt lat="43.64418" lon="1.39128">
        <ele>144</ele>
        <time>2025-06-04T15:46:17Z</time>
      </trkpt>
      <trkpt lat="43.64418" lon="1.39128">
        <ele>144</ele>
        <time>2025-06-04T15:46:18Z</time>
      </trkpt>
      <trkpt lat="43.64418" lon="1.39132">
        <ele>144</ele>
        <time>2025-06-04T15:46:19Z</time>
      </trkpt>
      <trkpt lat="43.64418" lon="1.39132">
        <ele>143</ele>
        <time>2025-06-04T15:46:20Z</time>
      </trkpt>
      <trkpt lat="43.64417" lon="1.39136">
        <ele>143</ele>
        <time>2025-06-04T15:46:21Z</time>
      </trkpt>
      <trkpt lat="43.64417" lon="1.39136">
        <ele>143</ele>
        <time>2025-06-04T15:46:22Z</time>
      </trkpt>
      <trkpt lat="43.64417" lon="1.3914">
        <ele>143</ele>
        <time>2025-06-04T15:46:23Z</time>
      </trkpt>
      <trkpt lat="43.64417" lon="1.39143">
        <ele>142</ele>
        <time>2025-06-04T15:46:24Z</time>
      </trkpt>
      <trkpt lat="43.64417" lon="1.39143">
        <ele>142</ele>
        <time>2025-06-04T15:46:25Z</time>
      </trkpt>
      <trkpt lat="43.64416" lon="1.39147">
        <ele>141</ele>
        <time>2025-06-04T15:46:26Z</time>
      </trkpt>
      <trkpt lat="43.64416" lon="1.39147">
        <ele>141</ele>
        <time>2025-06-04T15:46:27Z</time>
      </trkpt>
      <trkpt lat="43.64415" lon="1.39151">
        <ele>141</ele>
        <time>2025-06-04T15:46:28Z</time>
      </trkpt>
      <trkpt lat="43.64415" lon="1.39151">
        <ele>141</ele>
        <time>2025-06-04T15:46:29Z</time>
      </trkpt>
      <trkpt lat="43.64414" lon="1.39155">
        <ele>141</ele>
        <time>2025-06-04T15:46:30Z</time>
      </trkpt>
      <trkpt lat="43.64414" lon="1.39158">
        <ele>141</ele>
        <time>2025-06-04T15:46:31Z</time>
      </trkpt>
      <trkpt lat="43.64414" lon="1.39158">
        <ele>141</ele>
        <time>2025-06-04T15:46:32Z</time>
      </trkpt>
      <trkpt lat="43.64413" lon="1.39162">
        <ele>141</ele>
        <time>2025-06-04T15:46:33Z</time>
      </trkpt>
      <trkpt lat="43.64413" lon="1.39162">
        <ele>141</ele>
        <time>2025-06-04T15:46:34Z</time>
      </trkpt>
      <trkpt lat="43.64414" lon="1.39165">
        <ele>140</ele>
        <time>2025-06-04T15:46:35Z</time>
      </trkpt>
      <trkpt lat="43.64414" lon="1.39165">
        <ele>140</ele>
        <time>2025-06-04T15:46:36Z</time>
      </trkpt>
      <trkpt lat="43.64415" lon="1.39169">
        <ele>140</ele>
        <time>2025-06-04T15:46:37Z</time>
      </trkpt>
      <trkpt lat="43.64416" lon="1.39172">
        <ele>140</ele>
        <time>2025-06-04T15:46:38Z</time>
      </trkpt>
      <trkpt lat="43.64416" lon="1.39172">
        <ele>140</ele>
        <time>2025-06-04T15:46:39Z</time>
      </trkpt>
      <trkpt lat="43.64416" lon="1.39175">
        <ele>140</ele>
        <time>2025-06-04T15:46:40Z</time>
      </trkpt>
      <trkpt lat="43.64416" lon="1.39175">
        <ele>140</ele>
        <time>2025-06-04T15:46:41Z</time>
      </trkpt>
      <trkpt lat="43.64416" lon="1.39178">
        <ele>140</ele>
        <time>2025-06-04T15:46:42Z</time>
      </trkpt>
      <trkpt lat="43.64416" lon="1.39178">
        <ele>140</ele>
        <time>2025-06-04T15:46:43Z</time>
      </trkpt>
      <trkpt lat="43.64416" lon="1.39181">
        <ele>140</ele>
        <time>2025-06-04T15:46:44Z</time>
      </trkpt>
      <trkpt lat="43.64416" lon="1.39181">
        <ele>139</ele>
        <time>2025-06-04T15:46:45Z</time>
      </trkpt>
      <trkpt lat="43.64416" lon="1.39184">
        <ele>139</ele>
        <time>2025-06-04T15:46:46Z</time>
      </trkpt>
      <trkpt lat="43.64416" lon="1.39184">
        <ele>139</ele>
        <time>2025-06-04T15:46:47Z</time>
      </trkpt>
      <trkpt lat="43.64417" lon="1.39188">
        <ele>139</ele>
        <time>2025-06-04T15:46:48Z</time>
      </trkpt>
      <trkpt lat="43.64417" lon="1.39188">
        <ele>139</ele>
        <time>2025-06-04T15:46:49Z</time>
      </trkpt>
      <trkpt lat="43.64418" lon="1.39192">
        <ele>139</ele>
        <time>2025-06-04T15:46:50Z</time>
      </trkpt>
      <trkpt lat="43.64418" lon="1.39192">
        <ele>139</ele>
        <time>2025-06-04T15:46:51Z</time>
      </trkpt>
      <trkpt lat="43.64419" lon="1.39196">
        <ele>139</ele>
        <time>2025-06-04T15:46:52Z</time>
      </trkpt>
      <trkpt lat="43.64419" lon="1.39196">
        <ele>139</ele>
        <time>2025-06-04T15:46:53Z</time>
      </trkpt>
      <trkpt lat="43.6442" lon="1.39199">
        <ele>138</ele>
        <time>2025-06-04T15:46:54Z</time>
      </trkpt>
      <trkpt lat="43.6442" lon="1.39199">
        <ele>138</ele>
        <time>2025-06-04T15:46:55Z</time>
      </trkpt>
      <trkpt lat="43.64421" lon="1.39202">
        <ele>138</ele>
        <time>2025-06-04T15:46:56Z</time>
      </trkpt>
      <trkpt lat="43.64421" lon="1.39202">
        <ele>138</ele>
        <time>2025-06-04T15:46:57Z</time>
      </trkpt>
      <trkpt lat="43.64422" lon="1.39205">
        <ele>138</ele>
        <time>2025-06-04T15:46:58Z</time>
      </trkpt>
      <trkpt lat="43.64422" lon="1.39205">
        <ele>138</ele>
        <time>2025-06-04T15:46:59Z</time>
      </trkpt>
      <trkpt lat="43.64423" lon="1.39207">
        <ele>138</ele>
        <time>2025-06-04T15:47:00Z</time>
      </trkpt>
      <trkpt lat="43.64423" lon="1.39207">
        <ele>138</ele>
        <time>2025-06-04T15:47:01Z</time>
      </trkpt>
      <trkpt lat="43.64425" lon="1.3921">
        <ele>138</ele>
        <time>2025-06-04T15:47:02Z</time>
      </trkpt>
      <trkpt lat="43.64425" lon="1.3921">
        <ele>138</ele>
        <time>2025-06-04T15:47:03Z</time>
      </trkpt>
      <trkpt lat="43.64426" lon="1.39212">
        <ele>137</ele>
        <time>2025-06-04T15:47:04Z</time>
      </trkpt>
      <trkpt lat="43.64426" lon="1.39212">
        <ele>136</ele>
        <time>2025-06-04T15:47:05Z</time>
      </trkpt>
      <trkpt lat="43.64427" lon="1.39215">
        <ele>136</ele>
        <time>2025-06-04T15:47:06Z</time>
      </trkpt>
      <trkpt lat="43.64427" lon="1.39215">
        <ele>136</ele>
        <time>2025-06-04T15:47:07Z</time>
      </trkpt>
      <trkpt lat="43.64429" lon="1.39217">
        <ele>136</ele>
        <time>2025-06-04T15:47:08Z</time>
      </trkpt>
      <trkpt lat="43.64429" lon="1.39217">
        <ele>136</ele>
        <time>2025-06-04T15:47:09Z</time>
      </trkpt>
      <trkpt lat="43.6443" lon="1.3922">
        <ele>136</ele>
        <time>2025-06-04T15:47:10Z</time>
      </trkpt>
      <trkpt lat="43.6443" lon="1.3922">
        <ele>136</ele>
        <time>2025-06-04T15:47:11Z</time>
      </trkpt>
      <trkpt lat="43.64432" lon="1.39223">
        <ele>136</ele>
        <time>2025-06-04T15:47:12Z</time>
      </trkpt>
      <trkpt lat="43.64432" lon="1.39223">
        <ele>136</ele>
        <time>2025-06-04T15:47:13Z</time>
      </trkpt>
      <trkpt lat="43.64433" lon="1.39226">
        <ele>136</ele>
        <time>2025-06-04T15:47:14Z</time>
      </trkpt>
      <trkpt lat="43.64433" lon="1.39226">
        <ele>136</ele>
        <time>2025-06-04T15:47:15Z</time>
      </trkpt>
      <trkpt lat="43.64434" lon="1.39229">
        <ele>135</ele>
        <time>2025-06-04T15:47:16Z</time>
      </trkpt>
      <trkpt lat="43.64434" lon="1.39229">
        <ele>135</ele>
        <time>2025-06-04T15:47:17Z</time>
      </trkpt>
      <trkpt lat="43.64435" lon="1.39232">
        <ele>135</ele>
        <time>2025-06-04T15:47:18Z</time>
      </trkpt>
      <trkpt lat="43.64435" lon="1.39232">
        <ele>135</ele>
        <time>2025-06-04T15:47:19Z</time>
      </trkpt>
      <trkpt lat="43.64437" lon="1.39235">
        <ele>135</ele>
        <time>2025-06-04T15:47:20Z</time>
      </trkpt>
      <trkpt lat="43.64437" lon="1.39235">
        <ele>134</ele>
        <time>2025-06-04T15:47:21Z</time>
      </trkpt>
      <trkpt lat="43.64439" lon="1.39238">
        <ele>135</ele>
        <time>2025-06-04T15:47:22Z</time>
      </trkpt>
      <trkpt lat="43.64439" lon="1.39238">
        <ele>135</ele>
        <time>2025-06-04T15:47:23Z</time>
      </trkpt>
      <trkpt lat="43.64441" lon="1.39241">
        <ele>135</ele>
        <time>2025-06-04T15:47:24Z</time>
      </trkpt>
      <trkpt lat="43.64441" lon="1.39241">
        <ele>134</ele>
        <time>2025-06-04T15:47:25Z</time>
      </trkpt>
      <trkpt lat="43.64443" lon="1.39244">
        <ele>134</ele>
        <time>2025-06-04T15:47:26Z</time>
      </trkpt>
      <trkpt lat="43.64443" lon="1.39244">
        <ele>134</ele>
        <time>2025-06-04T15:47:27Z</time>
      </trkpt>
      <trkpt lat="43.64444" lon="1.39247">
        <ele>134</ele>
        <time>2025-06-04T15:47:28Z</time>
      </trkpt>
      <trkpt lat="43.64444" lon="1.39247">
        <ele>134</ele>
        <time>2025-06-04T15:47:29Z</time>
      </trkpt>
      <trkpt lat="43.64445" lon="1.3925">
        <ele>134</ele>
        <time>2025-06-04T15:47:30Z</time>
      </trkpt>
      <trkpt lat="43.64445" lon="1.3925">
        <ele>134</ele>
        <time>2025-06-04T15:47:31Z</time>
      </trkpt>
      <trkpt lat="43.64446" lon="1.39253">
        <ele>134</ele>
        <time>2025-06-04T15:47:32Z</time>
      </trkpt>
      <trkpt lat="43.64446" lon="1.39253">
        <ele>134</ele>
        <time>2025-06-04T15:47:33Z</time>
      </trkpt>
      <trkpt lat="43.64448" lon="1.39257">
        <ele>134</ele>
        <time>2025-06-04T15:47:34Z</time>
      </trkpt>
      <trkpt lat="43.64448" lon="1.39257">
        <ele>134</ele>
        <time>2025-06-04T15:47:35Z</time>
      </trkpt>
      <trkpt lat="43.64449" lon="1.3926">
        <ele>134</ele>
        <time>2025-06-04T15:47:36Z</time>
      </trkpt>
      <trkpt lat="43.64449" lon="1.3926">
        <ele>134</ele>
        <time>2025-06-04T15:47:37Z</time>
      </trkpt>
      <trkpt lat="43.6445" lon="1.39263">
        <ele>135</ele>
        <time>2025-06-04T15:47:38Z</time>
      </trkpt>
      <trkpt lat="43.6445" lon="1.39263">
        <ele>135</ele>
        <time>2025-06-04T15:47:39Z</time>
      </trkpt>
      <trkpt lat="43.64451" lon="1.39267">
        <ele>135</ele>
        <time>2025-06-04T15:47:40Z</time>
      </trkpt>
      <trkpt lat="43.64451" lon="1.39267">
        <ele>135</ele>
        <time>2025-06-04T15:47:41Z</time>
      </trkpt>
      <trkpt lat="43.64452" lon="1.39271">
        <ele>135</ele>
        <time>2025-06-04T15:47:42Z</time>
      </trkpt>
      <trkpt lat="43.64452" lon="1.39271">
        <ele>135</ele>
        <time>2025-06-04T15:47:43Z</time>
      </trkpt>
      <trkpt lat="43.64453" lon="1.39274">
        <ele>135</ele>
        <time>2025-06-04T15:47:44Z</time>
      </trkpt>
      <trkpt lat="43.64453" lon="1.39274">
        <ele>135</ele>
        <time>2025-06-04T15:47:45Z</time>
      </trkpt>
      <trkpt lat="43.64453" lon="1.39274">
        <ele>135</ele>
        <time>2025-06-04T15:47:46Z</time>
      </trkpt>
      <trkpt lat="43.64453" lon="1.39278">
        <ele>135</ele>
        <time>2025-06-04T15:47:47Z</time>
      </trkpt>
      <trkpt lat="43.64453" lon="1.39278">
        <ele>135</ele>
        <time>2025-06-04T15:47:48Z</time>
      </trkpt>
      <trkpt lat="43.64454" lon="1.39282">
        <ele>134</ele>
        <time>2025-06-04T15:47:49Z</time>
      </trkpt>
      <trkpt lat="43.64454" lon="1.39282">
        <ele>134</ele>
        <time>2025-06-04T15:47:50Z</time>
      </trkpt>
      <trkpt lat="43.64455" lon="1.39285">
        <ele>134</ele>
        <time>2025-06-04T15:47:51Z</time>
      </trkpt>
      <trkpt lat="43.64455" lon="1.39285">
        <ele>134</ele>
        <time>2025-06-04T15:47:52Z</time>
      </trkpt>
      <trkpt lat="43.64456" lon="1.39288">
        <ele>134</ele>
        <time>2025-06-04T15:47:53Z</time>
      </trkpt>
      <trkpt lat="43.64456" lon="1.39288">
        <ele>134</ele>
        <time>2025-06-04T15:47:54Z</time>
      </trkpt>
      <trkpt lat="43.64457" lon="1.39292">
        <ele>135</ele>
        <time>2025-06-04T15:47:55Z</time>
      </trkpt>
      <trkpt lat="43.64457" lon="1.39292">
        <ele>135</ele>
        <time>2025-06-04T15:47:56Z</time>
      </trkpt>
      <trkpt lat="43.64457" lon="1.39295">
        <ele>135</ele>
        <time>2025-06-04T15:47:57Z</time>
      </trkpt>
      <trkpt lat="43.64457" lon="1.39295">
        <ele>135</ele>
        <time>2025-06-04T15:47:58Z</time>
      </trkpt>
      <trkpt lat="43.64458" lon="1.39299">
        <ele>135</ele>
        <time>2025-06-04T15:47:59Z</time>
      </trkpt>
      <trkpt lat="43.64458" lon="1.39299">
        <ele>135</ele>
        <time>2025-06-04T15:48:00Z</time>
      </trkpt>
      <trkpt lat="43.64458" lon="1.39302">
        <ele>135</ele>
        <time>2025-06-04T15:48:01Z</time>
      </trkpt>
      <trkpt lat="43.64458" lon="1.39302">
        <ele>135</ele>
        <time>2025-06-04T15:48:02Z</time>
      </trkpt>
      <trkpt lat="43.64457" lon="1.39306">
        <ele>134</ele>
        <time>2025-06-04T15:48:03Z</time>
      </trkpt>
      <trkpt lat="43.64457" lon="1.39306">
        <ele>134</ele>
        <time>2025-06-04T15:48:04Z</time>
      </trkpt>
      <trkpt lat="43.64456" lon="1.39309">
        <ele>134</ele>
        <time>2025-06-04T15:48:05Z</time>
      </trkpt>
      <trkpt lat="43.64456" lon="1.39309">
        <ele>134</ele>
        <time>2025-06-04T15:48:06Z</time>
      </trkpt>
      <trkpt lat="43.64453" lon="1.39311">
        <ele>134</ele>
        <time>2025-06-04T15:48:07Z</time>
      </trkpt>
      <trkpt lat="43.64451" lon="1.39312">
        <ele>134</ele>
        <time>2025-06-04T15:48:08Z</time>
      </trkpt>
      <trkpt lat="43.64451" lon="1.39312">
        <ele>134</ele>
        <time>2025-06-04T15:48:09Z</time>
      </trkpt>
      <trkpt lat="43.64448" lon="1.39314">
        <ele>134</ele>
        <time>2025-06-04T15:48:10Z</time>
      </trkpt>
      <trkpt lat="43.64448" lon="1.39314">
        <ele>134</ele>
        <time>2025-06-04T15:48:11Z</time>
      </trkpt>
      <trkpt lat="43.64445" lon="1.39313">
        <ele>134</ele>
        <time>2025-06-04T15:48:12Z</time>
      </trkpt>
      <trkpt lat="43.64445" lon="1.39313">
        <ele>133</ele>
        <time>2025-06-04T15:48:13Z</time>
      </trkpt>
      <trkpt lat="43.64444" lon="1.39314">
        <ele>133</ele>
        <time>2025-06-04T15:48:14Z</time>
      </trkpt>
      <trkpt lat="43.64444" lon="1.39314">
        <ele>133</ele>
        <time>2025-06-04T15:48:15Z</time>
      </trkpt>
      <trkpt lat="43.64442" lon="1.39315">
        <ele>133</ele>
        <time>2025-06-04T15:48:16Z</time>
      </trkpt>
      <trkpt lat="43.64442" lon="1.39315">
        <ele>133</ele>
        <time>2025-06-04T15:48:17Z</time>
      </trkpt>
      <trkpt lat="43.64439" lon="1.39316">
        <ele>133</ele>
        <time>2025-06-04T15:48:18Z</time>
      </trkpt>
      <trkpt lat="43.64439" lon="1.39316">
        <ele>133</ele>
        <time>2025-06-04T15:48:19Z</time>
      </trkpt>
      <trkpt lat="43.64436" lon="1.39316">
        <ele>133</ele>
        <time>2025-06-04T15:48:20Z</time>
      </trkpt>
      <trkpt lat="43.64436" lon="1.39316">
        <ele>133</ele>
        <time>2025-06-04T15:48:21Z</time>
      </trkpt>
      <trkpt lat="43.64434" lon="1.39315">
        <ele>133</ele>
        <time>2025-06-04T15:48:22Z</time>
      </trkpt>
      <trkpt lat="43.64434" lon="1.39315">
        <ele>133</ele>
        <time>2025-06-04T15:48:23Z</time>
      </trkpt>
      <trkpt lat="43.64431" lon="1.39314">
        <ele>133</ele>
        <time>2025-06-04T15:48:24Z</time>
      </trkpt>
      <trkpt lat="43.64431" lon="1.39314">
        <ele>133</ele>
        <time>2025-06-04T15:48:25Z</time>
      </trkpt>
      <trkpt lat="43.64428" lon="1.39313">
        <ele>132</ele>
        <time>2025-06-04T15:48:26Z</time>
      </trkpt>
      <trkpt lat="43.64428" lon="1.39313">
        <ele>132</ele>
        <time>2025-06-04T15:48:27Z</time>
      </trkpt>
      <trkpt lat="43.64425" lon="1.39312">
        <ele>132</ele>
        <time>2025-06-04T15:48:28Z</time>
      </trkpt>
      <trkpt lat="43.64425" lon="1.39312">
        <ele>132</ele>
        <time>2025-06-04T15:48:29Z</time>
      </trkpt>
      <trkpt lat="43.64422" lon="1.39313">
        <ele>132</ele>
        <time>2025-06-04T15:48:30Z</time>
      </trkpt>
      <trkpt lat="43.64422" lon="1.39313">
        <ele>132</ele>
        <time>2025-06-04T15:48:31Z</time>
      </trkpt>
      <trkpt lat="43.64419" lon="1.39313">
        <ele>132</ele>
        <time>2025-06-04T15:48:32Z</time>
      </trkpt>
      <trkpt lat="43.64419" lon="1.39313">
        <ele>132</ele>
        <time>2025-06-04T15:48:33Z</time>
      </trkpt>
      <trkpt lat="43.64416" lon="1.39314">
        <ele>132</ele>
        <time>2025-06-04T15:48:34Z</time>
      </trkpt>
      <trkpt lat="43.64416" lon="1.39314">
        <ele>132</ele>
        <time>2025-06-04T15:48:35Z</time>
      </trkpt>
      <trkpt lat="43.64414" lon="1.39314">
        <ele>132</ele>
        <time>2025-06-04T15:48:36Z</time>
      </trkpt>
      <trkpt lat="43.64414" lon="1.39314">
        <ele>132</ele>
        <time>2025-06-04T15:48:37Z</time>
      </trkpt>
      <trkpt lat="43.64412" lon="1.39314">
        <ele>132</ele>
        <time>2025-06-04T15:48:38Z</time>
      </trkpt>
      <trkpt lat="43.64412" lon="1.39314">
        <ele>132</ele>
        <time>2025-06-04T15:48:39Z</time>
      </trkpt>
      <trkpt lat="43.64409" lon="1.39314">
        <ele>132</ele>
        <time>2025-06-04T15:48:40Z</time>
      </trkpt>
      <trkpt lat="43.64409" lon="1.39314">
        <ele>132</ele>
        <time>2025-06-04T15:48:41Z</time>
      </trkpt>
      <trkpt lat="43.64409" lon="1.39314">
        <ele>132</ele>
        <time>2025-06-04T15:48:42Z</time>
      </trkpt>
      <trkpt lat="43.64407" lon="1.39314">
        <ele>132</ele>
        <time>2025-06-04T15:48:43Z</time>
      </trkpt>
      <trkpt lat="43.64407" lon="1.39314">
        <ele>132</ele>
        <time>2025-06-04T15:48:44Z</time>
      </trkpt>
      <trkpt lat="43.64407" lon="1.39314">
        <ele>132</ele>
        <time>2025-06-04T15:48:45Z</time>
      </trkpt>
      <trkpt lat="43.64407" lon="1.39314">
        <ele>132</ele>
        <time>2025-06-04T15:48:46Z</time>
      </trkpt>
      <trkpt lat="43.64407" lon="1.39314">
        <ele>132</ele>
        <time>2025-06-04T15:48:47Z</time>
      </trkpt>
      <trkpt lat="43.64407" lon="1.39314">
        <ele>132</ele>
        <time>2025-06-04T15:48:48Z</time>
      </trkpt>
      <trkpt lat="43.64409" lon="1.39312">
        <ele>132</ele>
        <time>2025-06-04T15:48:49Z</time>
      </trkpt>
      <trkpt lat="43.64413" lon="1.3931">
        <ele>132</ele>
        <time>2025-06-04T15:48:50Z</time>
      </trkpt>
      <trkpt lat="43.64417" lon="1.39309">
        <ele>132</ele>
        <time>2025-06-04T15:48:51Z</time>
      </trkpt>
      <trkpt lat="43.64422" lon="1.39308">
        <ele>132</ele>
        <time>2025-06-04T15:48:52Z</time>
      </trkpt>
      <trkpt lat="43.64427" lon="1.39307">
        <ele>132</ele>
        <time>2025-06-04T15:48:53Z</time>
      </trkpt>
      <trkpt lat="43.6443" lon="1.39307">
        <ele>132</ele>
        <time>2025-06-04T15:48:54Z</time>
      </trkpt>
      <trkpt lat="43.64434" lon="1.39306">
        <ele>132</ele>
        <time>2025-06-04T15:48:55Z</time>
      </trkpt>
      <trkpt lat="43.64438" lon="1.39306">
        <ele>132</ele>
        <time>2025-06-04T15:48:56Z</time>
      </trkpt>
      <trkpt lat="43.64438" lon="1.39306">
        <ele>133</ele>
        <time>2025-06-04T15:48:57Z</time>
      </trkpt>
      <trkpt lat="43.64441" lon="1.39306">
        <ele>133</ele>
        <time>2025-06-04T15:48:58Z</time>
      </trkpt>
      <trkpt lat="43.64445" lon="1.39306">
        <ele>133</ele>
        <time>2025-06-04T15:48:59Z</time>
      </trkpt>
      <trkpt lat="43.64448" lon="1.39306">
        <ele>134</ele>
        <time>2025-06-04T15:49:00Z</time>
      </trkpt>
      <trkpt lat="43.64451" lon="1.39301">
        <ele>134</ele>
        <time>2025-06-04T15:49:01Z</time>
      </trkpt>
      <trkpt lat="43.64454" lon="1.39297">
        <ele>134</ele>
        <time>2025-06-04T15:49:02Z</time>
      </trkpt>
      <trkpt lat="43.64457" lon="1.39293">
        <ele>135</ele>
        <time>2025-06-04T15:49:03Z</time>
      </trkpt>
      <trkpt lat="43.64455" lon="1.39289">
        <ele>135</ele>
        <time>2025-06-04T15:49:04Z</time>
      </trkpt>
      <trkpt lat="43.64455" lon="1.39289">
        <ele>135</ele>
        <time>2025-06-04T15:49:05Z</time>
      </trkpt>
      <trkpt lat="43.64453" lon="1.39282">
        <ele>135</ele>
        <time>2025-06-04T15:49:06Z</time>
      </trkpt>
      <trkpt lat="43.64451" lon="1.39276">
        <ele>135</ele>
        <time>2025-06-04T15:49:07Z</time>
      </trkpt>
      <trkpt lat="43.64449" lon="1.39269">
        <ele>135</ele>
        <time>2025-06-04T15:49:08Z</time>
      </trkpt>
      <trkpt lat="43.64448" lon="1.39266">
        <ele>135</ele>
        <time>2025-06-04T15:49:09Z</time>
      </trkpt>
      <trkpt lat="43.64444" lon="1.39254">
        <ele>135</ele>
        <time>2025-06-04T15:49:10Z</time>
      </trkpt>
      <trkpt lat="43.64443" lon="1.39251">
        <ele>135</ele>
        <time>2025-06-04T15:49:11Z</time>
      </trkpt>
      <trkpt lat="43.64441" lon="1.39247">
        <ele>134</ele>
        <time>2025-06-04T15:49:12Z</time>
      </trkpt>
      <trkpt lat="43.64439" lon="1.39242">
        <ele>134</ele>
        <time>2025-06-04T15:49:13Z</time>
      </trkpt>
      <trkpt lat="43.64437" lon="1.39238">
        <ele>134</ele>
        <time>2025-06-04T15:49:14Z</time>
      </trkpt>
      <trkpt lat="43.64437" lon="1.39238">
        <ele>134</ele>
        <time>2025-06-04T15:49:15Z</time>
      </trkpt>
      <trkpt lat="43.64431" lon="1.39227">
        <ele>134</ele>
        <time>2025-06-04T15:49:16Z</time>
      </trkpt>
      <trkpt lat="43.6443" lon="1.39225">
        <ele>134</ele>
        <time>2025-06-04T15:49:17Z</time>
      </trkpt>
      <trkpt lat="43.64427" lon="1.3922">
        <ele>134</ele>
        <time>2025-06-04T15:49:18Z</time>
      </trkpt>
      <trkpt lat="43.64425" lon="1.39216">
        <ele>135</ele>
        <time>2025-06-04T15:49:19Z</time>
      </trkpt>
      <trkpt lat="43.64423" lon="1.39212">
        <ele>135</ele>
        <time>2025-06-04T15:49:20Z</time>
      </trkpt>
      <trkpt lat="43.6442" lon="1.39208">
        <ele>135</ele>
        <time>2025-06-04T15:49:21Z</time>
      </trkpt>
      <trkpt lat="43.64418" lon="1.39203">
        <ele>136</ele>
        <time>2025-06-04T15:49:22Z</time>
      </trkpt>
      <trkpt lat="43.64417" lon="1.392">
        <ele>136</ele>
        <time>2025-06-04T15:49:23Z</time>
      </trkpt>
      <trkpt lat="43.64415" lon="1.39195">
        <ele>136</ele>
        <time>2025-06-04T15:49:24Z</time>
      </trkpt>
      <trkpt lat="43.64413" lon="1.39191">
        <ele>136</ele>
        <time>2025-06-04T15:49:25Z</time>
      </trkpt>
      <trkpt lat="43.64412" lon="1.39186">
        <ele>137</ele>
        <time>2025-06-04T15:49:26Z</time>
      </trkpt>
      <trkpt lat="43.6441" lon="1.39181">
        <ele>137</ele>
        <time>2025-06-04T15:49:27Z</time>
      </trkpt>
      <trkpt lat="43.6441" lon="1.39177">
        <ele>137</ele>
        <time>2025-06-04T15:49:28Z</time>
      </trkpt>
      <trkpt lat="43.64409" lon="1.39172">
        <ele>138</ele>
        <time>2025-06-04T15:49:29Z</time>
      </trkpt>
      <trkpt lat="43.64409" lon="1.39168">
        <ele>138</ele>
        <time>2025-06-04T15:49:30Z</time>
      </trkpt>
      <trkpt lat="43.6441" lon="1.39163">
        <ele>138</ele>
        <time>2025-06-04T15:49:31Z</time>
      </trkpt>
      <trkpt lat="43.6441" lon="1.39163">
        <ele>139</ele>
        <time>2025-06-04T15:49:32Z</time>
      </trkpt>
      <trkpt lat="43.6441" lon="1.39159">
        <ele>139</ele>
        <time>2025-06-04T15:49:33Z</time>
      </trkpt>
      <trkpt lat="43.64411" lon="1.39154">
        <ele>139</ele>
        <time>2025-06-04T15:49:34Z</time>
      </trkpt>
      <trkpt lat="43.64412" lon="1.3915">
        <ele>140</ele>
        <time>2025-06-04T15:49:35Z</time>
      </trkpt>
      <trkpt lat="43.64412" lon="1.39146">
        <ele>140</ele>
        <time>2025-06-04T15:49:36Z</time>
      </trkpt>
      <trkpt lat="43.64413" lon="1.39142">
        <ele>140</ele>
        <time>2025-06-04T15:49:37Z</time>
      </trkpt>
      <trkpt lat="43.64413" lon="1.39138">
        <ele>141</ele>
        <time>2025-06-04T15:49:38Z</time>
      </trkpt>
      <trkpt lat="43.64414" lon="1.39134">
        <ele>141</ele>
        <time>2025-06-04T15:49:39Z</time>
      </trkpt>
      <trkpt lat="43.64415" lon="1.3913">
        <ele>141</ele>
        <time>2025-06-04T15:49:40Z</time>
      </trkpt>
      <trkpt lat="43.64417" lon="1.39125">
        <ele>141</ele>
        <time>2025-06-04T15:49:41Z</time>
      </trkpt>
      <trkpt lat="43.64418" lon="1.3912">
        <ele>142</ele>
        <time>2025-06-04T15:49:42Z</time>
      </trkpt>
      <trkpt lat="43.64419" lon="1.39117">
        <ele>142</ele>
        <time>2025-06-04T15:49:43Z</time>
      </trkpt>
      <trkpt lat="43.64419" lon="1.39117">
        <ele>143</ele>
        <time>2025-06-04T15:49:44Z</time>
      </trkpt>
      <trkpt lat="43.64419" lon="1.39117">
        <ele>144</ele>
        <time>2025-06-04T15:49:45Z</time>
      </trkpt>
      <trkpt lat="43.64419" lon="1.39117">
        <ele>144</ele>
        <time>2025-06-04T15:49:46Z</time>
      </trkpt>
      <trkpt lat="43.64419" lon="1.39117">
        <ele>144</ele>
        <time>2025-06-04T15:49:47Z</time>
      </trkpt>
      <trkpt lat="43.64419" lon="1.3912">
        <ele>144</ele>
        <time>2025-06-04T15:49:48Z</time>
      </trkpt>
      <trkpt lat="43.64419" lon="1.3912">
        <ele>144</ele>
        <time>2025-06-04T15:49:49Z</time>
      </trkpt>
      <trkpt lat="43.64419" lon="1.39123">
        <ele>144</ele>
        <time>2025-06-04T15:49:50Z</time>
      </trkpt>
      <trkpt lat="43.64419" lon="1.39123">
        <ele>144</ele>
        <time>2025-06-04T15:49:51Z</time>
      </trkpt>
      <trkpt lat="43.64418" lon="1.39128">
        <ele>144</ele>
        <time>2025-06-04T15:49:52Z</time>
      </trkpt>
      <trkpt lat="43.64418" lon="1.39128">
        <ele>143</ele>
        <time>2025-06-04T15:49:53Z</time>
      </trkpt>
      <trkpt lat="43.64418" lon="1.39132">
        <ele>143</ele>
        <time>2025-06-04T15:49:54Z</time>
      </trkpt>
      <trkpt lat="43.64418" lon="1.39135">
        <ele>143</ele>
        <time>2025-06-04T15:49:55Z</time>
      </trkpt>
      <trkpt lat="43.64417" lon="1.39137">
        <ele>143</ele>
        <time>2025-06-04T15:49:56Z</time>
      </trkpt>
      <trkpt lat="43.64417" lon="1.39137">
        <ele>142</ele>
        <time>2025-06-04T15:49:57Z</time>
      </trkpt>
      <trkpt lat="43.64417" lon="1.39141">
        <ele>142</ele>
        <time>2025-06-04T15:49:58Z</time>
      </trkpt>
      <trkpt lat="43.64417" lon="1.39145">
        <ele>142</ele>
        <time>2025-06-04T15:49:59Z</time>
      </trkpt>
      <trkpt lat="43.64416" lon="1.39147">
        <ele>141</ele>
        <time>2025-06-04T15:50:00Z</time>
      </trkpt>
      <trkpt lat="43.64415" lon="1.39151">
        <ele>141</ele>
        <time>2025-06-04T15:50:01Z</time>
      </trkpt>
      <trkpt lat="43.64415" lon="1.39154">
        <ele>141</ele>
        <time>2025-06-04T15:50:02Z</time>
      </trkpt>
      <trkpt lat="43.64415" lon="1.39157">
        <ele>141</ele>
        <time>2025-06-04T15:50:03Z</time>
      </trkpt>
      <trkpt lat="43.64415" lon="1.3916">
        <ele>140</ele>
        <time>2025-06-04T15:50:04Z</time>
      </trkpt>
      <trkpt lat="43.64415" lon="1.39164">
        <ele>140</ele>
        <time>2025-06-04T15:50:05Z</time>
      </trkpt>
      <trkpt lat="43.64415" lon="1.39167">
        <ele>140</ele>
        <time>2025-06-04T15:50:06Z</time>
      </trkpt>
      <trkpt lat="43.64415" lon="1.39169">
        <ele>140</ele>
        <time>2025-06-04T15:50:07Z</time>
      </trkpt>
      <trkpt lat="43.64415" lon="1.39172">
        <ele>139</ele>
        <time>2025-06-04T15:50:08Z</time>
      </trkpt>
      <trkpt lat="43.64415" lon="1.39172">
        <ele>139</ele>
        <time>2025-06-04T15:50:09Z</time>
      </trkpt>
      <trkpt lat="43.64415" lon="1.39177">
        <ele>139</ele>
        <time>2025-06-04T15:50:10Z</time>
      </trkpt>
      <trkpt lat="43.64415" lon="1.3918">
        <ele>139</ele>
        <time>2025-06-04T15:50:11Z</time>
      </trkpt>
      <trkpt lat="43.64415" lon="1.39182">
        <ele>138</ele>
        <time>2025-06-04T15:50:12Z</time>
      </trkpt>
      <trkpt lat="43.64415" lon="1.39185">
        <ele>138</ele>
        <time>2025-06-04T15:50:13Z</time>
      </trkpt>
      <trkpt lat="43.64416" lon="1.39188">
        <ele>138</ele>
        <time>2025-06-04T15:50:14Z</time>
      </trkpt>
      <trkpt lat="43.64416" lon="1.3919">
        <ele>138</ele>
        <time>2025-06-04T15:50:15Z</time>
      </trkpt>
      <trkpt lat="43.64417" lon="1.39193">
        <ele>137</ele>
        <time>2025-06-04T15:50:16Z</time>
      </trkpt>
      <trkpt lat="43.64418" lon="1.39195">
        <ele>137</ele>
        <time>2025-06-04T15:50:17Z</time>
      </trkpt>
      <trkpt lat="43.64418" lon="1.39195">
        <ele>137</ele>
        <time>2025-06-04T15:50:18Z</time>
      </trkpt>
      <trkpt lat="43.6442" lon="1.392">
        <ele>137</ele>
        <time>2025-06-04T15:50:19Z</time>
      </trkpt>
      <trkpt lat="43.64421" lon="1.39202">
        <ele>137</ele>
        <time>2025-06-04T15:50:20Z</time>
      </trkpt>
      <trkpt lat="43.64422" lon="1.39204">
        <ele>137</ele>
        <time>2025-06-04T15:50:21Z</time>
      </trkpt>
      <trkpt lat="43.64423" lon="1.39206">
        <ele>137</ele>
        <time>2025-06-04T15:50:22Z</time>
      </trkpt>
      <trkpt lat="43.64424" lon="1.39209">
        <ele>137</ele>
        <time>2025-06-04T15:50:23Z</time>
      </trkpt>
      <trkpt lat="43.64426" lon="1.39211">
        <ele>137</ele>
        <time>2025-06-04T15:50:24Z</time>
      </trkpt>
      <trkpt lat="43.64427" lon="1.39212">
        <ele>137</ele>
        <time>2025-06-04T15:50:25Z</time>
      </trkpt>
      <trkpt lat="43.64429" lon="1.39214">
        <ele>137</ele>
        <time>2025-06-04T15:50:26Z</time>
      </trkpt>
      <trkpt lat="43.6443" lon="1.39216">
        <ele>137</ele>
        <time>2025-06-04T15:50:27Z</time>
      </trkpt>
      <trkpt lat="43.64432" lon="1.39218">
        <ele>136</ele>
        <time>2025-06-04T15:50:28Z</time>
      </trkpt>
      <trkpt lat="43.64433" lon="1.39221">
        <ele>136</ele>
        <time>2025-06-04T15:50:29Z</time>
      </trkpt>
      <trkpt lat="43.64434" lon="1.39224">
        <ele>135</ele>
        <time>2025-06-04T15:50:30Z</time>
      </trkpt>
      <trkpt lat="43.64435" lon="1.39226">
        <ele>136</ele>
        <time>2025-06-04T15:50:31Z</time>
      </trkpt>
      <trkpt lat="43.64436" lon="1.39229">
        <ele>136</ele>
        <time>2025-06-04T15:50:32Z</time>
      </trkpt>
      <trkpt lat="43.64437" lon="1.39231">
        <ele>136</ele>
        <time>2025-06-04T15:50:33Z</time>
      </trkpt>
      <trkpt lat="43.64439" lon="1.39234">
        <ele>135</ele>
        <time>2025-06-04T15:50:34Z</time>
      </trkpt>
      <trkpt lat="43.64439" lon="1.39236">
        <ele>135</ele>
        <time>2025-06-04T15:50:35Z</time>
      </trkpt>
      <trkpt lat="43.64441" lon="1.39238">
        <ele>134</ele>
        <time>2025-06-04T15:50:36Z</time>
      </trkpt>
      <trkpt lat="43.64442" lon="1.39241">
        <ele>134</ele>
        <time>2025-06-04T15:50:37Z</time>
      </trkpt>
      <trkpt lat="43.64443" lon="1.39243">
        <ele>134</ele>
        <time>2025-06-04T15:50:38Z</time>
      </trkpt>
      <trkpt lat="43.64444" lon="1.39246">
        <ele>134</ele>
        <time>2025-06-04T15:50:39Z</time>
      </trkpt>
      <trkpt lat="43.64445" lon="1.39249">
        <ele>134</ele>
        <time>2025-06-04T15:50:40Z</time>
      </trkpt>
      <trkpt lat="43.64446" lon="1.39251">
        <ele>134</ele>
        <time>2025-06-04T15:50:41Z</time>
      </trkpt>
      <trkpt lat="43.64447" lon="1.39254">
        <ele>134</ele>
        <time>2025-06-04T15:50:42Z</time>
      </trkpt>
      <trkpt lat="43.64448" lon="1.39256">
        <ele>134</ele>
        <time>2025-06-04T15:50:43Z</time>
      </trkpt>
      <trkpt lat="43.64449" lon="1.39259">
        <ele>134</ele>
        <time>2025-06-04T15:50:44Z</time>
      </trkpt>
      <trkpt lat="43.6445" lon="1.39261">
        <ele>134</ele>
        <time>2025-06-04T15:50:45Z</time>
      </trkpt>
      <trkpt lat="43.64452" lon="1.39264">
        <ele>134</ele>
        <time>2025-06-04T15:50:46Z</time>
      </trkpt>
      <trkpt lat="43.64452" lon="1.39266">
        <ele>134</ele>
        <time>2025-06-04T15:50:47Z</time>
      </trkpt>
      <trkpt lat="43.64453" lon="1.39269">
        <ele>134</ele>
        <time>2025-06-04T15:50:48Z</time>
      </trkpt>
      <trkpt lat="43.64454" lon="1.39272">
        <ele>134</ele>
        <time>2025-06-04T15:50:49Z</time>
      </trkpt>
      <trkpt lat="43.64454" lon="1.39274">
        <ele>134</ele>
        <time>2025-06-04T15:50:50Z</time>
      </trkpt>
      <trkpt lat="43.64455" lon="1.39277">
        <ele>134</ele>
        <time>2025-06-04T15:50:51Z</time>
      </trkpt>
      <trkpt lat="43.64455" lon="1.3928">
        <ele>134</ele>
        <time>2025-06-04T15:50:52Z</time>
      </trkpt>
      <trkpt lat="43.64456" lon="1.39283">
        <ele>134</ele>
        <time>2025-06-04T15:50:53Z</time>
      </trkpt>
      <trkpt lat="43.64456" lon="1.39287">
        <ele>134</ele>
        <time>2025-06-04T15:50:54Z</time>
      </trkpt>
      <trkpt lat="43.64457" lon="1.3929">
        <ele>134</ele>
        <time>2025-06-04T15:50:55Z</time>
      </trkpt>
      <trkpt lat="43.64457" lon="1.39293">
        <ele>134</ele>
        <time>2025-06-04T15:50:56Z</time>
      </trkpt>
      <trkpt lat="43.64458" lon="1.39296">
        <ele>134</ele>
        <time>2025-06-04T15:50:57Z</time>
      </trkpt>
      <trkpt lat="43.64459" lon="1.39299">
        <ele>134</ele>
        <time>2025-06-04T15:50:58Z</time>
      </trkpt>
      <trkpt lat="43.64459" lon="1.39302">
        <ele>134</ele>
        <time>2025-06-04T15:50:59Z</time>
      </trkpt>
      <trkpt lat="43.64459" lon="1.39302">
        <ele>134</ele>
        <time>2025-06-04T15:51:00Z</time>
      </trkpt>
      <trkpt lat="43.64458" lon="1.39306">
        <ele>134</ele>
        <time>2025-06-04T15:51:01Z</time>
      </trkpt>
      <trkpt lat="43.64456" lon="1.39308">
        <ele>134</ele>
        <time>2025-06-04T15:51:02Z</time>
      </trkpt>
      <trkpt lat="43.64454" lon="1.3931">
        <ele>134</ele>
        <time>2025-06-04T15:51:03Z</time>
      </trkpt>
      <trkpt lat="43.64451" lon="1.39312">
        <ele>134</ele>
        <time>2025-06-04T15:51:04Z</time>
      </trkpt>
      <trkpt lat="43.64449" lon="1.39313">
        <ele>134</ele>
        <time>2025-06-04T15:51:05Z</time>
      </trkpt>
      <trkpt lat="43.64447" lon="1.39313">
        <ele>133</ele>
        <time>2025-06-04T15:51:06Z</time>
      </trkpt>
      <trkpt lat="43.64445" lon="1.39312">
        <ele>133</ele>
        <time>2025-06-04T15:51:07Z</time>
      </trkpt>
      <trkpt lat="43.64442" lon="1.39312">
        <ele>133</ele>
        <time>2025-06-04T15:51:08Z</time>
      </trkpt>
      <trkpt lat="43.64441" lon="1.39312">
        <ele>133</ele>
        <time>2025-06-04T15:51:09Z</time>
      </trkpt>
      <trkpt lat="43.64438" lon="1.39312">
        <ele>132</ele>
        <time>2025-06-04T15:51:10Z</time>
      </trkpt>
      <trkpt lat="43.64435" lon="1.39313">
        <ele>132</ele>
        <time>2025-06-04T15:51:11Z</time>
      </trkpt>
      <trkpt lat="43.64433" lon="1.39313">
        <ele>132</ele>
        <time>2025-06-04T15:51:12Z</time>
      </trkpt>
      <trkpt lat="43.6443" lon="1.39313">
        <ele>132</ele>
        <time>2025-06-04T15:51:13Z</time>
      </trkpt>
      <trkpt lat="43.64428" lon="1.39313">
        <ele>132</ele>
        <time>2025-06-04T15:51:14Z</time>
      </trkpt>
      <trkpt lat="43.64425" lon="1.39314">
        <ele>132</ele>
        <time>2025-06-04T15:51:15Z</time>
      </trkpt>
      <trkpt lat="43.64423" lon="1.39314">
        <ele>132</ele>
        <time>2025-06-04T15:51:16Z</time>
      </trkpt>
      <trkpt lat="43.64421" lon="1.39314">
        <ele>132</ele>
        <time>2025-06-04T15:51:17Z</time>
      </trkpt>
      <trkpt lat="43.64419" lon="1.39314">
        <ele>132</ele>
        <time>2025-06-04T15:51:18Z</time>
      </trkpt>
      <trkpt lat="43.64416" lon="1.39314">
        <ele>132</ele>
        <time>2025-06-04T15:51:19Z</time>
      </trkpt>
      <trkpt lat="43.64414" lon="1.39315">
        <ele>132</ele>
        <time>2025-06-04T15:51:20Z</time>
      </trkpt>
      <trkpt lat="43.64412" lon="1.39315">
        <ele>132</ele>
        <time>2025-06-04T15:51:21Z</time>
      </trkpt>
      <trkpt lat="43.6441" lon="1.39315">
        <ele>132</ele>
        <time>2025-06-04T15:51:22Z</time>
      </trkpt>
      <trkpt lat="43.6441" lon="1.39315">
        <ele>131</ele>
        <time>2025-06-04T15:51:23Z</time>
      </trkpt>
      <trkpt lat="43.64407" lon="1.39315">
        <ele>131</ele>
        <time>2025-06-04T15:51:24Z</time>
      </trkpt>
      <trkpt lat="43.64407" lon="1.39315">
        <ele>131</ele>
        <time>2025-06-04T15:51:25Z</time>
      </trkpt>
      <trkpt lat="43.64405" lon="1.39315">
        <ele>131</ele>
        <time>2025-06-04T15:51:26Z</time>
      </trkpt>
      <trkpt lat="43.64405" lon="1.39315">
        <ele>131</ele>
        <time>2025-06-04T15:51:27Z</time>
      </trkpt>
      <trkpt lat="43.64405" lon="1.39315">
        <ele>131</ele>
        <time>2025-06-04T15:51:28Z</time>
      </trkpt>
      <trkpt lat="43.64408" lon="1.39313">
        <ele>131</ele>
        <time>2025-06-04T15:51:29Z</time>
      </trkpt>
      <trkpt lat="43.6441" lon="1.39312">
        <ele>131</ele>
        <time>2025-06-04T15:51:30Z</time>
      </trkpt>
      <trkpt lat="43.64414" lon="1.39311">
        <ele>131</ele>
        <time>2025-06-04T15:51:31Z</time>
      </trkpt>
      <trkpt lat="43.64418" lon="1.3931">
        <ele>131</ele>
        <time>2025-06-04T15:51:32Z</time>
      </trkpt>
      <trkpt lat="43.64422" lon="1.39308">
        <ele>131</ele>
        <time>2025-06-04T15:51:33Z</time>
      </trkpt>
      <trkpt lat="43.64426" lon="1.39307">
        <ele>131</ele>
        <time>2025-06-04T15:51:34Z</time>
      </trkpt>
      <trkpt lat="43.6443" lon="1.39305">
        <ele>131</ele>
        <time>2025-06-04T15:51:35Z</time>
      </trkpt>
      <trkpt lat="43.64434" lon="1.39304">
        <ele>131</ele>
        <time>2025-06-04T15:51:36Z</time>
      </trkpt>
      <trkpt lat="43.64438" lon="1.39303">
        <ele>131</ele>
        <time>2025-06-04T15:51:37Z</time>
      </trkpt>
      <trkpt lat="43.64443" lon="1.39303">
        <ele>131</ele>
        <time>2025-06-04T15:51:38Z</time>
      </trkpt>
      <trkpt lat="43.64446" lon="1.39303">
        <ele>132</ele>
        <time>2025-06-04T15:51:39Z</time>
      </trkpt>
      <trkpt lat="43.64449" lon="1.39302">
        <ele>132</ele>
        <time>2025-06-04T15:51:40Z</time>
      </trkpt>
      <trkpt lat="43.64453" lon="1.39302">
        <ele>132</ele>
        <time>2025-06-04T15:51:41Z</time>
      </trkpt>
      <trkpt lat="43.64455" lon="1.39301">
        <ele>133</ele>
        <time>2025-06-04T15:51:42Z</time>
      </trkpt>
      <trkpt lat="43.64457" lon="1.39297">
        <ele>133</ele>
        <time>2025-06-04T15:51:43Z</time>
      </trkpt>
      <trkpt lat="43.64458" lon="1.39292">
        <ele>133</ele>
        <time>2025-06-04T15:51:44Z</time>
      </trkpt>
      <trkpt lat="43.64457" lon="1.39287">
        <ele>133</ele>
        <time>2025-06-04T15:51:45Z</time>
      </trkpt>
      <trkpt lat="43.64456" lon="1.39282">
        <ele>133</ele>
        <time>2025-06-04T15:51:46Z</time>
      </trkpt>
      <trkpt lat="43.64454" lon="1.39278">
        <ele>134</ele>
        <time>2025-06-04T15:51:47Z</time>
      </trkpt>
      <trkpt lat="43.64453" lon="1.39274">
        <ele>134</ele>
        <time>2025-06-04T15:51:48Z</time>
      </trkpt>
      <trkpt lat="43.64451" lon="1.3927">
        <ele>134</ele>
        <time>2025-06-04T15:51:49Z</time>
      </trkpt>
      <trkpt lat="43.6445" lon="1.39264">
        <ele>134</ele>
        <time>2025-06-04T15:51:50Z</time>
      </trkpt>
      <trkpt lat="43.64448" lon="1.3926">
        <ele>134</ele>
        <time>2025-06-04T15:51:51Z</time>
      </trkpt>
      <trkpt lat="43.64445" lon="1.39255">
        <ele>134</ele>
        <time>2025-06-04T15:51:52Z</time>
      </trkpt>
      <trkpt lat="43.64443" lon="1.3925">
        <ele>134</ele>
        <time>2025-06-04T15:51:53Z</time>
      </trkpt>
      <trkpt lat="43.64441" lon="1.39246">
        <ele>134</ele>
        <time>2025-06-04T15:51:54Z</time>
      </trkpt>
      <trkpt lat="43.64438" lon="1.39242">
        <ele>134</ele>
        <time>2025-06-04T15:51:55Z</time>
      </trkpt>
      <trkpt lat="43.64436" lon="1.39238">
        <ele>134</ele>
        <time>2025-06-04T15:51:56Z</time>
      </trkpt>
      <trkpt lat="43.64434" lon="1.39233">
        <ele>135</ele>
        <time>2025-06-04T15:51:57Z</time>
      </trkpt>
      <trkpt lat="43.64432" lon="1.39229">
        <ele>135</ele>
        <time>2025-06-04T15:51:58Z</time>
      </trkpt>
      <trkpt lat="43.6443" lon="1.39225">
        <ele>135</ele>
        <time>2025-06-04T15:51:59Z</time>
      </trkpt>
      <trkpt lat="43.64427" lon="1.3922">
        <ele>134</ele>
        <time>2025-06-04T15:52:00Z</time>
      </trkpt>
      <trkpt lat="43.64424" lon="1.39216">
        <ele>134</ele>
        <time>2025-06-04T15:52:01Z</time>
      </trkpt>
      <trkpt lat="43.64422" lon="1.39212">
        <ele>134</ele>
        <time>2025-06-04T15:52:02Z</time>
      </trkpt>
      <trkpt lat="43.6442" lon="1.39208">
        <ele>134</ele>
        <time>2025-06-04T15:52:03Z</time>
      </trkpt>
      <trkpt lat="43.64418" lon="1.39204">
        <ele>135</ele>
        <time>2025-06-04T15:52:04Z</time>
      </trkpt>
      <trkpt lat="43.64416" lon="1.392">
        <ele>135</ele>
        <time>2025-06-04T15:52:05Z</time>
      </trkpt>
      <trkpt lat="43.64414" lon="1.39196">
        <ele>136</ele>
        <time>2025-06-04T15:52:06Z</time>
      </trkpt>
      <trkpt lat="43.64413" lon="1.39191">
        <ele>136</ele>
        <time>2025-06-04T15:52:07Z</time>
      </trkpt>
      <trkpt lat="43.64412" lon="1.39187">
        <ele>137</ele>
        <time>2025-06-04T15:52:08Z</time>
      </trkpt>
      <trkpt lat="43.64411" lon="1.39182">
        <ele>137</ele>
        <time>2025-06-04T15:52:09Z</time>
      </trkpt>
      <trkpt lat="43.6441" lon="1.39178">
        <ele>137</ele>
        <time>2025-06-04T15:52:10Z</time>
      </trkpt>
      <trkpt lat="43.6441" lon="1.39173">
        <ele>137</ele>
        <time>2025-06-04T15:52:11Z</time>
      </trkpt>
      <trkpt lat="43.64409" lon="1.39168">
        <ele>137</ele>
        <time>2025-06-04T15:52:12Z</time>
      </trkpt>
      <trkpt lat="43.64409" lon="1.39168">
        <ele>138</ele>
        <time>2025-06-04T15:52:13Z</time>
      </trkpt>
      <trkpt lat="43.6441" lon="1.39159">
        <ele>138</ele>
        <time>2025-06-04T15:52:14Z</time>
      </trkpt>
      <trkpt lat="43.6441" lon="1.39159">
        <ele>138</ele>
        <time>2025-06-04T15:52:15Z</time>
      </trkpt>
      <trkpt lat="43.6441" lon="1.39155">
        <ele>138</ele>
        <time>2025-06-04T15:52:16Z</time>
      </trkpt>
      <trkpt lat="43.6441" lon="1.39152">
        <ele>139</ele>
        <time>2025-06-04T15:52:17Z</time>
      </trkpt>
      <trkpt lat="43.64411" lon="1.39148">
        <ele>140</ele>
        <time>2025-06-04T15:52:18Z</time>
      </trkpt>
      <trkpt lat="43.64411" lon="1.39144">
        <ele>140</ele>
        <time>2025-06-04T15:52:19Z</time>
      </trkpt>
      <trkpt lat="43.64412" lon="1.3914">
        <ele>140</ele>
        <time>2025-06-04T15:52:20Z</time>
      </trkpt>
      <trkpt lat="43.64413" lon="1.39137">
        <ele>141</ele>
        <time>2025-06-04T15:52:21Z</time>
      </trkpt>
      <trkpt lat="43.64414" lon="1.39133">
        <ele>141</ele>
        <time>2025-06-04T15:52:22Z</time>
      </trkpt>
      <trkpt lat="43.64415" lon="1.39129">
        <ele>141</ele>
        <time>2025-06-04T15:52:23Z</time>
      </trkpt>
      <trkpt lat="43.64416" lon="1.39126">
        <ele>142</ele>
        <time>2025-06-04T15:52:24Z</time>
      </trkpt>
      <trkpt lat="43.64418" lon="1.39124">
        <ele>143</ele>
        <time>2025-06-04T15:52:25Z</time>
      </trkpt>
      <trkpt lat="43.64419" lon="1.39121">
        <ele>143</ele>
        <time>2025-06-04T15:52:26Z</time>
      </trkpt>
      <trkpt lat="43.6442" lon="1.39118">
        <ele>143</ele>
        <time>2025-06-04T15:52:27Z</time>
      </trkpt>
      <trkpt lat="43.6442" lon="1.39118">
        <ele>143</ele>
        <time>2025-06-04T15:52:28Z</time>
      </trkpt>
      <trkpt lat="43.6442" lon="1.39118">
        <ele>143</ele>
        <time>2025-06-04T15:52:29Z</time>
      </trkpt>
      <trkpt lat="43.6442" lon="1.39121">
        <ele>143</ele>
        <time>2025-06-04T15:52:30Z</time>
      </trkpt>
      <trkpt lat="43.6442" lon="1.39121">
        <ele>143</ele>
        <time>2025-06-04T15:52:31Z</time>
      </trkpt>
      <trkpt lat="43.64419" lon="1.39124">
        <ele>143</ele>
        <time>2025-06-04T15:52:32Z</time>
      </trkpt>
      <trkpt lat="43.64419" lon="1.39124">
        <ele>143</ele>
        <time>2025-06-04T15:52:33Z</time>
      </trkpt>
      <trkpt lat="43.64418" lon="1.39129">
        <ele>142</ele>
        <time>2025-06-04T15:52:34Z</time>
      </trkpt>
      <trkpt lat="43.64418" lon="1.39129">
        <ele>142</ele>
        <time>2025-06-04T15:52:35Z</time>
      </trkpt>
      <trkpt lat="43.64417" lon="1.39134">
        <ele>142</ele>
        <time>2025-06-04T15:52:36Z</time>
      </trkpt>
      <trkpt lat="43.64417" lon="1.39134">
        <ele>142</ele>
        <time>2025-06-04T15:52:37Z</time>
      </trkpt>
      <trkpt lat="43.64417" lon="1.39138">
        <ele>142</ele>
        <time>2025-06-04T15:52:38Z</time>
      </trkpt>
      <trkpt lat="43.64417" lon="1.39138">
        <ele>142</ele>
        <time>2025-06-04T15:52:39Z</time>
      </trkpt>
      <trkpt lat="43.64416" lon="1.39143">
        <ele>142</ele>
        <time>2025-06-04T15:52:40Z</time>
      </trkpt>
      <trkpt lat="43.64415" lon="1.39145">
        <ele>142</ele>
        <time>2025-06-04T15:52:41Z</time>
      </trkpt>
      <trkpt lat="43.64415" lon="1.39148">
        <ele>142</ele>
        <time>2025-06-04T15:52:42Z</time>
      </trkpt>
      <trkpt lat="43.64414" lon="1.39151">
        <ele>141</ele>
        <time>2025-06-04T15:52:43Z</time>
      </trkpt>
      <trkpt lat="43.64413" lon="1.39153">
        <ele>141</ele>
        <time>2025-06-04T15:52:44Z</time>
      </trkpt>
      <trkpt lat="43.64413" lon="1.39153">
        <ele>141</ele>
        <time>2025-06-04T15:52:45Z</time>
      </trkpt>
      <trkpt lat="43.64413" lon="1.39158">
        <ele>141</ele>
        <time>2025-06-04T15:52:46Z</time>
      </trkpt>
      <trkpt lat="43.64413" lon="1.39161">
        <ele>141</ele>
        <time>2025-06-04T15:52:47Z</time>
      </trkpt>
      <trkpt lat="43.64412" lon="1.39164">
        <ele>141</ele>
        <time>2025-06-04T15:52:48Z</time>
      </trkpt>
      <trkpt lat="43.64412" lon="1.39167">
        <ele>140</ele>
        <time>2025-06-04T15:52:49Z</time>
      </trkpt>
      <trkpt lat="43.64412" lon="1.3917">
        <ele>140</ele>
        <time>2025-06-04T15:52:50Z</time>
      </trkpt>
      <trkpt lat="43.64412" lon="1.39172">
        <ele>140</ele>
        <time>2025-06-04T15:52:51Z</time>
      </trkpt>
      <trkpt lat="43.64413" lon="1.39175">
        <ele>139</ele>
        <time>2025-06-04T15:52:52Z</time>
      </trkpt>
      <trkpt lat="43.64413" lon="1.39178">
        <ele>138</ele>
        <time>2025-06-04T15:52:53Z</time>
      </trkpt>
      <trkpt lat="43.64413" lon="1.39181">
        <ele>138</ele>
        <time>2025-06-04T15:52:54Z</time>
      </trkpt>
      <trkpt lat="43.64413" lon="1.39183">
        <ele>138</ele>
        <time>2025-06-04T15:52:55Z</time>
      </trkpt>
      <trkpt lat="43.64413" lon="1.39183">
        <ele>138</ele>
        <time>2025-06-04T15:52:56Z</time>
      </trkpt>
      <trkpt lat="43.64414" lon="1.39189">
        <ele>138</ele>
        <time>2025-06-04T15:52:57Z</time>
      </trkpt>
      <trkpt lat="43.64414" lon="1.39191">
        <ele>138</ele>
        <time>2025-06-04T15:52:58Z</time>
      </trkpt>
      <trkpt lat="43.64414" lon="1.39191">
        <ele>137</ele>
        <time>2025-06-04T15:52:59Z</time>
      </trkpt>
      <trkpt lat="43.64415" lon="1.39196">
        <ele>137</ele>
        <time>2025-06-04T15:53:00Z</time>
      </trkpt>
      <trkpt lat="43.64415" lon="1.39196">
        <ele>137</ele>
        <time>2025-06-04T15:53:01Z</time>
      </trkpt>
      <trkpt lat="43.64417" lon="1.39199">
        <ele>137</ele>
        <time>2025-06-04T15:53:02Z</time>
      </trkpt>
      <trkpt lat="43.64417" lon="1.39199">
        <ele>137</ele>
        <time>2025-06-04T15:53:03Z</time>
      </trkpt>
      <trkpt lat="43.6442" lon="1.39204">
        <ele>136</ele>
        <time>2025-06-04T15:53:04Z</time>
      </trkpt>
      <trkpt lat="43.6442" lon="1.39204">
        <ele>136</ele>
        <time>2025-06-04T15:53:05Z</time>
      </trkpt>
      <trkpt lat="43.64422" lon="1.39208">
        <ele>136</ele>
        <time>2025-06-04T15:53:06Z</time>
      </trkpt>
      <trkpt lat="43.64423" lon="1.3921">
        <ele>136</ele>
        <time>2025-06-04T15:53:07Z</time>
      </trkpt>
      <trkpt lat="43.64424" lon="1.39212">
        <ele>136</ele>
        <time>2025-06-04T15:53:08Z</time>
      </trkpt>
      <trkpt lat="43.64426" lon="1.39214">
        <ele>136</ele>
        <time>2025-06-04T15:53:09Z</time>
      </trkpt>
      <trkpt lat="43.64427" lon="1.39217">
        <ele>136</ele>
        <time>2025-06-04T15:53:10Z</time>
      </trkpt>
      <trkpt lat="43.64428" lon="1.39219">
        <ele>136</ele>
        <time>2025-06-04T15:53:11Z</time>
      </trkpt>
      <trkpt lat="43.6443" lon="1.39221">
        <ele>136</ele>
        <time>2025-06-04T15:53:12Z</time>
      </trkpt>
      <trkpt lat="43.64431" lon="1.39224">
        <ele>135</ele>
        <time>2025-06-04T15:53:13Z</time>
      </trkpt>
      <trkpt lat="43.64432" lon="1.39226">
        <ele>135</ele>
        <time>2025-06-04T15:53:14Z</time>
      </trkpt>
      <trkpt lat="43.64434" lon="1.39228">
        <ele>135</ele>
        <time>2025-06-04T15:53:15Z</time>
      </trkpt>
      <trkpt lat="43.64435" lon="1.3923">
        <ele>135</ele>
        <time>2025-06-04T15:53:16Z</time>
      </trkpt>
      <trkpt lat="43.64436" lon="1.39233">
        <ele>135</ele>
        <time>2025-06-04T15:53:17Z</time>
      </trkpt>
      <trkpt lat="43.64437" lon="1.39235">
        <ele>135</ele>
        <time>2025-06-04T15:53:18Z</time>
      </trkpt>
      <trkpt lat="43.64438" lon="1.39238">
        <ele>135</ele>
        <time>2025-06-04T15:53:19Z</time>
      </trkpt>
      <trkpt lat="43.64439" lon="1.3924">
        <ele>134</ele>
        <time>2025-06-04T15:53:20Z</time>
      </trkpt>
      <trkpt lat="43.6444" lon="1.39242">
        <ele>134</ele>
        <time>2025-06-04T15:53:21Z</time>
      </trkpt>
      <trkpt lat="43.64442" lon="1.39244">
        <ele>134</ele>
        <time>2025-06-04T15:53:22Z</time>
      </trkpt>
      <trkpt lat="43.64443" lon="1.39247">
        <ele>134</ele>
        <time>2025-06-04T15:53:23Z</time>
      </trkpt>
      <trkpt lat="43.64445" lon="1.3925">
        <ele>134</ele>
        <time>2025-06-04T15:53:24Z</time>
      </trkpt>
      <trkpt lat="43.64446" lon="1.39252">
        <ele>134</ele>
        <time>2025-06-04T15:53:25Z</time>
      </trkpt>
      <trkpt lat="43.64447" lon="1.39255">
        <ele>134</ele>
        <time>2025-06-04T15:53:26Z</time>
      </trkpt>
      <trkpt lat="43.64448" lon="1.39257">
        <ele>134</ele>
        <time>2025-06-04T15:53:27Z</time>
      </trkpt>
      <trkpt lat="43.64449" lon="1.3926">
        <ele>134</ele>
        <time>2025-06-04T15:53:28Z</time>
      </trkpt>
      <trkpt lat="43.6445" lon="1.39262">
        <ele>134</ele>
        <time>2025-06-04T15:53:29Z</time>
      </trkpt>
      <trkpt lat="43.6445" lon="1.39262">
        <ele>134</ele>
        <time>2025-06-04T15:53:30Z</time>
      </trkpt>
      <trkpt lat="43.64451" lon="1.39267">
        <ele>134</ele>
        <time>2025-06-04T15:53:31Z</time>
      </trkpt>
      <trkpt lat="43.64452" lon="1.3927">
        <ele>134</ele>
        <time>2025-06-04T15:53:32Z</time>
      </trkpt>
      <trkpt lat="43.64452" lon="1.39273">
        <ele>134</ele>
        <time>2025-06-04T15:53:33Z</time>
      </trkpt>
      <trkpt lat="43.64453" lon="1.39275">
        <ele>134</ele>
        <time>2025-06-04T15:53:34Z</time>
      </trkpt>
      <trkpt lat="43.64454" lon="1.39278">
        <ele>134</ele>
        <time>2025-06-04T15:53:35Z</time>
      </trkpt>
      <trkpt lat="43.64455" lon="1.39282">
        <ele>134</ele>
        <time>2025-06-04T15:53:36Z</time>
      </trkpt>
      <trkpt lat="43.64455" lon="1.39285">
        <ele>134</ele>
        <time>2025-06-04T15:53:37Z</time>
      </trkpt>
      <trkpt lat="43.64456" lon="1.39288">
        <ele>134</ele>
        <time>2025-06-04T15:53:38Z</time>
      </trkpt>
      <trkpt lat="43.64458" lon="1.3929">
        <ele>134</ele>
        <time>2025-06-04T15:53:39Z</time>
      </trkpt>
      <trkpt lat="43.64459" lon="1.39292">
        <ele>134</ele>
        <time>2025-06-04T15:53:40Z</time>
      </trkpt>
      <trkpt lat="43.64459" lon="1.39292">
        <ele>134</ele>
        <time>2025-06-04T15:53:41Z</time>
      </trkpt>
      <trkpt lat="43.6446" lon="1.39297">
        <ele>133</ele>
        <time>2025-06-04T15:53:42Z</time>
      </trkpt>
      <trkpt lat="43.6446" lon="1.393">
        <ele>133</ele>
        <time>2025-06-04T15:53:43Z</time>
      </trkpt>
      <trkpt lat="43.64459" lon="1.39303">
        <ele>134</ele>
        <time>2025-06-04T15:53:44Z</time>
      </trkpt>
      <trkpt lat="43.64458" lon="1.39305">
        <ele>134</ele>
        <time>2025-06-04T15:53:45Z</time>
      </trkpt>
      <trkpt lat="43.64456" lon="1.39307">
        <ele>134</ele>
        <time>2025-06-04T15:53:46Z</time>
      </trkpt>
      <trkpt lat="43.64453" lon="1.39308">
        <ele>134</ele>
        <time>2025-06-04T15:53:47Z</time>
      </trkpt>
      <trkpt lat="43.64451" lon="1.39309">
        <ele>134</ele>
        <time>2025-06-04T15:53:48Z</time>
      </trkpt>
      <trkpt lat="43.64449" lon="1.39309">
        <ele>134</ele>
        <time>2025-06-04T15:53:49Z</time>
      </trkpt>
      <trkpt lat="43.64447" lon="1.39308">
        <ele>133</ele>
        <time>2025-06-04T15:53:50Z</time>
      </trkpt>
      <trkpt lat="43.64445" lon="1.39309">
        <ele>133</ele>
        <time>2025-06-04T15:53:51Z</time>
      </trkpt>
      <trkpt lat="43.64442" lon="1.39308">
        <ele>133</ele>
        <time>2025-06-04T15:53:52Z</time>
      </trkpt>
      <trkpt lat="43.6444" lon="1.39309">
        <ele>133</ele>
        <time>2025-06-04T15:53:53Z</time>
      </trkpt>
      <trkpt lat="43.64437" lon="1.3931">
        <ele>133</ele>
        <time>2025-06-04T15:53:54Z</time>
      </trkpt>
      <trkpt lat="43.64437" lon="1.3931">
        <ele>132</ele>
        <time>2025-06-04T15:53:55Z</time>
      </trkpt>
      <trkpt lat="43.64435" lon="1.39311">
        <ele>132</ele>
        <time>2025-06-04T15:53:56Z</time>
      </trkpt>
      <trkpt lat="43.64432" lon="1.39311">
        <ele>132</ele>
        <time>2025-06-04T15:53:57Z</time>
      </trkpt>
      <trkpt lat="43.64429" lon="1.39312">
        <ele>132</ele>
        <time>2025-06-04T15:53:58Z</time>
      </trkpt>
      <trkpt lat="43.64424" lon="1.39313">
        <ele>132</ele>
        <time>2025-06-04T15:53:59Z</time>
      </trkpt>
      <trkpt lat="43.64424" lon="1.39313">
        <ele>132</ele>
        <time>2025-06-04T15:54:00Z</time>
      </trkpt>
      <trkpt lat="43.64422" lon="1.39313">
        <ele>132</ele>
        <time>2025-06-04T15:54:01Z</time>
      </trkpt>
      <trkpt lat="43.6442" lon="1.39313">
        <ele>132</ele>
        <time>2025-06-04T15:54:02Z</time>
      </trkpt>
      <trkpt lat="43.64418" lon="1.39313">
        <ele>132</ele>
        <time>2025-06-04T15:54:03Z</time>
      </trkpt>
      <trkpt lat="43.64415" lon="1.39313">
        <ele>131</ele>
        <time>2025-06-04T15:54:04Z</time>
      </trkpt>
      <trkpt lat="43.64413" lon="1.39313">
        <ele>131</ele>
        <time>2025-06-04T15:54:05Z</time>
      </trkpt>
      <trkpt lat="43.64412" lon="1.39314">
        <ele>131</ele>
        <time>2025-06-04T15:54:06Z</time>
      </trkpt>
      <trkpt lat="43.6441" lon="1.39314">
        <ele>131</ele>
        <time>2025-06-04T15:54:07Z</time>
      </trkpt>
      <trkpt lat="43.64408" lon="1.39314">
        <ele>131</ele>
        <time>2025-06-04T15:54:08Z</time>
      </trkpt>
      <trkpt lat="43.64406" lon="1.39314">
        <ele>131</ele>
        <time>2025-06-04T15:54:09Z</time>
      </trkpt>
      <trkpt lat="43.64406" lon="1.39314">
        <ele>131</ele>
        <time>2025-06-04T15:54:10Z</time>
      </trkpt>
      <trkpt lat="43.64404" lon="1.39314">
        <ele>131</ele>
        <time>2025-06-04T15:54:11Z</time>
      </trkpt>
      <trkpt lat="43.64404" lon="1.39314">
        <ele>131</ele>
        <time>2025-06-04T15:54:12Z</time>
      </trkpt>
      <trkpt lat="43.64404" lon="1.39314">
        <ele>131</ele>
        <time>2025-06-04T15:54:13Z</time>
      </trkpt>
      <trkpt lat="43.64406" lon="1.39312">
        <ele>131</ele>
        <time>2025-06-04T15:54:14Z</time>
      </trkpt>
      <trkpt lat="43.64406" lon="1.39312">
        <ele>131</ele>
        <time>2025-06-04T15:54:15Z</time>
      </trkpt>
      <trkpt lat="43.64406" lon="1.39312">
        <ele>131</ele>
        <time>2025-06-04T15:54:16Z</time>
      </trkpt>
      <trkpt lat="43.64406" lon="1.39312">
        <ele>131</ele>
        <time>2025-06-04T15:54:17Z</time>
      </trkpt>
      <trkpt lat="43.64406" lon="1.39312">
        <ele>131</ele>
        <time>2025-06-04T15:54:18Z</time>
      </trkpt>
      <trkpt lat="43.64406" lon="1.39312">
        <ele>131</ele>
        <time>2025-06-04T15:54:19Z</time>
      </trkpt>
      <trkpt lat="43.64406" lon="1.39312">
        <ele>131</ele>
        <time>2025-06-04T15:54:20Z</time>
      </trkpt>
      <trkpt lat="43.64406" lon="1.39312">
        <ele>131</ele>
        <time>2025-06-04T15:54:21Z</time>
      </trkpt>
      <trkpt lat="43.64408" lon="1.39311">
        <ele>131</ele>
        <time>2025-06-04T15:54:22Z</time>
      </trkpt>
      <trkpt lat="43.64408" lon="1.39311">
        <ele>131</ele>
        <time>2025-06-04T15:54:23Z</time>
      </trkpt>
      <trkpt lat="43.64412" lon="1.39311">
        <ele>131</ele>
        <time>2025-06-04T15:54:24Z</time>
      </trkpt>
      <trkpt lat="43.64416" lon="1.3931">
        <ele>131</ele>
        <time>2025-06-04T15:54:25Z</time>
      </trkpt>
      <trkpt lat="43.64419" lon="1.39309">
        <ele>131</ele>
        <time>2025-06-04T15:54:26Z</time>
      </trkpt>
      <trkpt lat="43.64423" lon="1.39308">
        <ele>131</ele>
        <time>2025-06-04T15:54:27Z</time>
      </trkpt>
      <trkpt lat="43.64427" lon="1.39307">
        <ele>131</ele>
        <time>2025-06-04T15:54:28Z</time>
      </trkpt>
      <trkpt lat="43.6443" lon="1.39306">
        <ele>132</ele>
        <time>2025-06-04T15:54:29Z</time>
      </trkpt>
      <trkpt lat="43.64434" lon="1.39306">
        <ele>132</ele>
        <time>2025-06-04T15:54:30Z</time>
      </trkpt>
      <trkpt lat="43.64439" lon="1.39306">
        <ele>132</ele>
        <time>2025-06-04T15:54:31Z</time>
      </trkpt>
      <trkpt lat="43.64442" lon="1.39306">
        <ele>132</ele>
        <time>2025-06-04T15:54:32Z</time>
      </trkpt>
      <trkpt lat="43.64445" lon="1.39305">
        <ele>132</ele>
        <time>2025-06-04T15:54:33Z</time>
      </trkpt>
      <trkpt lat="43.64445" lon="1.39305">
        <ele>133</ele>
        <time>2025-06-04T15:54:34Z</time>
      </trkpt>
      <trkpt lat="43.64449" lon="1.39302">
        <ele>133</ele>
        <time>2025-06-04T15:54:35Z</time>
      </trkpt>
      <trkpt lat="43.64452" lon="1.39298">
        <ele>133</ele>
        <time>2025-06-04T15:54:36Z</time>
      </trkpt>
      <trkpt lat="43.64455" lon="1.39295">
        <ele>133</ele>
        <time>2025-06-04T15:54:37Z</time>
      </trkpt>
      <trkpt lat="43.64454" lon="1.3929">
        <ele>134</ele>
        <time>2025-06-04T15:54:38Z</time>
      </trkpt>
      <trkpt lat="43.64453" lon="1.39285">
        <ele>134</ele>
        <time>2025-06-04T15:54:39Z</time>
      </trkpt>
      <trkpt lat="43.64452" lon="1.39279">
        <ele>134</ele>
        <time>2025-06-04T15:54:40Z</time>
      </trkpt>
      <trkpt lat="43.64451" lon="1.39274">
        <ele>135</ele>
        <time>2025-06-04T15:54:41Z</time>
      </trkpt>
      <trkpt lat="43.6445" lon="1.39269">
        <ele>135</ele>
        <time>2025-06-04T15:54:42Z</time>
      </trkpt>
      <trkpt lat="43.64448" lon="1.39264">
        <ele>134</ele>
        <time>2025-06-04T15:54:43Z</time>
      </trkpt>
      <trkpt lat="43.64446" lon="1.39259">
        <ele>134</ele>
        <time>2025-06-04T15:54:44Z</time>
      </trkpt>
      <trkpt lat="43.64446" lon="1.39259">
        <ele>134</ele>
        <time>2025-06-04T15:54:45Z</time>
      </trkpt>
      <trkpt lat="43.64443" lon="1.39254">
        <ele>134</ele>
        <time>2025-06-04T15:54:46Z</time>
      </trkpt>
      <trkpt lat="43.64441" lon="1.39249">
        <ele>134</ele>
        <time>2025-06-04T15:54:47Z</time>
      </trkpt>
      <trkpt lat="43.64439" lon="1.39245">
        <ele>134</ele>
        <time>2025-06-04T15:54:48Z</time>
      </trkpt>
      <trkpt lat="43.64436" lon="1.39241">
        <ele>134</ele>
        <time>2025-06-04T15:54:49Z</time>
      </trkpt>
      <trkpt lat="43.64434" lon="1.39237">
        <ele>134</ele>
        <time>2025-06-04T15:54:50Z</time>
      </trkpt>
      <trkpt lat="43.64432" lon="1.39232">
        <ele>134</ele>
        <time>2025-06-04T15:54:51Z</time>
      </trkpt>
      <trkpt lat="43.64429" lon="1.39227">
        <ele>134</ele>
        <time>2025-06-04T15:54:52Z</time>
      </trkpt>
      <trkpt lat="43.64426" lon="1.39222">
        <ele>135</ele>
        <time>2025-06-04T15:54:53Z</time>
      </trkpt>
      <trkpt lat="43.64422" lon="1.39216">
        <ele>135</ele>
        <time>2025-06-04T15:54:54Z</time>
      </trkpt>
      <trkpt lat="43.6442" lon="1.39212">
        <ele>136</ele>
        <time>2025-06-04T15:54:55Z</time>
      </trkpt>
      <trkpt lat="43.6442" lon="1.39212">
        <ele>136</ele>
        <time>2025-06-04T15:54:56Z</time>
      </trkpt>
      <trkpt lat="43.64418" lon="1.39208">
        <ele>135</ele>
        <time>2025-06-04T15:54:57Z</time>
      </trkpt>
      <trkpt lat="43.64417" lon="1.39204">
        <ele>136</ele>
        <time>2025-06-04T15:54:58Z</time>
      </trkpt>
      <trkpt lat="43.64415" lon="1.392">
        <ele>136</ele>
        <time>2025-06-04T15:54:59Z</time>
      </trkpt>
      <trkpt lat="43.64413" lon="1.39196">
        <ele>136</ele>
        <time>2025-06-04T15:55:00Z</time>
      </trkpt>
      <trkpt lat="43.64412" lon="1.39192">
        <ele>136</ele>
        <time>2025-06-04T15:55:01Z</time>
      </trkpt>
      <trkpt lat="43.6441" lon="1.39188">
        <ele>136</ele>
        <time>2025-06-04T15:55:02Z</time>
      </trkpt>
      <trkpt lat="43.6441" lon="1.39183">
        <ele>136</ele>
        <time>2025-06-04T15:55:03Z</time>
      </trkpt>
      <trkpt lat="43.64409" lon="1.39178">
        <ele>137</ele>
        <time>2025-06-04T15:55:04Z</time>
      </trkpt>
      <trkpt lat="43.64408" lon="1.39174">
        <ele>137</ele>
        <time>2025-06-04T15:55:05Z</time>
      </trkpt>
      <trkpt lat="43.64409" lon="1.39167">
        <ele>137</ele>
        <time>2025-06-04T15:55:06Z</time>
      </trkpt>
      <trkpt lat="43.64409" lon="1.39161">
        <ele>137</ele>
        <time>2025-06-04T15:55:07Z</time>
      </trkpt>
      <trkpt lat="43.64409" lon="1.39155">
        <ele>137</ele>
        <time>2025-06-04T15:55:08Z</time>
      </trkpt>
      <trkpt lat="43.64409" lon="1.39152">
        <ele>138</ele>
        <time>2025-06-04T15:55:09Z</time>
      </trkpt>
      <trkpt lat="43.6441" lon="1.39148">
        <ele>139</ele>
        <time>2025-06-04T15:55:10Z</time>
      </trkpt>
      <trkpt lat="43.64411" lon="1.39144">
        <ele>140</ele>
        <time>2025-06-04T15:55:11Z</time>
      </trkpt>
      <trkpt lat="43.64411" lon="1.39141">
        <ele>140</ele>
        <time>2025-06-04T15:55:12Z</time>
      </trkpt>
      <trkpt lat="43.64411" lon="1.39137">
        <ele>141</ele>
        <time>2025-06-04T15:55:13Z</time>
      </trkpt>
      <trkpt lat="43.64412" lon="1.39134">
        <ele>141</ele>
        <time>2025-06-04T15:55:14Z</time>
      </trkpt>
      <trkpt lat="43.64412" lon="1.39134">
        <ele>142</ele>
        <time>2025-06-04T15:55:15Z</time>
      </trkpt>
      <trkpt lat="43.64415" lon="1.39124">
        <ele>142</ele>
        <time>2025-06-04T15:55:16Z</time>
      </trkpt>
      <trkpt lat="43.64416" lon="1.39122">
        <ele>142</ele>
        <time>2025-06-04T15:55:17Z</time>
      </trkpt>
      <trkpt lat="43.64417" lon="1.39119">
        <ele>142</ele>
        <time>2025-06-04T15:55:18Z</time>
      </trkpt>
      <trkpt lat="43.64418" lon="1.39116">
        <ele>142</ele>
        <time>2025-06-04T15:55:19Z</time>
      </trkpt>
      <trkpt lat="43.64418" lon="1.39116">
        <ele>142</ele>
        <time>2025-06-04T15:55:20Z</time>
      </trkpt>
      <trkpt lat="43.64419" lon="1.39112">
        <ele>143</ele>
        <time>2025-06-04T15:55:21Z</time>
      </trkpt>
      <trkpt lat="43.64421" lon="1.3911">
        <ele>143</ele>
        <time>2025-06-04T15:55:22Z</time>
      </trkpt>
      <trkpt lat="43.64421" lon="1.3911">
        <ele>144</ele>
        <time>2025-06-04T15:55:23Z</time>
      </trkpt>
      <trkpt lat="43.64423" lon="1.39106">
        <ele>144</ele>
        <time>2025-06-04T15:55:24Z</time>
      </trkpt>
      <trkpt lat="43.64423" lon="1.39106">
        <ele>144</ele>
        <time>2025-06-04T15:55:25Z</time>
      </trkpt>
      <trkpt lat="43.64424" lon="1.39103">
        <ele>144</ele>
        <time>2025-06-04T15:55:26Z</time>
      </trkpt>
      <trkpt lat="43.64424" lon="1.39103">
        <ele>144</ele>
        <time>2025-06-04T15:55:27Z</time>
      </trkpt>
      <trkpt lat="43.64426" lon="1.391">
        <ele>144</ele>
        <time>2025-06-04T15:55:28Z</time>
      </trkpt>
      <trkpt lat="43.64426" lon="1.391">
        <ele>144</ele>
        <time>2025-06-04T15:55:29Z</time>
      </trkpt>
      <trkpt lat="43.64428" lon="1.39097">
        <ele>144</ele>
        <time>2025-06-04T15:55:30Z</time>
      </trkpt>
      <trkpt lat="43.64428" lon="1.39097">
        <ele>145</ele>
        <time>2025-06-04T15:55:31Z</time>
      </trkpt>
      <trkpt lat="43.6443" lon="1.39094">
        <ele>145</ele>
        <time>2025-06-04T15:55:32Z</time>
      </trkpt>
      <trkpt lat="43.6443" lon="1.39094">
        <ele>145</ele>
        <time>2025-06-04T15:55:33Z</time>
      </trkpt>
      <trkpt lat="43.64431" lon="1.39091">
        <ele>145</ele>
        <time>2025-06-04T15:55:34Z</time>
      </trkpt>
      <trkpt lat="43.64431" lon="1.39091">
        <ele>145</ele>
        <time>2025-06-04T15:55:35Z</time>
      </trkpt>
      <trkpt lat="43.64433" lon="1.39088">
        <ele>145</ele>
        <time>2025-06-04T15:55:36Z</time>
      </trkpt>
      <trkpt lat="43.64433" lon="1.39088">
        <ele>145</ele>
        <time>2025-06-04T15:55:37Z</time>
      </trkpt>
      <trkpt lat="43.64434" lon="1.39084">
        <ele>145</ele>
        <time>2025-06-04T15:55:38Z</time>
      </trkpt>
      <trkpt lat="43.64434" lon="1.39084">
        <ele>145</ele>
        <time>2025-06-04T15:55:39Z</time>
      </trkpt>
      <trkpt lat="43.64436" lon="1.39081">
        <ele>145</ele>
        <time>2025-06-04T15:55:40Z</time>
      </trkpt>
      <trkpt lat="43.64436" lon="1.39081">
        <ele>145</ele>
        <time>2025-06-04T15:55:41Z</time>
      </trkpt>
      <trkpt lat="43.64438" lon="1.39078">
        <ele>145</ele>
        <time>2025-06-04T15:55:42Z</time>
      </trkpt>
      <trkpt lat="43.64438" lon="1.39078">
        <ele>145</ele>
        <time>2025-06-04T15:55:43Z</time>
      </trkpt>
      <trkpt lat="43.6444" lon="1.39075">
        <ele>145</ele>
        <time>2025-06-04T15:55:44Z</time>
      </trkpt>
      <trkpt lat="43.6444" lon="1.39075">
        <ele>145</ele>
        <time>2025-06-04T15:55:45Z</time>
      </trkpt>
      <trkpt lat="43.64441" lon="1.39072">
        <ele>146</ele>
        <time>2025-06-04T15:55:46Z</time>
      </trkpt>
      <trkpt lat="43.64441" lon="1.39072">
        <ele>146</ele>
        <time>2025-06-04T15:55:47Z</time>
      </trkpt>
      <trkpt lat="43.64443" lon="1.39069">
        <ele>146</ele>
        <time>2025-06-04T15:55:48Z</time>
      </trkpt>
      <trkpt lat="43.64443" lon="1.39069">
        <ele>146</ele>
        <time>2025-06-04T15:55:49Z</time>
      </trkpt>
      <trkpt lat="43.64445" lon="1.39067">
        <ele>145</ele>
        <time>2025-06-04T15:55:50Z</time>
      </trkpt>
      <trkpt lat="43.64445" lon="1.39067">
        <ele>145</ele>
        <time>2025-06-04T15:55:51Z</time>
      </trkpt>
      <trkpt lat="43.64446" lon="1.39064">
        <ele>145</ele>
        <time>2025-06-04T15:55:52Z</time>
      </trkpt>
      <trkpt lat="43.64446" lon="1.39064">
        <ele>145</ele>
        <time>2025-06-04T15:55:53Z</time>
      </trkpt>
      <trkpt lat="43.64447" lon="1.39061">
        <ele>145</ele>
        <time>2025-06-04T15:55:54Z</time>
      </trkpt>
      <trkpt lat="43.64447" lon="1.39061">
        <ele>145</ele>
        <time>2025-06-04T15:55:55Z</time>
      </trkpt>
      <trkpt lat="43.64448" lon="1.39058">
        <ele>145</ele>
        <time>2025-06-04T15:55:56Z</time>
      </trkpt>
      <trkpt lat="43.64448" lon="1.39058">
        <ele>146</ele>
        <time>2025-06-04T15:55:57Z</time>
      </trkpt>
      <trkpt lat="43.64449" lon="1.39056">
        <ele>146</ele>
        <time>2025-06-04T15:55:58Z</time>
      </trkpt>
      <trkpt lat="43.64449" lon="1.39056">
        <ele>146</ele>
        <time>2025-06-04T15:55:59Z</time>
      </trkpt>
      <trkpt lat="43.6445" lon="1.39052">
        <ele>146</ele>
        <time>2025-06-04T15:56:00Z</time>
      </trkpt>
      <trkpt lat="43.6445" lon="1.39052">
        <ele>146</ele>
        <time>2025-06-04T15:56:01Z</time>
      </trkpt>
      <trkpt lat="43.64453" lon="1.39049">
        <ele>146</ele>
        <time>2025-06-04T15:56:02Z</time>
      </trkpt>
      <trkpt lat="43.64454" lon="1.39048">
        <ele>146</ele>
        <time>2025-06-04T15:56:03Z</time>
      </trkpt>
      <trkpt lat="43.64456" lon="1.39047">
        <ele>146</ele>
        <time>2025-06-04T15:56:04Z</time>
      </trkpt>
      <trkpt lat="43.64456" lon="1.39047">
        <ele>147</ele>
        <time>2025-06-04T15:56:05Z</time>
      </trkpt>
      <trkpt lat="43.64459" lon="1.39045">
        <ele>147</ele>
        <time>2025-06-04T15:56:06Z</time>
      </trkpt>
      <trkpt lat="43.64461" lon="1.39044">
        <ele>147</ele>
        <time>2025-06-04T15:56:07Z</time>
      </trkpt>
      <trkpt lat="43.64463" lon="1.39043">
        <ele>147</ele>
        <time>2025-06-04T15:56:08Z</time>
      </trkpt>
      <trkpt lat="43.64465" lon="1.39041">
        <ele>147</ele>
        <time>2025-06-04T15:56:09Z</time>
      </trkpt>
      <trkpt lat="43.64467" lon="1.3904">
        <ele>147</ele>
        <time>2025-06-04T15:56:10Z</time>
      </trkpt>
      <trkpt lat="43.64468" lon="1.39038">
        <ele>147</ele>
        <time>2025-06-04T15:56:11Z</time>
      </trkpt>
      <trkpt lat="43.64471" lon="1.39036">
        <ele>146</ele>
        <time>2025-06-04T15:56:12Z</time>
      </trkpt>
      <trkpt lat="43.64473" lon="1.39034">
        <ele>147</ele>
        <time>2025-06-04T15:56:13Z</time>
      </trkpt>
      <trkpt lat="43.64474" lon="1.39032">
        <ele>147</ele>
        <time>2025-06-04T15:56:14Z</time>
      </trkpt>
      <trkpt lat="43.64474" lon="1.39032">
        <ele>147</ele>
        <time>2025-06-04T15:56:15Z</time>
      </trkpt>
      <trkpt lat="43.64477" lon="1.39028">
        <ele>147</ele>
        <time>2025-06-04T15:56:16Z</time>
      </trkpt>
      <trkpt lat="43.64478" lon="1.39025">
        <ele>147</ele>
        <time>2025-06-04T15:56:17Z</time>
      </trkpt>
      <trkpt lat="43.64478" lon="1.39023">
        <ele>147</ele>
        <time>2025-06-04T15:56:18Z</time>
      </trkpt>
      <trkpt lat="43.6448" lon="1.3902">
        <ele>147</ele>
        <time>2025-06-04T15:56:19Z</time>
      </trkpt>
      <trkpt lat="43.6448" lon="1.39017">
        <ele>147</ele>
        <time>2025-06-04T15:56:20Z</time>
      </trkpt>
      <trkpt lat="43.64481" lon="1.39014">
        <ele>147</ele>
        <time>2025-06-04T15:56:21Z</time>
      </trkpt>
      <trkpt lat="43.64482" lon="1.39011">
        <ele>147</ele>
        <time>2025-06-04T15:56:22Z</time>
      </trkpt>
      <trkpt lat="43.64483" lon="1.39007">
        <ele>147</ele>
        <time>2025-06-04T15:56:23Z</time>
      </trkpt>
      <trkpt lat="43.64484" lon="1.39003">
        <ele>147</ele>
        <time>2025-06-04T15:56:24Z</time>
      </trkpt>
      <trkpt lat="43.64486" lon="1.39">
        <ele>147</ele>
        <time>2025-06-04T15:56:25Z</time>
      </trkpt>
      <trkpt lat="43.64488" lon="1.38997">
        <ele>147</ele>
        <time>2025-06-04T15:56:26Z</time>
      </trkpt>
      <trkpt lat="43.64489" lon="1.38994">
        <ele>147</ele>
        <time>2025-06-04T15:56:27Z</time>
      </trkpt>
      <trkpt lat="43.6449" lon="1.38991">
        <ele>148</ele>
        <time>2025-06-04T15:56:28Z</time>
      </trkpt>
      <trkpt lat="43.64492" lon="1.38988">
        <ele>148</ele>
        <time>2025-06-04T15:56:29Z</time>
      </trkpt>
      <trkpt lat="43.64493" lon="1.38986">
        <ele>147</ele>
        <time>2025-06-04T15:56:30Z</time>
      </trkpt>
      <trkpt lat="43.64494" lon="1.38983">
        <ele>147</ele>
        <time>2025-06-04T15:56:31Z</time>
      </trkpt>
      <trkpt lat="43.64495" lon="1.3898">
        <ele>147</ele>
        <time>2025-06-04T15:56:32Z</time>
      </trkpt>
      <trkpt lat="43.64496" lon="1.38977">
        <ele>147</ele>
        <time>2025-06-04T15:56:33Z</time>
      </trkpt>
      <trkpt lat="43.64497" lon="1.38974">
        <ele>147</ele>
        <time>2025-06-04T15:56:34Z</time>
      </trkpt>
      <trkpt lat="43.64497" lon="1.3897">
        <ele>147</ele>
        <time>2025-06-04T15:56:35Z</time>
      </trkpt>
      <trkpt lat="43.64498" lon="1.38967">
        <ele>147</ele>
        <time>2025-06-04T15:56:36Z</time>
      </trkpt>
      <trkpt lat="43.64499" lon="1.38964">
        <ele>147</ele>
        <time>2025-06-04T15:56:37Z</time>
      </trkpt>
      <trkpt lat="43.645" lon="1.38961">
        <ele>147</ele>
        <time>2025-06-04T15:56:38Z</time>
      </trkpt>
      <trkpt lat="43.645" lon="1.38958">
        <ele>147</ele>
        <time>2025-06-04T15:56:39Z</time>
      </trkpt>
      <trkpt lat="43.64501" lon="1.38954">
        <ele>147</ele>
        <time>2025-06-04T15:56:40Z</time>
      </trkpt>
      <trkpt lat="43.64502" lon="1.38951">
        <ele>147</ele>
        <time>2025-06-04T15:56:41Z</time>
      </trkpt>
      <trkpt lat="43.64503" lon="1.38948">
        <ele>147</ele>
        <time>2025-06-04T15:56:42Z</time>
      </trkpt>
      <trkpt lat="43.64504" lon="1.38945">
        <ele>147</ele>
        <time>2025-06-04T15:56:43Z</time>
      </trkpt>
      <trkpt lat="43.64505" lon="1.38942">
        <ele>147</ele>
        <time>2025-06-04T15:56:44Z</time>
      </trkpt>
      <trkpt lat="43.64506" lon="1.38939">
        <ele>147</ele>
        <time>2025-06-04T15:56:45Z</time>
      </trkpt>
      <trkpt lat="43.64507" lon="1.38936">
        <ele>147</ele>
        <time>2025-06-04T15:56:46Z</time>
      </trkpt>
      <trkpt lat="43.64508" lon="1.38933">
        <ele>147</ele>
        <time>2025-06-04T15:56:47Z</time>
      </trkpt>
      <trkpt lat="43.64509" lon="1.3893">
        <ele>147</ele>
        <time>2025-06-04T15:56:48Z</time>
      </trkpt>
      <trkpt lat="43.64511" lon="1.38926">
        <ele>147</ele>
        <time>2025-06-04T15:56:49Z</time>
      </trkpt>
      <trkpt lat="43.64511" lon="1.38923">
        <ele>147</ele>
        <time>2025-06-04T15:56:50Z</time>
      </trkpt>
      <trkpt lat="43.64511" lon="1.38921">
        <ele>147</ele>
        <time>2025-06-04T15:56:51Z</time>
      </trkpt>
      <trkpt lat="43.64511" lon="1.38918">
        <ele>147</ele>
        <time>2025-06-04T15:56:52Z</time>
      </trkpt>
      <trkpt lat="43.64511" lon="1.38915">
        <ele>147</ele>
        <time>2025-06-04T15:56:53Z</time>
      </trkpt>
      <trkpt lat="43.64511" lon="1.38912">
        <ele>147</ele>
        <time>2025-06-04T15:56:54Z</time>
      </trkpt>
      <trkpt lat="43.64511" lon="1.38908">
        <ele>147</ele>
        <time>2025-06-04T15:56:55Z</time>
      </trkpt>
      <trkpt lat="43.64511" lon="1.38905">
        <ele>147</ele>
        <time>2025-06-04T15:56:56Z</time>
      </trkpt>
      <trkpt lat="43.6451" lon="1.38902">
        <ele>147</ele>
        <time>2025-06-04T15:56:57Z</time>
      </trkpt>
      <trkpt lat="43.6451" lon="1.38899">
        <ele>147</ele>
        <time>2025-06-04T15:56:58Z</time>
      </trkpt>
      <trkpt lat="43.64508" lon="1.38897">
        <ele>147</ele>
        <time>2025-06-04T15:56:59Z</time>
      </trkpt>
      <trkpt lat="43.64508" lon="1.38894">
        <ele>147</ele>
        <time>2025-06-04T15:57:00Z</time>
      </trkpt>
      <trkpt lat="43.64507" lon="1.38891">
        <ele>147</ele>
        <time>2025-06-04T15:57:01Z</time>
      </trkpt>
      <trkpt lat="43.64507" lon="1.38888">
        <ele>147</ele>
        <time>2025-06-04T15:57:02Z</time>
      </trkpt>
      <trkpt lat="43.64506" lon="1.38885">
        <ele>146</ele>
        <time>2025-06-04T15:57:03Z</time>
      </trkpt>
      <trkpt lat="43.64506" lon="1.38881">
        <ele>146</ele>
        <time>2025-06-04T15:57:04Z</time>
      </trkpt>
      <trkpt lat="43.64505" lon="1.38877">
        <ele>146</ele>
        <time>2025-06-04T15:57:05Z</time>
      </trkpt>
      <trkpt lat="43.64504" lon="1.38874">
        <ele>147</ele>
        <time>2025-06-04T15:57:06Z</time>
      </trkpt>
      <trkpt lat="43.64503" lon="1.38871">
        <ele>147</ele>
        <time>2025-06-04T15:57:07Z</time>
      </trkpt>
      <trkpt lat="43.64504" lon="1.38867">
        <ele>147</ele>
        <time>2025-06-04T15:57:08Z</time>
      </trkpt>
      <trkpt lat="43.64505" lon="1.38864">
        <ele>147</ele>
        <time>2025-06-04T15:57:09Z</time>
      </trkpt>
      <trkpt lat="43.64507" lon="1.38862">
        <ele>147</ele>
        <time>2025-06-04T15:57:10Z</time>
      </trkpt>
      <trkpt lat="43.64509" lon="1.3886">
        <ele>147</ele>
        <time>2025-06-04T15:57:11Z</time>
      </trkpt>
      <trkpt lat="43.64512" lon="1.38858">
        <ele>147</ele>
        <time>2025-06-04T15:57:12Z</time>
      </trkpt>
      <trkpt lat="43.64514" lon="1.38857">
        <ele>147</ele>
        <time>2025-06-04T15:57:13Z</time>
      </trkpt>
      <trkpt lat="43.64517" lon="1.38856">
        <ele>147</ele>
        <time>2025-06-04T15:57:14Z</time>
      </trkpt>
      <trkpt lat="43.6452" lon="1.38855">
        <ele>147</ele>
        <time>2025-06-04T15:57:15Z</time>
      </trkpt>
      <trkpt lat="43.64522" lon="1.38853">
        <ele>147</ele>
        <time>2025-06-04T15:57:16Z</time>
      </trkpt>
      <trkpt lat="43.64524" lon="1.38851">
        <ele>147</ele>
        <time>2025-06-04T15:57:17Z</time>
      </trkpt>
      <trkpt lat="43.64527" lon="1.38849">
        <ele>147</ele>
        <time>2025-06-04T15:57:18Z</time>
      </trkpt>
      <trkpt lat="43.6453" lon="1.38848">
        <ele>147</ele>
        <time>2025-06-04T15:57:19Z</time>
      </trkpt>
      <trkpt lat="43.64533" lon="1.38848">
        <ele>147</ele>
        <time>2025-06-04T15:57:20Z</time>
      </trkpt>
      <trkpt lat="43.64535" lon="1.38848">
        <ele>147</ele>
        <time>2025-06-04T15:57:21Z</time>
      </trkpt>
      <trkpt lat="43.64538" lon="1.38846">
        <ele>147</ele>
        <time>2025-06-04T15:57:22Z</time>
      </trkpt>
      <trkpt lat="43.64541" lon="1.38845">
        <ele>147</ele>
        <time>2025-06-04T15:57:23Z</time>
      </trkpt>
      <trkpt lat="43.64544" lon="1.38844">
        <ele>147</ele>
        <time>2025-06-04T15:57:24Z</time>
      </trkpt>
      <trkpt lat="43.64546" lon="1.38844">
        <ele>147</ele>
        <time>2025-06-04T15:57:25Z</time>
      </trkpt>
      <trkpt lat="43.64548" lon="1.38843">
        <ele>147</ele>
        <time>2025-06-04T15:57:26Z</time>
      </trkpt>
      <trkpt lat="43.64551" lon="1.38843">
        <ele>147</ele>
        <time>2025-06-04T15:57:27Z</time>
      </trkpt>
      <trkpt lat="43.64553" lon="1.38842">
        <ele>147</ele>
        <time>2025-06-04T15:57:28Z</time>
      </trkpt>
      <trkpt lat="43.64554" lon="1.38842">
        <ele>147</ele>
        <time>2025-06-04T15:57:29Z</time>
      </trkpt>
      <trkpt lat="43.64554" lon="1.38842">
        <ele>147</ele>
        <time>2025-06-04T15:57:30Z</time>
      </trkpt>
      <trkpt lat="43.6456" lon="1.38842">
        <ele>147</ele>
        <time>2025-06-04T15:57:31Z</time>
      </trkpt>
      <trkpt lat="43.64561" lon="1.38842">
        <ele>147</ele>
        <time>2025-06-04T15:57:32Z</time>
      </trkpt>
      <trkpt lat="43.64564" lon="1.38841">
        <ele>147</ele>
        <time>2025-06-04T15:57:33Z</time>
      </trkpt>
      <trkpt lat="43.64566" lon="1.38842">
        <ele>147</ele>
        <time>2025-06-04T15:57:34Z</time>
      </trkpt>
      <trkpt lat="43.64568" lon="1.38842">
        <ele>147</ele>
        <time>2025-06-04T15:57:35Z</time>
      </trkpt>
      <trkpt lat="43.64571" lon="1.38842">
        <ele>147</ele>
        <time>2025-06-04T15:57:36Z</time>
      </trkpt>
      <trkpt lat="43.64573" lon="1.38841">
        <ele>147</ele>
        <time>2025-06-04T15:57:37Z</time>
      </trkpt>
      <trkpt lat="43.64576" lon="1.38841">
        <ele>147</ele>
        <time>2025-06-04T15:57:38Z</time>
      </trkpt>
      <trkpt lat="43.64578" lon="1.3884">
        <ele>147</ele>
        <time>2025-06-04T15:57:39Z</time>
      </trkpt>
      <trkpt lat="43.6458" lon="1.3884">
        <ele>147</ele>
        <time>2025-06-04T15:57:40Z</time>
      </trkpt>
      <trkpt lat="43.64582" lon="1.3884">
        <ele>148</ele>
        <time>2025-06-04T15:57:41Z</time>
      </trkpt>
      <trkpt lat="43.64584" lon="1.3884">
        <ele>148</ele>
        <time>2025-06-04T15:57:42Z</time>
      </trkpt>
      <trkpt lat="43.64584" lon="1.3884">
        <ele>148</ele>
        <time>2025-06-04T15:57:43Z</time>
      </trkpt>
      <trkpt lat="43.64587" lon="1.38839">
        <ele>148</ele>
        <time>2025-06-04T15:57:44Z</time>
      </trkpt>
      <trkpt lat="43.64589" lon="1.38839">
        <ele>148</ele>
        <time>2025-06-04T15:57:45Z</time>
      </trkpt>
      <trkpt lat="43.64592" lon="1.38838">
        <ele>148</ele>
        <time>2025-06-04T15:57:46Z</time>
      </trkpt>
      <trkpt lat="43.64594" lon="1.38838">
        <ele>148</ele>
        <time>2025-06-04T15:57:47Z</time>
      </trkpt>
      <trkpt lat="43.64597" lon="1.38837">
        <ele>147</ele>
        <time>2025-06-04T15:57:48Z</time>
      </trkpt>
      <trkpt lat="43.64599" lon="1.38837">
        <ele>147</ele>
        <time>2025-06-04T15:57:49Z</time>
      </trkpt>
      <trkpt lat="43.64602" lon="1.38836">
        <ele>147</ele>
        <time>2025-06-04T15:57:50Z</time>
      </trkpt>
      <trkpt lat="43.64604" lon="1.38835">
        <ele>147</ele>
        <time>2025-06-04T15:57:51Z</time>
      </trkpt>
      <trkpt lat="43.64607" lon="1.38834">
        <ele>147</ele>
        <time>2025-06-04T15:57:52Z</time>
      </trkpt>
      <trkpt lat="43.64609" lon="1.38833">
        <ele>147</ele>
        <time>2025-06-04T15:57:53Z</time>
      </trkpt>
      <trkpt lat="43.64611" lon="1.38832">
        <ele>147</ele>
        <time>2025-06-04T15:57:54Z</time>
      </trkpt>
      <trkpt lat="43.64613" lon="1.38831">
        <ele>148</ele>
        <time>2025-06-04T15:57:55Z</time>
      </trkpt>
      <trkpt lat="43.64617" lon="1.38829">
        <ele>148</ele>
        <time>2025-06-04T15:57:56Z</time>
      </trkpt>
      <trkpt lat="43.64617" lon="1.38829">
        <ele>148</ele>
        <time>2025-06-04T15:57:57Z</time>
      </trkpt>
      <trkpt lat="43.6462" lon="1.38827">
        <ele>148</ele>
        <time>2025-06-04T15:57:58Z</time>
      </trkpt>
      <trkpt lat="43.64622" lon="1.38826">
        <ele>148</ele>
        <time>2025-06-04T15:57:59Z</time>
      </trkpt>
      <trkpt lat="43.64625" lon="1.38825">
        <ele>147</ele>
        <time>2025-06-04T15:58:00Z</time>
      </trkpt>
      <trkpt lat="43.64627" lon="1.38824">
        <ele>147</ele>
        <time>2025-06-04T15:58:01Z</time>
      </trkpt>
      <trkpt lat="43.6463" lon="1.38823">
        <ele>147</ele>
        <time>2025-06-04T15:58:02Z</time>
      </trkpt>
      <trkpt lat="43.64632" lon="1.38823">
        <ele>147</ele>
        <time>2025-06-04T15:58:03Z</time>
      </trkpt>
      <trkpt lat="43.64632" lon="1.38823">
        <ele>147</ele>
        <time>2025-06-04T15:58:04Z</time>
      </trkpt>
      <trkpt lat="43.64634" lon="1.38822">
        <ele>148</ele>
        <time>2025-06-04T15:58:05Z</time>
      </trkpt>
      <trkpt lat="43.64637" lon="1.38821">
        <ele>148</ele>
        <time>2025-06-04T15:58:06Z</time>
      </trkpt>
      <trkpt lat="43.6464" lon="1.38819">
        <ele>148</ele>
        <time>2025-06-04T15:58:07Z</time>
      </trkpt>
      <trkpt lat="43.64642" lon="1.38818">
        <ele>148</ele>
        <time>2025-06-04T15:58:08Z</time>
      </trkpt>
      <trkpt lat="43.64645" lon="1.38817">
        <ele>148</ele>
        <time>2025-06-04T15:58:09Z</time>
      </trkpt>
      <trkpt lat="43.64648" lon="1.38814">
        <ele>148</ele>
        <time>2025-06-04T15:58:10Z</time>
      </trkpt>
      <trkpt lat="43.64649" lon="1.38814">
        <ele>148</ele>
        <time>2025-06-04T15:58:11Z</time>
      </trkpt>
      <trkpt lat="43.64651" lon="1.38812">
        <ele>148</ele>
        <time>2025-06-04T15:58:12Z</time>
      </trkpt>
      <trkpt lat="43.64654" lon="1.38811">
        <ele>148</ele>
        <time>2025-06-04T15:58:13Z</time>
      </trkpt>
      <trkpt lat="43.64656" lon="1.38811">
        <ele>148</ele>
        <time>2025-06-04T15:58:14Z</time>
      </trkpt>
      <trkpt lat="43.64656" lon="1.38811">
        <ele>148</ele>
        <time>2025-06-04T15:58:15Z</time>
      </trkpt>
      <trkpt lat="43.64658" lon="1.3881">
        <ele>148</ele>
        <time>2025-06-04T15:58:16Z</time>
      </trkpt>
      <trkpt lat="43.6466" lon="1.3881">
        <ele>148</ele>
        <time>2025-06-04T15:58:17Z</time>
      </trkpt>
      <trkpt lat="43.64663" lon="1.3881">
        <ele>148</ele>
        <time>2025-06-04T15:58:18Z</time>
      </trkpt>
      <trkpt lat="43.64665" lon="1.38809">
        <ele>148</ele>
        <time>2025-06-04T15:58:19Z</time>
      </trkpt>
      <trkpt lat="43.64668" lon="1.38808">
        <ele>148</ele>
        <time>2025-06-04T15:58:20Z</time>
      </trkpt>
      <trkpt lat="43.64671" lon="1.38807">
        <ele>148</ele>
        <time>2025-06-04T15:58:21Z</time>
      </trkpt>
      <trkpt lat="43.64674" lon="1.38806">
        <ele>148</ele>
        <time>2025-06-04T15:58:22Z</time>
      </trkpt>
      <trkpt lat="43.64677" lon="1.38806">
        <ele>148</ele>
        <time>2025-06-04T15:58:23Z</time>
      </trkpt>
      <trkpt lat="43.6468" lon="1.38805">
        <ele>148</ele>
        <time>2025-06-04T15:58:24Z</time>
      </trkpt>
      <trkpt lat="43.64682" lon="1.38804">
        <ele>148</ele>
        <time>2025-06-04T15:58:25Z</time>
      </trkpt>
      <trkpt lat="43.64684" lon="1.38803">
        <ele>148</ele>
        <time>2025-06-04T15:58:26Z</time>
      </trkpt>
      <trkpt lat="43.64684" lon="1.38803">
        <ele>148</ele>
        <time>2025-06-04T15:58:27Z</time>
      </trkpt>
      <trkpt lat="43.64686" lon="1.38801">
        <ele>147</ele>
        <time>2025-06-04T15:58:28Z</time>
      </trkpt>
      <trkpt lat="43.64689" lon="1.38799">
        <ele>147</ele>
        <time>2025-06-04T15:58:29Z</time>
      </trkpt>
      <trkpt lat="43.64692" lon="1.38797">
        <ele>147</ele>
        <time>2025-06-04T15:58:30Z</time>
      </trkpt>
      <trkpt lat="43.64695" lon="1.38795">
        <ele>147</ele>
        <time>2025-06-04T15:58:31Z</time>
      </trkpt>
      <trkpt lat="43.64697" lon="1.38793">
        <ele>147</ele>
        <time>2025-06-04T15:58:32Z</time>
      </trkpt>
      <trkpt lat="43.64699" lon="1.38792">
        <ele>148</ele>
        <time>2025-06-04T15:58:33Z</time>
      </trkpt>
      <trkpt lat="43.64702" lon="1.38792">
        <ele>148</ele>
        <time>2025-06-04T15:58:34Z</time>
      </trkpt>
      <trkpt lat="43.64705" lon="1.38791">
        <ele>148</ele>
        <time>2025-06-04T15:58:35Z</time>
      </trkpt>
      <trkpt lat="43.64707" lon="1.3879">
        <ele>148</ele>
        <time>2025-06-04T15:58:36Z</time>
      </trkpt>
      <trkpt lat="43.64709" lon="1.38789">
        <ele>147</ele>
        <time>2025-06-04T15:58:37Z</time>
      </trkpt>
      <trkpt lat="43.64711" lon="1.38787">
        <ele>147</ele>
        <time>2025-06-04T15:58:38Z</time>
      </trkpt>
      <trkpt lat="43.64714" lon="1.38786">
        <ele>147</ele>
        <time>2025-06-04T15:58:39Z</time>
      </trkpt>
      <trkpt lat="43.64717" lon="1.38784">
        <ele>148</ele>
        <time>2025-06-04T15:58:40Z</time>
      </trkpt>
      <trkpt lat="43.64719" lon="1.38782">
        <ele>148</ele>
        <time>2025-06-04T15:58:41Z</time>
      </trkpt>
      <trkpt lat="43.64721" lon="1.38781">
        <ele>148</ele>
        <time>2025-06-04T15:58:42Z</time>
      </trkpt>
      <trkpt lat="43.64723" lon="1.38779">
        <ele>148</ele>
        <time>2025-06-04T15:58:43Z</time>
      </trkpt>
      <trkpt lat="43.64726" lon="1.38778">
        <ele>148</ele>
        <time>2025-06-04T15:58:44Z</time>
      </trkpt>
      <trkpt lat="43.64728" lon="1.38776">
        <ele>148</ele>
        <time>2025-06-04T15:58:45Z</time>
      </trkpt>
      <trkpt lat="43.6473" lon="1.38775">
        <ele>148</ele>
        <time>2025-06-04T15:58:46Z</time>
      </trkpt>
      <trkpt lat="43.64732" lon="1.38773">
        <ele>148</ele>
        <time>2025-06-04T15:58:47Z</time>
      </trkpt>
      <trkpt lat="43.64734" lon="1.38772">
        <ele>148</ele>
        <time>2025-06-04T15:58:48Z</time>
      </trkpt>
      <trkpt lat="43.64736" lon="1.38771">
        <ele>148</ele>
        <time>2025-06-04T15:58:49Z</time>
      </trkpt>
      <trkpt lat="43.64738" lon="1.3877">
        <ele>148</ele>
        <time>2025-06-04T15:58:50Z</time>
      </trkpt>
      <trkpt lat="43.6474" lon="1.38768">
        <ele>148</ele>
        <time>2025-06-04T15:58:51Z</time>
      </trkpt>
      <trkpt lat="43.64742" lon="1.38767">
        <ele>148</ele>
        <time>2025-06-04T15:58:52Z</time>
      </trkpt>
      <trkpt lat="43.64744" lon="1.38766">
        <ele>148</ele>
        <time>2025-06-04T15:58:53Z</time>
      </trkpt>
      <trkpt lat="43.64746" lon="1.38764">
        <ele>148</ele>
        <time>2025-06-04T15:58:54Z</time>
      </trkpt>
      <trkpt lat="43.64748" lon="1.38762">
        <ele>147</ele>
        <time>2025-06-04T15:58:55Z</time>
      </trkpt>
      <trkpt lat="43.6475" lon="1.3876">
        <ele>147</ele>
        <time>2025-06-04T15:58:56Z</time>
      </trkpt>
      <trkpt lat="43.64752" lon="1.38758">
        <ele>147</ele>
        <time>2025-06-04T15:58:57Z</time>
      </trkpt>
      <trkpt lat="43.64755" lon="1.38756">
        <ele>147</ele>
        <time>2025-06-04T15:58:58Z</time>
      </trkpt>
      <trkpt lat="43.64756" lon="1.38755">
        <ele>147</ele>
        <time>2025-06-04T15:58:59Z</time>
      </trkpt>
      <trkpt lat="43.64758" lon="1.38754">
        <ele>146</ele>
        <time>2025-06-04T15:59:00Z</time>
      </trkpt>
      <trkpt lat="43.6476" lon="1.38753">
        <ele>146</ele>
        <time>2025-06-04T15:59:01Z</time>
      </trkpt>
      <trkpt lat="43.6476" lon="1.38753">
        <ele>147</ele>
        <time>2025-06-04T15:59:02Z</time>
      </trkpt>
      <trkpt lat="43.64763" lon="1.38752">
        <ele>147</ele>
        <time>2025-06-04T15:59:03Z</time>
      </trkpt>
      <trkpt lat="43.64766" lon="1.3875">
        <ele>147</ele>
        <time>2025-06-04T15:59:04Z</time>
      </trkpt>
      <trkpt lat="43.64769" lon="1.38749">
        <ele>147</ele>
        <time>2025-06-04T15:59:05Z</time>
      </trkpt>
      <trkpt lat="43.64771" lon="1.38748">
        <ele>147</ele>
        <time>2025-06-04T15:59:06Z</time>
      </trkpt>
      <trkpt lat="43.64774" lon="1.38746">
        <ele>147</ele>
        <time>2025-06-04T15:59:07Z</time>
      </trkpt>
      <trkpt lat="43.64776" lon="1.38745">
        <ele>147</ele>
        <time>2025-06-04T15:59:08Z</time>
      </trkpt>
      <trkpt lat="43.64778" lon="1.38743">
        <ele>147</ele>
        <time>2025-06-04T15:59:09Z</time>
      </trkpt>
      <trkpt lat="43.64781" lon="1.38742">
        <ele>147</ele>
        <time>2025-06-04T15:59:10Z</time>
      </trkpt>
      <trkpt lat="43.64783" lon="1.3874">
        <ele>147</ele>
        <time>2025-06-04T15:59:11Z</time>
      </trkpt>
      <trkpt lat="43.64785" lon="1.38738">
        <ele>147</ele>
        <time>2025-06-04T15:59:12Z</time>
      </trkpt>
      <trkpt lat="43.64787" lon="1.38737">
        <ele>147</ele>
        <time>2025-06-04T15:59:13Z</time>
      </trkpt>
      <trkpt lat="43.6479" lon="1.38735">
        <ele>147</ele>
        <time>2025-06-04T15:59:14Z</time>
      </trkpt>
      <trkpt lat="43.64792" lon="1.38734">
        <ele>147</ele>
        <time>2025-06-04T15:59:15Z</time>
      </trkpt>
      <trkpt lat="43.64794" lon="1.38733">
        <ele>146</ele>
        <time>2025-06-04T15:59:16Z</time>
      </trkpt>
      <trkpt lat="43.64796" lon="1.38731">
        <ele>146</ele>
        <time>2025-06-04T15:59:17Z</time>
      </trkpt>
      <trkpt lat="43.64798" lon="1.38729">
        <ele>147</ele>
        <time>2025-06-04T15:59:18Z</time>
      </trkpt>
      <trkpt lat="43.648" lon="1.38727">
        <ele>147</ele>
        <time>2025-06-04T15:59:19Z</time>
      </trkpt>
      <trkpt lat="43.64802" lon="1.38725">
        <ele>147</ele>
        <time>2025-06-04T15:59:20Z</time>
      </trkpt>
      <trkpt lat="43.64805" lon="1.38724">
        <ele>147</ele>
        <time>2025-06-04T15:59:21Z</time>
      </trkpt>
      <trkpt lat="43.64807" lon="1.38723">
        <ele>147</ele>
        <time>2025-06-04T15:59:22Z</time>
      </trkpt>
      <trkpt lat="43.6481" lon="1.38721">
        <ele>147</ele>
        <time>2025-06-04T15:59:23Z</time>
      </trkpt>
      <trkpt lat="43.64812" lon="1.3872">
        <ele>147</ele>
        <time>2025-06-04T15:59:24Z</time>
      </trkpt>
      <trkpt lat="43.64814" lon="1.38718">
        <ele>147</ele>
        <time>2025-06-04T15:59:25Z</time>
      </trkpt>
      <trkpt lat="43.64816" lon="1.38716">
        <ele>147</ele>
        <time>2025-06-04T15:59:26Z</time>
      </trkpt>
      <trkpt lat="43.64818" lon="1.38714">
        <ele>147</ele>
        <time>2025-06-04T15:59:27Z</time>
      </trkpt>
      <trkpt lat="43.6482" lon="1.38712">
        <ele>147</ele>
        <time>2025-06-04T15:59:28Z</time>
      </trkpt>
      <trkpt lat="43.64822" lon="1.38711">
        <ele>147</ele>
        <time>2025-06-04T15:59:29Z</time>
      </trkpt>
      <trkpt lat="43.64823" lon="1.38709">
        <ele>147</ele>
        <time>2025-06-04T15:59:30Z</time>
      </trkpt>
      <trkpt lat="43.64825" lon="1.38707">
        <ele>147</ele>
        <time>2025-06-04T15:59:31Z</time>
      </trkpt>
      <trkpt lat="43.64827" lon="1.38705">
        <ele>147</ele>
        <time>2025-06-04T15:59:32Z</time>
      </trkpt>
      <trkpt lat="43.64829" lon="1.38703">
        <ele>148</ele>
        <time>2025-06-04T15:59:33Z</time>
      </trkpt>
      <trkpt lat="43.64829" lon="1.38703">
        <ele>148</ele>
        <time>2025-06-04T15:59:34Z</time>
      </trkpt>
      <trkpt lat="43.6483" lon="1.38703">
        <ele>148</ele>
        <time>2025-06-04T15:59:35Z</time>
      </trkpt>
      <trkpt lat="43.64832" lon="1.38702">
        <ele>148</ele>
        <time>2025-06-04T15:59:36Z</time>
      </trkpt>
      <trkpt lat="43.64834" lon="1.38701">
        <ele>147</ele>
        <time>2025-06-04T15:59:37Z</time>
      </trkpt>
      <trkpt lat="43.64837" lon="1.38699">
        <ele>147</ele>
        <time>2025-06-04T15:59:38Z</time>
      </trkpt>
      <trkpt lat="43.6484" lon="1.38697">
        <ele>147</ele>
        <time>2025-06-04T15:59:39Z</time>
      </trkpt>
      <trkpt lat="43.64843" lon="1.38695">
        <ele>147</ele>
        <time>2025-06-04T15:59:40Z</time>
      </trkpt>
      <trkpt lat="43.64843" lon="1.38695">
        <ele>147</ele>
        <time>2025-06-04T15:59:41Z</time>
      </trkpt>
      <trkpt lat="43.64849" lon="1.3869">
        <ele>147</ele>
        <time>2025-06-04T15:59:42Z</time>
      </trkpt>
      <trkpt lat="43.6485" lon="1.38689">
        <ele>147</ele>
        <time>2025-06-04T15:59:43Z</time>
      </trkpt>
      <trkpt lat="43.64852" lon="1.38687">
        <ele>147</ele>
        <time>2025-06-04T15:59:44Z</time>
      </trkpt>
      <trkpt lat="43.64854" lon="1.38686">
        <ele>147</ele>
        <time>2025-06-04T15:59:45Z</time>
      </trkpt>
      <trkpt lat="43.64854" lon="1.38686">
        <ele>147</ele>
        <time>2025-06-04T15:59:46Z</time>
      </trkpt>
      <trkpt lat="43.64856" lon="1.38684">
        <ele>147</ele>
        <time>2025-06-04T15:59:47Z</time>
      </trkpt>
      <trkpt lat="43.64858" lon="1.38683">
        <ele>147</ele>
        <time>2025-06-04T15:59:48Z</time>
      </trkpt>
      <trkpt lat="43.6486" lon="1.38681">
        <ele>147</ele>
        <time>2025-06-04T15:59:49Z</time>
      </trkpt>
      <trkpt lat="43.64862" lon="1.3868">
        <ele>147</ele>
        <time>2025-06-04T15:59:50Z</time>
      </trkpt>
      <trkpt lat="43.64864" lon="1.38679">
        <ele>147</ele>
        <time>2025-06-04T15:59:51Z</time>
      </trkpt>
      <trkpt lat="43.64866" lon="1.38677">
        <ele>147</ele>
        <time>2025-06-04T15:59:52Z</time>
      </trkpt>
      <trkpt lat="43.64868" lon="1.38676">
        <ele>147</ele>
        <time>2025-06-04T15:59:53Z</time>
      </trkpt>
      <trkpt lat="43.6487" lon="1.38674">
        <ele>147</ele>
        <time>2025-06-04T15:59:54Z</time>
      </trkpt>
      <trkpt lat="43.64874" lon="1.38673">
        <ele>147</ele>
        <time>2025-06-04T15:59:55Z</time>
      </trkpt>
      <trkpt lat="43.64874" lon="1.38673">
        <ele>147</ele>
        <time>2025-06-04T15:59:56Z</time>
      </trkpt>
      <trkpt lat="43.64877" lon="1.38671">
        <ele>147</ele>
        <time>2025-06-04T15:59:57Z</time>
      </trkpt>
      <trkpt lat="43.64879" lon="1.3867">
        <ele>147</ele>
        <time>2025-06-04T15:59:58Z</time>
      </trkpt>
      <trkpt lat="43.64882" lon="1.38669">
        <ele>147</ele>
        <time>2025-06-04T15:59:59Z</time>
      </trkpt>
      <trkpt lat="43.64884" lon="1.38668">
        <ele>147</ele>
        <time>2025-06-04T16:00:00Z</time>
      </trkpt>
      <trkpt lat="43.6489" lon="1.38664">
        <ele>147</ele>
        <time>2025-06-04T16:00:01Z</time>
      </trkpt>
      <trkpt lat="43.64891" lon="1.38663">
        <ele>147</ele>
        <time>2025-06-04T16:00:02Z</time>
      </trkpt>
      <trkpt lat="43.64893" lon="1.38661">
        <ele>147</ele>
        <time>2025-06-04T16:00:03Z</time>
      </trkpt>
      <trkpt lat="43.64895" lon="1.38659">
        <ele>147</ele>
        <time>2025-06-04T16:00:04Z</time>
      </trkpt>
      <trkpt lat="43.64898" lon="1.38658">
        <ele>147</ele>
        <time>2025-06-04T16:00:05Z</time>
      </trkpt>
      <trkpt lat="43.649" lon="1.38657">
        <ele>147</ele>
        <time>2025-06-04T16:00:06Z</time>
      </trkpt>
      <trkpt lat="43.64902" lon="1.38656">
        <ele>146</ele>
        <time>2025-06-04T16:00:07Z</time>
      </trkpt>
      <trkpt lat="43.64904" lon="1.38655">
        <ele>146</ele>
        <time>2025-06-04T16:00:08Z</time>
      </trkpt>
      <trkpt lat="43.64906" lon="1.38654">
        <ele>147</ele>
        <time>2025-06-04T16:00:09Z</time>
      </trkpt>
      <trkpt lat="43.64908" lon="1.38652">
        <ele>147</ele>
        <time>2025-06-04T16:00:10Z</time>
      </trkpt>
      <trkpt lat="43.64911" lon="1.3865">
        <ele>147</ele>
        <time>2025-06-04T16:00:11Z</time>
      </trkpt>
      <trkpt lat="43.64913" lon="1.38648">
        <ele>147</ele>
        <time>2025-06-04T16:00:12Z</time>
      </trkpt>
      <trkpt lat="43.64915" lon="1.38646">
        <ele>147</ele>
        <time>2025-06-04T16:00:13Z</time>
      </trkpt>
      <trkpt lat="43.64918" lon="1.38644">
        <ele>147</ele>
        <time>2025-06-04T16:00:14Z</time>
      </trkpt>
      <trkpt lat="43.6492" lon="1.38644">
        <ele>147</ele>
        <time>2025-06-04T16:00:15Z</time>
      </trkpt>
      <trkpt lat="43.64922" lon="1.38643">
        <ele>147</ele>
        <time>2025-06-04T16:00:16Z</time>
      </trkpt>
      <trkpt lat="43.64925" lon="1.38641">
        <ele>147</ele>
        <time>2025-06-04T16:00:17Z</time>
      </trkpt>
      <trkpt lat="43.64927" lon="1.3864">
        <ele>147</ele>
        <time>2025-06-04T16:00:18Z</time>
      </trkpt>
      <trkpt lat="43.64929" lon="1.38639">
        <ele>147</ele>
        <time>2025-06-04T16:00:19Z</time>
      </trkpt>
      <trkpt lat="43.64931" lon="1.38637">
        <ele>147</ele>
        <time>2025-06-04T16:00:20Z</time>
      </trkpt>
      <trkpt lat="43.64933" lon="1.38636">
        <ele>147</ele>
        <time>2025-06-04T16:00:21Z</time>
      </trkpt>
      <trkpt lat="43.64936" lon="1.38635">
        <ele>147</ele>
        <time>2025-06-04T16:00:22Z</time>
      </trkpt>
      <trkpt lat="43.64938" lon="1.38633">
        <ele>147</ele>
        <time>2025-06-04T16:00:23Z</time>
      </trkpt>
      <trkpt lat="43.6494" lon="1.38632">
        <ele>147</ele>
        <time>2025-06-04T16:00:24Z</time>
      </trkpt>
      <trkpt lat="43.64942" lon="1.38631">
        <ele>147</ele>
        <time>2025-06-04T16:00:25Z</time>
      </trkpt>
      <trkpt lat="43.64944" lon="1.38629">
        <ele>147</ele>
        <time>2025-06-04T16:00:26Z</time>
      </trkpt>
      <trkpt lat="43.64946" lon="1.38627">
        <ele>147</ele>
        <time>2025-06-04T16:00:27Z</time>
      </trkpt>
      <trkpt lat="43.64948" lon="1.38625">
        <ele>147</ele>
        <time>2025-06-04T16:00:28Z</time>
      </trkpt>
      <trkpt lat="43.64951" lon="1.38623">
        <ele>147</ele>
        <time>2025-06-04T16:00:29Z</time>
      </trkpt>
      <trkpt lat="43.64953" lon="1.38622">
        <ele>147</ele>
        <time>2025-06-04T16:00:30Z</time>
      </trkpt>
      <trkpt lat="43.64955" lon="1.38621">
        <ele>147</ele>
        <time>2025-06-04T16:00:31Z</time>
      </trkpt>
      <trkpt lat="43.64957" lon="1.3862">
        <ele>147</ele>
        <time>2025-06-04T16:00:32Z</time>
      </trkpt>
      <trkpt lat="43.64959" lon="1.38619">
        <ele>147</ele>
        <time>2025-06-04T16:00:33Z</time>
      </trkpt>
      <trkpt lat="43.64962" lon="1.38618">
        <ele>147</ele>
        <time>2025-06-04T16:00:34Z</time>
      </trkpt>
      <trkpt lat="43.64964" lon="1.38617">
        <ele>147</ele>
        <time>2025-06-04T16:00:35Z</time>
      </trkpt>
      <trkpt lat="43.64966" lon="1.38616">
        <ele>147</ele>
        <time>2025-06-04T16:00:36Z</time>
      </trkpt>
      <trkpt lat="43.64968" lon="1.38616">
        <ele>147</ele>
        <time>2025-06-04T16:00:37Z</time>
      </trkpt>
      <trkpt lat="43.64971" lon="1.38615">
        <ele>147</ele>
        <time>2025-06-04T16:00:38Z</time>
      </trkpt>
      <trkpt lat="43.64973" lon="1.38613">
        <ele>147</ele>
        <time>2025-06-04T16:00:39Z</time>
      </trkpt>
      <trkpt lat="43.64975" lon="1.38612">
        <ele>147</ele>
        <time>2025-06-04T16:00:40Z</time>
      </trkpt>
      <trkpt lat="43.64978" lon="1.38611">
        <ele>147</ele>
        <time>2025-06-04T16:00:41Z</time>
      </trkpt>
      <trkpt lat="43.6498" lon="1.38609">
        <ele>147</ele>
        <time>2025-06-04T16:00:42Z</time>
      </trkpt>
      <trkpt lat="43.64983" lon="1.38608">
        <ele>146</ele>
        <time>2025-06-04T16:00:43Z</time>
      </trkpt>
      <trkpt lat="43.64985" lon="1.38606">
        <ele>146</ele>
        <time>2025-06-04T16:00:44Z</time>
      </trkpt>
      <trkpt lat="43.64988" lon="1.38605">
        <ele>146</ele>
        <time>2025-06-04T16:00:45Z</time>
      </trkpt>
      <trkpt lat="43.6499" lon="1.38603">
        <ele>146</ele>
        <time>2025-06-04T16:00:46Z</time>
      </trkpt>
      <trkpt lat="43.64992" lon="1.38602">
        <ele>146</ele>
        <time>2025-06-04T16:00:47Z</time>
      </trkpt>
      <trkpt lat="43.64995" lon="1.386">
        <ele>146</ele>
        <time>2025-06-04T16:00:48Z</time>
      </trkpt>
      <trkpt lat="43.64997" lon="1.38598">
        <ele>146</ele>
        <time>2025-06-04T16:00:49Z</time>
      </trkpt>
      <trkpt lat="43.64999" lon="1.38596">
        <ele>146</ele>
        <time>2025-06-04T16:00:50Z</time>
      </trkpt>
      <trkpt lat="43.65001" lon="1.38595">
        <ele>146</ele>
        <time>2025-06-04T16:00:51Z</time>
      </trkpt>
      <trkpt lat="43.65003" lon="1.38593">
        <ele>146</ele>
        <time>2025-06-04T16:00:52Z</time>
      </trkpt>
      <trkpt lat="43.65006" lon="1.38592">
        <ele>146</ele>
        <time>2025-06-04T16:00:53Z</time>
      </trkpt>
      <trkpt lat="43.65008" lon="1.3859">
        <ele>146</ele>
        <time>2025-06-04T16:00:54Z</time>
      </trkpt>
      <trkpt lat="43.65009" lon="1.38589">
        <ele>146</ele>
        <time>2025-06-04T16:00:55Z</time>
      </trkpt>
      <trkpt lat="43.65012" lon="1.38588">
        <ele>146</ele>
        <time>2025-06-04T16:00:56Z</time>
      </trkpt>
      <trkpt lat="43.65013" lon="1.38586">
        <ele>146</ele>
        <time>2025-06-04T16:00:57Z</time>
      </trkpt>
      <trkpt lat="43.65015" lon="1.38585">
        <ele>146</ele>
        <time>2025-06-04T16:00:58Z</time>
      </trkpt>
      <trkpt lat="43.65017" lon="1.38584">
        <ele>146</ele>
        <time>2025-06-04T16:00:59Z</time>
      </trkpt>
      <trkpt lat="43.6502" lon="1.38583">
        <ele>146</ele>
        <time>2025-06-04T16:01:00Z</time>
      </trkpt>
      <trkpt lat="43.65022" lon="1.38582">
        <ele>146</ele>
        <time>2025-06-04T16:01:01Z</time>
      </trkpt>
      <trkpt lat="43.65024" lon="1.38581">
        <ele>146</ele>
        <time>2025-06-04T16:01:02Z</time>
      </trkpt>
      <trkpt lat="43.65027" lon="1.3858">
        <ele>146</ele>
        <time>2025-06-04T16:01:03Z</time>
      </trkpt>
      <trkpt lat="43.65029" lon="1.38578">
        <ele>146</ele>
        <time>2025-06-04T16:01:04Z</time>
      </trkpt>
      <trkpt lat="43.65032" lon="1.38577">
        <ele>146</ele>
        <time>2025-06-04T16:01:05Z</time>
      </trkpt>
      <trkpt lat="43.65034" lon="1.38575">
        <ele>146</ele>
        <time>2025-06-04T16:01:06Z</time>
      </trkpt>
      <trkpt lat="43.65036" lon="1.38574">
        <ele>146</ele>
        <time>2025-06-04T16:01:07Z</time>
      </trkpt>
      <trkpt lat="43.65039" lon="1.38573">
        <ele>146</ele>
        <time>2025-06-04T16:01:08Z</time>
      </trkpt>
      <trkpt lat="43.65041" lon="1.38571">
        <ele>146</ele>
        <time>2025-06-04T16:01:09Z</time>
      </trkpt>
      <trkpt lat="43.65043" lon="1.3857">
        <ele>146</ele>
        <time>2025-06-04T16:01:10Z</time>
      </trkpt>
      <trkpt lat="43.65045" lon="1.38568">
        <ele>146</ele>
        <time>2025-06-04T16:01:11Z</time>
      </trkpt>
      <trkpt lat="43.65047" lon="1.38566">
        <ele>146</ele>
        <time>2025-06-04T16:01:12Z</time>
      </trkpt>
      <trkpt lat="43.6505" lon="1.38564">
        <ele>146</ele>
        <time>2025-06-04T16:01:13Z</time>
      </trkpt>
      <trkpt lat="43.65052" lon="1.38563">
        <ele>146</ele>
        <time>2025-06-04T16:01:14Z</time>
      </trkpt>
      <trkpt lat="43.65053" lon="1.38562">
        <ele>146</ele>
        <time>2025-06-04T16:01:15Z</time>
      </trkpt>
      <trkpt lat="43.65055" lon="1.38561">
        <ele>146</ele>
        <time>2025-06-04T16:01:16Z</time>
      </trkpt>
      <trkpt lat="43.65058" lon="1.38559">
        <ele>146</ele>
        <time>2025-06-04T16:01:17Z</time>
      </trkpt>
      <trkpt lat="43.6506" lon="1.38558">
        <ele>146</ele>
        <time>2025-06-04T16:01:18Z</time>
      </trkpt>
      <trkpt lat="43.65062" lon="1.38557">
        <ele>146</ele>
        <time>2025-06-04T16:01:19Z</time>
      </trkpt>
      <trkpt lat="43.65064" lon="1.38555">
        <ele>146</ele>
        <time>2025-06-04T16:01:20Z</time>
      </trkpt>
      <trkpt lat="43.65066" lon="1.38554">
        <ele>146</ele>
        <time>2025-06-04T16:01:21Z</time>
      </trkpt>
      <trkpt lat="43.65068" lon="1.38553">
        <ele>146</ele>
        <time>2025-06-04T16:01:22Z</time>
      </trkpt>
      <trkpt lat="43.6507" lon="1.38552">
        <ele>146</ele>
        <time>2025-06-04T16:01:23Z</time>
      </trkpt>
      <trkpt lat="43.65073" lon="1.3855">
        <ele>146</ele>
        <time>2025-06-04T16:01:24Z</time>
      </trkpt>
      <trkpt lat="43.65075" lon="1.38549">
        <ele>146</ele>
        <time>2025-06-04T16:01:25Z</time>
      </trkpt>
      <trkpt lat="43.65078" lon="1.38548">
        <ele>147</ele>
        <time>2025-06-04T16:01:26Z</time>
      </trkpt>
      <trkpt lat="43.6508" lon="1.38547">
        <ele>147</ele>
        <time>2025-06-04T16:01:27Z</time>
      </trkpt>
      <trkpt lat="43.65083" lon="1.38546">
        <ele>146</ele>
        <time>2025-06-04T16:01:28Z</time>
      </trkpt>
      <trkpt lat="43.65086" lon="1.38545">
        <ele>146</ele>
        <time>2025-06-04T16:01:29Z</time>
      </trkpt>
      <trkpt lat="43.65088" lon="1.38544">
        <ele>146</ele>
        <time>2025-06-04T16:01:30Z</time>
      </trkpt>
      <trkpt lat="43.6509" lon="1.38542">
        <ele>146</ele>
        <time>2025-06-04T16:01:31Z</time>
      </trkpt>
      <trkpt lat="43.65092" lon="1.3854">
        <ele>146</ele>
        <time>2025-06-04T16:01:32Z</time>
      </trkpt>
      <trkpt lat="43.65095" lon="1.38538">
        <ele>146</ele>
        <time>2025-06-04T16:01:33Z</time>
      </trkpt>
      <trkpt lat="43.65096" lon="1.38535">
        <ele>146</ele>
        <time>2025-06-04T16:01:34Z</time>
      </trkpt>
      <trkpt lat="43.65097" lon="1.38532">
        <ele>146</ele>
        <time>2025-06-04T16:01:35Z</time>
      </trkpt>
      <trkpt lat="43.65098" lon="1.38529">
        <ele>146</ele>
        <time>2025-06-04T16:01:36Z</time>
      </trkpt>
      <trkpt lat="43.65099" lon="1.38526">
        <ele>146</ele>
        <time>2025-06-04T16:01:37Z</time>
      </trkpt>
      <trkpt lat="43.65099" lon="1.38522">
        <ele>146</ele>
        <time>2025-06-04T16:01:38Z</time>
      </trkpt>
      <trkpt lat="43.651" lon="1.38519">
        <ele>146</ele>
        <time>2025-06-04T16:01:39Z</time>
      </trkpt>
      <trkpt lat="43.65102" lon="1.38515">
        <ele>146</ele>
        <time>2025-06-04T16:01:40Z</time>
      </trkpt>
      <trkpt lat="43.65103" lon="1.38513">
        <ele>146</ele>
        <time>2025-06-04T16:01:41Z</time>
      </trkpt>
      <trkpt lat="43.65103" lon="1.3851">
        <ele>146</ele>
        <time>2025-06-04T16:01:42Z</time>
      </trkpt>
      <trkpt lat="43.65102" lon="1.38507">
        <ele>146</ele>
        <time>2025-06-04T16:01:43Z</time>
      </trkpt>
      <trkpt lat="43.65101" lon="1.38504">
        <ele>146</ele>
        <time>2025-06-04T16:01:44Z</time>
      </trkpt>
      <trkpt lat="43.651" lon="1.38501">
        <ele>146</ele>
        <time>2025-06-04T16:01:45Z</time>
      </trkpt>
      <trkpt lat="43.65099" lon="1.38498">
        <ele>146</ele>
        <time>2025-06-04T16:01:46Z</time>
      </trkpt>
      <trkpt lat="43.65098" lon="1.38495">
        <ele>146</ele>
        <time>2025-06-04T16:01:47Z</time>
      </trkpt>
      <trkpt lat="43.65096" lon="1.38492">
        <ele>146</ele>
        <time>2025-06-04T16:01:48Z</time>
      </trkpt>
      <trkpt lat="43.65095" lon="1.3849">
        <ele>146</ele>
        <time>2025-06-04T16:01:49Z</time>
      </trkpt>
      <trkpt lat="43.65093" lon="1.38487">
        <ele>146</ele>
        <time>2025-06-04T16:01:50Z</time>
      </trkpt>
      <trkpt lat="43.65092" lon="1.38484">
        <ele>146</ele>
        <time>2025-06-04T16:01:51Z</time>
      </trkpt>
      <trkpt lat="43.65091" lon="1.38482">
        <ele>146</ele>
        <time>2025-06-04T16:01:52Z</time>
      </trkpt>
      <trkpt lat="43.6509" lon="1.38479">
        <ele>146</ele>
        <time>2025-06-04T16:01:53Z</time>
      </trkpt>
      <trkpt lat="43.65089" lon="1.38476">
        <ele>146</ele>
        <time>2025-06-04T16:01:54Z</time>
      </trkpt>
      <trkpt lat="43.65088" lon="1.38472">
        <ele>146</ele>
        <time>2025-06-04T16:01:55Z</time>
      </trkpt>
      <trkpt lat="43.65087" lon="1.3847">
        <ele>146</ele>
        <time>2025-06-04T16:01:56Z</time>
      </trkpt>
      <trkpt lat="43.65086" lon="1.38467">
        <ele>146</ele>
        <time>2025-06-04T16:01:57Z</time>
      </trkpt>
      <trkpt lat="43.65084" lon="1.38464">
        <ele>146</ele>
        <time>2025-06-04T16:01:58Z</time>
      </trkpt>
      <trkpt lat="43.65083" lon="1.38461">
        <ele>146</ele>
        <time>2025-06-04T16:01:59Z</time>
      </trkpt>
      <trkpt lat="43.65082" lon="1.38458">
        <ele>146</ele>
        <time>2025-06-04T16:02:00Z</time>
      </trkpt>
      <trkpt lat="43.65081" lon="1.38455">
        <ele>146</ele>
        <time>2025-06-04T16:02:01Z</time>
      </trkpt>
      <trkpt lat="43.6508" lon="1.38451">
        <ele>147</ele>
        <time>2025-06-04T16:02:02Z</time>
      </trkpt>
      <trkpt lat="43.6508" lon="1.38449">
        <ele>147</ele>
        <time>2025-06-04T16:02:03Z</time>
      </trkpt>
      <trkpt lat="43.65079" lon="1.38446">
        <ele>147</ele>
        <time>2025-06-04T16:02:04Z</time>
      </trkpt>
      <trkpt lat="43.65078" lon="1.38443">
        <ele>147</ele>
        <time>2025-06-04T16:02:05Z</time>
      </trkpt>
      <trkpt lat="43.65077" lon="1.38439">
        <ele>147</ele>
        <time>2025-06-04T16:02:06Z</time>
      </trkpt>
      <trkpt lat="43.65076" lon="1.38436">
        <ele>147</ele>
        <time>2025-06-04T16:02:07Z</time>
      </trkpt>
      <trkpt lat="43.65075" lon="1.38433">
        <ele>147</ele>
        <time>2025-06-04T16:02:08Z</time>
      </trkpt>
      <trkpt lat="43.65073" lon="1.3843">
        <ele>147</ele>
        <time>2025-06-04T16:02:09Z</time>
      </trkpt>
      <trkpt lat="43.65073" lon="1.38427">
        <ele>147</ele>
        <time>2025-06-04T16:02:10Z</time>
      </trkpt>
      <trkpt lat="43.65071" lon="1.38424">
        <ele>147</ele>
        <time>2025-06-04T16:02:11Z</time>
      </trkpt>
      <trkpt lat="43.6507" lon="1.38421">
        <ele>147</ele>
        <time>2025-06-04T16:02:12Z</time>
      </trkpt>
      <trkpt lat="43.6507" lon="1.38418">
        <ele>146</ele>
        <time>2025-06-04T16:02:13Z</time>
      </trkpt>
      <trkpt lat="43.65069" lon="1.38415">
        <ele>146</ele>
        <time>2025-06-04T16:02:14Z</time>
      </trkpt>
      <trkpt lat="43.65068" lon="1.38412">
        <ele>146</ele>
        <time>2025-06-04T16:02:15Z</time>
      </trkpt>
      <trkpt lat="43.65066" lon="1.3841">
        <ele>146</ele>
        <time>2025-06-04T16:02:16Z</time>
      </trkpt>
      <trkpt lat="43.65066" lon="1.38407">
        <ele>146</ele>
        <time>2025-06-04T16:02:17Z</time>
      </trkpt>
      <trkpt lat="43.65065" lon="1.38404">
        <ele>146</ele>
        <time>2025-06-04T16:02:18Z</time>
      </trkpt>
      <trkpt lat="43.65064" lon="1.384">
        <ele>146</ele>
        <time>2025-06-04T16:02:19Z</time>
      </trkpt>
      <trkpt lat="43.65063" lon="1.38397">
        <ele>146</ele>
        <time>2025-06-04T16:02:20Z</time>
      </trkpt>
      <trkpt lat="43.65062" lon="1.38394">
        <ele>146</ele>
        <time>2025-06-04T16:02:21Z</time>
      </trkpt>
      <trkpt lat="43.65061" lon="1.38391">
        <ele>146</ele>
        <time>2025-06-04T16:02:22Z</time>
      </trkpt>
      <trkpt lat="43.6506" lon="1.38388">
        <ele>146</ele>
        <time>2025-06-04T16:02:23Z</time>
      </trkpt>
      <trkpt lat="43.6506" lon="1.38385">
        <ele>147</ele>
        <time>2025-06-04T16:02:24Z</time>
      </trkpt>
      <trkpt lat="43.65059" lon="1.38382">
        <ele>147</ele>
        <time>2025-06-04T16:02:25Z</time>
      </trkpt>
      <trkpt lat="43.65058" lon="1.38378">
        <ele>147</ele>
        <time>2025-06-04T16:02:26Z</time>
      </trkpt>
      <trkpt lat="43.65057" lon="1.38375">
        <ele>147</ele>
        <time>2025-06-04T16:02:27Z</time>
      </trkpt>
      <trkpt lat="43.65056" lon="1.38371">
        <ele>147</ele>
        <time>2025-06-04T16:02:28Z</time>
      </trkpt>
      <trkpt lat="43.65056" lon="1.38368">
        <ele>147</ele>
        <time>2025-06-04T16:02:29Z</time>
      </trkpt>
      <trkpt lat="43.65055" lon="1.38364">
        <ele>147</ele>
        <time>2025-06-04T16:02:30Z</time>
      </trkpt>
      <trkpt lat="43.65054" lon="1.38361">
        <ele>147</ele>
        <time>2025-06-04T16:02:31Z</time>
      </trkpt>
      <trkpt lat="43.65054" lon="1.38361">
        <ele>147</ele>
        <time>2025-06-04T16:02:32Z</time>
      </trkpt>
    </trkseg>
  </trk>
</gpx>